<?xml version='1.0' encoding='UTF-8'?><gpx version="1.1" creator="JPX - https://github.com/jenetics/jpx" xmlns="http://www.topografix.com/GPX/1/1"><trk><trkseg><trkpt lat="43.8040168" lon="11.1131011"><ele>37.0</ele><time>2026-04-11T06:38:29.313Z</time></trkpt><trkpt lat="43.8040183" lon="11.1130119"><ele>37.0</ele><time>2026-04-11T06:44:15.974Z</time></trkpt><trkpt lat="43.8039818" lon="11.1129306"><ele>37.0</ele><time>2026-04-11T06:44:18.97Z</time></trkpt><trkpt lat="43.8038667" lon="11.11269"><ele>37.0</ele><time>2026-04-11T06:44:22.965Z</time></trkpt><trkpt lat="43.8037949" lon="11.1125511"><ele>37.0</ele><time>2026-04-11T06:44:23.954Z</time></trkpt><trkpt lat="43.8037479" lon="11.11248"><ele>37.0</ele><time>2026-04-11T06:44:24.965Z</time></trkpt><trkpt lat="43.803667" lon="11.1123643"><ele>37.0</ele><time>2026-04-11T06:44:26.952Z</time></trkpt><trkpt lat="43.803601" lon="11.1122576"><ele>37.0</ele><time>2026-04-11T06:44:28.956Z</time></trkpt><trkpt lat="43.8035325" lon="11.1121377"><ele>37.0</ele><time>2026-04-11T06:44:30.962Z</time></trkpt><trkpt lat="43.8034906" lon="11.1120679"><ele>37.142857142857146</ele><time>2026-04-11T06:44:31.956Z</time></trkpt><trkpt lat="43.8034377" lon="11.1119879"><ele>37.285714285714285</ele><time>2026-04-11T06:44:32.964Z</time></trkpt><trkpt lat="43.8033785" lon="11.1119089"><ele>37.42857142857143</ele><time>2026-04-11T06:44:33.96Z</time></trkpt><trkpt lat="43.8033214" lon="11.1118334"><ele>37.57142857142857</ele><time>2026-04-11T06:44:34.965Z</time></trkpt><trkpt lat="43.8032671" lon="11.1117639"><ele>37.714285714285715</ele><time>2026-04-11T06:44:35.977Z</time></trkpt><trkpt lat="43.8032195" lon="11.1116977"><ele>37.857142857142854</ele><time>2026-04-11T06:44:36.973Z</time></trkpt><trkpt lat="43.8031751" lon="11.1116348"><ele>38.0</ele><time>2026-04-11T06:44:37.968Z</time></trkpt><trkpt lat="43.8030975" lon="11.1115237"><ele>38.0</ele><time>2026-04-11T06:44:39.966Z</time></trkpt><trkpt lat="43.8030177" lon="11.1114177"><ele>38.0</ele><time>2026-04-11T06:44:41.961Z</time></trkpt><trkpt lat="43.8029697" lon="11.1113552"><ele>38.0</ele><time>2026-04-11T06:44:42.972Z</time></trkpt><trkpt lat="43.8029083" lon="11.1112758"><ele>38.0</ele><time>2026-04-11T06:44:43.976Z</time></trkpt><trkpt lat="43.8028446" lon="11.1111799"><ele>38.0</ele><time>2026-04-11T06:44:44.973Z</time></trkpt><trkpt lat="43.8027762" lon="11.1110791"><ele>38.0</ele><time>2026-04-11T06:44:45.978Z</time></trkpt><trkpt lat="43.802706" lon="11.1109782"><ele>38.0</ele><time>2026-04-11T06:44:46.962Z</time></trkpt><trkpt lat="43.8026338" lon="11.1108779"><ele>38.0</ele><time>2026-04-11T06:44:47.97Z</time></trkpt><trkpt lat="43.8025616" lon="11.110774"><ele>38.0</ele><time>2026-04-11T06:44:48.966Z</time></trkpt><trkpt lat="43.8024944" lon="11.1106698"><ele>38.0</ele><time>2026-04-11T06:44:49.961Z</time></trkpt><trkpt lat="43.8024319" lon="11.1105646"><ele>38.599999999999994</ele><time>2026-04-11T06:44:50.957Z</time></trkpt><trkpt lat="43.802369" lon="11.110462"><ele>39.199999999999996</ele><time>2026-04-11T06:44:51.955Z</time></trkpt><trkpt lat="43.8023078" lon="11.1103633"><ele>39.8</ele><time>2026-04-11T06:44:52.959Z</time></trkpt><trkpt lat="43.8022468" lon="11.1102684"><ele>40.4</ele><time>2026-04-11T06:44:53.953Z</time></trkpt><trkpt lat="43.802185" lon="11.1101724"><ele>41.0</ele><time>2026-04-11T06:44:54.966Z</time></trkpt><trkpt lat="43.8021249" lon="11.1100783"><ele>41.0</ele><time>2026-04-11T06:44:55.964Z</time></trkpt><trkpt lat="43.8020639" lon="11.1099815"><ele>41.0</ele><time>2026-04-11T06:44:56.961Z</time></trkpt><trkpt lat="43.8020029" lon="11.1098823"><ele>41.0</ele><time>2026-04-11T06:44:57.969Z</time></trkpt><trkpt lat="43.8019404" lon="11.1097789"><ele>41.0</ele><time>2026-04-11T06:44:58.965Z</time></trkpt><trkpt lat="43.8018758" lon="11.1096742"><ele>41.0</ele><time>2026-04-11T06:44:59.962Z</time></trkpt><trkpt lat="43.8018096" lon="11.1095689"><ele>41.199999999999996</ele><time>2026-04-11T06:45:00.957Z</time></trkpt><trkpt lat="43.801739" lon="11.1094631"><ele>41.4</ele><time>2026-04-11T06:45:01.961Z</time></trkpt><trkpt lat="43.8016697" lon="11.1093579"><ele>41.6</ele><time>2026-04-11T06:45:02.962Z</time></trkpt><trkpt lat="43.8016004" lon="11.1092543"><ele>41.8</ele><time>2026-04-11T06:45:03.967Z</time></trkpt><trkpt lat="43.8015319" lon="11.109153"><ele>42.0</ele><time>2026-04-11T06:45:04.962Z</time></trkpt><trkpt lat="43.8014602" lon="11.1090514"><ele>42.0</ele><time>2026-04-11T06:45:05.959Z</time></trkpt><trkpt lat="43.8013888" lon="11.1089457"><ele>42.0</ele><time>2026-04-11T06:45:06.955Z</time></trkpt><trkpt lat="43.80132" lon="11.1088413"><ele>42.0</ele><time>2026-04-11T06:45:07.959Z</time></trkpt><trkpt lat="43.8012515" lon="11.1087382"><ele>42.0</ele><time>2026-04-11T06:45:08.961Z</time></trkpt><trkpt lat="43.8011858" lon="11.1086318"><ele>42.0</ele><time>2026-04-11T06:45:09.954Z</time></trkpt><trkpt lat="43.8011218" lon="11.1085268"><ele>42.0</ele><time>2026-04-11T06:45:10.96Z</time></trkpt><trkpt lat="43.8010622" lon="11.10842"><ele>42.0</ele><time>2026-04-11T06:45:11.963Z</time></trkpt><trkpt lat="43.8010013" lon="11.1083089"><ele>42.0</ele><time>2026-04-11T06:45:12.959Z</time></trkpt><trkpt lat="43.8009343" lon="11.1081959"><ele>42.0</ele><time>2026-04-11T06:45:13.965Z</time></trkpt><trkpt lat="43.8008645" lon="11.1080804"><ele>42.0</ele><time>2026-04-11T06:45:14.976Z</time></trkpt><trkpt lat="43.8007943" lon="11.1079668"><ele>41.5</ele><time>2026-04-11T06:45:15.949Z</time></trkpt><trkpt lat="43.8007206" lon="11.107851"><ele>41.0</ele><time>2026-04-11T06:45:16.96Z</time></trkpt><trkpt lat="43.8006462" lon="11.1077365"><ele>40.5</ele><time>2026-04-11T06:45:17.951Z</time></trkpt><trkpt lat="43.8005699" lon="11.1076188"><ele>40.0</ele><time>2026-04-11T06:45:18.956Z</time></trkpt><trkpt lat="43.8004952" lon="11.1074992"><ele>39.75</ele><time>2026-04-11T06:45:19.968Z</time></trkpt><trkpt lat="43.8004181" lon="11.10738"><ele>39.5</ele><time>2026-04-11T06:45:20.965Z</time></trkpt><trkpt lat="43.8003414" lon="11.1072603"><ele>39.25</ele><time>2026-04-11T06:45:21.962Z</time></trkpt><trkpt lat="43.8002609" lon="11.1071439"><ele>39.0</ele><time>2026-04-11T06:45:22.968Z</time></trkpt><trkpt lat="43.8001811" lon="11.1070319"><ele>38.8</ele><time>2026-04-11T06:45:23.97Z</time></trkpt><trkpt lat="43.800109" lon="11.1069244"><ele>38.599999999999994</ele><time>2026-04-11T06:45:24.967Z</time></trkpt><trkpt lat="43.8000445" lon="11.1068173"><ele>38.4</ele><time>2026-04-11T06:45:25.969Z</time></trkpt><trkpt lat="43.7999768" lon="11.1067109"><ele>38.199999999999996</ele><time>2026-04-11T06:45:26.961Z</time></trkpt><trkpt lat="43.799906" lon="11.1066107"><ele>38.0</ele><time>2026-04-11T06:45:27.955Z</time></trkpt><trkpt lat="43.7998343" lon="11.1065063"><ele>38.4</ele><time>2026-04-11T06:45:28.959Z</time></trkpt><trkpt lat="43.799761" lon="11.1064016"><ele>38.8</ele><time>2026-04-11T06:45:29.955Z</time></trkpt><trkpt lat="43.7996838" lon="11.1062946"><ele>39.2</ele><time>2026-04-11T06:45:30.954Z</time></trkpt><trkpt lat="43.7996074" lon="11.1061853"><ele>39.6</ele><time>2026-04-11T06:45:31.952Z</time></trkpt><trkpt lat="43.7995324" lon="11.1060735"><ele>40.0</ele><time>2026-04-11T06:45:32.957Z</time></trkpt><trkpt lat="43.799459" lon="11.1059536"><ele>40.0</ele><time>2026-04-11T06:45:33.949Z</time></trkpt><trkpt lat="43.7993899" lon="11.1058269"><ele>40.0</ele><time>2026-04-11T06:45:34.959Z</time></trkpt><trkpt lat="43.799325" lon="11.1056957"><ele>40.0</ele><time>2026-04-11T06:45:35.958Z</time></trkpt><trkpt lat="43.7992655" lon="11.1055594"><ele>40.0</ele><time>2026-04-11T06:45:36.954Z</time></trkpt><trkpt lat="43.7992145" lon="11.1054121"><ele>39.75</ele><time>2026-04-11T06:45:37.954Z</time></trkpt><trkpt lat="43.7991628" lon="11.1052687"><ele>39.5</ele><time>2026-04-11T06:45:38.959Z</time></trkpt><trkpt lat="43.7991135" lon="11.1051243"><ele>39.25</ele><time>2026-04-11T06:45:39.957Z</time></trkpt><trkpt lat="43.79906" lon="11.1049799"><ele>39.0</ele><time>2026-04-11T06:45:40.957Z</time></trkpt><trkpt lat="43.7990093" lon="11.1048311"><ele>39.0</ele><time>2026-04-11T06:45:41.955Z</time></trkpt><trkpt lat="43.7989587" lon="11.1046791"><ele>39.0</ele><time>2026-04-11T06:45:42.958Z</time></trkpt><trkpt lat="43.798901" lon="11.1045253"><ele>39.0</ele><time>2026-04-11T06:45:43.962Z</time></trkpt><trkpt lat="43.7988395" lon="11.1043698"><ele>39.0</ele><time>2026-04-11T06:45:44.952Z</time></trkpt><trkpt lat="43.7987751" lon="11.104214"><ele>39.0</ele><time>2026-04-11T06:45:45.966Z</time></trkpt><trkpt lat="43.7987012" lon="11.1040611"><ele>39.0</ele><time>2026-04-11T06:45:46.955Z</time></trkpt><trkpt lat="43.7986211" lon="11.103905"><ele>39.0</ele><time>2026-04-11T06:45:47.952Z</time></trkpt><trkpt lat="43.798538" lon="11.1037552"><ele>39.0</ele><time>2026-04-11T06:45:48.958Z</time></trkpt><trkpt lat="43.7984533" lon="11.1036096"><ele>39.25</ele><time>2026-04-11T06:45:49.961Z</time></trkpt><trkpt lat="43.7983686" lon="11.1034692"><ele>39.5</ele><time>2026-04-11T06:45:50.961Z</time></trkpt><trkpt lat="43.798278" lon="11.1033313"><ele>39.75</ele><time>2026-04-11T06:45:51.961Z</time></trkpt><trkpt lat="43.7981879" lon="11.1032041"><ele>40.0</ele><time>2026-04-11T06:45:52.967Z</time></trkpt><trkpt lat="43.7981054" lon="11.1030918"><ele>40.0</ele><time>2026-04-11T06:45:53.954Z</time></trkpt><trkpt lat="43.7980236" lon="11.1029914"><ele>40.0</ele><time>2026-04-11T06:45:54.962Z</time></trkpt><trkpt lat="43.7979418" lon="11.1028915"><ele>40.0</ele><time>2026-04-11T06:45:55.963Z</time></trkpt><trkpt lat="43.797861" lon="11.102788"><ele>40.0</ele><time>2026-04-11T06:45:56.956Z</time></trkpt><trkpt lat="43.7977813" lon="11.1026881"><ele>40.0</ele><time>2026-04-11T06:45:57.971Z</time></trkpt><trkpt lat="43.797702" lon="11.1025931"><ele>40.2</ele><time>2026-04-11T06:45:58.968Z</time></trkpt><trkpt lat="43.7976192" lon="11.1025004"><ele>40.4</ele><time>2026-04-11T06:45:59.956Z</time></trkpt><trkpt lat="43.7975291" lon="11.1024144"><ele>40.599999999999994</ele><time>2026-04-11T06:46:00.96Z</time></trkpt><trkpt lat="43.7974336" lon="11.1023291"><ele>40.8</ele><time>2026-04-11T06:46:01.97Z</time></trkpt><trkpt lat="43.7973396" lon="11.1022487"><ele>41.0</ele><time>2026-04-11T06:46:02.961Z</time></trkpt><trkpt lat="43.7972444" lon="11.1021656"><ele>40.599999999999994</ele><time>2026-04-11T06:46:03.966Z</time></trkpt><trkpt lat="43.7971545" lon="11.1020897"><ele>40.199999999999996</ele><time>2026-04-11T06:46:04.972Z</time></trkpt><trkpt lat="43.7970622" lon="11.1020202"><ele>39.8</ele><time>2026-04-11T06:46:05.973Z</time></trkpt><trkpt lat="43.7969673" lon="11.1019528"><ele>39.4</ele><time>2026-04-11T06:46:06.967Z</time></trkpt><trkpt lat="43.7968683" lon="11.1018892"><ele>39.0</ele><time>2026-04-11T06:46:07.961Z</time></trkpt><trkpt lat="43.7967674" lon="11.1018303"><ele>39.0</ele><time>2026-04-11T06:46:08.956Z</time></trkpt><trkpt lat="43.7966708" lon="11.1017802"><ele>39.0</ele><time>2026-04-11T06:46:09.959Z</time></trkpt><trkpt lat="43.7965787" lon="11.1017333"><ele>39.0</ele><time>2026-04-11T06:46:10.958Z</time></trkpt><trkpt lat="43.796495" lon="11.101677"><ele>39.0</ele><time>2026-04-11T06:46:11.954Z</time></trkpt><trkpt lat="43.7964197" lon="11.1016124"><ele>39.0</ele><time>2026-04-11T06:46:12.956Z</time></trkpt><trkpt lat="43.7963569" lon="11.1015453"><ele>38.4</ele><time>2026-04-11T06:46:13.957Z</time></trkpt><trkpt lat="43.7963291" lon="11.1014612"><ele>37.8</ele><time>2026-04-11T06:46:14.954Z</time></trkpt><trkpt lat="43.7963562" lon="11.1013503"><ele>37.2</ele><time>2026-04-11T06:46:15.965Z</time></trkpt><trkpt lat="43.7964125" lon="11.101214"><ele>36.6</ele><time>2026-04-11T06:46:16.966Z</time></trkpt><trkpt lat="43.7964751" lon="11.1010637"><ele>36.0</ele><time>2026-04-11T06:46:17.954Z</time></trkpt><trkpt lat="43.7965414" lon="11.1009073"><ele>35.25</ele><time>2026-04-11T06:46:18.957Z</time></trkpt><trkpt lat="43.7966085" lon="11.1007376"><ele>34.5</ele><time>2026-04-11T06:46:19.958Z</time></trkpt><trkpt lat="43.7966717" lon="11.1005495"><ele>33.75</ele><time>2026-04-11T06:46:20.957Z</time></trkpt><trkpt lat="43.7967156" lon="11.1003623"><ele>33.0</ele><time>2026-04-11T06:46:21.962Z</time></trkpt><trkpt lat="43.7967293" lon="11.1001925"><ele>33.0</ele><time>2026-04-11T06:46:22.956Z</time></trkpt><trkpt lat="43.7967158" lon="11.1000267"><ele>33.0</ele><time>2026-04-11T06:46:23.951Z</time></trkpt><trkpt lat="43.7966866" lon="11.0998663"><ele>33.0</ele><time>2026-04-11T06:46:24.951Z</time></trkpt><trkpt lat="43.7966423" lon="11.0997143"><ele>33.0</ele><time>2026-04-11T06:46:25.953Z</time></trkpt><trkpt lat="43.79658" lon="11.0995731"><ele>33.0</ele><time>2026-04-11T06:46:26.954Z</time></trkpt><trkpt lat="43.7965058" lon="11.099429"><ele>33.0</ele><time>2026-04-11T06:46:27.962Z</time></trkpt><trkpt lat="43.7964222" lon="11.0992859"><ele>33.0</ele><time>2026-04-11T06:46:28.961Z</time></trkpt><trkpt lat="43.7963371" lon="11.0991444"><ele>33.0</ele><time>2026-04-11T06:46:29.96Z</time></trkpt><trkpt lat="43.7962529" lon="11.0990017"><ele>33.0</ele><time>2026-04-11T06:46:30.971Z</time></trkpt><trkpt lat="43.7961678" lon="11.09886"><ele>33.0</ele><time>2026-04-11T06:46:31.96Z</time></trkpt><trkpt lat="43.7960824" lon="11.0987121"><ele>33.0</ele><time>2026-04-11T06:46:32.963Z</time></trkpt><trkpt lat="43.7960009" lon="11.098558"><ele>33.0</ele><time>2026-04-11T06:46:33.959Z</time></trkpt><trkpt lat="43.7959189" lon="11.0984045"><ele>33.5</ele><time>2026-04-11T06:46:34.96Z</time></trkpt><trkpt lat="43.7958367" lon="11.0982459"><ele>34.0</ele><time>2026-04-11T06:46:35.973Z</time></trkpt><trkpt lat="43.7957525" lon="11.0980783"><ele>34.5</ele><time>2026-04-11T06:46:36.962Z</time></trkpt><trkpt lat="43.7956682" lon="11.097913"><ele>35.0</ele><time>2026-04-11T06:46:37.96Z</time></trkpt><trkpt lat="43.7955871" lon="11.0977541"><ele>35.0</ele><time>2026-04-11T06:46:38.971Z</time></trkpt><trkpt lat="43.7955046" lon="11.0975899"><ele>35.0</ele><time>2026-04-11T06:46:39.96Z</time></trkpt><trkpt lat="43.7954329" lon="11.0974366"><ele>35.0</ele><time>2026-04-11T06:46:40.963Z</time></trkpt><trkpt lat="43.7953618" lon="11.0972891"><ele>35.0</ele><time>2026-04-11T06:46:41.96Z</time></trkpt><trkpt lat="43.7952967" lon="11.0971598"><ele>35.0</ele><time>2026-04-11T06:46:42.958Z</time></trkpt><trkpt lat="43.7952357" lon="11.0970365"><ele>35.0</ele><time>2026-04-11T06:46:43.959Z</time></trkpt><trkpt lat="43.7951896" lon="11.0969185"><ele>35.0</ele><time>2026-04-11T06:46:44.961Z</time></trkpt><trkpt lat="43.7951492" lon="11.0968114"><ele>35.0</ele><time>2026-04-11T06:46:45.961Z</time></trkpt><trkpt lat="43.7951373" lon="11.0967047"><ele>35.0</ele><time>2026-04-11T06:46:46.96Z</time></trkpt><trkpt lat="43.7951425" lon="11.0965942"><ele>35.33333333333333</ele><time>2026-04-11T06:46:47.973Z</time></trkpt><trkpt lat="43.7951451" lon="11.0964807"><ele>35.666666666666664</ele><time>2026-04-11T06:46:48.956Z</time></trkpt><trkpt lat="43.7951533" lon="11.0963659"><ele>36.0</ele><time>2026-04-11T06:46:49.957Z</time></trkpt><trkpt lat="43.7951633" lon="11.0962535"><ele>36.333333333333336</ele><time>2026-04-11T06:46:50.962Z</time></trkpt><trkpt lat="43.7951696" lon="11.0961378"><ele>36.66666666666667</ele><time>2026-04-11T06:46:51.961Z</time></trkpt><trkpt lat="43.7951767" lon="11.0960206"><ele>37.0</ele><time>2026-04-11T06:46:52.956Z</time></trkpt><trkpt lat="43.7951768" lon="11.0958967"><ele>36.333333333333336</ele><time>2026-04-11T06:46:53.952Z</time></trkpt><trkpt lat="43.7951726" lon="11.0957751"><ele>35.66666666666667</ele><time>2026-04-11T06:46:54.96Z</time></trkpt><trkpt lat="43.795173" lon="11.0956535"><ele>35.0</ele><time>2026-04-11T06:46:55.962Z</time></trkpt><trkpt lat="43.7951759" lon="11.0955441"><ele>34.333333333333336</ele><time>2026-04-11T06:46:56.956Z</time></trkpt><trkpt lat="43.7951829" lon="11.0954383"><ele>33.666666666666664</ele><time>2026-04-11T06:46:57.958Z</time></trkpt><trkpt lat="43.7951922" lon="11.0953361"><ele>33.0</ele><time>2026-04-11T06:46:58.961Z</time></trkpt><trkpt lat="43.7951967" lon="11.0952319"><ele>33.199999999999996</ele><time>2026-04-11T06:46:59.959Z</time></trkpt><trkpt lat="43.7951949" lon="11.0951288"><ele>33.4</ele><time>2026-04-11T06:47:00.958Z</time></trkpt><trkpt lat="43.7951881" lon="11.095018"><ele>33.599999999999994</ele><time>2026-04-11T06:47:01.953Z</time></trkpt><trkpt lat="43.7951683" lon="11.0948971"><ele>33.8</ele><time>2026-04-11T06:47:02.958Z</time></trkpt><trkpt lat="43.7951383" lon="11.094769"><ele>34.0</ele><time>2026-04-11T06:47:03.961Z</time></trkpt><trkpt lat="43.7950947" lon="11.0946144"><ele>34.0</ele><time>2026-04-11T06:47:04.957Z</time></trkpt><trkpt lat="43.7950506" lon="11.0944653"><ele>34.0</ele><time>2026-04-11T06:47:05.958Z</time></trkpt><trkpt lat="43.7950107" lon="11.0943288"><ele>34.0</ele><time>2026-04-11T06:47:06.953Z</time></trkpt><trkpt lat="43.7949695" lon="11.0942073"><ele>34.0</ele><time>2026-04-11T06:47:07.95Z</time></trkpt><trkpt lat="43.794932" lon="11.0940875"><ele>34.0</ele><time>2026-04-11T06:47:08.953Z</time></trkpt><trkpt lat="43.7948953" lon="11.0939743"><ele>33.833333333333336</ele><time>2026-04-11T06:47:09.955Z</time></trkpt><trkpt lat="43.7948576" lon="11.0938725"><ele>33.66666666666667</ele><time>2026-04-11T06:47:10.953Z</time></trkpt><trkpt lat="43.7948168" lon="11.0937696"><ele>33.5</ele><time>2026-04-11T06:47:11.959Z</time></trkpt><trkpt lat="43.7947714" lon="11.0936693"><ele>33.333333333333336</ele><time>2026-04-11T06:47:12.959Z</time></trkpt><trkpt lat="43.7947384" lon="11.0935597"><ele>33.166666666666664</ele><time>2026-04-11T06:47:13.959Z</time></trkpt><trkpt lat="43.7947061" lon="11.0934451"><ele>33.0</ele><time>2026-04-11T06:47:14.962Z</time></trkpt><trkpt lat="43.7946807" lon="11.0933155"><ele>33.199999999999996</ele><time>2026-04-11T06:47:15.961Z</time></trkpt><trkpt lat="43.7946583" lon="11.0931759"><ele>33.4</ele><time>2026-04-11T06:47:16.961Z</time></trkpt><trkpt lat="43.7946348" lon="11.0930391"><ele>33.599999999999994</ele><time>2026-04-11T06:47:17.968Z</time></trkpt><trkpt lat="43.7946068" lon="11.0929153"><ele>33.8</ele><time>2026-04-11T06:47:18.97Z</time></trkpt><trkpt lat="43.7945721" lon="11.0928129"><ele>34.0</ele><time>2026-04-11T06:47:19.96Z</time></trkpt><trkpt lat="43.7945304" lon="11.092729"><ele>34.0</ele><time>2026-04-11T06:47:20.959Z</time></trkpt><trkpt lat="43.7944819" lon="11.0926627"><ele>34.0</ele><time>2026-04-11T06:47:21.964Z</time></trkpt><trkpt lat="43.794389" lon="11.0925756"><ele>34.0</ele><time>2026-04-11T06:47:23.969Z</time></trkpt><trkpt lat="43.794363" lon="11.09249"><ele>34.0</ele><time>2026-04-11T06:47:25.95Z</time></trkpt><trkpt lat="43.7943775" lon="11.0923786"><ele>34.0</ele><time>2026-04-11T06:47:27.972Z</time></trkpt><trkpt lat="43.7943508" lon="11.0922278"><ele>34.0</ele><time>2026-04-11T06:47:29.962Z</time></trkpt><trkpt lat="43.7943269" lon="11.0921321"><ele>34.0</ele><time>2026-04-11T06:47:30.96Z</time></trkpt><trkpt lat="43.7942962" lon="11.0920028"><ele>34.0</ele><time>2026-04-11T06:47:31.952Z</time></trkpt><trkpt lat="43.7942724" lon="11.0918697"><ele>34.0</ele><time>2026-04-11T06:47:32.959Z</time></trkpt><trkpt lat="43.7942539" lon="11.0917561"><ele>34.0</ele><time>2026-04-11T06:47:33.949Z</time></trkpt><trkpt lat="43.7942408" lon="11.091656"><ele>34.0</ele><time>2026-04-11T06:47:34.953Z</time></trkpt><trkpt lat="43.7942378" lon="11.0914975"><ele>34.0</ele><time>2026-04-11T06:47:36.959Z</time></trkpt><trkpt lat="43.7942446" lon="11.0913266"><ele>34.0</ele><time>2026-04-11T06:47:38.957Z</time></trkpt><trkpt lat="43.7942472" lon="11.0912222"><ele>34.0</ele><time>2026-04-11T06:47:39.962Z</time></trkpt><trkpt lat="43.7942492" lon="11.0911043"><ele>34.0</ele><time>2026-04-11T06:47:40.952Z</time></trkpt><trkpt lat="43.794251" lon="11.0909785"><ele>34.0</ele><time>2026-04-11T06:47:41.967Z</time></trkpt><trkpt lat="43.7942519" lon="11.0908459"><ele>33.4</ele><time>2026-04-11T06:47:42.971Z</time></trkpt><trkpt lat="43.7942487" lon="11.0907093"><ele>32.8</ele><time>2026-04-11T06:47:43.97Z</time></trkpt><trkpt lat="43.7942502" lon="11.0905744"><ele>32.2</ele><time>2026-04-11T06:47:44.965Z</time></trkpt><trkpt lat="43.7942443" lon="11.0904441"><ele>31.6</ele><time>2026-04-11T06:47:45.957Z</time></trkpt><trkpt lat="43.7942352" lon="11.0903156"><ele>31.0</ele><time>2026-04-11T06:47:46.958Z</time></trkpt><trkpt lat="43.794223" lon="11.0901961"><ele>31.0</ele><time>2026-04-11T06:47:47.962Z</time></trkpt><trkpt lat="43.7942147" lon="11.0900839"><ele>31.000000000000004</ele><time>2026-04-11T06:47:48.957Z</time></trkpt><trkpt lat="43.7942062" lon="11.0899808"><ele>31.0</ele><time>2026-04-11T06:47:49.969Z</time></trkpt><trkpt lat="43.7941996" lon="11.0898846"><ele>31.0</ele><time>2026-04-11T06:47:50.956Z</time></trkpt><trkpt lat="43.7941951" lon="11.0897942"><ele>31.000000000000004</ele><time>2026-04-11T06:47:51.972Z</time></trkpt><trkpt lat="43.7942033" lon="11.0897024"><ele>31.0</ele><time>2026-04-11T06:47:52.964Z</time></trkpt><trkpt lat="43.7942185" lon="11.0896112"><ele>31.0</ele><time>2026-04-11T06:47:53.955Z</time></trkpt><trkpt lat="43.7942419" lon="11.0895232"><ele>31.200000000000003</ele><time>2026-04-11T06:47:54.957Z</time></trkpt><trkpt lat="43.7942788" lon="11.0894365"><ele>31.400000000000002</ele><time>2026-04-11T06:47:55.955Z</time></trkpt><trkpt lat="43.7943275" lon="11.0893468"><ele>31.6</ele><time>2026-04-11T06:47:56.96Z</time></trkpt><trkpt lat="43.7943995" lon="11.0892372"><ele>31.8</ele><time>2026-04-11T06:47:57.953Z</time></trkpt><trkpt lat="43.7944819" lon="11.0891219"><ele>32.0</ele><time>2026-04-11T06:47:58.958Z</time></trkpt><trkpt lat="43.7945591" lon="11.0890142"><ele>32.2</ele><time>2026-04-11T06:47:59.956Z</time></trkpt><trkpt lat="43.7946384" lon="11.0889067"><ele>32.400000000000006</ele><time>2026-04-11T06:48:00.958Z</time></trkpt><trkpt lat="43.7947119" lon="11.0888008"><ele>32.599999999999994</ele><time>2026-04-11T06:48:01.965Z</time></trkpt><trkpt lat="43.7947861" lon="11.088691"><ele>32.8</ele><time>2026-04-11T06:48:02.958Z</time></trkpt><trkpt lat="43.7948628" lon="11.0885858"><ele>33.0</ele><time>2026-04-11T06:48:03.957Z</time></trkpt><trkpt lat="43.7949351" lon="11.0884931"><ele>33.0</ele><time>2026-04-11T06:48:04.956Z</time></trkpt><trkpt lat="43.7950046" lon="11.0884089"><ele>33.0</ele><time>2026-04-11T06:48:05.958Z</time></trkpt><trkpt lat="43.7950721" lon="11.0883276"><ele>33.0</ele><time>2026-04-11T06:48:06.959Z</time></trkpt><trkpt lat="43.7951419" lon="11.0882402"><ele>33.0</ele><time>2026-04-11T06:48:07.961Z</time></trkpt><trkpt lat="43.7952111" lon="11.0881468"><ele>33.0</ele><time>2026-04-11T06:48:08.959Z</time></trkpt><trkpt lat="43.7952825" lon="11.0880438"><ele>33.0</ele><time>2026-04-11T06:48:09.961Z</time></trkpt><trkpt lat="43.7953535" lon="11.087937"><ele>33.0</ele><time>2026-04-11T06:48:10.963Z</time></trkpt><trkpt lat="43.7954218" lon="11.0878314"><ele>33.0</ele><time>2026-04-11T06:48:11.959Z</time></trkpt><trkpt lat="43.795488" lon="11.0877304"><ele>33.0</ele><time>2026-04-11T06:48:12.969Z</time></trkpt><trkpt lat="43.7955519" lon="11.0876323"><ele>33.0</ele><time>2026-04-11T06:48:13.971Z</time></trkpt><trkpt lat="43.7956095" lon="11.0875402"><ele>33.0</ele><time>2026-04-11T06:48:14.975Z</time></trkpt><trkpt lat="43.7956701" lon="11.0874484"><ele>33.0</ele><time>2026-04-11T06:48:15.972Z</time></trkpt><trkpt lat="43.7957241" lon="11.0873575"><ele>33.0</ele><time>2026-04-11T06:48:16.983Z</time></trkpt><trkpt lat="43.7957677" lon="11.0872711"><ele>33.0</ele><time>2026-04-11T06:48:17.981Z</time></trkpt><trkpt lat="43.7957976" lon="11.0871922"><ele>33.0</ele><time>2026-04-11T06:48:18.979Z</time></trkpt><trkpt lat="43.7958247" lon="11.0870507"><ele>33.0</ele><time>2026-04-11T06:48:20.99Z</time></trkpt><trkpt lat="43.795749" lon="11.086935"><ele>33.0</ele><time>2026-04-11T06:48:22.975Z</time></trkpt><trkpt lat="43.7956656" lon="11.086849"><ele>33.0</ele><time>2026-04-11T06:48:23.967Z</time></trkpt><trkpt lat="43.7955599" lon="11.0867221"><ele>33.0</ele><time>2026-04-11T06:48:24.969Z</time></trkpt><trkpt lat="43.7954448" lon="11.0865772"><ele>33.0</ele><time>2026-04-11T06:48:25.97Z</time></trkpt><trkpt lat="43.7953341" lon="11.0864375"><ele>33.0</ele><time>2026-04-11T06:48:26.967Z</time></trkpt><trkpt lat="43.7952341" lon="11.0863086"><ele>33.0</ele><time>2026-04-11T06:48:27.963Z</time></trkpt><trkpt lat="43.7951354" lon="11.086184"><ele>33.0</ele><time>2026-04-11T06:48:28.973Z</time></trkpt><trkpt lat="43.7950389" lon="11.0860781"><ele>33.0</ele><time>2026-04-11T06:48:29.975Z</time></trkpt><trkpt lat="43.794947" lon="11.0859745"><ele>33.0</ele><time>2026-04-11T06:48:30.974Z</time></trkpt><trkpt lat="43.7948494" lon="11.0858674"><ele>33.0</ele><time>2026-04-11T06:48:31.974Z</time></trkpt><trkpt lat="43.7947532" lon="11.0857536"><ele>33.0</ele><time>2026-04-11T06:48:32.967Z</time></trkpt><trkpt lat="43.7946587" lon="11.0856301"><ele>33.0</ele><time>2026-04-11T06:48:33.971Z</time></trkpt><trkpt lat="43.794569" lon="11.0855062"><ele>33.0</ele><time>2026-04-11T06:48:34.964Z</time></trkpt><trkpt lat="43.794484" lon="11.0853861"><ele>33.0</ele><time>2026-04-11T06:48:35.962Z</time></trkpt><trkpt lat="43.7944046" lon="11.0852687"><ele>33.0</ele><time>2026-04-11T06:48:36.969Z</time></trkpt><trkpt lat="43.794326" lon="11.0851593"><ele>33.0</ele><time>2026-04-11T06:48:37.97Z</time></trkpt><trkpt lat="43.7942267" lon="11.0850539"><ele>33.0</ele><time>2026-04-11T06:48:38.962Z</time></trkpt><trkpt lat="43.7941192" lon="11.0849501"><ele>33.0</ele><time>2026-04-11T06:48:39.965Z</time></trkpt><trkpt lat="43.7940041" lon="11.0848438"><ele>33.0</ele><time>2026-04-11T06:48:40.965Z</time></trkpt><trkpt lat="43.7938931" lon="11.0847342"><ele>33.0</ele><time>2026-04-11T06:48:41.967Z</time></trkpt><trkpt lat="43.7937764" lon="11.0846175"><ele>33.25</ele><time>2026-04-11T06:48:42.965Z</time></trkpt><trkpt lat="43.793656" lon="11.0844868"><ele>33.5</ele><time>2026-04-11T06:48:43.961Z</time></trkpt><trkpt lat="43.7935502" lon="11.084376"><ele>33.75</ele><time>2026-04-11T06:48:44.962Z</time></trkpt><trkpt lat="43.7934534" lon="11.0842753"><ele>34.0</ele><time>2026-04-11T06:48:45.959Z</time></trkpt><trkpt lat="43.7933679" lon="11.0842045"><ele>34.0</ele><time>2026-04-11T06:48:46.957Z</time></trkpt><trkpt lat="43.7933047" lon="11.084147"><ele>34.0</ele><time>2026-04-11T06:48:47.961Z</time></trkpt><trkpt lat="43.7932029" lon="11.0841043"><ele>34.0</ele><time>2026-04-11T06:48:49.961Z</time></trkpt><trkpt lat="43.793126" lon="11.0841603"><ele>34.0</ele><time>2026-04-11T06:48:51.98Z</time></trkpt><trkpt lat="43.7930532" lon="11.0842076"><ele>34.0</ele><time>2026-04-11T06:48:54.97Z</time></trkpt><trkpt lat="43.7929857" lon="11.0842601"><ele>34.0</ele><time>2026-04-11T06:49:52.972Z</time></trkpt><trkpt lat="43.7930961" lon="11.0842041"><ele>34.0</ele><time>2026-04-11T06:50:02.974Z</time></trkpt><trkpt lat="43.7931634" lon="11.0841575"><ele>34.0</ele><time>2026-04-11T06:50:03.961Z</time></trkpt><trkpt lat="43.7932323" lon="11.0841132"><ele>34.0</ele><time>2026-04-11T06:50:04.967Z</time></trkpt><trkpt lat="43.7933423" lon="11.0840853"><ele>34.0</ele><time>2026-04-11T06:50:06.959Z</time></trkpt><trkpt lat="43.7934349" lon="11.0842018"><ele>34.0</ele><time>2026-04-11T06:50:08.965Z</time></trkpt><trkpt lat="43.7935131" lon="11.0843006"><ele>34.0</ele><time>2026-04-11T06:50:09.96Z</time></trkpt><trkpt lat="43.793619" lon="11.0844203"><ele>34.0</ele><time>2026-04-11T06:50:10.962Z</time></trkpt><trkpt lat="43.7937372" lon="11.0845529"><ele>34.0</ele><time>2026-04-11T06:50:11.958Z</time></trkpt><trkpt lat="43.7938529" lon="11.0846927"><ele>34.0</ele><time>2026-04-11T06:50:12.961Z</time></trkpt><trkpt lat="43.793965" lon="11.084827"><ele>33.75</ele><time>2026-04-11T06:50:13.968Z</time></trkpt><trkpt lat="43.7940756" lon="11.0849549"><ele>33.5</ele><time>2026-04-11T06:50:14.963Z</time></trkpt><trkpt lat="43.7941843" lon="11.0850739"><ele>33.25</ele><time>2026-04-11T06:50:15.962Z</time></trkpt><trkpt lat="43.7942945" lon="11.085181"><ele>33.0</ele><time>2026-04-11T06:50:16.973Z</time></trkpt><trkpt lat="43.7943998" lon="11.0852765"><ele>33.0</ele><time>2026-04-11T06:50:17.963Z</time></trkpt><trkpt lat="43.7944958" lon="11.0853756"><ele>33.0</ele><time>2026-04-11T06:50:18.961Z</time></trkpt><trkpt lat="43.7945762" lon="11.0854736"><ele>33.0</ele><time>2026-04-11T06:50:19.968Z</time></trkpt><trkpt lat="43.7946422" lon="11.0855693"><ele>33.0</ele><time>2026-04-11T06:50:20.964Z</time></trkpt><trkpt lat="43.7947035" lon="11.0856611"><ele>33.0</ele><time>2026-04-11T06:50:21.972Z</time></trkpt><trkpt lat="43.7947637" lon="11.0857457"><ele>32.8</ele><time>2026-04-11T06:50:22.967Z</time></trkpt><trkpt lat="43.7948207" lon="11.0858286"><ele>32.599999999999994</ele><time>2026-04-11T06:50:23.97Z</time></trkpt><trkpt lat="43.7948832" lon="11.0859161"><ele>32.400000000000006</ele><time>2026-04-11T06:50:24.973Z</time></trkpt><trkpt lat="43.7949548" lon="11.0860048"><ele>32.2</ele><time>2026-04-11T06:50:25.959Z</time></trkpt><trkpt lat="43.7950251" lon="11.0860917"><ele>32.0</ele><time>2026-04-11T06:50:26.969Z</time></trkpt><trkpt lat="43.7950992" lon="11.0861779"><ele>32.166666666666664</ele><time>2026-04-11T06:50:27.971Z</time></trkpt><trkpt lat="43.7951727" lon="11.0862618"><ele>32.33333333333333</ele><time>2026-04-11T06:50:28.968Z</time></trkpt><trkpt lat="43.7952429" lon="11.0863369"><ele>32.5</ele><time>2026-04-11T06:50:29.973Z</time></trkpt><trkpt lat="43.7953041" lon="11.0864044"><ele>32.666666666666664</ele><time>2026-04-11T06:50:30.972Z</time></trkpt><trkpt lat="43.795358" lon="11.0864672"><ele>32.833333333333336</ele><time>2026-04-11T06:50:31.971Z</time></trkpt><trkpt lat="43.795405" lon="11.0865294"><ele>33.0</ele><time>2026-04-11T06:50:32.966Z</time></trkpt><trkpt lat="43.7954791" lon="11.0866419"><ele>33.0</ele><time>2026-04-11T06:50:34.97Z</time></trkpt><trkpt lat="43.7955287" lon="11.0867093"><ele>33.0</ele><time>2026-04-11T06:50:37.97Z</time></trkpt><trkpt lat="43.7954674" lon="11.0866646"><ele>33.0</ele><time>2026-04-11T07:09:18.989Z</time></trkpt><trkpt lat="43.7954105" lon="11.0865883"><ele>33.0</ele><time>2026-04-11T07:09:22.985Z</time></trkpt><trkpt lat="43.7953709" lon="11.0865074"><ele>33.0</ele><time>2026-04-11T07:09:24.986Z</time></trkpt><trkpt lat="43.7952875" lon="11.0863826"><ele>33.0</ele><time>2026-04-11T07:09:26.987Z</time></trkpt><trkpt lat="43.795228" lon="11.0863139"><ele>32.8</ele><time>2026-04-11T07:09:27.981Z</time></trkpt><trkpt lat="43.7951663" lon="11.0862414"><ele>32.599999999999994</ele><time>2026-04-11T07:09:28.971Z</time></trkpt><trkpt lat="43.7951008" lon="11.0861661"><ele>32.400000000000006</ele><time>2026-04-11T07:09:29.971Z</time></trkpt><trkpt lat="43.7950304" lon="11.0860825"><ele>32.2</ele><time>2026-04-11T07:09:30.972Z</time></trkpt><trkpt lat="43.7949524" lon="11.0859965"><ele>32.0</ele><time>2026-04-11T07:09:31.973Z</time></trkpt><trkpt lat="43.7948732" lon="11.0859068"><ele>32.0</ele><time>2026-04-11T07:09:32.978Z</time></trkpt><trkpt lat="43.7947937" lon="11.085813"><ele>32.0</ele><time>2026-04-11T07:09:33.973Z</time></trkpt><trkpt lat="43.7947217" lon="11.0857196"><ele>32.0</ele><time>2026-04-11T07:09:34.976Z</time></trkpt><trkpt lat="43.7946526" lon="11.0856271"><ele>32.0</ele><time>2026-04-11T07:09:35.97Z</time></trkpt><trkpt lat="43.7945787" lon="11.0855279"><ele>32.0</ele><time>2026-04-11T07:09:36.981Z</time></trkpt><trkpt lat="43.794505" lon="11.0854269"><ele>32.2</ele><time>2026-04-11T07:09:37.973Z</time></trkpt><trkpt lat="43.7944317" lon="11.0853248"><ele>32.400000000000006</ele><time>2026-04-11T07:09:38.984Z</time></trkpt><trkpt lat="43.7943572" lon="11.085225"><ele>32.599999999999994</ele><time>2026-04-11T07:09:39.982Z</time></trkpt><trkpt lat="43.794274" lon="11.085131"><ele>32.8</ele><time>2026-04-11T07:09:40.986Z</time></trkpt><trkpt lat="43.7941843" lon="11.0850468"><ele>33.0</ele><time>2026-04-11T07:09:41.982Z</time></trkpt><trkpt lat="43.7940929" lon="11.0849604"><ele>33.25</ele><time>2026-04-11T07:09:42.982Z</time></trkpt><trkpt lat="43.7939985" lon="11.0848649"><ele>33.5</ele><time>2026-04-11T07:09:43.989Z</time></trkpt><trkpt lat="43.7939061" lon="11.0847636"><ele>33.75</ele><time>2026-04-11T07:09:44.984Z</time></trkpt><trkpt lat="43.7938127" lon="11.0846615"><ele>34.0</ele><time>2026-04-11T07:09:45.974Z</time></trkpt><trkpt lat="43.7937288" lon="11.0845626"><ele>34.0</ele><time>2026-04-11T07:09:46.981Z</time></trkpt><trkpt lat="43.7936459" lon="11.0844683"><ele>34.0</ele><time>2026-04-11T07:09:47.98Z</time></trkpt><trkpt lat="43.7935651" lon="11.0843814"><ele>34.0</ele><time>2026-04-11T07:09:48.976Z</time></trkpt><trkpt lat="43.7934893" lon="11.0842982"><ele>34.0</ele><time>2026-04-11T07:09:49.988Z</time></trkpt><trkpt lat="43.7934178" lon="11.0842224"><ele>34.0</ele><time>2026-04-11T07:09:50.978Z</time></trkpt><trkpt lat="43.793348" lon="11.0841551"><ele>34.0</ele><time>2026-04-11T07:09:51.974Z</time></trkpt><trkpt lat="43.7932878" lon="11.0840933"><ele>34.0</ele><time>2026-04-11T07:09:52.972Z</time></trkpt><trkpt lat="43.7932259" lon="11.0839919"><ele>34.0</ele><time>2026-04-11T07:09:54.981Z</time></trkpt><trkpt lat="43.7932423" lon="11.0838659"><ele>34.0</ele><time>2026-04-11T07:09:56.969Z</time></trkpt><trkpt lat="43.7932711" lon="11.0837055"><ele>34.0</ele><time>2026-04-11T07:09:58.977Z</time></trkpt><trkpt lat="43.7932947" lon="11.0835985"><ele>34.0</ele><time>2026-04-11T07:09:59.971Z</time></trkpt><trkpt lat="43.7933248" lon="11.0834719"><ele>34.0</ele><time>2026-04-11T07:10:00.971Z</time></trkpt><trkpt lat="43.7933597" lon="11.0833271"><ele>34.0</ele><time>2026-04-11T07:10:01.97Z</time></trkpt><trkpt lat="43.7933965" lon="11.0831614"><ele>34.0</ele><time>2026-04-11T07:10:02.972Z</time></trkpt><trkpt lat="43.7934322" lon="11.0829873"><ele>34.2</ele><time>2026-04-11T07:10:03.972Z</time></trkpt><trkpt lat="43.7934622" lon="11.0828289"><ele>34.4</ele><time>2026-04-11T07:10:04.97Z</time></trkpt><trkpt lat="43.793489" lon="11.0826922"><ele>34.6</ele><time>2026-04-11T07:10:05.974Z</time></trkpt><trkpt lat="43.7935105" lon="11.0825755"><ele>34.8</ele><time>2026-04-11T07:10:06.971Z</time></trkpt><trkpt lat="43.7935244" lon="11.0824818"><ele>35.0</ele><time>2026-04-11T07:10:07.963Z</time></trkpt><trkpt lat="43.7934919" lon="11.0823495"><ele>35.2</ele><time>2026-04-11T07:10:09.964Z</time></trkpt><trkpt lat="43.7933651" lon="11.0822938"><ele>35.4</ele><time>2026-04-11T07:10:11.967Z</time></trkpt><trkpt lat="43.7932936" lon="11.0822456"><ele>35.6</ele><time>2026-04-11T07:10:12.966Z</time></trkpt><trkpt lat="43.7932205" lon="11.082173"><ele>35.8</ele><time>2026-04-11T07:10:13.969Z</time></trkpt><trkpt lat="43.7931407" lon="11.0820825"><ele>36.0</ele><time>2026-04-11T07:10:14.972Z</time></trkpt><trkpt lat="43.7930651" lon="11.0819744"><ele>36.0</ele><time>2026-04-11T07:10:15.966Z</time></trkpt><trkpt lat="43.7929835" lon="11.0818676"><ele>36.0</ele><time>2026-04-11T07:10:16.978Z</time></trkpt><trkpt lat="43.7929073" lon="11.0817656"><ele>36.0</ele><time>2026-04-11T07:10:17.967Z</time></trkpt><trkpt lat="43.792837" lon="11.0816656"><ele>36.0</ele><time>2026-04-11T07:10:18.97Z</time></trkpt><trkpt lat="43.7927725" lon="11.0815753"><ele>36.0</ele><time>2026-04-11T07:10:19.969Z</time></trkpt><trkpt lat="43.7927124" lon="11.0814871"><ele>36.00000000000001</ele><time>2026-04-11T07:10:20.975Z</time></trkpt><trkpt lat="43.7926635" lon="11.0814131"><ele>36.0</ele><time>2026-04-11T07:10:21.966Z</time></trkpt><trkpt lat="43.7926195" lon="11.0813463"><ele>36.0</ele><time>2026-04-11T07:10:22.979Z</time></trkpt><trkpt lat="43.7925713" lon="11.0812701"><ele>36.0</ele><time>2026-04-11T07:10:24.967Z</time></trkpt><trkpt lat="43.7924867" lon="11.0812613"><ele>36.0</ele><time>2026-04-11T07:10:28.98Z</time></trkpt><trkpt lat="43.7924162" lon="11.0812919"><ele>36.00000000000001</ele><time>2026-04-11T07:10:30.988Z</time></trkpt><trkpt lat="43.7923444" lon="11.0813246"><ele>36.0</ele><time>2026-04-11T07:10:32.982Z</time></trkpt><trkpt lat="43.792275" lon="11.0813705"><ele>36.0</ele><time>2026-04-11T07:10:34.981Z</time></trkpt><trkpt lat="43.7921946" lon="11.0814066"><ele>36.0</ele><time>2026-04-11T07:10:36.981Z</time></trkpt><trkpt lat="43.7921144" lon="11.0814091"><ele>36.0</ele><time>2026-04-11T07:10:38.979Z</time></trkpt><trkpt lat="43.7920432" lon="11.0813561"><ele>36.0</ele><time>2026-04-11T07:10:40.992Z</time></trkpt><trkpt lat="43.7919924" lon="11.081281"><ele>36.0</ele><time>2026-04-11T07:10:42.994Z</time></trkpt><trkpt lat="43.791936" lon="11.0811788"><ele>36.0</ele><time>2026-04-11T07:10:44.992Z</time></trkpt><trkpt lat="43.7918639" lon="11.0810452"><ele>36.0</ele><time>2026-04-11T07:10:46.977Z</time></trkpt><trkpt lat="43.7918206" lon="11.080978"><ele>36.0</ele><time>2026-04-11T07:10:47.967Z</time></trkpt><trkpt lat="43.7917776" lon="11.0809015"><ele>36.0</ele><time>2026-04-11T07:10:48.97Z</time></trkpt><trkpt lat="43.7917321" lon="11.0808146"><ele>36.0</ele><time>2026-04-11T07:10:49.966Z</time></trkpt><trkpt lat="43.7916899" lon="11.0807201"><ele>36.0</ele><time>2026-04-11T07:10:50.968Z</time></trkpt><trkpt lat="43.7916526" lon="11.0806155"><ele>36.0</ele><time>2026-04-11T07:10:51.966Z</time></trkpt><trkpt lat="43.7916194" lon="11.0804998"><ele>36.0</ele><time>2026-04-11T07:10:52.965Z</time></trkpt><trkpt lat="43.7915938" lon="11.0803723"><ele>36.0</ele><time>2026-04-11T07:10:53.964Z</time></trkpt><trkpt lat="43.7915711" lon="11.0802292"><ele>36.0</ele><time>2026-04-11T07:10:54.966Z</time></trkpt><trkpt lat="43.7915553" lon="11.0800822"><ele>36.0</ele><time>2026-04-11T07:10:55.973Z</time></trkpt><trkpt lat="43.7915442" lon="11.0799459"><ele>36.0</ele><time>2026-04-11T07:10:56.965Z</time></trkpt><trkpt lat="43.7915377" lon="11.0798027"><ele>35.75</ele><time>2026-04-11T07:10:57.965Z</time></trkpt><trkpt lat="43.7915325" lon="11.0796406"><ele>35.5</ele><time>2026-04-11T07:10:58.963Z</time></trkpt><trkpt lat="43.7915384" lon="11.079442"><ele>35.25</ele><time>2026-04-11T07:10:59.97Z</time></trkpt><trkpt lat="43.7915482" lon="11.0792327"><ele>35.0</ele><time>2026-04-11T07:11:00.974Z</time></trkpt><trkpt lat="43.7915528" lon="11.0790371"><ele>35.0</ele><time>2026-04-11T07:11:01.965Z</time></trkpt><trkpt lat="43.7915548" lon="11.0788526"><ele>35.0</ele><time>2026-04-11T07:11:02.967Z</time></trkpt><trkpt lat="43.7915624" lon="11.07866"><ele>35.0</ele><time>2026-04-11T07:11:03.964Z</time></trkpt><trkpt lat="43.7915732" lon="11.0784548"><ele>35.0</ele><time>2026-04-11T07:11:04.966Z</time></trkpt><trkpt lat="43.791588" lon="11.0782237"><ele>34.33333333333333</ele><time>2026-04-11T07:11:05.966Z</time></trkpt><trkpt lat="43.7916047" lon="11.077967"><ele>33.666666666666664</ele><time>2026-04-11T07:11:06.969Z</time></trkpt><trkpt lat="43.7916107" lon="11.0777064"><ele>33.0</ele><time>2026-04-11T07:11:07.967Z</time></trkpt><trkpt lat="43.7916393" lon="11.0774497"><ele>33.0</ele><time>2026-04-11T07:11:08.972Z</time></trkpt><trkpt lat="43.7916662" lon="11.0772063"><ele>33.0</ele><time>2026-04-11T07:11:09.969Z</time></trkpt><trkpt lat="43.7916902" lon="11.0769806"><ele>33.0</ele><time>2026-04-11T07:11:10.971Z</time></trkpt><trkpt lat="43.7917159" lon="11.0767759"><ele>33.333333333333336</ele><time>2026-04-11T07:11:11.97Z</time></trkpt><trkpt lat="43.7917471" lon="11.0765672"><ele>33.66666666666667</ele><time>2026-04-11T07:11:12.968Z</time></trkpt><trkpt lat="43.7917787" lon="11.0763602"><ele>34.0</ele><time>2026-04-11T07:11:13.969Z</time></trkpt><trkpt lat="43.7918133" lon="11.0761431"><ele>34.0</ele><time>2026-04-11T07:11:14.97Z</time></trkpt><trkpt lat="43.7918598" lon="11.0759255"><ele>34.0</ele><time>2026-04-11T07:11:15.97Z</time></trkpt><trkpt lat="43.7918967" lon="11.0757069"><ele>34.0</ele><time>2026-04-11T07:11:16.976Z</time></trkpt><trkpt lat="43.7919311" lon="11.0754926"><ele>34.0</ele><time>2026-04-11T07:11:17.972Z</time></trkpt><trkpt lat="43.7919526" lon="11.0752805"><ele>34.0</ele><time>2026-04-11T07:11:18.967Z</time></trkpt><trkpt lat="43.7919744" lon="11.0750646"><ele>34.0</ele><time>2026-04-11T07:11:19.977Z</time></trkpt><trkpt lat="43.7919948" lon="11.0748606"><ele>34.25</ele><time>2026-04-11T07:11:20.973Z</time></trkpt><trkpt lat="43.7920174" lon="11.0746645"><ele>34.5</ele><time>2026-04-11T07:11:21.965Z</time></trkpt><trkpt lat="43.7920311" lon="11.0744656"><ele>34.75</ele><time>2026-04-11T07:11:22.974Z</time></trkpt><trkpt lat="43.7920272" lon="11.0742699"><ele>35.0</ele><time>2026-04-11T07:11:23.963Z</time></trkpt><trkpt lat="43.7920134" lon="11.0740738"><ele>35.75</ele><time>2026-04-11T07:11:24.973Z</time></trkpt><trkpt lat="43.7920051" lon="11.0738827"><ele>36.5</ele><time>2026-04-11T07:11:25.977Z</time></trkpt><trkpt lat="43.7920059" lon="11.0736911"><ele>37.25</ele><time>2026-04-11T07:11:26.966Z</time></trkpt><trkpt lat="43.791998" lon="11.0734986"><ele>38.0</ele><time>2026-04-11T07:11:27.97Z</time></trkpt><trkpt lat="43.7919812" lon="11.0733162"><ele>38.0</ele><time>2026-04-11T07:11:28.97Z</time></trkpt><trkpt lat="43.7919413" lon="11.073142"><ele>38.0</ele><time>2026-04-11T07:11:29.97Z</time></trkpt><trkpt lat="43.7918903" lon="11.0729595"><ele>38.0</ele><time>2026-04-11T07:11:30.977Z</time></trkpt><trkpt lat="43.7918249" lon="11.0727823"><ele>38.0</ele><time>2026-04-11T07:11:31.98Z</time></trkpt><trkpt lat="43.7917511" lon="11.0725995"><ele>38.0</ele><time>2026-04-11T07:11:32.978Z</time></trkpt><trkpt lat="43.7916928" lon="11.0724071"><ele>38.0</ele><time>2026-04-11T07:11:33.971Z</time></trkpt><trkpt lat="43.7916415" lon="11.072215"><ele>38.0</ele><time>2026-04-11T07:11:34.973Z</time></trkpt><trkpt lat="43.791594" lon="11.0720242"><ele>38.0</ele><time>2026-04-11T07:11:35.971Z</time></trkpt><trkpt lat="43.7915665" lon="11.0718236"><ele>38.0</ele><time>2026-04-11T07:11:36.972Z</time></trkpt><trkpt lat="43.7915452" lon="11.0716247"><ele>38.0</ele><time>2026-04-11T07:11:37.969Z</time></trkpt><trkpt lat="43.7915475" lon="11.0714305"><ele>38.0</ele><time>2026-04-11T07:11:38.979Z</time></trkpt><trkpt lat="43.7915573" lon="11.071224"><ele>38.0</ele><time>2026-04-11T07:11:39.972Z</time></trkpt><trkpt lat="43.7915737" lon="11.0710158"><ele>39.0</ele><time>2026-04-11T07:11:40.972Z</time></trkpt><trkpt lat="43.7915983" lon="11.0708065"><ele>40.0</ele><time>2026-04-11T07:11:41.97Z</time></trkpt><trkpt lat="43.7916215" lon="11.0705914"><ele>41.0</ele><time>2026-04-11T07:11:42.97Z</time></trkpt><trkpt lat="43.7916364" lon="11.0703713"><ele>41.666666666666664</ele><time>2026-04-11T07:11:43.971Z</time></trkpt><trkpt lat="43.791652" lon="11.0701515"><ele>42.333333333333336</ele><time>2026-04-11T07:11:44.967Z</time></trkpt><trkpt lat="43.7916628" lon="11.0699307"><ele>43.0</ele><time>2026-04-11T07:11:45.967Z</time></trkpt><trkpt lat="43.7916711" lon="11.0697182"><ele>44.333333333333336</ele><time>2026-04-11T07:11:46.974Z</time></trkpt><trkpt lat="43.791679" lon="11.0695028"><ele>45.666666666666664</ele><time>2026-04-11T07:11:47.971Z</time></trkpt><trkpt lat="43.7916986" lon="11.069291"><ele>47.0</ele><time>2026-04-11T07:11:48.968Z</time></trkpt><trkpt lat="43.7917259" lon="11.069084"><ele>47.666666666666664</ele><time>2026-04-11T07:11:49.963Z</time></trkpt><trkpt lat="43.7917633" lon="11.06888"><ele>48.33333333333333</ele><time>2026-04-11T07:11:50.966Z</time></trkpt><trkpt lat="43.7918045" lon="11.0686747"><ele>49.0</ele><time>2026-04-11T07:11:51.969Z</time></trkpt><trkpt lat="43.7918447" lon="11.0684704"><ele>50.666666666666664</ele><time>2026-04-11T07:11:52.974Z</time></trkpt><trkpt lat="43.791879" lon="11.0682581"><ele>52.33333333333333</ele><time>2026-04-11T07:11:53.97Z</time></trkpt><trkpt lat="43.7919132" lon="11.0680449"><ele>54.0</ele><time>2026-04-11T07:11:54.969Z</time></trkpt><trkpt lat="43.7919482" lon="11.0678474"><ele>54.0</ele><time>2026-04-11T07:11:55.972Z</time></trkpt><trkpt lat="43.7919926" lon="11.0676917"><ele>54.00000000000001</ele><time>2026-04-11T07:11:56.97Z</time></trkpt><trkpt lat="43.7920392" lon="11.0675684"><ele>54.00000000000001</ele><time>2026-04-11T07:11:57.981Z</time></trkpt><trkpt lat="43.792108" lon="11.0674564"><ele>54.0</ele><time>2026-04-11T07:11:58.969Z</time></trkpt><trkpt lat="43.7921855" lon="11.0673765"><ele>54.0</ele><time>2026-04-11T07:11:59.971Z</time></trkpt><trkpt lat="43.7922622" lon="11.0672938"><ele>54.400000000000006</ele><time>2026-04-11T07:12:00.972Z</time></trkpt><trkpt lat="43.7923272" lon="11.0672028"><ele>54.800000000000004</ele><time>2026-04-11T07:12:01.965Z</time></trkpt><trkpt lat="43.7923967" lon="11.0670871"><ele>55.199999999999996</ele><time>2026-04-11T07:12:02.98Z</time></trkpt><trkpt lat="43.7924555" lon="11.066978"><ele>55.599999999999994</ele><time>2026-04-11T07:12:03.968Z</time></trkpt><trkpt lat="43.7925117" lon="11.0668775"><ele>56.0</ele><time>2026-04-11T07:12:04.963Z</time></trkpt><trkpt lat="43.7925709" lon="11.0667872"><ele>56.0</ele><time>2026-04-11T07:12:05.968Z</time></trkpt><trkpt lat="43.7926369" lon="11.0667185"><ele>55.99999999999999</ele><time>2026-04-11T07:12:06.965Z</time></trkpt><trkpt lat="43.7927172" lon="11.0666645"><ele>55.99999999999999</ele><time>2026-04-11T07:12:07.97Z</time></trkpt><trkpt lat="43.7928161" lon="11.0666141"><ele>56.0</ele><time>2026-04-11T07:12:08.965Z</time></trkpt><trkpt lat="43.7929338" lon="11.0665599"><ele>56.0</ele><time>2026-04-11T07:12:09.97Z</time></trkpt><trkpt lat="43.7930673" lon="11.0664877"><ele>55.66666666666667</ele><time>2026-04-11T07:12:10.969Z</time></trkpt><trkpt lat="43.7932214" lon="11.0664053"><ele>55.33333333333333</ele><time>2026-04-11T07:12:11.969Z</time></trkpt><trkpt lat="43.7934079" lon="11.0663033"><ele>55.0</ele><time>2026-04-11T07:12:12.97Z</time></trkpt><trkpt lat="43.7935981" lon="11.0661762"><ele>53.33333333333333</ele><time>2026-04-11T07:12:13.967Z</time></trkpt><trkpt lat="43.7937902" lon="11.0660219"><ele>51.66666666666667</ele><time>2026-04-11T07:12:14.972Z</time></trkpt><trkpt lat="43.793966" lon="11.0658793"><ele>50.0</ele><time>2026-04-11T07:12:15.966Z</time></trkpt><trkpt lat="43.7941256" lon="11.0657425"><ele>50.0</ele><time>2026-04-11T07:12:16.966Z</time></trkpt><trkpt lat="43.7942675" lon="11.0656139"><ele>50.0</ele><time>2026-04-11T07:12:17.968Z</time></trkpt><trkpt lat="43.7943961" lon="11.0654931"><ele>50.0</ele><time>2026-04-11T07:12:18.97Z</time></trkpt><trkpt lat="43.794511" lon="11.0653912"><ele>49.6</ele><time>2026-04-11T07:12:19.962Z</time></trkpt><trkpt lat="43.794612" lon="11.0653049"><ele>49.2</ele><time>2026-04-11T07:12:20.967Z</time></trkpt><trkpt lat="43.7946979" lon="11.0652273"><ele>48.8</ele><time>2026-04-11T07:12:21.965Z</time></trkpt><trkpt lat="43.7947771" lon="11.0651681"><ele>48.4</ele><time>2026-04-11T07:12:22.966Z</time></trkpt><trkpt lat="43.794848" lon="11.0651194"><ele>48.0</ele><time>2026-04-11T07:12:23.97Z</time></trkpt><trkpt lat="43.7949313" lon="11.0650941"><ele>48.0</ele><time>2026-04-11T07:12:24.97Z</time></trkpt><trkpt lat="43.7950195" lon="11.0650999"><ele>48.0</ele><time>2026-04-11T07:12:25.968Z</time></trkpt><trkpt lat="43.7950996" lon="11.0650932"><ele>48.0</ele><time>2026-04-11T07:12:26.964Z</time></trkpt><trkpt lat="43.7951672" lon="11.0650524"><ele>48.0</ele><time>2026-04-11T07:12:27.97Z</time></trkpt><trkpt lat="43.7952252" lon="11.0649907"><ele>48.0</ele><time>2026-04-11T07:12:28.967Z</time></trkpt><trkpt lat="43.7952565" lon="11.0649083"><ele>48.0</ele><time>2026-04-11T07:12:29.973Z</time></trkpt><trkpt lat="43.7952541" lon="11.0648121"><ele>48.4</ele><time>2026-04-11T07:12:30.971Z</time></trkpt><trkpt lat="43.7952111" lon="11.0647116"><ele>48.8</ele><time>2026-04-11T07:12:31.966Z</time></trkpt><trkpt lat="43.7951686" lon="11.0645948"><ele>49.2</ele><time>2026-04-11T07:12:32.966Z</time></trkpt><trkpt lat="43.7951418" lon="11.0644615"><ele>49.6</ele><time>2026-04-11T07:12:33.977Z</time></trkpt><trkpt lat="43.7951463" lon="11.0642977"><ele>50.0</ele><time>2026-04-11T07:12:34.964Z</time></trkpt><trkpt lat="43.7951709" lon="11.0641273"><ele>49.75</ele><time>2026-04-11T07:12:35.974Z</time></trkpt><trkpt lat="43.7952175" lon="11.0639517"><ele>49.5</ele><time>2026-04-11T07:12:36.967Z</time></trkpt><trkpt lat="43.7952743" lon="11.0637722"><ele>49.25</ele><time>2026-04-11T07:12:37.965Z</time></trkpt><trkpt lat="43.7953389" lon="11.0635928"><ele>49.0</ele><time>2026-04-11T07:12:38.973Z</time></trkpt><trkpt lat="43.7954063" lon="11.0634074"><ele>48.666666666666664</ele><time>2026-04-11T07:12:39.962Z</time></trkpt><trkpt lat="43.7954838" lon="11.0632196"><ele>48.33333333333333</ele><time>2026-04-11T07:12:40.97Z</time></trkpt><trkpt lat="43.7955519" lon="11.0630356"><ele>48.0</ele><time>2026-04-11T07:12:41.963Z</time></trkpt><trkpt lat="43.7956165" lon="11.0628543"><ele>48.0</ele><time>2026-04-11T07:12:42.963Z</time></trkpt><trkpt lat="43.7956643" lon="11.0626677"><ele>48.0</ele><time>2026-04-11T07:12:43.965Z</time></trkpt><trkpt lat="43.7956952" lon="11.0624768"><ele>48.0</ele><time>2026-04-11T07:12:44.965Z</time></trkpt><trkpt lat="43.7957071" lon="11.0622775"><ele>48.0</ele><time>2026-04-11T07:12:45.971Z</time></trkpt><trkpt lat="43.7956909" lon="11.0620836"><ele>48.4</ele><time>2026-04-11T07:12:46.967Z</time></trkpt><trkpt lat="43.7956667" lon="11.0619071"><ele>48.8</ele><time>2026-04-11T07:12:47.967Z</time></trkpt><trkpt lat="43.7956422" lon="11.0617531"><ele>49.2</ele><time>2026-04-11T07:12:48.959Z</time></trkpt><trkpt lat="43.795616" lon="11.0616244"><ele>49.6</ele><time>2026-04-11T07:12:49.965Z</time></trkpt><trkpt lat="43.795571" lon="11.0615433"><ele>50.0</ele><time>2026-04-11T07:12:50.96Z</time></trkpt><trkpt lat="43.795515" lon="11.0615019"><ele>50.333333333333336</ele><time>2026-04-11T07:12:51.961Z</time></trkpt><trkpt lat="43.7954511" lon="11.0614748"><ele>50.66666666666667</ele><time>2026-04-11T07:12:52.966Z</time></trkpt><trkpt lat="43.7953643" lon="11.0614836"><ele>51.0</ele><time>2026-04-11T07:12:53.958Z</time></trkpt><trkpt lat="43.7952729" lon="11.0614991"><ele>51.33333333333333</ele><time>2026-04-11T07:12:54.962Z</time></trkpt><trkpt lat="43.79518" lon="11.0615051"><ele>51.666666666666664</ele><time>2026-04-11T07:12:55.961Z</time></trkpt><trkpt lat="43.7950889" lon="11.0614775"><ele>52.0</ele><time>2026-04-11T07:12:56.958Z</time></trkpt><trkpt lat="43.7950084" lon="11.0613868"><ele>52.0</ele><time>2026-04-11T07:12:57.957Z</time></trkpt><trkpt lat="43.794929" lon="11.0612461"><ele>52.0</ele><time>2026-04-11T07:12:58.949Z</time></trkpt><trkpt lat="43.794852" lon="11.0610842"><ele>52.0</ele><time>2026-04-11T07:12:59.949Z</time></trkpt><trkpt lat="43.7947826" lon="11.0609147"><ele>52.0</ele><time>2026-04-11T07:13:00.955Z</time></trkpt><trkpt lat="43.794723" lon="11.0607392"><ele>54.25</ele><time>2026-04-11T07:13:01.959Z</time></trkpt><trkpt lat="43.7946693" lon="11.0605622"><ele>56.5</ele><time>2026-04-11T07:13:02.966Z</time></trkpt><trkpt lat="43.7946059" lon="11.0603987"><ele>58.75</ele><time>2026-04-11T07:13:03.964Z</time></trkpt><trkpt lat="43.7945242" lon="11.0602586"><ele>61.0</ele><time>2026-04-11T07:13:04.969Z</time></trkpt><trkpt lat="43.7944435" lon="11.0601372"><ele>60.99999999999999</ele><time>2026-04-11T07:13:05.959Z</time></trkpt><trkpt lat="43.794368" lon="11.0600339"><ele>61.0</ele><time>2026-04-11T07:13:06.963Z</time></trkpt><trkpt lat="43.794306" lon="11.0599526"><ele>61.0</ele><time>2026-04-11T07:13:07.965Z</time></trkpt><trkpt lat="43.7942529" lon="11.0598863"><ele>61.0</ele><time>2026-04-11T07:13:08.967Z</time></trkpt><trkpt lat="43.7941955" lon="11.0598211"><ele>60.99999999999999</ele><time>2026-04-11T07:13:10.963Z</time></trkpt><trkpt lat="43.7941269" lon="11.059766"><ele>61.0</ele><time>2026-04-11T07:13:12.967Z</time></trkpt><trkpt lat="43.7940539" lon="11.0596824"><ele>61.599999999999994</ele><time>2026-04-11T07:13:14.97Z</time></trkpt><trkpt lat="43.79397" lon="11.0595471"><ele>62.199999999999996</ele><time>2026-04-11T07:13:16.969Z</time></trkpt><trkpt lat="43.7939231" lon="11.0594538"><ele>62.800000000000004</ele><time>2026-04-11T07:13:17.964Z</time></trkpt><trkpt lat="43.7938757" lon="11.0593394"><ele>63.400000000000006</ele><time>2026-04-11T07:13:18.958Z</time></trkpt><trkpt lat="43.7938235" lon="11.0592111"><ele>64.0</ele><time>2026-04-11T07:13:19.96Z</time></trkpt><trkpt lat="43.7937687" lon="11.0590904"><ele>64.60000000000001</ele><time>2026-04-11T07:13:20.966Z</time></trkpt><trkpt lat="43.7937096" lon="11.0589747"><ele>65.2</ele><time>2026-04-11T07:13:21.96Z</time></trkpt><trkpt lat="43.793648" lon="11.0588585"><ele>65.80000000000001</ele><time>2026-04-11T07:13:22.961Z</time></trkpt><trkpt lat="43.7935855" lon="11.05874"><ele>66.4</ele><time>2026-04-11T07:13:23.964Z</time></trkpt><trkpt lat="43.7935239" lon="11.058619"><ele>67.0</ele><time>2026-04-11T07:13:24.963Z</time></trkpt><trkpt lat="43.7934642" lon="11.0584971"><ele>67.0</ele><time>2026-04-11T07:13:25.962Z</time></trkpt><trkpt lat="43.7934022" lon="11.058377"><ele>67.0</ele><time>2026-04-11T07:13:26.956Z</time></trkpt><trkpt lat="43.7933444" lon="11.058267"><ele>67.0</ele><time>2026-04-11T07:13:27.962Z</time></trkpt><trkpt lat="43.7933009" lon="11.0581792"><ele>67.0</ele><time>2026-04-11T07:13:28.959Z</time></trkpt><trkpt lat="43.7932613" lon="11.0581078"><ele>67.0</ele><time>2026-04-11T07:13:29.963Z</time></trkpt><trkpt lat="43.7932154" lon="11.0579848"><ele>67.0</ele><time>2026-04-11T07:13:31.961Z</time></trkpt><trkpt lat="43.7932148" lon="11.0578179"><ele>67.6</ele><time>2026-04-11T07:13:33.963Z</time></trkpt><trkpt lat="43.7932252" lon="11.057695"><ele>68.2</ele><time>2026-04-11T07:13:34.96Z</time></trkpt><trkpt lat="43.7932415" lon="11.0575508"><ele>68.8</ele><time>2026-04-11T07:13:35.964Z</time></trkpt><trkpt lat="43.7932598" lon="11.0573947"><ele>69.4</ele><time>2026-04-11T07:13:36.963Z</time></trkpt><trkpt lat="43.7932763" lon="11.0572275"><ele>70.0</ele><time>2026-04-11T07:13:37.961Z</time></trkpt><trkpt lat="43.7932978" lon="11.057044"><ele>70.75</ele><time>2026-04-11T07:13:38.97Z</time></trkpt><trkpt lat="43.7933203" lon="11.0568469"><ele>71.5</ele><time>2026-04-11T07:13:39.968Z</time></trkpt><trkpt lat="43.7933458" lon="11.0566606"><ele>72.25</ele><time>2026-04-11T07:13:40.968Z</time></trkpt><trkpt lat="43.7933699" lon="11.0565105"><ele>73.0</ele><time>2026-04-11T07:13:41.966Z</time></trkpt><trkpt lat="43.7933851" lon="11.0563639"><ele>73.16666666666666</ele><time>2026-04-11T07:13:42.973Z</time></trkpt><trkpt lat="43.7933881" lon="11.0562211"><ele>73.33333333333333</ele><time>2026-04-11T07:13:43.971Z</time></trkpt><trkpt lat="43.7933865" lon="11.056087"><ele>73.5</ele><time>2026-04-11T07:13:44.968Z</time></trkpt><trkpt lat="43.7933908" lon="11.0559644"><ele>73.66666666666667</ele><time>2026-04-11T07:13:45.966Z</time></trkpt><trkpt lat="43.7934031" lon="11.0558578"><ele>73.83333333333334</ele><time>2026-04-11T07:13:46.972Z</time></trkpt><trkpt lat="43.7934165" lon="11.0557537"><ele>74.0</ele><time>2026-04-11T07:13:47.969Z</time></trkpt><trkpt lat="43.793424" lon="11.0556457"><ele>74.5</ele><time>2026-04-11T07:13:48.964Z</time></trkpt><trkpt lat="43.7934251" lon="11.0555305"><ele>75.0</ele><time>2026-04-11T07:13:49.959Z</time></trkpt><trkpt lat="43.7934266" lon="11.0554166"><ele>75.5</ele><time>2026-04-11T07:13:50.961Z</time></trkpt><trkpt lat="43.7934279" lon="11.0553055"><ele>76.0</ele><time>2026-04-11T07:13:51.964Z</time></trkpt><trkpt lat="43.7934293" lon="11.0551927"><ele>76.5</ele><time>2026-04-11T07:13:52.969Z</time></trkpt><trkpt lat="43.7934333" lon="11.055082"><ele>77.0</ele><time>2026-04-11T07:13:53.964Z</time></trkpt><trkpt lat="43.793436" lon="11.0549776"><ele>77.66666666666667</ele><time>2026-04-11T07:13:54.964Z</time></trkpt><trkpt lat="43.7934372" lon="11.0548858"><ele>78.33333333333334</ele><time>2026-04-11T07:13:55.956Z</time></trkpt><trkpt lat="43.793445" lon="11.0547583"><ele>79.0</ele><time>2026-04-11T07:13:57.964Z</time></trkpt><trkpt lat="43.793412" lon="11.0546552"><ele>79.66666666666667</ele><time>2026-04-11T07:14:00.978Z</time></trkpt><trkpt lat="43.7932932" lon="11.0546242"><ele>80.33333333333333</ele><time>2026-04-11T07:14:02.959Z</time></trkpt><trkpt lat="43.7932109" lon="11.0546226"><ele>81.0</ele><time>2026-04-11T07:14:03.96Z</time></trkpt><trkpt lat="43.7931321" lon="11.0546104"><ele>81.0</ele><time>2026-04-11T07:14:04.958Z</time></trkpt><trkpt lat="43.7930656" lon="11.0545858"><ele>81.0</ele><time>2026-04-11T07:14:05.954Z</time></trkpt><trkpt lat="43.792975" lon="11.0545198"><ele>81.0</ele><time>2026-04-11T07:14:07.961Z</time></trkpt><trkpt lat="43.7929404" lon="11.0544435"><ele>81.0</ele><time>2026-04-11T07:14:09.966Z</time></trkpt><trkpt lat="43.7929672" lon="11.0543343"><ele>81.0</ele><time>2026-04-11T07:14:11.97Z</time></trkpt><trkpt lat="43.7930353" lon="11.0541707"><ele>80.8</ele><time>2026-04-11T07:14:13.963Z</time></trkpt><trkpt lat="43.7930886" lon="11.0540559"><ele>80.6</ele><time>2026-04-11T07:14:14.962Z</time></trkpt><trkpt lat="43.7931472" lon="11.0539387"><ele>80.4</ele><time>2026-04-11T07:14:15.962Z</time></trkpt><trkpt lat="43.7932104" lon="11.0538312"><ele>80.2</ele><time>2026-04-11T07:14:16.964Z</time></trkpt><trkpt lat="43.7932703" lon="11.0537383"><ele>80.0</ele><time>2026-04-11T07:14:17.961Z</time></trkpt><trkpt lat="43.7933401" lon="11.0536552"><ele>80.0</ele><time>2026-04-11T07:14:18.967Z</time></trkpt><trkpt lat="43.7934047" lon="11.0535546"><ele>80.0</ele><time>2026-04-11T07:14:19.965Z</time></trkpt><trkpt lat="43.7934616" lon="11.0534196"><ele>80.0</ele><time>2026-04-11T07:14:20.963Z</time></trkpt><trkpt lat="43.7935113" lon="11.0532663"><ele>80.0</ele><time>2026-04-11T07:14:21.967Z</time></trkpt><trkpt lat="43.7935566" lon="11.0531025"><ele>82.0</ele><time>2026-04-11T07:14:22.976Z</time></trkpt><trkpt lat="43.793593" lon="11.0529362"><ele>84.0</ele><time>2026-04-11T07:14:23.964Z</time></trkpt><trkpt lat="43.7936206" lon="11.0527666"><ele>86.0</ele><time>2026-04-11T07:14:24.965Z</time></trkpt><trkpt lat="43.7936359" lon="11.0525966"><ele>88.0</ele><time>2026-04-11T07:14:25.965Z</time></trkpt><trkpt lat="43.7936297" lon="11.0524124"><ele>89.0</ele><time>2026-04-11T07:14:26.953Z</time></trkpt><trkpt lat="43.7936006" lon="11.0522132"><ele>90.0</ele><time>2026-04-11T07:14:27.962Z</time></trkpt><trkpt lat="43.7935599" lon="11.0520084"><ele>91.0</ele><time>2026-04-11T07:14:28.96Z</time></trkpt><trkpt lat="43.7935116" lon="11.0518012"><ele>87.0</ele><time>2026-04-11T07:14:29.967Z</time></trkpt><trkpt lat="43.7934627" lon="11.0516224"><ele>83.0</ele><time>2026-04-11T07:14:30.97Z</time></trkpt><trkpt lat="43.7934246" lon="11.0514634"><ele>79.0</ele><time>2026-04-11T07:14:31.963Z</time></trkpt><trkpt lat="43.7934074" lon="11.0513124"><ele>75.0</ele><time>2026-04-11T07:14:32.969Z</time></trkpt><trkpt lat="43.7934143" lon="11.0511662"><ele>75.0</ele><time>2026-04-11T07:14:33.966Z</time></trkpt><trkpt lat="43.7934354" lon="11.0510166"><ele>75.0</ele><time>2026-04-11T07:14:34.962Z</time></trkpt><trkpt lat="43.7934526" lon="11.0508734"><ele>75.0</ele><time>2026-04-11T07:14:35.956Z</time></trkpt><trkpt lat="43.793479" lon="11.0507452"><ele>75.0</ele><time>2026-04-11T07:14:36.969Z</time></trkpt><trkpt lat="43.7935172" lon="11.0506357"><ele>75.0</ele><time>2026-04-11T07:14:37.956Z</time></trkpt><trkpt lat="43.7935625" lon="11.0505349"><ele>76.8</ele><time>2026-04-11T07:14:38.959Z</time></trkpt><trkpt lat="43.7936175" lon="11.0504349"><ele>78.6</ele><time>2026-04-11T07:14:39.959Z</time></trkpt><trkpt lat="43.7936867" lon="11.0503338"><ele>80.4</ele><time>2026-04-11T07:14:40.967Z</time></trkpt><trkpt lat="43.7937487" lon="11.050232"><ele>82.2</ele><time>2026-04-11T07:14:41.963Z</time></trkpt><trkpt lat="43.7937979" lon="11.0501302"><ele>84.0</ele><time>2026-04-11T07:14:42.97Z</time></trkpt><trkpt lat="43.7938277" lon="11.0500281"><ele>85.0</ele><time>2026-04-11T07:14:43.973Z</time></trkpt><trkpt lat="43.7938383" lon="11.0499291"><ele>86.0</ele><time>2026-04-11T07:14:44.968Z</time></trkpt><trkpt lat="43.7938221" lon="11.0498273"><ele>87.0</ele><time>2026-04-11T07:14:45.957Z</time></trkpt><trkpt lat="43.7937781" lon="11.0497279"><ele>88.0</ele><time>2026-04-11T07:14:46.959Z</time></trkpt><trkpt lat="43.7937139" lon="11.0496317"><ele>89.0</ele><time>2026-04-11T07:14:47.951Z</time></trkpt><trkpt lat="43.7936354" lon="11.0495373"><ele>90.0</ele><time>2026-04-11T07:14:48.963Z</time></trkpt><trkpt lat="43.7935653" lon="11.0494403"><ele>90.0</ele><time>2026-04-11T07:14:49.952Z</time></trkpt><trkpt lat="43.7935099" lon="11.0493374"><ele>90.0</ele><time>2026-04-11T07:14:50.956Z</time></trkpt><trkpt lat="43.7934662" lon="11.0492251"><ele>90.0</ele><time>2026-04-11T07:14:51.951Z</time></trkpt><trkpt lat="43.7934381" lon="11.0490957"><ele>90.0</ele><time>2026-04-11T07:14:52.961Z</time></trkpt><trkpt lat="43.7934161" lon="11.0489528"><ele>90.0</ele><time>2026-04-11T07:14:53.954Z</time></trkpt><trkpt lat="43.7933971" lon="11.0487935"><ele>84.75</ele><time>2026-04-11T07:14:54.959Z</time></trkpt><trkpt lat="43.7933779" lon="11.0486062"><ele>79.5</ele><time>2026-04-11T07:14:55.967Z</time></trkpt><trkpt lat="43.793355" lon="11.048397"><ele>74.25</ele><time>2026-04-11T07:14:56.958Z</time></trkpt><trkpt lat="43.7933208" lon="11.0481832"><ele>69.0</ele><time>2026-04-11T07:14:57.963Z</time></trkpt><trkpt lat="43.7932917" lon="11.0479783"><ele>67.75</ele><time>2026-04-11T07:14:58.957Z</time></trkpt><trkpt lat="43.793269" lon="11.0477948"><ele>66.5</ele><time>2026-04-11T07:14:59.958Z</time></trkpt><trkpt lat="43.7932469" lon="11.0476184"><ele>65.25</ele><time>2026-04-11T07:15:00.958Z</time></trkpt><trkpt lat="43.7932191" lon="11.0474448"><ele>64.0</ele><time>2026-04-11T07:15:01.962Z</time></trkpt><trkpt lat="43.7931876" lon="11.0472754"><ele>63.0</ele><time>2026-04-11T07:15:02.955Z</time></trkpt><trkpt lat="43.7931378" lon="11.0471122"><ele>62.0</ele><time>2026-04-11T07:15:03.956Z</time></trkpt><trkpt lat="43.7930702" lon="11.0469663"><ele>61.0</ele><time>2026-04-11T07:15:04.955Z</time></trkpt><trkpt lat="43.7930038" lon="11.0468237"><ele>60.0</ele><time>2026-04-11T07:15:05.955Z</time></trkpt><trkpt lat="43.7929361" lon="11.0466771"><ele>61.0</ele><time>2026-04-11T07:15:06.952Z</time></trkpt><trkpt lat="43.7928661" lon="11.0465203"><ele>62.0</ele><time>2026-04-11T07:15:07.959Z</time></trkpt><trkpt lat="43.7927908" lon="11.046353"><ele>63.0</ele><time>2026-04-11T07:15:08.956Z</time></trkpt><trkpt lat="43.7927137" lon="11.0461868"><ele>64.0</ele><time>2026-04-11T07:15:09.957Z</time></trkpt><trkpt lat="43.7926348" lon="11.0460312"><ele>63.0</ele><time>2026-04-11T07:15:10.957Z</time></trkpt><trkpt lat="43.7925651" lon="11.0459203"><ele>62.00000000000001</ele><time>2026-04-11T07:15:11.953Z</time></trkpt><trkpt lat="43.7924928" lon="11.0458374"><ele>61.00000000000001</ele><time>2026-04-11T07:15:12.959Z</time></trkpt><trkpt lat="43.7924077" lon="11.0457638"><ele>60.0</ele><time>2026-04-11T07:15:13.959Z</time></trkpt><trkpt lat="43.7923194" lon="11.0456969"><ele>59.0</ele><time>2026-04-11T07:15:14.955Z</time></trkpt><trkpt lat="43.7922417" lon="11.0456273"><ele>59.00000000000001</ele><time>2026-04-11T07:15:15.959Z</time></trkpt><trkpt lat="43.7921897" lon="11.0455548"><ele>59.0</ele><time>2026-04-11T07:15:16.954Z</time></trkpt><trkpt lat="43.7921547" lon="11.0454727"><ele>59.0</ele><time>2026-04-11T07:15:17.949Z</time></trkpt><trkpt lat="43.7921264" lon="11.0453772"><ele>59.0</ele><time>2026-04-11T07:15:18.949Z</time></trkpt><trkpt lat="43.7921103" lon="11.0452616"><ele>59.00000000000001</ele><time>2026-04-11T07:15:19.95Z</time></trkpt><trkpt lat="43.7920971" lon="11.0451211"><ele>59.0</ele><time>2026-04-11T07:15:20.948Z</time></trkpt><trkpt lat="43.7920808" lon="11.0449624"><ele>59.0</ele><time>2026-04-11T07:15:21.947Z</time></trkpt><trkpt lat="43.7920476" lon="11.0447985"><ele>59.0</ele><time>2026-04-11T07:15:22.951Z</time></trkpt><trkpt lat="43.7919859" lon="11.0446287"><ele>59.0</ele><time>2026-04-11T07:15:23.949Z</time></trkpt><trkpt lat="43.7919042" lon="11.0444584"><ele>59.0</ele><time>2026-04-11T07:15:24.947Z</time></trkpt><trkpt lat="43.7918262" lon="11.0443047"><ele>59.0</ele><time>2026-04-11T07:15:25.957Z</time></trkpt><trkpt lat="43.7917502" lon="11.044155"><ele>59.0</ele><time>2026-04-11T07:15:26.952Z</time></trkpt><trkpt lat="43.7916742" lon="11.044007"><ele>59.0</ele><time>2026-04-11T07:15:27.955Z</time></trkpt><trkpt lat="43.7916019" lon="11.0438694"><ele>59.0</ele><time>2026-04-11T07:15:28.955Z</time></trkpt><trkpt lat="43.7915357" lon="11.0437448"><ele>60.2</ele><time>2026-04-11T07:15:29.957Z</time></trkpt><trkpt lat="43.791478" lon="11.0436368"><ele>61.400000000000006</ele><time>2026-04-11T07:15:30.956Z</time></trkpt><trkpt lat="43.7914264" lon="11.0435314"><ele>62.6</ele><time>2026-04-11T07:15:31.952Z</time></trkpt><trkpt lat="43.7913819" lon="11.0434297"><ele>63.8</ele><time>2026-04-11T07:15:32.963Z</time></trkpt><trkpt lat="43.7913572" lon="11.0433377"><ele>65.0</ele><time>2026-04-11T07:15:33.957Z</time></trkpt><trkpt lat="43.7913696" lon="11.0431655"><ele>66.0</ele><time>2026-04-11T07:15:35.951Z</time></trkpt><trkpt lat="43.7913853" lon="11.0430729"><ele>67.0</ele><time>2026-04-11T07:15:36.953Z</time></trkpt><trkpt lat="43.7914216" lon="11.0429767"><ele>68.0</ele><time>2026-04-11T07:15:37.948Z</time></trkpt><trkpt lat="43.7914756" lon="11.0428816"><ele>69.0</ele><time>2026-04-11T07:15:38.96Z</time></trkpt><trkpt lat="43.7915378" lon="11.0427903"><ele>70.0</ele><time>2026-04-11T07:15:39.955Z</time></trkpt><trkpt lat="43.7915995" lon="11.0426915"><ele>71.0</ele><time>2026-04-11T07:15:40.945Z</time></trkpt><trkpt lat="43.7916478" lon="11.0425777"><ele>71.39999999999999</ele><time>2026-04-11T07:15:41.948Z</time></trkpt><trkpt lat="43.7916771" lon="11.0424478"><ele>71.8</ele><time>2026-04-11T07:15:42.945Z</time></trkpt><trkpt lat="43.791696" lon="11.0423118"><ele>72.19999999999999</ele><time>2026-04-11T07:15:43.947Z</time></trkpt><trkpt lat="43.7916916" lon="11.0421685"><ele>72.6</ele><time>2026-04-11T07:15:44.95Z</time></trkpt><trkpt lat="43.7916656" lon="11.0420273"><ele>73.0</ele><time>2026-04-11T07:15:45.948Z</time></trkpt><trkpt lat="43.7916283" lon="11.0418866"><ele>73.0</ele><time>2026-04-11T07:15:46.957Z</time></trkpt><trkpt lat="43.7915738" lon="11.041747"><ele>73.0</ele><time>2026-04-11T07:15:47.947Z</time></trkpt><trkpt lat="43.7915101" lon="11.0416035"><ele>73.0</ele><time>2026-04-11T07:15:48.951Z</time></trkpt><trkpt lat="43.7914418" lon="11.0414487"><ele>73.0</ele><time>2026-04-11T07:15:49.947Z</time></trkpt><trkpt lat="43.7913728" lon="11.0412921"><ele>73.6</ele><time>2026-04-11T07:15:50.949Z</time></trkpt><trkpt lat="43.7913095" lon="11.0411516"><ele>74.19999999999999</ele><time>2026-04-11T07:15:51.949Z</time></trkpt><trkpt lat="43.7912672" lon="11.0410421"><ele>74.8</ele><time>2026-04-11T07:15:52.952Z</time></trkpt><trkpt lat="43.791243" lon="11.0409589"><ele>75.39999999999999</ele><time>2026-04-11T07:15:53.947Z</time></trkpt><trkpt lat="43.7912265" lon="11.0407991"><ele>76.0</ele><time>2026-04-11T07:15:55.949Z</time></trkpt><trkpt lat="43.7912261" lon="11.0407003"><ele>77.83333333333333</ele><time>2026-04-11T07:15:56.957Z</time></trkpt><trkpt lat="43.7912195" lon="11.0405895"><ele>79.66666666666666</ele><time>2026-04-11T07:15:57.948Z</time></trkpt><trkpt lat="43.7912055" lon="11.0404698"><ele>81.5</ele><time>2026-04-11T07:15:58.957Z</time></trkpt><trkpt lat="43.7911874" lon="11.0403442"><ele>83.33333333333333</ele><time>2026-04-11T07:15:59.956Z</time></trkpt><trkpt lat="43.7911591" lon="11.0402209"><ele>85.16666666666667</ele><time>2026-04-11T07:16:00.949Z</time></trkpt><trkpt lat="43.7911338" lon="11.0401001"><ele>87.0</ele><time>2026-04-11T07:16:01.947Z</time></trkpt><trkpt lat="43.7911118" lon="11.0399801"><ele>88.66666666666667</ele><time>2026-04-11T07:16:02.951Z</time></trkpt><trkpt lat="43.7910874" lon="11.0398567"><ele>90.33333333333334</ele><time>2026-04-11T07:16:03.956Z</time></trkpt><trkpt lat="43.791062" lon="11.0397378"><ele>92.0</ele><time>2026-04-11T07:16:04.947Z</time></trkpt><trkpt lat="43.7910382" lon="11.0396232"><ele>93.66666666666667</ele><time>2026-04-11T07:16:05.954Z</time></trkpt><trkpt lat="43.7910173" lon="11.0395231"><ele>95.33333333333334</ele><time>2026-04-11T07:16:06.948Z</time></trkpt><trkpt lat="43.7909964" lon="11.0394334"><ele>97.0</ele><time>2026-04-11T07:16:07.948Z</time></trkpt><trkpt lat="43.7909536" lon="11.0392956"><ele>93.19999999999999</ele><time>2026-04-11T07:16:09.96Z</time></trkpt><trkpt lat="43.7909111" lon="11.0391383"><ele>89.39999999999999</ele><time>2026-04-11T07:16:11.956Z</time></trkpt><trkpt lat="43.7908863" lon="11.0390418"><ele>85.6</ele><time>2026-04-11T07:16:12.956Z</time></trkpt><trkpt lat="43.7908594" lon="11.0389346"><ele>81.8</ele><time>2026-04-11T07:16:13.964Z</time></trkpt><trkpt lat="43.7908206" lon="11.0388264"><ele>78.0</ele><time>2026-04-11T07:16:14.969Z</time></trkpt><trkpt lat="43.7907689" lon="11.0387287"><ele>78.0</ele><time>2026-04-11T07:16:15.965Z</time></trkpt><trkpt lat="43.7907141" lon="11.0386388"><ele>78.0</ele><time>2026-04-11T07:16:16.977Z</time></trkpt><trkpt lat="43.7906598" lon="11.0385589"><ele>78.0</ele><time>2026-04-11T07:16:17.972Z</time></trkpt><trkpt lat="43.7906175" lon="11.0384813"><ele>78.0</ele><time>2026-04-11T07:16:18.958Z</time></trkpt><trkpt lat="43.7905838" lon="11.0384035"><ele>78.0</ele><time>2026-04-11T07:16:19.962Z</time></trkpt><trkpt lat="43.7905545" lon="11.0383144"><ele>78.0</ele><time>2026-04-11T07:16:20.965Z</time></trkpt><trkpt lat="43.7905299" lon="11.038214"><ele>78.0</ele><time>2026-04-11T07:16:21.956Z</time></trkpt><trkpt lat="43.7905001" lon="11.0381128"><ele>78.0</ele><time>2026-04-11T07:16:22.961Z</time></trkpt><trkpt lat="43.7904725" lon="11.0380096"><ele>78.0</ele><time>2026-04-11T07:16:23.958Z</time></trkpt><trkpt lat="43.7904473" lon="11.0379003"><ele>78.0</ele><time>2026-04-11T07:16:24.96Z</time></trkpt><trkpt lat="43.7904309" lon="11.0377859"><ele>78.0</ele><time>2026-04-11T07:16:25.973Z</time></trkpt><trkpt lat="43.7904244" lon="11.0376805"><ele>78.0</ele><time>2026-04-11T07:16:26.966Z</time></trkpt><trkpt lat="43.7904219" lon="11.037568"><ele>78.0</ele><time>2026-04-11T07:16:27.976Z</time></trkpt><trkpt lat="43.7904198" lon="11.037451"><ele>78.0</ele><time>2026-04-11T07:16:28.958Z</time></trkpt><trkpt lat="43.7904219" lon="11.0373255"><ele>78.0</ele><time>2026-04-11T07:16:29.965Z</time></trkpt><trkpt lat="43.7904251" lon="11.0371949"><ele>78.0</ele><time>2026-04-11T07:16:30.967Z</time></trkpt><trkpt lat="43.790421" lon="11.0370634"><ele>78.0</ele><time>2026-04-11T07:16:31.956Z</time></trkpt><trkpt lat="43.7904179" lon="11.0369375"><ele>78.0</ele><time>2026-04-11T07:16:32.973Z</time></trkpt><trkpt lat="43.7904188" lon="11.0368281"><ele>78.0</ele><time>2026-04-11T07:16:33.971Z</time></trkpt><trkpt lat="43.7904219" lon="11.0367267"><ele>78.0</ele><time>2026-04-11T07:16:34.956Z</time></trkpt><trkpt lat="43.7904256" lon="11.0366376"><ele>78.0</ele><time>2026-04-11T07:16:35.957Z</time></trkpt><trkpt lat="43.790459" lon="11.0365058"><ele>78.0</ele><time>2026-04-11T07:16:37.956Z</time></trkpt><trkpt lat="43.7903699" lon="11.0364895"><ele>78.0</ele><time>2026-04-11T07:16:52.98Z</time></trkpt><trkpt lat="43.7902703" lon="11.036494"><ele>78.0</ele><time>2026-04-11T07:16:54.973Z</time></trkpt><trkpt lat="43.7902154" lon="11.0364017"><ele>77.8</ele><time>2026-04-11T07:16:56.969Z</time></trkpt><trkpt lat="43.7902072" lon="11.0363064"><ele>77.6</ele><time>2026-04-11T07:16:58.976Z</time></trkpt><trkpt lat="43.7901308" lon="11.0362553"><ele>77.4</ele><time>2026-04-11T07:17:02.976Z</time></trkpt><trkpt lat="43.7900553" lon="11.0362126"><ele>77.2</ele><time>2026-04-11T07:17:05.979Z</time></trkpt><trkpt lat="43.7900197" lon="11.0361031"><ele>77.0</ele><time>2026-04-11T07:17:21.964Z</time></trkpt><trkpt lat="43.7899338" lon="11.0359584"><ele>76.16666666666667</ele><time>2026-04-11T07:17:23.947Z</time></trkpt><trkpt lat="43.7898863" lon="11.0358778"><ele>75.33333333333334</ele><time>2026-04-11T07:17:24.954Z</time></trkpt><trkpt lat="43.7898433" lon="11.0358006"><ele>74.5</ele><time>2026-04-11T07:17:25.952Z</time></trkpt><trkpt lat="43.789783" lon="11.0356873"><ele>73.66666666666667</ele><time>2026-04-11T07:17:27.966Z</time></trkpt><trkpt lat="43.7897232" lon="11.035578"><ele>72.83333333333333</ele><time>2026-04-11T07:17:29.962Z</time></trkpt><trkpt lat="43.7896721" lon="11.0354656"><ele>72.0</ele><time>2026-04-11T07:17:31.969Z</time></trkpt><trkpt lat="43.7896149" lon="11.0353643"><ele>71.83333333333333</ele><time>2026-04-11T07:17:33.97Z</time></trkpt><trkpt lat="43.7895652" lon="11.0352687"><ele>71.66666666666667</ele><time>2026-04-11T07:17:35.973Z</time></trkpt><trkpt lat="43.7895271" lon="11.0351766"><ele>71.5</ele><time>2026-04-11T07:17:37.968Z</time></trkpt><trkpt lat="43.7894998" lon="11.0350616"><ele>71.33333333333334</ele><time>2026-04-11T07:17:39.973Z</time></trkpt><trkpt lat="43.789458" lon="11.0349723"><ele>71.16666666666667</ele><time>2026-04-11T07:17:41.977Z</time></trkpt><trkpt lat="43.7893936" lon="11.0349055"><ele>71.0</ele><time>2026-04-11T07:17:43.974Z</time></trkpt><trkpt lat="43.7893063" lon="11.034894"><ele>71.0</ele><time>2026-04-11T07:17:45.975Z</time></trkpt><trkpt lat="43.7891991" lon="11.0349194"><ele>71.0</ele><time>2026-04-11T07:17:47.963Z</time></trkpt><trkpt lat="43.7890882" lon="11.0349531"><ele>71.0</ele><time>2026-04-11T07:17:49.959Z</time></trkpt><trkpt lat="43.7889877" lon="11.0349707"><ele>71.0</ele><time>2026-04-11T07:17:51.967Z</time></trkpt><trkpt lat="43.7888933" lon="11.034956"><ele>71.0</ele><time>2026-04-11T07:17:53.958Z</time></trkpt><trkpt lat="43.7888036" lon="11.0349466"><ele>71.0</ele><time>2026-04-11T07:17:55.967Z</time></trkpt><trkpt lat="43.7887137" lon="11.0349737"><ele>71.0</ele><time>2026-04-11T07:17:57.961Z</time></trkpt><trkpt lat="43.7886417" lon="11.0349639"><ele>71.0</ele><time>2026-04-11T07:17:59.976Z</time></trkpt><trkpt lat="43.7885696" lon="11.034947"><ele>71.0</ele><time>2026-04-11T07:18:01.971Z</time></trkpt><trkpt lat="43.7884882" lon="11.0349537"><ele>71.0</ele><time>2026-04-11T07:18:03.97Z</time></trkpt><trkpt lat="43.7884002" lon="11.034989"><ele>71.0</ele><time>2026-04-11T07:18:05.969Z</time></trkpt><trkpt lat="43.7883069" lon="11.0349898"><ele>77.0</ele><time>2026-04-11T07:18:07.972Z</time></trkpt><trkpt lat="43.7882191" lon="11.0350324"><ele>83.0</ele><time>2026-04-11T07:18:09.966Z</time></trkpt><trkpt lat="43.7881517" lon="11.0350944"><ele>89.0</ele><time>2026-04-11T07:18:11.973Z</time></trkpt><trkpt lat="43.788067" lon="11.0351506"><ele>95.0</ele><time>2026-04-11T07:18:14.974Z</time></trkpt><trkpt lat="43.7879831" lon="11.0352064"><ele>101.0</ele><time>2026-04-11T07:18:16.971Z</time></trkpt><trkpt lat="43.7878678" lon="11.0352472"><ele>101.0</ele><time>2026-04-11T07:18:18.963Z</time></trkpt><trkpt lat="43.7878061" lon="11.0352662"><ele>101.0</ele><time>2026-04-11T07:18:19.957Z</time></trkpt><trkpt lat="43.787704" lon="11.0353248"><ele>101.0</ele><time>2026-04-11T07:18:21.96Z</time></trkpt><trkpt lat="43.7876253" lon="11.0354168"><ele>101.0</ele><time>2026-04-11T07:18:23.968Z</time></trkpt><trkpt lat="43.7875317" lon="11.035491"><ele>101.0</ele><time>2026-04-11T07:18:25.974Z</time></trkpt><trkpt lat="43.7874235" lon="11.0355377"><ele>105.0</ele><time>2026-04-11T07:18:27.971Z</time></trkpt><trkpt lat="43.7873043" lon="11.0355626"><ele>109.0</ele><time>2026-04-11T07:18:29.967Z</time></trkpt><trkpt lat="43.7871996" lon="11.0356044"><ele>113.0</ele><time>2026-04-11T07:18:31.974Z</time></trkpt><trkpt lat="43.7870975" lon="11.0356672"><ele>117.0</ele><time>2026-04-11T07:18:33.976Z</time></trkpt><trkpt lat="43.7869991" lon="11.0357251"><ele>121.0</ele><time>2026-04-11T07:18:35.971Z</time></trkpt><trkpt lat="43.7869024" lon="11.0357196"><ele>121.00000000000001</ele><time>2026-04-11T07:18:37.98Z</time></trkpt><trkpt lat="43.786803" lon="11.035684"><ele>121.0</ele><time>2026-04-11T07:18:39.991Z</time></trkpt><trkpt lat="43.7867289" lon="11.0356598"><ele>121.0</ele><time>2026-04-11T07:18:41.989Z</time></trkpt><trkpt lat="43.7868086" lon="11.0356736"><ele>121.0</ele><time>2026-04-11T07:21:08.961Z</time></trkpt><trkpt lat="43.7868743" lon="11.0356833"><ele>121.00000000000001</ele><time>2026-04-11T07:21:09.959Z</time></trkpt><trkpt lat="43.7869827" lon="11.0357195"><ele>121.0</ele><time>2026-04-11T07:21:11.956Z</time></trkpt><trkpt lat="43.7870559" lon="11.0357242"><ele>121.00000000000001</ele><time>2026-04-11T07:21:13.953Z</time></trkpt><trkpt lat="43.7871369" lon="11.0356808"><ele>121.0</ele><time>2026-04-11T07:21:16.979Z</time></trkpt><trkpt lat="43.7871966" lon="11.0356429"><ele>121.0</ele><time>2026-04-11T07:21:18.985Z</time></trkpt><trkpt lat="43.7872655" lon="11.0355932"><ele>121.0</ele><time>2026-04-11T07:21:20.971Z</time></trkpt><trkpt lat="43.7873443" lon="11.0355513"><ele>121.00000000000001</ele><time>2026-04-11T07:21:22.977Z</time></trkpt><trkpt lat="43.7874163" lon="11.0355161"><ele>121.0</ele><time>2026-04-11T07:21:24.982Z</time></trkpt><trkpt lat="43.7874834" lon="11.0354978"><ele>121.0</ele><time>2026-04-11T07:21:26.978Z</time></trkpt><trkpt lat="43.7875635" lon="11.0354848"><ele>120.99999999999999</ele><time>2026-04-11T07:21:28.979Z</time></trkpt><trkpt lat="43.7876372" lon="11.0354499"><ele>121.0</ele><time>2026-04-11T07:21:30.983Z</time></trkpt><trkpt lat="43.7877019" lon="11.0354113"><ele>121.0</ele><time>2026-04-11T07:21:32.983Z</time></trkpt><trkpt lat="43.787761" lon="11.035358"><ele>120.99999999999999</ele><time>2026-04-11T07:21:34.979Z</time></trkpt><trkpt lat="43.7878126" lon="11.0352785"><ele>121.0</ele><time>2026-04-11T07:21:36.976Z</time></trkpt><trkpt lat="43.7878543" lon="11.0352094"><ele>121.0</ele><time>2026-04-11T07:21:38.965Z</time></trkpt><trkpt lat="43.7879357" lon="11.0351933"><ele>117.66666666666667</ele><time>2026-04-11T07:21:41.965Z</time></trkpt><trkpt lat="43.7880018" lon="11.035195"><ele>114.33333333333334</ele><time>2026-04-11T07:21:43.977Z</time></trkpt><trkpt lat="43.7880781" lon="11.0351731"><ele>111.0</ele><time>2026-04-11T07:21:46.986Z</time></trkpt><trkpt lat="43.7881584" lon="11.0351155"><ele>107.66666666666666</ele><time>2026-04-11T07:21:49.983Z</time></trkpt><trkpt lat="43.7882212" lon="11.035059"><ele>104.33333333333333</ele><time>2026-04-11T07:21:52.981Z</time></trkpt><trkpt lat="43.7883007" lon="11.0350259"><ele>101.0</ele><time>2026-04-11T07:21:55.973Z</time></trkpt><trkpt lat="43.7883565" lon="11.0349651"><ele>100.99999999999999</ele><time>2026-04-11T07:22:00.969Z</time></trkpt><trkpt lat="43.7884433" lon="11.0349992"><ele>101.0</ele><time>2026-04-11T07:23:42.969Z</time></trkpt><trkpt lat="43.7885161" lon="11.0349902"><ele>101.0</ele><time>2026-04-11T07:23:44.961Z</time></trkpt><trkpt lat="43.7885746" lon="11.0349543"><ele>101.0</ele><time>2026-04-11T07:23:46.962Z</time></trkpt><trkpt lat="43.7886488" lon="11.0349373"><ele>100.99999999999999</ele><time>2026-04-11T07:23:49.965Z</time></trkpt><trkpt lat="43.7887228" lon="11.0349827"><ele>101.0</ele><time>2026-04-11T07:23:52.966Z</time></trkpt><trkpt lat="43.7887975" lon="11.0349925"><ele>95.99999999999999</ele><time>2026-04-11T07:23:55.979Z</time></trkpt><trkpt lat="43.7888604" lon="11.0349578"><ele>91.0</ele><time>2026-04-11T07:23:57.976Z</time></trkpt><trkpt lat="43.7889464" lon="11.0349333"><ele>86.0</ele><time>2026-04-11T07:24:00.977Z</time></trkpt><trkpt lat="43.7890139" lon="11.0349458"><ele>81.0</ele><time>2026-04-11T07:24:03.967Z</time></trkpt><trkpt lat="43.789079" lon="11.0349663"><ele>76.0</ele><time>2026-04-11T07:24:06.965Z</time></trkpt><trkpt lat="43.7891586" lon="11.0349702"><ele>71.0</ele><time>2026-04-11T07:24:09.972Z</time></trkpt><trkpt lat="43.7892381" lon="11.0349323"><ele>71.0</ele><time>2026-04-11T07:24:12.978Z</time></trkpt><trkpt lat="43.7893225" lon="11.0349296"><ele>71.0</ele><time>2026-04-11T07:24:15.981Z</time></trkpt><trkpt lat="43.7894108" lon="11.0349457"><ele>71.0</ele><time>2026-04-11T07:24:18.976Z</time></trkpt><trkpt lat="43.7894713" lon="11.0350185"><ele>71.0</ele><time>2026-04-11T07:26:03.971Z</time></trkpt><trkpt lat="43.7895164" lon="11.0350797"><ele>71.0</ele><time>2026-04-11T07:26:06.969Z</time></trkpt><trkpt lat="43.7895506" lon="11.0351575"><ele>71.0</ele><time>2026-04-11T07:26:09.971Z</time></trkpt><trkpt lat="43.7895637" lon="11.0352657"><ele>71.16666666666667</ele><time>2026-04-11T07:26:12.975Z</time></trkpt><trkpt lat="43.7895956" lon="11.0353544"><ele>71.33333333333334</ele><time>2026-04-11T07:26:15.985Z</time></trkpt><trkpt lat="43.7896511" lon="11.0354576"><ele>71.5</ele><time>2026-04-11T07:26:18.978Z</time></trkpt><trkpt lat="43.7897019" lon="11.0355333"><ele>71.66666666666667</ele><time>2026-04-11T07:26:20.97Z</time></trkpt><trkpt lat="43.7897543" lon="11.0356322"><ele>71.83333333333333</ele><time>2026-04-11T07:26:22.97Z</time></trkpt><trkpt lat="43.7897913" lon="11.0357202"><ele>72.0</ele><time>2026-04-11T07:26:24.969Z</time></trkpt><trkpt lat="43.7898303" lon="11.0358096"><ele>72.0</ele><time>2026-04-11T07:26:26.97Z</time></trkpt><trkpt lat="43.7898801" lon="11.0358847"><ele>72.0</ele><time>2026-04-11T07:26:28.98Z</time></trkpt><trkpt lat="43.7899349" lon="11.0359752"><ele>72.0</ele><time>2026-04-11T07:26:31.973Z</time></trkpt><trkpt lat="43.7899693" lon="11.0360771"><ele>72.0</ele><time>2026-04-11T07:26:40.973Z</time></trkpt><trkpt lat="43.7900308" lon="11.0361921"><ele>72.0</ele><time>2026-04-11T07:26:42.958Z</time></trkpt><trkpt lat="43.7900925" lon="11.0363089"><ele>72.0</ele><time>2026-04-11T07:26:44.966Z</time></trkpt><trkpt lat="43.790144" lon="11.0363691"><ele>72.83333333333333</ele><time>2026-04-11T07:26:46.965Z</time></trkpt><trkpt lat="43.7902209" lon="11.0363882"><ele>73.66666666666667</ele><time>2026-04-11T07:26:51.966Z</time></trkpt><trkpt lat="43.7902491" lon="11.0364929"><ele>74.5</ele><time>2026-04-11T07:27:15.98Z</time></trkpt><trkpt lat="43.7903303" lon="11.0365402"><ele>75.33333333333334</ele><time>2026-04-11T07:27:18.961Z</time></trkpt><trkpt lat="43.7904177" lon="11.0364825"><ele>76.16666666666667</ele><time>2026-04-11T07:27:21.963Z</time></trkpt><trkpt lat="43.7904659" lon="11.0364052"><ele>77.0</ele><time>2026-04-11T07:27:23.967Z</time></trkpt><trkpt lat="43.7904903" lon="11.0362885"><ele>77.0</ele><time>2026-04-11T07:27:25.967Z</time></trkpt><trkpt lat="43.7904957" lon="11.0361721"><ele>77.0</ele><time>2026-04-11T07:27:27.965Z</time></trkpt><trkpt lat="43.790501" lon="11.036034"><ele>77.0</ele><time>2026-04-11T07:27:29.965Z</time></trkpt><trkpt lat="43.790539" lon="11.0358863"><ele>77.0</ele><time>2026-04-11T07:27:31.952Z</time></trkpt><trkpt lat="43.7905661" lon="11.0357542"><ele>77.0</ele><time>2026-04-11T07:27:33.954Z</time></trkpt><trkpt lat="43.7906214" lon="11.0356038"><ele>75.83333333333334</ele><time>2026-04-11T07:27:35.953Z</time></trkpt><trkpt lat="43.7906566" lon="11.0355169"><ele>74.66666666666667</ele><time>2026-04-11T07:27:36.964Z</time></trkpt><trkpt lat="43.7906887" lon="11.0354187"><ele>73.5</ele><time>2026-04-11T07:27:37.953Z</time></trkpt><trkpt lat="43.7907206" lon="11.0353253"><ele>72.33333333333333</ele><time>2026-04-11T07:27:38.957Z</time></trkpt><trkpt lat="43.7907741" lon="11.0351941"><ele>71.16666666666666</ele><time>2026-04-11T07:27:40.957Z</time></trkpt><trkpt lat="43.7908095" lon="11.035093"><ele>70.0</ele><time>2026-04-11T07:27:42.964Z</time></trkpt><trkpt lat="43.7908547" lon="11.0350133"><ele>69.66666666666666</ele><time>2026-04-11T07:27:44.964Z</time></trkpt><trkpt lat="43.7908511" lon="11.0349197"><ele>69.33333333333333</ele><time>2026-04-11T07:27:48.977Z</time></trkpt><trkpt lat="43.7908322" lon="11.0348153"><ele>69.0</ele><time>2026-04-11T07:27:50.968Z</time></trkpt><trkpt lat="43.7908114" lon="11.0347256"><ele>68.66666666666667</ele><time>2026-04-11T07:27:52.981Z</time></trkpt><trkpt lat="43.7907836" lon="11.0346409"><ele>68.33333333333334</ele><time>2026-04-11T07:27:57.974Z</time></trkpt><trkpt lat="43.790744" lon="11.034545"><ele>68.0</ele><time>2026-04-11T07:27:59.96Z</time></trkpt><trkpt lat="43.7906706" lon="11.0344099"><ele>68.0</ele><time>2026-04-11T07:28:01.969Z</time></trkpt><trkpt lat="43.7906378" lon="11.0342558"><ele>68.0</ele><time>2026-04-11T07:28:03.948Z</time></trkpt><trkpt lat="43.7906497" lon="11.0341644"><ele>68.0</ele><time>2026-04-11T07:28:04.953Z</time></trkpt><trkpt lat="43.7906836" lon="11.0340671"><ele>68.0</ele><time>2026-04-11T07:28:05.955Z</time></trkpt><trkpt lat="43.790736" lon="11.0339685"><ele>68.0</ele><time>2026-04-11T07:28:06.952Z</time></trkpt><trkpt lat="43.7907886" lon="11.0338657"><ele>68.0</ele><time>2026-04-11T07:28:07.954Z</time></trkpt><trkpt lat="43.7908524" lon="11.0337545"><ele>68.5</ele><time>2026-04-11T07:28:08.956Z</time></trkpt><trkpt lat="43.7909104" lon="11.0336587"><ele>69.0</ele><time>2026-04-11T07:28:09.957Z</time></trkpt><trkpt lat="43.7909976" lon="11.0335647"><ele>69.5</ele><time>2026-04-11T07:28:11.952Z</time></trkpt><trkpt lat="43.7910533" lon="11.0335208"><ele>70.0</ele><time>2026-04-11T07:28:13.955Z</time></trkpt><trkpt lat="43.7909615" lon="11.033489"><ele>70.5</ele><time>2026-04-11T07:28:18.973Z</time></trkpt><trkpt lat="43.7908862" lon="11.0334719"><ele>71.0</ele><time>2026-04-11T07:28:20.967Z</time></trkpt><trkpt lat="43.7908138" lon="11.0334508"><ele>71.0</ele><time>2026-04-11T07:28:22.961Z</time></trkpt><trkpt lat="43.7907463" lon="11.0334332"><ele>71.0</ele><time>2026-04-11T07:28:24.96Z</time></trkpt><trkpt lat="43.7906691" lon="11.0334145"><ele>71.0</ele><time>2026-04-11T07:28:26.96Z</time></trkpt><trkpt lat="43.7905643" lon="11.0334101"><ele>71.0</ele><time>2026-04-11T07:28:28.97Z</time></trkpt><trkpt lat="43.7904884" lon="11.0334116"><ele>71.0</ele><time>2026-04-11T07:28:29.959Z</time></trkpt><trkpt lat="43.7904072" lon="11.033407"><ele>71.0</ele><time>2026-04-11T07:28:30.96Z</time></trkpt><trkpt lat="43.7903191" lon="11.0333932"><ele>71.0</ele><time>2026-04-11T07:28:31.966Z</time></trkpt><trkpt lat="43.7902306" lon="11.0333692"><ele>71.0</ele><time>2026-04-11T07:28:32.952Z</time></trkpt><trkpt lat="43.7901435" lon="11.0333356"><ele>71.0</ele><time>2026-04-11T07:28:33.966Z</time></trkpt><trkpt lat="43.790055" lon="11.0332822"><ele>71.0</ele><time>2026-04-11T07:28:34.956Z</time></trkpt><trkpt lat="43.7899681" lon="11.0332044"><ele>71.0</ele><time>2026-04-11T07:28:35.962Z</time></trkpt><trkpt lat="43.7898874" lon="11.0331176"><ele>71.8</ele><time>2026-04-11T07:28:36.96Z</time></trkpt><trkpt lat="43.7898169" lon="11.0330243"><ele>72.6</ele><time>2026-04-11T07:28:37.962Z</time></trkpt><trkpt lat="43.7897448" lon="11.0329282"><ele>73.4</ele><time>2026-04-11T07:28:38.961Z</time></trkpt><trkpt lat="43.7896674" lon="11.0328405"><ele>74.2</ele><time>2026-04-11T07:28:39.962Z</time></trkpt><trkpt lat="43.7895851" lon="11.0327568"><ele>75.0</ele><time>2026-04-11T07:28:40.969Z</time></trkpt><trkpt lat="43.7894921" lon="11.0326791"><ele>75.0</ele><time>2026-04-11T07:28:41.965Z</time></trkpt><trkpt lat="43.7894006" lon="11.0326039"><ele>75.0</ele><time>2026-04-11T07:28:42.957Z</time></trkpt><trkpt lat="43.7893111" lon="11.0325263"><ele>75.0</ele><time>2026-04-11T07:28:43.964Z</time></trkpt><trkpt lat="43.789226" lon="11.0324414"><ele>75.0</ele><time>2026-04-11T07:28:44.954Z</time></trkpt><trkpt lat="43.7891444" lon="11.0323458"><ele>75.0</ele><time>2026-04-11T07:28:45.952Z</time></trkpt><trkpt lat="43.7890743" lon="11.0322358"><ele>73.4</ele><time>2026-04-11T07:28:46.958Z</time></trkpt><trkpt lat="43.7890134" lon="11.0321241"><ele>71.8</ele><time>2026-04-11T07:28:47.961Z</time></trkpt><trkpt lat="43.788962" lon="11.0320117"><ele>70.2</ele><time>2026-04-11T07:28:48.96Z</time></trkpt><trkpt lat="43.7889127" lon="11.0319012"><ele>68.6</ele><time>2026-04-11T07:28:49.953Z</time></trkpt><trkpt lat="43.7888663" lon="11.0317892"><ele>67.0</ele><time>2026-04-11T07:28:50.963Z</time></trkpt><trkpt lat="43.7888193" lon="11.0316708"><ele>67.2</ele><time>2026-04-11T07:28:51.957Z</time></trkpt><trkpt lat="43.7887721" lon="11.0315472"><ele>67.4</ele><time>2026-04-11T07:28:52.959Z</time></trkpt><trkpt lat="43.7887253" lon="11.0314188"><ele>67.6</ele><time>2026-04-11T07:28:53.958Z</time></trkpt><trkpt lat="43.78868" lon="11.0312857"><ele>67.8</ele><time>2026-04-11T07:28:54.955Z</time></trkpt><trkpt lat="43.7886428" lon="11.0311477"><ele>68.0</ele><time>2026-04-11T07:28:55.956Z</time></trkpt><trkpt lat="43.7886071" lon="11.0310161"><ele>68.0</ele><time>2026-04-11T07:28:56.952Z</time></trkpt><trkpt lat="43.7885766" lon="11.030894"><ele>68.0</ele><time>2026-04-11T07:28:57.955Z</time></trkpt><trkpt lat="43.7885445" lon="11.0307823"><ele>68.0</ele><time>2026-04-11T07:28:58.954Z</time></trkpt><trkpt lat="43.7885162" lon="11.0306757"><ele>68.0</ele><time>2026-04-11T07:28:59.952Z</time></trkpt><trkpt lat="43.7884862" lon="11.0305815"><ele>68.0</ele><time>2026-04-11T07:29:00.968Z</time></trkpt><trkpt lat="43.7884438" lon="11.030496"><ele>68.0</ele><time>2026-04-11T07:29:01.968Z</time></trkpt><trkpt lat="43.7883747" lon="11.0303738"><ele>68.8</ele><time>2026-04-11T07:29:03.966Z</time></trkpt><trkpt lat="43.7883382" lon="11.030261"><ele>69.6</ele><time>2026-04-11T07:29:05.965Z</time></trkpt><trkpt lat="43.7883811" lon="11.0301497"><ele>70.4</ele><time>2026-04-11T07:29:07.965Z</time></trkpt><trkpt lat="43.7884285" lon="11.0300204"><ele>71.2</ele><time>2026-04-11T07:29:09.97Z</time></trkpt><trkpt lat="43.7884453" lon="11.0298558"><ele>72.0</ele><time>2026-04-11T07:29:11.963Z</time></trkpt><trkpt lat="43.7884487" lon="11.0297209"><ele>72.5</ele><time>2026-04-11T07:29:13.958Z</time></trkpt><trkpt lat="43.7884152" lon="11.029616"><ele>73.0</ele><time>2026-04-11T07:29:15.971Z</time></trkpt><trkpt lat="43.7883599" lon="11.0295669"><ele>73.5</ele><time>2026-04-11T07:29:17.972Z</time></trkpt><trkpt lat="43.7882683" lon="11.0295784"><ele>74.0</ele><time>2026-04-11T07:29:20.973Z</time></trkpt><trkpt lat="43.7882243" lon="11.0296632"><ele>74.5</ele><time>2026-04-11T07:29:22.973Z</time></trkpt><trkpt lat="43.7881966" lon="11.0297913"><ele>75.0</ele><time>2026-04-11T07:29:24.977Z</time></trkpt><trkpt lat="43.7882351" lon="11.0299426"><ele>74.5</ele><time>2026-04-11T07:29:26.972Z</time></trkpt><trkpt lat="43.7882763" lon="11.0300714"><ele>74.0</ele><time>2026-04-11T07:29:28.973Z</time></trkpt><trkpt lat="43.7883102" lon="11.0301663"><ele>73.5</ele><time>2026-04-11T07:29:30.976Z</time></trkpt><trkpt lat="43.7883666" lon="11.0302388"><ele>73.0</ele><time>2026-04-11T07:29:32.975Z</time></trkpt><trkpt lat="43.788428" lon="11.0302951"><ele>72.5</ele><time>2026-04-11T07:29:34.97Z</time></trkpt><trkpt lat="43.788422" lon="11.030384"><ele>72.0</ele><time>2026-04-11T07:29:44.979Z</time></trkpt><trkpt lat="43.7883623" lon="11.0303298"><ele>72.0</ele><time>2026-04-11T07:29:48.971Z</time></trkpt><trkpt lat="43.7883735" lon="11.0301939"><ele>72.0</ele><time>2026-04-11T07:29:50.977Z</time></trkpt><trkpt lat="43.7883749" lon="11.0300745"><ele>72.0</ele><time>2026-04-11T07:29:52.971Z</time></trkpt><trkpt lat="43.7883386" lon="11.0299989"><ele>72.0</ele><time>2026-04-11T07:29:55.982Z</time></trkpt><trkpt lat="43.7883854" lon="11.0299018"><ele>72.0</ele><time>2026-04-11T07:39:47.973Z</time></trkpt><trkpt lat="43.7884081" lon="11.0298161"><ele>72.0</ele><time>2026-04-11T07:39:50.974Z</time></trkpt><trkpt lat="43.7883769" lon="11.0297171"><ele>72.5</ele><time>2026-04-11T07:39:53.974Z</time></trkpt><trkpt lat="43.7883494" lon="11.0296279"><ele>73.0</ele><time>2026-04-11T07:39:56.972Z</time></trkpt><trkpt lat="43.7882659" lon="11.0296205"><ele>73.5</ele><time>2026-04-11T07:40:00.976Z</time></trkpt><trkpt lat="43.7881891" lon="11.029588"><ele>74.0</ele><time>2026-04-11T07:40:03.973Z</time></trkpt><trkpt lat="43.7881415" lon="11.0295281"><ele>74.5</ele><time>2026-04-11T07:40:46.986Z</time></trkpt><trkpt lat="43.7881326" lon="11.0294357"><ele>75.0</ele><time>2026-04-11T07:40:47.969Z</time></trkpt><trkpt lat="43.7881203" lon="11.0293166"><ele>75.0</ele><time>2026-04-11T07:40:48.96Z</time></trkpt><trkpt lat="43.7881008" lon="11.0291772"><ele>75.0</ele><time>2026-04-11T07:40:49.958Z</time></trkpt><trkpt lat="43.7880747" lon="11.0290284"><ele>75.0</ele><time>2026-04-11T07:40:50.965Z</time></trkpt><trkpt lat="43.7880137" lon="11.0288829"><ele>75.0</ele><time>2026-04-11T07:40:51.964Z</time></trkpt><trkpt lat="43.7879275" lon="11.0287589"><ele>75.6</ele><time>2026-04-11T07:40:52.953Z</time></trkpt><trkpt lat="43.7878392" lon="11.0286438"><ele>76.2</ele><time>2026-04-11T07:40:53.957Z</time></trkpt><trkpt lat="43.7877536" lon="11.0285368"><ele>76.8</ele><time>2026-04-11T07:40:54.966Z</time></trkpt><trkpt lat="43.7876707" lon="11.0284413"><ele>77.4</ele><time>2026-04-11T07:40:55.953Z</time></trkpt><trkpt lat="43.787591" lon="11.0283575"><ele>78.0</ele><time>2026-04-11T07:40:56.959Z</time></trkpt><trkpt lat="43.7875135" lon="11.0282807"><ele>80.2</ele><time>2026-04-11T07:40:57.959Z</time></trkpt><trkpt lat="43.787433" lon="11.0282099"><ele>82.4</ele><time>2026-04-11T07:40:58.954Z</time></trkpt><trkpt lat="43.7873425" lon="11.0281488"><ele>84.60000000000001</ele><time>2026-04-11T07:40:59.964Z</time></trkpt><trkpt lat="43.7872348" lon="11.0281067"><ele>86.8</ele><time>2026-04-11T07:41:00.953Z</time></trkpt><trkpt lat="43.787118" lon="11.0280753"><ele>89.0</ele><time>2026-04-11T07:41:01.947Z</time></trkpt><trkpt lat="43.7869976" lon="11.0280549"><ele>89.0</ele><time>2026-04-11T07:41:02.956Z</time></trkpt><trkpt lat="43.7868779" lon="11.0280295"><ele>89.0</ele><time>2026-04-11T07:41:03.952Z</time></trkpt><trkpt lat="43.7867689" lon="11.0279949"><ele>89.0</ele><time>2026-04-11T07:41:04.962Z</time></trkpt><trkpt lat="43.7866668" lon="11.0279449"><ele>89.0</ele><time>2026-04-11T07:41:05.95Z</time></trkpt><trkpt lat="43.7865703" lon="11.0278853"><ele>89.0</ele><time>2026-04-11T07:41:06.952Z</time></trkpt><trkpt lat="43.7864895" lon="11.0277971"><ele>90.0</ele><time>2026-04-11T07:41:07.95Z</time></trkpt><trkpt lat="43.7864086" lon="11.0276829"><ele>91.0</ele><time>2026-04-11T07:41:08.951Z</time></trkpt><trkpt lat="43.7863229" lon="11.0275665"><ele>92.0</ele><time>2026-04-11T07:41:09.953Z</time></trkpt><trkpt lat="43.7862311" lon="11.0274558"><ele>93.0</ele><time>2026-04-11T07:41:10.955Z</time></trkpt><trkpt lat="43.786129" lon="11.027364"><ele>93.0</ele><time>2026-04-11T07:41:11.951Z</time></trkpt><trkpt lat="43.7860208" lon="11.027291"><ele>93.0</ele><time>2026-04-11T07:41:12.952Z</time></trkpt><trkpt lat="43.785918" lon="11.0272362"><ele>93.0</ele><time>2026-04-11T07:41:13.956Z</time></trkpt><trkpt lat="43.7858193" lon="11.0272147"><ele>93.0</ele><time>2026-04-11T07:41:14.959Z</time></trkpt><trkpt lat="43.7857218" lon="11.0272283"><ele>93.0</ele><time>2026-04-11T07:41:15.954Z</time></trkpt><trkpt lat="43.7856223" lon="11.0272851"><ele>92.75</ele><time>2026-04-11T07:41:16.956Z</time></trkpt><trkpt lat="43.7855144" lon="11.0273625"><ele>92.5</ele><time>2026-04-11T07:41:17.945Z</time></trkpt><trkpt lat="43.7853996" lon="11.0274426"><ele>92.25</ele><time>2026-04-11T07:41:18.946Z</time></trkpt><trkpt lat="43.7852763" lon="11.0275073"><ele>92.0</ele><time>2026-04-11T07:41:19.944Z</time></trkpt><trkpt lat="43.7851528" lon="11.0275532"><ele>92.0</ele><time>2026-04-11T07:41:20.943Z</time></trkpt><trkpt lat="43.785036" lon="11.0275916"><ele>92.0</ele><time>2026-04-11T07:41:21.951Z</time></trkpt><trkpt lat="43.7849253" lon="11.0276216"><ele>92.0</ele><time>2026-04-11T07:41:22.95Z</time></trkpt><trkpt lat="43.7848183" lon="11.0276588"><ele>92.0</ele><time>2026-04-11T07:41:23.947Z</time></trkpt><trkpt lat="43.7847108" lon="11.0277073"><ele>92.0</ele><time>2026-04-11T07:41:24.945Z</time></trkpt><trkpt lat="43.7846035" lon="11.0277683"><ele>92.0</ele><time>2026-04-11T07:41:25.956Z</time></trkpt><trkpt lat="43.7845003" lon="11.0278431"><ele>92.0</ele><time>2026-04-11T07:41:26.944Z</time></trkpt><trkpt lat="43.7844036" lon="11.0279302"><ele>92.0</ele><time>2026-04-11T07:41:27.943Z</time></trkpt><trkpt lat="43.7843012" lon="11.0280193"><ele>96.25</ele><time>2026-04-11T07:41:28.946Z</time></trkpt><trkpt lat="43.7841993" lon="11.0281042"><ele>100.5</ele><time>2026-04-11T07:41:29.945Z</time></trkpt><trkpt lat="43.7840955" lon="11.0281768"><ele>104.75</ele><time>2026-04-11T07:41:30.955Z</time></trkpt><trkpt lat="43.7839843" lon="11.0282306"><ele>109.0</ele><time>2026-04-11T07:41:31.951Z</time></trkpt><trkpt lat="43.7838715" lon="11.028268"><ele>109.0</ele><time>2026-04-11T07:41:32.946Z</time></trkpt><trkpt lat="43.7837519" lon="11.0282993"><ele>109.0</ele><time>2026-04-11T07:41:33.954Z</time></trkpt><trkpt lat="43.7836264" lon="11.0283378"><ele>109.0</ele><time>2026-04-11T07:41:34.954Z</time></trkpt><trkpt lat="43.7835052" lon="11.0283799"><ele>109.0</ele><time>2026-04-11T07:41:35.952Z</time></trkpt><trkpt lat="43.7833802" lon="11.0284171"><ele>110.25</ele><time>2026-04-11T07:41:36.951Z</time></trkpt><trkpt lat="43.7832589" lon="11.0284435"><ele>111.5</ele><time>2026-04-11T07:41:37.956Z</time></trkpt><trkpt lat="43.7831439" lon="11.0284533"><ele>112.75</ele><time>2026-04-11T07:41:38.952Z</time></trkpt><trkpt lat="43.7830284" lon="11.0284611"><ele>114.0</ele><time>2026-04-11T07:41:39.954Z</time></trkpt><trkpt lat="43.7829047" lon="11.0284753"><ele>114.0</ele><time>2026-04-11T07:41:40.955Z</time></trkpt><trkpt lat="43.7827838" lon="11.0285047"><ele>114.0</ele><time>2026-04-11T07:41:41.952Z</time></trkpt><trkpt lat="43.7826654" lon="11.0285499"><ele>114.0</ele><time>2026-04-11T07:41:42.954Z</time></trkpt><trkpt lat="43.782549" lon="11.0286026"><ele>114.0</ele><time>2026-04-11T07:41:43.949Z</time></trkpt><trkpt lat="43.7824366" lon="11.0286521"><ele>117.75</ele><time>2026-04-11T07:41:44.946Z</time></trkpt><trkpt lat="43.7823224" lon="11.0286923"><ele>121.5</ele><time>2026-04-11T07:41:45.946Z</time></trkpt><trkpt lat="43.7822088" lon="11.0287176"><ele>125.25</ele><time>2026-04-11T07:41:46.948Z</time></trkpt><trkpt lat="43.7820931" lon="11.0287355"><ele>129.0</ele><time>2026-04-11T07:41:47.952Z</time></trkpt><trkpt lat="43.7819764" lon="11.0287417"><ele>129.0</ele><time>2026-04-11T07:41:48.952Z</time></trkpt><trkpt lat="43.7818576" lon="11.0287441"><ele>129.0</ele><time>2026-04-11T07:41:49.947Z</time></trkpt><trkpt lat="43.7817441" lon="11.0287447"><ele>129.0</ele><time>2026-04-11T07:41:50.95Z</time></trkpt><trkpt lat="43.7816273" lon="11.0287522"><ele>129.0</ele><time>2026-04-11T07:41:51.946Z</time></trkpt><trkpt lat="43.7815115" lon="11.0287586"><ele>133.5</ele><time>2026-04-11T07:41:52.949Z</time></trkpt><trkpt lat="43.7813921" lon="11.0287661"><ele>138.0</ele><time>2026-04-11T07:41:53.947Z</time></trkpt><trkpt lat="43.7812704" lon="11.028783"><ele>142.5</ele><time>2026-04-11T07:41:54.949Z</time></trkpt><trkpt lat="43.7811522" lon="11.0288039"><ele>147.0</ele><time>2026-04-11T07:41:55.951Z</time></trkpt><trkpt lat="43.7810396" lon="11.0288183"><ele>150.0</ele><time>2026-04-11T07:41:56.965Z</time></trkpt><trkpt lat="43.7809233" lon="11.0288257"><ele>153.0</ele><time>2026-04-11T07:41:57.948Z</time></trkpt><trkpt lat="43.7808016" lon="11.0288323"><ele>156.0</ele><time>2026-04-11T07:41:58.953Z</time></trkpt><trkpt lat="43.7806745" lon="11.0288365"><ele>159.0</ele><time>2026-04-11T07:41:59.95Z</time></trkpt><trkpt lat="43.7805461" lon="11.0288314"><ele>159.0</ele><time>2026-04-11T07:42:00.951Z</time></trkpt><trkpt lat="43.7804133" lon="11.0288205"><ele>159.0</ele><time>2026-04-11T07:42:01.948Z</time></trkpt><trkpt lat="43.780281" lon="11.0288071"><ele>159.0</ele><time>2026-04-11T07:42:02.949Z</time></trkpt><trkpt lat="43.7801559" lon="11.0287881"><ele>159.0</ele><time>2026-04-11T07:42:03.947Z</time></trkpt><trkpt lat="43.7800416" lon="11.028778"><ele>159.0</ele><time>2026-04-11T07:42:04.946Z</time></trkpt><trkpt lat="43.7799298" lon="11.0287874"><ele>159.0</ele><time>2026-04-11T07:42:05.955Z</time></trkpt><trkpt lat="43.7798343" lon="11.0288304"><ele>159.0</ele><time>2026-04-11T07:42:06.944Z</time></trkpt><trkpt lat="43.7797686" lon="11.0289154"><ele>159.0</ele><time>2026-04-11T07:42:07.947Z</time></trkpt><trkpt lat="43.779725" lon="11.0290194"><ele>159.0</ele><time>2026-04-11T07:42:08.947Z</time></trkpt><trkpt lat="43.7796928" lon="11.029126"><ele>159.4</ele><time>2026-04-11T07:42:09.949Z</time></trkpt><trkpt lat="43.7796833" lon="11.0292305"><ele>159.8</ele><time>2026-04-11T07:42:10.947Z</time></trkpt><trkpt lat="43.7797048" lon="11.0293223"><ele>160.20000000000002</ele><time>2026-04-11T07:42:11.949Z</time></trkpt><trkpt lat="43.779773" lon="11.0294001"><ele>160.60000000000002</ele><time>2026-04-11T07:42:12.963Z</time></trkpt><trkpt lat="43.7798701" lon="11.0294643"><ele>161.0</ele><time>2026-04-11T07:42:13.948Z</time></trkpt><trkpt lat="43.7799755" lon="11.0295121"><ele>161.0</ele><time>2026-04-11T07:42:14.943Z</time></trkpt><trkpt lat="43.7800896" lon="11.029554"><ele>161.0</ele><time>2026-04-11T07:42:15.949Z</time></trkpt><trkpt lat="43.7802167" lon="11.0296099"><ele>161.0</ele><time>2026-04-11T07:42:16.948Z</time></trkpt><trkpt lat="43.7803465" lon="11.0296812"><ele>161.0</ele><time>2026-04-11T07:42:17.94Z</time></trkpt><trkpt lat="43.7804603" lon="11.029769"><ele>161.0</ele><time>2026-04-11T07:42:18.935Z</time></trkpt><trkpt lat="43.7805437" lon="11.0298575"><ele>161.0</ele><time>2026-04-11T07:42:19.94Z</time></trkpt><trkpt lat="43.7806179" lon="11.0299525"><ele>161.0</ele><time>2026-04-11T07:42:20.945Z</time></trkpt><trkpt lat="43.7806667" lon="11.0300373"><ele>161.0</ele><time>2026-04-11T07:42:21.94Z</time></trkpt><trkpt lat="43.780665" lon="11.030139"><ele>161.0</ele><time>2026-04-11T07:42:23.95Z</time></trkpt><trkpt lat="43.7805921" lon="11.0301755"><ele>161.0</ele><time>2026-04-11T07:42:24.953Z</time></trkpt><trkpt lat="43.7804996" lon="11.0302179"><ele>161.0</ele><time>2026-04-11T07:42:25.957Z</time></trkpt><trkpt lat="43.780365" lon="11.0302643"><ele>161.0</ele><time>2026-04-11T07:42:26.952Z</time></trkpt><trkpt lat="43.7802067" lon="11.0303159"><ele>161.0</ele><time>2026-04-11T07:42:27.945Z</time></trkpt><trkpt lat="43.7800353" lon="11.0303819"><ele>164.33333333333331</ele><time>2026-04-11T07:42:28.949Z</time></trkpt><trkpt lat="43.7798578" lon="11.0304585"><ele>167.66666666666666</ele><time>2026-04-11T07:42:29.953Z</time></trkpt><trkpt lat="43.7797155" lon="11.030563"><ele>171.0</ele><time>2026-04-11T07:42:30.95Z</time></trkpt><trkpt lat="43.7795891" lon="11.0306938"><ele>171.0</ele><time>2026-04-11T07:42:31.953Z</time></trkpt><trkpt lat="43.7794851" lon="11.0308595"><ele>171.0</ele><time>2026-04-11T07:42:32.947Z</time></trkpt><trkpt lat="43.7794061" lon="11.0310881"><ele>171.0</ele><time>2026-04-11T07:42:33.948Z</time></trkpt><trkpt lat="43.7793441" lon="11.0312802"><ele>172.20000000000002</ele><time>2026-04-11T07:42:34.945Z</time></trkpt><trkpt lat="43.7792937" lon="11.0314445"><ele>173.4</ele><time>2026-04-11T07:42:35.949Z</time></trkpt><trkpt lat="43.7792134" lon="11.0315449"><ele>174.6</ele><time>2026-04-11T07:42:36.95Z</time></trkpt><trkpt lat="43.7791298" lon="11.0315878"><ele>175.8</ele><time>2026-04-11T07:42:37.941Z</time></trkpt><trkpt lat="43.7790213" lon="11.0316065"><ele>177.0</ele><time>2026-04-11T07:42:38.948Z</time></trkpt><trkpt lat="43.7789072" lon="11.0316302"><ele>179.2</ele><time>2026-04-11T07:42:39.943Z</time></trkpt><trkpt lat="43.7787933" lon="11.0316711"><ele>181.39999999999998</ele><time>2026-04-11T07:42:40.954Z</time></trkpt><trkpt lat="43.7786876" lon="11.0317109"><ele>183.60000000000002</ele><time>2026-04-11T07:42:41.951Z</time></trkpt><trkpt lat="43.7785925" lon="11.0317424"><ele>185.8</ele><time>2026-04-11T07:42:42.951Z</time></trkpt><trkpt lat="43.7785108" lon="11.0317736"><ele>188.0</ele><time>2026-04-11T07:42:43.949Z</time></trkpt><trkpt lat="43.7784371" lon="11.0317957"><ele>188.2</ele><time>2026-04-11T07:42:44.95Z</time></trkpt><trkpt lat="43.77834" lon="11.0317804"><ele>188.4</ele><time>2026-04-11T07:42:46.953Z</time></trkpt><trkpt lat="43.7782126" lon="11.0317297"><ele>188.6</ele><time>2026-04-11T07:42:48.954Z</time></trkpt><trkpt lat="43.7781221" lon="11.0317337"><ele>188.79999999999998</ele><time>2026-04-11T07:42:49.956Z</time></trkpt><trkpt lat="43.7780247" lon="11.0317561"><ele>189.0</ele><time>2026-04-11T07:42:50.955Z</time></trkpt><trkpt lat="43.77792" lon="11.0317863"><ele>189.0</ele><time>2026-04-11T07:42:51.953Z</time></trkpt><trkpt lat="43.7778111" lon="11.0318066"><ele>189.0</ele><time>2026-04-11T07:42:52.95Z</time></trkpt><trkpt lat="43.7777035" lon="11.0318284"><ele>189.0</ele><time>2026-04-11T07:42:53.947Z</time></trkpt><trkpt lat="43.7775904" lon="11.0318559"><ele>189.0</ele><time>2026-04-11T07:42:54.952Z</time></trkpt><trkpt lat="43.7774754" lon="11.0318827"><ele>185.75</ele><time>2026-04-11T07:42:55.951Z</time></trkpt><trkpt lat="43.7773568" lon="11.0319095"><ele>182.5</ele><time>2026-04-11T07:42:56.96Z</time></trkpt><trkpt lat="43.777232" lon="11.0319269"><ele>179.25</ele><time>2026-04-11T07:42:57.963Z</time></trkpt><trkpt lat="43.777101" lon="11.0319441"><ele>176.0</ele><time>2026-04-11T07:42:58.956Z</time></trkpt><trkpt lat="43.7769687" lon="11.0319552"><ele>171.75</ele><time>2026-04-11T07:42:59.961Z</time></trkpt><trkpt lat="43.7768292" lon="11.0319668"><ele>167.5</ele><time>2026-04-11T07:43:00.956Z</time></trkpt><trkpt lat="43.7766828" lon="11.0319755"><ele>163.25</ele><time>2026-04-11T07:43:01.954Z</time></trkpt><trkpt lat="43.7765361" lon="11.0319772"><ele>159.0</ele><time>2026-04-11T07:43:02.956Z</time></trkpt><trkpt lat="43.7763856" lon="11.0319625"><ele>159.0</ele><time>2026-04-11T07:43:03.953Z</time></trkpt><trkpt lat="43.7762348" lon="11.0319559"><ele>159.0</ele><time>2026-04-11T07:43:04.957Z</time></trkpt><trkpt lat="43.7760935" lon="11.0319545"><ele>159.0</ele><time>2026-04-11T07:43:05.951Z</time></trkpt><trkpt lat="43.775957" lon="11.0319524"><ele>159.0</ele><time>2026-04-11T07:43:06.949Z</time></trkpt><trkpt lat="43.7758312" lon="11.0319482"><ele>157.6</ele><time>2026-04-11T07:43:07.948Z</time></trkpt><trkpt lat="43.7757141" lon="11.0319471"><ele>156.2</ele><time>2026-04-11T07:43:08.948Z</time></trkpt><trkpt lat="43.7756109" lon="11.0319527"><ele>154.79999999999998</ele><time>2026-04-11T07:43:09.957Z</time></trkpt><trkpt lat="43.7755183" lon="11.0319874"><ele>153.4</ele><time>2026-04-11T07:43:10.958Z</time></trkpt><trkpt lat="43.7754364" lon="11.0320539"><ele>152.0</ele><time>2026-04-11T07:43:11.949Z</time></trkpt><trkpt lat="43.7753596" lon="11.0321252"><ele>152.0</ele><time>2026-04-11T07:43:12.951Z</time></trkpt><trkpt lat="43.7752693" lon="11.0322052"><ele>152.0</ele><time>2026-04-11T07:43:13.953Z</time></trkpt><trkpt lat="43.7751655" lon="11.03229"><ele>152.0</ele><time>2026-04-11T07:43:14.951Z</time></trkpt><trkpt lat="43.7750611" lon="11.0323837"><ele>152.0</ele><time>2026-04-11T07:43:15.953Z</time></trkpt><trkpt lat="43.7749584" lon="11.0324724"><ele>150.75</ele><time>2026-04-11T07:43:16.952Z</time></trkpt><trkpt lat="43.7748488" lon="11.0325684"><ele>149.5</ele><time>2026-04-11T07:43:17.947Z</time></trkpt><trkpt lat="43.7747351" lon="11.0326675"><ele>148.25</ele><time>2026-04-11T07:43:18.947Z</time></trkpt><trkpt lat="43.7746181" lon="11.032761"><ele>147.0</ele><time>2026-04-11T07:43:19.952Z</time></trkpt><trkpt lat="43.7744994" lon="11.0328595"><ele>147.0</ele><time>2026-04-11T07:43:20.952Z</time></trkpt><trkpt lat="43.774377" lon="11.0329554"><ele>147.0</ele><time>2026-04-11T07:43:21.948Z</time></trkpt><trkpt lat="43.7742527" lon="11.0330567"><ele>147.0</ele><time>2026-04-11T07:43:22.956Z</time></trkpt><trkpt lat="43.7741284" lon="11.0331593"><ele>147.0</ele><time>2026-04-11T07:43:23.949Z</time></trkpt><trkpt lat="43.7740111" lon="11.0332557"><ele>143.0</ele><time>2026-04-11T07:43:24.948Z</time></trkpt><trkpt lat="43.7738936" lon="11.0333539"><ele>139.0</ele><time>2026-04-11T07:43:25.954Z</time></trkpt><trkpt lat="43.7737711" lon="11.0334502"><ele>135.0</ele><time>2026-04-11T07:43:26.947Z</time></trkpt><trkpt lat="43.7736468" lon="11.0335401"><ele>131.0</ele><time>2026-04-11T07:43:27.947Z</time></trkpt><trkpt lat="43.7735269" lon="11.0336269"><ele>131.25</ele><time>2026-04-11T07:43:28.954Z</time></trkpt><trkpt lat="43.7734003" lon="11.033725"><ele>131.5</ele><time>2026-04-11T07:43:29.944Z</time></trkpt><trkpt lat="43.7732742" lon="11.033826"><ele>131.75</ele><time>2026-04-11T07:43:30.948Z</time></trkpt><trkpt lat="43.7731537" lon="11.0339253"><ele>132.0</ele><time>2026-04-11T07:43:31.946Z</time></trkpt><trkpt lat="43.7730404" lon="11.0340192"><ele>132.0</ele><time>2026-04-11T07:43:32.947Z</time></trkpt><trkpt lat="43.7729403" lon="11.0340898"><ele>132.0</ele><time>2026-04-11T07:43:33.951Z</time></trkpt><trkpt lat="43.7728426" lon="11.0341165"><ele>132.0</ele><time>2026-04-11T07:43:34.948Z</time></trkpt><trkpt lat="43.772725" lon="11.0341195"><ele>132.0</ele><time>2026-04-11T07:43:35.948Z</time></trkpt><trkpt lat="43.7725913" lon="11.0341144"><ele>129.0</ele><time>2026-04-11T07:43:36.955Z</time></trkpt><trkpt lat="43.7724703" lon="11.0340995"><ele>125.99999999999999</ele><time>2026-04-11T07:43:37.956Z</time></trkpt><trkpt lat="43.7723533" lon="11.0340916"><ele>122.99999999999999</ele><time>2026-04-11T07:43:38.962Z</time></trkpt><trkpt lat="43.7722449" lon="11.0340914"><ele>120.0</ele><time>2026-04-11T07:43:39.959Z</time></trkpt><trkpt lat="43.7721458" lon="11.0340912"><ele>117.0</ele><time>2026-04-11T07:43:40.958Z</time></trkpt><trkpt lat="43.7720648" lon="11.0340912"><ele>117.0</ele><time>2026-04-11T07:43:41.959Z</time></trkpt><trkpt lat="43.7719961" lon="11.034091"><ele>117.0</ele><time>2026-04-11T07:43:42.963Z</time></trkpt><trkpt lat="43.7718916" lon="11.0341088"><ele>117.0</ele><time>2026-04-11T07:43:44.965Z</time></trkpt><trkpt lat="43.7718019" lon="11.0341452"><ele>117.0</ele><time>2026-04-11T07:43:46.964Z</time></trkpt><trkpt lat="43.7717366" lon="11.0341804"><ele>117.0</ele><time>2026-04-11T07:43:48.962Z</time></trkpt><trkpt lat="43.7716659" lon="11.034247"><ele>117.0</ele><time>2026-04-11T07:43:51.964Z</time></trkpt><trkpt lat="43.7716444" lon="11.0343377"><ele>115.16666666666667</ele><time>2026-04-11T07:43:53.961Z</time></trkpt><trkpt lat="43.7716172" lon="11.0344619"><ele>113.33333333333334</ele><time>2026-04-11T07:43:55.966Z</time></trkpt><trkpt lat="43.7715748" lon="11.0346"><ele>111.5</ele><time>2026-04-11T07:43:57.96Z</time></trkpt><trkpt lat="43.7715268" lon="11.0346744"><ele>109.66666666666667</ele><time>2026-04-11T07:43:58.958Z</time></trkpt><trkpt lat="43.7714749" lon="11.03476"><ele>107.83333333333334</ele><time>2026-04-11T07:43:59.961Z</time></trkpt><trkpt lat="43.7714336" lon="11.0348755"><ele>106.0</ele><time>2026-04-11T07:44:00.965Z</time></trkpt><trkpt lat="43.7714001" lon="11.0349761"><ele>105.33333333333334</ele><time>2026-04-11T07:44:01.947Z</time></trkpt><trkpt lat="43.7713686" lon="11.0350684"><ele>104.66666666666667</ele><time>2026-04-11T07:44:02.946Z</time></trkpt><trkpt lat="43.7713397" lon="11.0351572"><ele>104.0</ele><time>2026-04-11T07:44:03.935Z</time></trkpt><trkpt lat="43.7712991" lon="11.035242"><ele>103.33333333333334</ele><time>2026-04-11T07:44:04.939Z</time></trkpt><trkpt lat="43.7712528" lon="11.035341"><ele>102.66666666666667</ele><time>2026-04-11T07:44:05.947Z</time></trkpt><trkpt lat="43.7712109" lon="11.0354408"><ele>102.0</ele><time>2026-04-11T07:44:06.941Z</time></trkpt><trkpt lat="43.7711592" lon="11.0355415"><ele>102.0</ele><time>2026-04-11T07:44:07.95Z</time></trkpt><trkpt lat="43.7710981" lon="11.0356433"><ele>102.0</ele><time>2026-04-11T07:44:08.945Z</time></trkpt><trkpt lat="43.7710481" lon="11.0357312"><ele>102.0</ele><time>2026-04-11T07:44:09.943Z</time></trkpt><trkpt lat="43.7710002" lon="11.03583"><ele>102.0</ele><time>2026-04-11T07:44:10.94Z</time></trkpt><trkpt lat="43.7709609" lon="11.0359165"><ele>102.0</ele><time>2026-04-11T07:44:11.944Z</time></trkpt><trkpt lat="43.7709266" lon="11.0360093"><ele>102.0</ele><time>2026-04-11T07:44:12.941Z</time></trkpt><trkpt lat="43.7708724" lon="11.0361807"><ele>98.6</ele><time>2026-04-11T07:44:14.958Z</time></trkpt><trkpt lat="43.7708543" lon="11.0362754"><ele>95.19999999999999</ele><time>2026-04-11T07:44:15.953Z</time></trkpt><trkpt lat="43.7708412" lon="11.0364234"><ele>91.8</ele><time>2026-04-11T07:44:17.946Z</time></trkpt><trkpt lat="43.7707946" lon="11.0365464"><ele>88.4</ele><time>2026-04-11T07:44:19.95Z</time></trkpt><trkpt lat="43.7706959" lon="11.0366204"><ele>85.0</ele><time>2026-04-11T07:44:21.958Z</time></trkpt><trkpt lat="43.7706367" lon="11.0366661"><ele>83.28571428571429</ele><time>2026-04-11T07:44:22.959Z</time></trkpt><trkpt lat="43.7705754" lon="11.036704"><ele>81.57142857142857</ele><time>2026-04-11T07:44:23.942Z</time></trkpt><trkpt lat="43.7705114" lon="11.0367459"><ele>79.85714285714286</ele><time>2026-04-11T07:44:24.953Z</time></trkpt><trkpt lat="43.7704462" lon="11.0367948"><ele>78.14285714285714</ele><time>2026-04-11T07:44:25.948Z</time></trkpt><trkpt lat="43.770389" lon="11.0368607"><ele>76.42857142857143</ele><time>2026-04-11T07:44:26.95Z</time></trkpt><trkpt lat="43.7703153" lon="11.0368994"><ele>74.71428571428571</ele><time>2026-04-11T07:44:27.958Z</time></trkpt><trkpt lat="43.7702423" lon="11.0369277"><ele>73.0</ele><time>2026-04-11T07:44:28.962Z</time></trkpt><trkpt lat="43.7701689" lon="11.0369496"><ele>72.16666666666666</ele><time>2026-04-11T07:44:29.948Z</time></trkpt><trkpt lat="43.7701064" lon="11.0369808"><ele>71.33333333333333</ele><time>2026-04-11T07:44:30.964Z</time></trkpt><trkpt lat="43.7700083" lon="11.0370354"><ele>70.5</ele><time>2026-04-11T07:44:32.954Z</time></trkpt><trkpt lat="43.7699222" lon="11.0371348"><ele>69.66666666666667</ele><time>2026-04-11T07:44:34.948Z</time></trkpt><trkpt lat="43.7698814" lon="11.0372034"><ele>68.83333333333334</ele><time>2026-04-11T07:44:35.946Z</time></trkpt><trkpt lat="43.7698373" lon="11.0372831"><ele>68.0</ele><time>2026-04-11T07:44:36.948Z</time></trkpt><trkpt lat="43.7698064" lon="11.0373681"><ele>68.0</ele><time>2026-04-11T07:44:37.949Z</time></trkpt><trkpt lat="43.7697803" lon="11.0374542"><ele>68.0</ele><time>2026-04-11T07:44:38.962Z</time></trkpt><trkpt lat="43.7697569" lon="11.0375449"><ele>68.0</ele><time>2026-04-11T07:44:39.964Z</time></trkpt><trkpt lat="43.7697451" lon="11.0376318"><ele>68.0</ele><time>2026-04-11T07:44:40.971Z</time></trkpt><trkpt lat="43.7697176" lon="11.037717"><ele>68.0</ele><time>2026-04-11T07:44:41.957Z</time></trkpt><trkpt lat="43.7696897" lon="11.0377968"><ele>68.0</ele><time>2026-04-11T07:44:42.958Z</time></trkpt><trkpt lat="43.769619" lon="11.0379393"><ele>65.83333333333334</ele><time>2026-04-11T07:44:44.951Z</time></trkpt><trkpt lat="43.7695606" lon="11.037995"><ele>63.66666666666667</ele><time>2026-04-11T07:44:45.951Z</time></trkpt><trkpt lat="43.7694681" lon="11.0380241"><ele>61.5</ele><time>2026-04-11T07:44:47.944Z</time></trkpt><trkpt lat="43.7693858" lon="11.0379647"><ele>59.33333333333333</ele><time>2026-04-11T07:44:49.953Z</time></trkpt><trkpt lat="43.7693101" lon="11.0379425"><ele>57.166666666666664</ele><time>2026-04-11T07:44:51.975Z</time></trkpt><trkpt lat="43.7692633" lon="11.0380203"><ele>55.0</ele><time>2026-04-11T07:44:54.964Z</time></trkpt><trkpt lat="43.7691614" lon="11.0380499"><ele>53.49999999999999</ele><time>2026-04-11T07:46:43.958Z</time></trkpt><trkpt lat="43.7690908" lon="11.0380207"><ele>52.0</ele><time>2026-04-11T07:46:45.956Z</time></trkpt><trkpt lat="43.7690314" lon="11.0379601"><ele>50.5</ele><time>2026-04-11T07:46:54.97Z</time></trkpt><trkpt lat="43.7689782" lon="11.037907"><ele>49.0</ele><time>2026-04-11T07:46:55.965Z</time></trkpt><trkpt lat="43.7689034" lon="11.0378681"><ele>47.5</ele><time>2026-04-11T07:46:56.961Z</time></trkpt><trkpt lat="43.7688317" lon="11.0378381"><ele>46.0</ele><time>2026-04-11T07:46:57.951Z</time></trkpt><trkpt lat="43.7687192" lon="11.0378056"><ele>46.0</ele><time>2026-04-11T07:46:59.956Z</time></trkpt><trkpt lat="43.7686535" lon="11.0377661"><ele>46.0</ele><time>2026-04-11T07:47:01.967Z</time></trkpt><trkpt lat="43.7686872" lon="11.0376484"><ele>46.0</ele><time>2026-04-11T07:47:08.953Z</time></trkpt><trkpt lat="43.7687071" lon="11.0375373"><ele>46.0</ele><time>2026-04-11T07:47:10.959Z</time></trkpt><trkpt lat="43.7687056" lon="11.0374199"><ele>46.0</ele><time>2026-04-11T07:47:13.964Z</time></trkpt><trkpt lat="43.7686515" lon="11.0373598"><ele>46.0</ele><time>2026-04-11T07:47:20.98Z</time></trkpt><trkpt lat="43.7685553" lon="11.0373284"><ele>44.0</ele><time>2026-04-11T07:47:23.967Z</time></trkpt><trkpt lat="43.7684559" lon="11.0372883"><ele>42.0</ele><time>2026-04-11T07:47:25.965Z</time></trkpt><trkpt lat="43.768337" lon="11.0372226"><ele>40.0</ele><time>2026-04-11T07:47:27.952Z</time></trkpt><trkpt lat="43.7682742" lon="11.0371772"><ele>38.0</ele><time>2026-04-11T07:47:28.956Z</time></trkpt><trkpt lat="43.7682138" lon="11.037126"><ele>36.0</ele><time>2026-04-11T07:47:29.959Z</time></trkpt><trkpt lat="43.7681331" lon="11.0370381"><ele>36.0</ele><time>2026-04-11T07:47:31.96Z</time></trkpt><trkpt lat="43.7680856" lon="11.0369712"><ele>36.0</ele><time>2026-04-11T07:47:33.956Z</time></trkpt><trkpt lat="43.7680288" lon="11.0368629"><ele>36.0</ele><time>2026-04-11T07:47:36.978Z</time></trkpt><trkpt lat="43.7679935" lon="11.0367555"><ele>36.0</ele><time>2026-04-11T07:47:38.964Z</time></trkpt><trkpt lat="43.7679717" lon="11.036645"><ele>36.0</ele><time>2026-04-11T07:47:40.963Z</time></trkpt><trkpt lat="43.7679563" lon="11.0365483"><ele>36.0</ele><time>2026-04-11T07:47:42.969Z</time></trkpt><trkpt lat="43.7679636" lon="11.0364529"><ele>36.142857142857146</ele><time>2026-04-11T07:47:45.978Z</time></trkpt><trkpt lat="43.7679482" lon="11.0363504"><ele>36.285714285714285</ele><time>2026-04-11T07:47:54.979Z</time></trkpt><trkpt lat="43.767941" lon="11.0362578"><ele>36.42857142857143</ele><time>2026-04-11T07:47:55.966Z</time></trkpt><trkpt lat="43.767941" lon="11.036157"><ele>36.57142857142857</ele><time>2026-04-11T07:47:56.96Z</time></trkpt><trkpt lat="43.7679433" lon="11.0360534"><ele>36.714285714285715</ele><time>2026-04-11T07:47:57.949Z</time></trkpt><trkpt lat="43.7679593" lon="11.035951"><ele>36.85714285714286</ele><time>2026-04-11T07:47:58.956Z</time></trkpt><trkpt lat="43.7679868" lon="11.0358502"><ele>37.0</ele><time>2026-04-11T07:47:59.955Z</time></trkpt><trkpt lat="43.7680237" lon="11.0357411"><ele>37.333333333333336</ele><time>2026-04-11T07:48:00.955Z</time></trkpt><trkpt lat="43.7680528" lon="11.0356314"><ele>37.66666666666667</ele><time>2026-04-11T07:48:01.952Z</time></trkpt><trkpt lat="43.768082" lon="11.0355253"><ele>38.0</ele><time>2026-04-11T07:48:02.954Z</time></trkpt><trkpt lat="43.7680997" lon="11.0354413"><ele>38.333333333333336</ele><time>2026-04-11T07:48:03.958Z</time></trkpt><trkpt lat="43.7681013" lon="11.0353133"><ele>38.666666666666664</ele><time>2026-04-11T07:48:05.963Z</time></trkpt><trkpt lat="43.7680857" lon="11.0352015"><ele>39.0</ele><time>2026-04-11T07:48:07.967Z</time></trkpt><trkpt lat="43.7680535" lon="11.0351147"><ele>39.0</ele><time>2026-04-11T07:48:09.972Z</time></trkpt><trkpt lat="43.7680055" lon="11.0350171"><ele>39.0</ele><time>2026-04-11T07:48:11.971Z</time></trkpt><trkpt lat="43.7679503" lon="11.0348984"><ele>39.0</ele><time>2026-04-11T07:48:13.951Z</time></trkpt><trkpt lat="43.7679135" lon="11.0348235"><ele>39.0</ele><time>2026-04-11T07:48:14.953Z</time></trkpt><trkpt lat="43.7678763" lon="11.0347506"><ele>39.0</ele><time>2026-04-11T07:48:15.958Z</time></trkpt><trkpt lat="43.7678155" lon="11.0346337"><ele>39.0</ele><time>2026-04-11T07:48:17.954Z</time></trkpt><trkpt lat="43.7677465" lon="11.0346056"><ele>38.5</ele><time>2026-04-11T07:48:20.966Z</time></trkpt><trkpt lat="43.767642" lon="11.0345559"><ele>38.0</ele><time>2026-04-11T07:48:23.972Z</time></trkpt><trkpt lat="43.7675855" lon="11.0345097"><ele>37.5</ele><time>2026-04-11T07:48:24.969Z</time></trkpt><trkpt lat="43.7675302" lon="11.0344639"><ele>37.0</ele><time>2026-04-11T07:48:25.953Z</time></trkpt><trkpt lat="43.7674416" lon="11.0343906"><ele>36.5</ele><time>2026-04-11T07:48:27.955Z</time></trkpt><trkpt lat="43.7673864" lon="11.0342923"><ele>36.0</ele><time>2026-04-11T07:48:29.97Z</time></trkpt><trkpt lat="43.7673504" lon="11.0341666"><ele>37.25</ele><time>2026-04-11T07:48:31.955Z</time></trkpt><trkpt lat="43.767315" lon="11.0340198"><ele>38.5</ele><time>2026-04-11T07:48:33.956Z</time></trkpt><trkpt lat="43.7672677" lon="11.033854"><ele>39.75</ele><time>2026-04-11T07:48:35.957Z</time></trkpt><trkpt lat="43.7672381" lon="11.0337074"><ele>41.0</ele><time>2026-04-11T07:48:37.966Z</time></trkpt><trkpt lat="43.7672145" lon="11.0335685"><ele>41.0</ele><time>2026-04-11T07:48:39.961Z</time></trkpt><trkpt lat="43.7671986" lon="11.0334806"><ele>41.0</ele><time>2026-04-11T07:48:40.967Z</time></trkpt><trkpt lat="43.767176" lon="11.0333826"><ele>41.0</ele><time>2026-04-11T07:48:41.969Z</time></trkpt><trkpt lat="43.7671496" lon="11.0332709"><ele>41.0</ele><time>2026-04-11T07:48:42.961Z</time></trkpt><trkpt lat="43.7671226" lon="11.0331424"><ele>41.0</ele><time>2026-04-11T07:48:43.977Z</time></trkpt><trkpt lat="43.767087" lon="11.0330041"><ele>41.0</ele><time>2026-04-11T07:48:44.971Z</time></trkpt><trkpt lat="43.7670497" lon="11.0328641"><ele>41.25</ele><time>2026-04-11T07:48:45.974Z</time></trkpt><trkpt lat="43.767024" lon="11.032724"><ele>41.5</ele><time>2026-04-11T07:48:46.977Z</time></trkpt><trkpt lat="43.7669976" lon="11.0325752"><ele>41.75</ele><time>2026-04-11T07:48:47.978Z</time></trkpt><trkpt lat="43.7669732" lon="11.0324141"><ele>42.0</ele><time>2026-04-11T07:48:48.977Z</time></trkpt><trkpt lat="43.7669496" lon="11.0322234"><ele>42.5</ele><time>2026-04-11T07:48:49.96Z</time></trkpt><trkpt lat="43.7669269" lon="11.0320348"><ele>43.0</ele><time>2026-04-11T07:48:50.979Z</time></trkpt><trkpt lat="43.766904" lon="11.0318586"><ele>43.5</ele><time>2026-04-11T07:48:51.982Z</time></trkpt><trkpt lat="43.7668804" lon="11.0316928"><ele>44.0</ele><time>2026-04-11T07:48:52.986Z</time></trkpt><trkpt lat="43.766861" lon="11.0315308"><ele>42.2</ele><time>2026-04-11T07:48:53.985Z</time></trkpt><trkpt lat="43.7668423" lon="11.0313743"><ele>40.400000000000006</ele><time>2026-04-11T07:48:54.983Z</time></trkpt><trkpt lat="43.766827" lon="11.0312221"><ele>38.6</ele><time>2026-04-11T07:48:55.973Z</time></trkpt><trkpt lat="43.766812" lon="11.0310774"><ele>36.8</ele><time>2026-04-11T07:48:56.967Z</time></trkpt><trkpt lat="43.7667931" lon="11.0309404"><ele>35.0</ele><time>2026-04-11T07:48:57.961Z</time></trkpt><trkpt lat="43.7667805" lon="11.0308134"><ele>34.666666666666664</ele><time>2026-04-11T07:48:58.978Z</time></trkpt><trkpt lat="43.7667797" lon="11.0307036"><ele>34.33333333333333</ele><time>2026-04-11T07:48:59.971Z</time></trkpt><trkpt lat="43.7667884" lon="11.030597"><ele>34.0</ele><time>2026-04-11T07:49:00.979Z</time></trkpt><trkpt lat="43.766812" lon="11.0304922"><ele>33.666666666666664</ele><time>2026-04-11T07:49:01.96Z</time></trkpt><trkpt lat="43.7668392" lon="11.0303823"><ele>33.333333333333336</ele><time>2026-04-11T07:49:02.96Z</time></trkpt><trkpt lat="43.766881" lon="11.0302607"><ele>33.0</ele><time>2026-04-11T07:49:03.96Z</time></trkpt><trkpt lat="43.7669253" lon="11.030133"><ele>33.199999999999996</ele><time>2026-04-11T07:49:04.961Z</time></trkpt><trkpt lat="43.7669723" lon="11.0300089"><ele>33.4</ele><time>2026-04-11T07:49:05.957Z</time></trkpt><trkpt lat="43.7670249" lon="11.0298887"><ele>33.599999999999994</ele><time>2026-04-11T07:49:06.957Z</time></trkpt><trkpt lat="43.7670758" lon="11.0297715"><ele>33.8</ele><time>2026-04-11T07:49:07.966Z</time></trkpt><trkpt lat="43.7671297" lon="11.029672"><ele>34.0</ele><time>2026-04-11T07:49:08.963Z</time></trkpt><trkpt lat="43.7671812" lon="11.0295857"><ele>34.0</ele><time>2026-04-11T07:49:09.976Z</time></trkpt><trkpt lat="43.7672311" lon="11.0295012"><ele>34.0</ele><time>2026-04-11T07:49:10.965Z</time></trkpt><trkpt lat="43.767279" lon="11.0294211"><ele>34.0</ele><time>2026-04-11T07:49:11.963Z</time></trkpt><trkpt lat="43.7673115" lon="11.029342"><ele>34.0</ele><time>2026-04-11T07:49:12.965Z</time></trkpt><trkpt lat="43.7673324" lon="11.0292595"><ele>34.0</ele><time>2026-04-11T07:49:13.963Z</time></trkpt><trkpt lat="43.7673342" lon="11.0291025"><ele>34.0</ele><time>2026-04-11T07:49:15.956Z</time></trkpt><trkpt lat="43.7673312" lon="11.0289702"><ele>34.2</ele><time>2026-04-11T07:49:17.953Z</time></trkpt><trkpt lat="43.7674026" lon="11.0288745"><ele>34.4</ele><time>2026-04-11T07:49:19.961Z</time></trkpt><trkpt lat="43.7674849" lon="11.0288424"><ele>34.6</ele><time>2026-04-11T07:49:20.961Z</time></trkpt><trkpt lat="43.767597" lon="11.0288091"><ele>34.8</ele><time>2026-04-11T07:49:21.965Z</time></trkpt><trkpt lat="43.7677221" lon="11.0287676"><ele>35.0</ele><time>2026-04-11T07:49:22.959Z</time></trkpt><trkpt lat="43.7678607" lon="11.0287208"><ele>35.25</ele><time>2026-04-11T07:49:23.958Z</time></trkpt><trkpt lat="43.7680041" lon="11.0286704"><ele>35.5</ele><time>2026-04-11T07:49:24.974Z</time></trkpt><trkpt lat="43.7681466" lon="11.0286258"><ele>35.75</ele><time>2026-04-11T07:49:25.978Z</time></trkpt><trkpt lat="43.7682742" lon="11.0285806"><ele>36.0</ele><time>2026-04-11T07:49:26.973Z</time></trkpt><trkpt lat="43.7683932" lon="11.0285378"><ele>36.0</ele><time>2026-04-11T07:49:27.969Z</time></trkpt><trkpt lat="43.7684879" lon="11.028494"><ele>36.0</ele><time>2026-04-11T07:49:28.969Z</time></trkpt><trkpt lat="43.7685731" lon="11.0284549"><ele>36.0</ele><time>2026-04-11T07:49:29.967Z</time></trkpt><trkpt lat="43.7686475" lon="11.0284227"><ele>36.0</ele><time>2026-04-11T07:49:30.97Z</time></trkpt><trkpt lat="43.7687477" lon="11.02838"><ele>36.0</ele><time>2026-04-11T07:49:32.966Z</time></trkpt><trkpt lat="43.7688224" lon="11.0283654"><ele>36.0</ele><time>2026-04-11T07:49:34.966Z</time></trkpt><trkpt lat="43.7689012" lon="11.0283557"><ele>37.333333333333336</ele><time>2026-04-11T07:49:36.958Z</time></trkpt><trkpt lat="43.7690094" lon="11.0283003"><ele>38.666666666666664</ele><time>2026-04-11T07:49:38.958Z</time></trkpt><trkpt lat="43.7690716" lon="11.0282635"><ele>40.0</ele><time>2026-04-11T07:49:39.958Z</time></trkpt><trkpt lat="43.7691389" lon="11.028223"><ele>41.33333333333333</ele><time>2026-04-11T07:49:40.962Z</time></trkpt><trkpt lat="43.7692125" lon="11.0281782"><ele>42.666666666666664</ele><time>2026-04-11T07:49:41.954Z</time></trkpt><trkpt lat="43.7692958" lon="11.0281299"><ele>44.0</ele><time>2026-04-11T07:49:42.963Z</time></trkpt><trkpt lat="43.7693979" lon="11.0280747"><ele>44.75</ele><time>2026-04-11T07:49:43.956Z</time></trkpt><trkpt lat="43.7695174" lon="11.028011"><ele>45.5</ele><time>2026-04-11T07:49:44.954Z</time></trkpt><trkpt lat="43.769654" lon="11.027943"><ele>46.25</ele><time>2026-04-11T07:49:45.954Z</time></trkpt><trkpt lat="43.7698011" lon="11.0278752"><ele>47.0</ele><time>2026-04-11T07:49:46.955Z</time></trkpt><trkpt lat="43.7699671" lon="11.0278021"><ele>47.0</ele><time>2026-04-11T07:49:47.954Z</time></trkpt><trkpt lat="43.7701213" lon="11.0277475"><ele>47.0</ele><time>2026-04-11T07:49:48.944Z</time></trkpt><trkpt lat="43.7702325" lon="11.0277073"><ele>47.0</ele><time>2026-04-11T07:49:49.938Z</time></trkpt><trkpt lat="43.7703323" lon="11.0276699"><ele>47.0</ele><time>2026-04-11T07:49:50.94Z</time></trkpt><trkpt lat="43.7704275" lon="11.0276302"><ele>47.8</ele><time>2026-04-11T07:49:51.938Z</time></trkpt><trkpt lat="43.7705226" lon="11.0275755"><ele>48.6</ele><time>2026-04-11T07:49:52.944Z</time></trkpt><trkpt lat="43.7706144" lon="11.0275213"><ele>49.4</ele><time>2026-04-11T07:49:53.943Z</time></trkpt><trkpt lat="43.7706976" lon="11.0274655"><ele>50.199999999999996</ele><time>2026-04-11T07:49:54.94Z</time></trkpt><trkpt lat="43.7707803" lon="11.027421"><ele>51.0</ele><time>2026-04-11T07:49:55.939Z</time></trkpt><trkpt lat="43.7708565" lon="11.0273909"><ele>51.8</ele><time>2026-04-11T07:49:56.944Z</time></trkpt><trkpt lat="43.7709357" lon="11.0273824"><ele>52.599999999999994</ele><time>2026-04-11T07:49:58.936Z</time></trkpt><trkpt lat="43.770918" lon="11.0272769"><ele>53.4</ele><time>2026-04-11T07:50:05.955Z</time></trkpt><trkpt lat="43.7708889" lon="11.0271359"><ele>54.2</ele><time>2026-04-11T07:50:07.951Z</time></trkpt><trkpt lat="43.7708945" lon="11.02699"><ele>55.0</ele><time>2026-04-11T07:50:09.934Z</time></trkpt><trkpt lat="43.7709297" lon="11.0268688"><ele>54.99999999999999</ele><time>2026-04-11T07:50:11.946Z</time></trkpt><trkpt lat="43.7710051" lon="11.0267573"><ele>55.0</ele><time>2026-04-11T07:50:13.951Z</time></trkpt><trkpt lat="43.7710674" lon="11.0266957"><ele>55.0</ele><time>2026-04-11T07:50:14.943Z</time></trkpt><trkpt lat="43.7711171" lon="11.0266327"><ele>55.0</ele><time>2026-04-11T07:50:15.943Z</time></trkpt><trkpt lat="43.7711898" lon="11.0264943"><ele>54.99999999999999</ele><time>2026-04-11T07:50:17.945Z</time></trkpt><trkpt lat="43.7712057" lon="11.0264074"><ele>55.0</ele><time>2026-04-11T07:50:18.953Z</time></trkpt><trkpt lat="43.7712088" lon="11.0263093"><ele>58.99999999999999</ele><time>2026-04-11T07:50:19.947Z</time></trkpt><trkpt lat="43.771214" lon="11.0262203"><ele>63.0</ele><time>2026-04-11T07:50:20.951Z</time></trkpt><trkpt lat="43.7712482" lon="11.0261019"><ele>67.0</ele><time>2026-04-11T07:50:22.945Z</time></trkpt><trkpt lat="43.7713339" lon="11.0260336"><ele>71.0</ele><time>2026-04-11T07:50:24.958Z</time></trkpt><trkpt lat="43.771428" lon="11.0259447"><ele>75.0</ele><time>2026-04-11T07:50:26.968Z</time></trkpt><trkpt lat="43.7714711" lon="11.0258763"><ele>79.0</ele><time>2026-04-11T07:50:27.97Z</time></trkpt><trkpt lat="43.7715382" lon="11.0257953"><ele>79.42857142857143</ele><time>2026-04-11T07:50:28.963Z</time></trkpt><trkpt lat="43.7715967" lon="11.0257194"><ele>79.85714285714286</ele><time>2026-04-11T07:50:29.963Z</time></trkpt><trkpt lat="43.771656" lon="11.025657"><ele>80.28571428571428</ele><time>2026-04-11T07:50:30.969Z</time></trkpt><trkpt lat="43.7717183" lon="11.0256066"><ele>80.71428571428572</ele><time>2026-04-11T07:50:31.956Z</time></trkpt><trkpt lat="43.7717831" lon="11.025567"><ele>81.14285714285714</ele><time>2026-04-11T07:50:32.95Z</time></trkpt><trkpt lat="43.7718459" lon="11.0255355"><ele>81.57142857142857</ele><time>2026-04-11T07:50:33.946Z</time></trkpt><trkpt lat="43.771909" lon="11.0255095"><ele>82.0</ele><time>2026-04-11T07:50:34.944Z</time></trkpt><trkpt lat="43.7719765" lon="11.0254991"><ele>84.83333333333333</ele><time>2026-04-11T07:50:35.96Z</time></trkpt><trkpt lat="43.7720482" lon="11.02549"><ele>87.66666666666666</ele><time>2026-04-11T07:50:36.962Z</time></trkpt><trkpt lat="43.7721198" lon="11.025471"><ele>90.5</ele><time>2026-04-11T07:50:37.968Z</time></trkpt><trkpt lat="43.772194" lon="11.0254526"><ele>93.33333333333333</ele><time>2026-04-11T07:50:38.96Z</time></trkpt><trkpt lat="43.7722588" lon="11.025415"><ele>96.16666666666667</ele><time>2026-04-11T07:50:39.951Z</time></trkpt><trkpt lat="43.77231" lon="11.0253601"><ele>99.0</ele><time>2026-04-11T07:50:40.949Z</time></trkpt><trkpt lat="43.7723705" lon="11.0252117"><ele>99.0</ele><time>2026-04-11T07:50:42.977Z</time></trkpt><trkpt lat="43.7723943" lon="11.0251226"><ele>99.0</ele><time>2026-04-11T07:50:43.971Z</time></trkpt><trkpt lat="43.7724327" lon="11.02503"><ele>99.0</ele><time>2026-04-11T07:50:44.974Z</time></trkpt><trkpt lat="43.7724773" lon="11.0249271"><ele>99.0</ele><time>2026-04-11T07:50:45.956Z</time></trkpt><trkpt lat="43.7725274" lon="11.0248158"><ele>99.0</ele><time>2026-04-11T07:50:46.966Z</time></trkpt><trkpt lat="43.7725788" lon="11.0247051"><ele>99.0</ele><time>2026-04-11T07:50:47.967Z</time></trkpt><trkpt lat="43.7726381" lon="11.0246053"><ele>101.80000000000001</ele><time>2026-04-11T07:50:48.965Z</time></trkpt><trkpt lat="43.7726959" lon="11.0245089"><ele>104.60000000000001</ele><time>2026-04-11T07:50:49.98Z</time></trkpt><trkpt lat="43.7727546" lon="11.0244125"><ele>107.4</ele><time>2026-04-11T07:50:50.968Z</time></trkpt><trkpt lat="43.7728124" lon="11.0243138"><ele>110.2</ele><time>2026-04-11T07:50:51.972Z</time></trkpt><trkpt lat="43.7728753" lon="11.0242087"><ele>113.0</ele><time>2026-04-11T07:50:52.973Z</time></trkpt><trkpt lat="43.7729403" lon="11.0240937"><ele>114.2</ele><time>2026-04-11T07:50:53.961Z</time></trkpt><trkpt lat="43.7729959" lon="11.0239889"><ele>115.4</ele><time>2026-04-11T07:50:54.968Z</time></trkpt><trkpt lat="43.7730531" lon="11.0238949"><ele>116.60000000000001</ele><time>2026-04-11T07:50:55.974Z</time></trkpt><trkpt lat="43.7731102" lon="11.0238013"><ele>117.80000000000001</ele><time>2026-04-11T07:50:56.965Z</time></trkpt><trkpt lat="43.7731604" lon="11.0236943"><ele>119.0</ele><time>2026-04-11T07:50:57.973Z</time></trkpt><trkpt lat="43.7732134" lon="11.0235897"><ele>118.99999999999999</ele><time>2026-04-11T07:50:58.966Z</time></trkpt><trkpt lat="43.7732611" lon="11.0234921"><ele>119.0</ele><time>2026-04-11T07:50:59.959Z</time></trkpt><trkpt lat="43.7733112" lon="11.0234018"><ele>119.0</ele><time>2026-04-11T07:51:00.95Z</time></trkpt><trkpt lat="43.7733649" lon="11.0233305"><ele>119.0</ele><time>2026-04-11T07:51:01.963Z</time></trkpt><trkpt lat="43.7734219" lon="11.0232714"><ele>118.99999999999999</ele><time>2026-04-11T07:51:02.96Z</time></trkpt><trkpt lat="43.7734839" lon="11.0232231"><ele>119.0</ele><time>2026-04-11T07:51:03.955Z</time></trkpt><trkpt lat="43.7735638" lon="11.0231645"><ele>122.2</ele><time>2026-04-11T07:51:04.959Z</time></trkpt><trkpt lat="43.7736405" lon="11.0230903"><ele>125.4</ele><time>2026-04-11T07:51:05.952Z</time></trkpt><trkpt lat="43.773718" lon="11.0230078"><ele>128.6</ele><time>2026-04-11T07:51:06.947Z</time></trkpt><trkpt lat="43.7737964" lon="11.0229339"><ele>131.8</ele><time>2026-04-11T07:51:07.952Z</time></trkpt><trkpt lat="43.7738715" lon="11.0228761"><ele>135.0</ele><time>2026-04-11T07:51:08.952Z</time></trkpt><trkpt lat="43.7739506" lon="11.0228305"><ele>135.0</ele><time>2026-04-11T07:51:09.953Z</time></trkpt><trkpt lat="43.7740273" lon="11.0227991"><ele>135.0</ele><time>2026-04-11T07:51:10.955Z</time></trkpt><trkpt lat="43.7741041" lon="11.022776"><ele>135.0</ele><time>2026-04-11T07:51:11.955Z</time></trkpt><trkpt lat="43.7741829" lon="11.0227639"><ele>135.0</ele><time>2026-04-11T07:51:12.952Z</time></trkpt><trkpt lat="43.7742513" lon="11.0227619"><ele>135.0</ele><time>2026-04-11T07:51:13.991Z</time></trkpt><trkpt lat="43.7743184" lon="11.0227586"><ele>135.0</ele><time>2026-04-11T07:51:14.974Z</time></trkpt><trkpt lat="43.7743916" lon="11.0227479"><ele>135.0</ele><time>2026-04-11T07:51:15.966Z</time></trkpt><trkpt lat="43.7744726" lon="11.0227299"><ele>138.66666666666666</ele><time>2026-04-11T07:51:16.973Z</time></trkpt><trkpt lat="43.7745511" lon="11.022714"><ele>142.33333333333334</ele><time>2026-04-11T07:51:17.981Z</time></trkpt><trkpt lat="43.7746251" lon="11.0226939"><ele>146.0</ele><time>2026-04-11T07:51:18.979Z</time></trkpt><trkpt lat="43.7746906" lon="11.0226554"><ele>149.66666666666669</ele><time>2026-04-11T07:51:19.973Z</time></trkpt><trkpt lat="43.7747429" lon="11.0225837"><ele>153.33333333333334</ele><time>2026-04-11T07:51:20.969Z</time></trkpt><trkpt lat="43.7748159" lon="11.0224845"><ele>157.0</ele><time>2026-04-11T07:51:22.974Z</time></trkpt><trkpt lat="43.7748606" lon="11.0225906"><ele>157.0</ele><time>2026-04-11T07:51:27.962Z</time></trkpt><trkpt lat="43.774925" lon="11.0227104"><ele>157.0</ele><time>2026-04-11T07:51:29.972Z</time></trkpt><trkpt lat="43.7749802" lon="11.0227699"><ele>157.0</ele><time>2026-04-11T07:51:30.975Z</time></trkpt><trkpt lat="43.7750387" lon="11.0228135"><ele>157.0</ele><time>2026-04-11T07:51:31.961Z</time></trkpt><trkpt lat="43.7751061" lon="11.022833"><ele>157.0</ele><time>2026-04-11T07:51:32.967Z</time></trkpt><trkpt lat="43.7751903" lon="11.0228312"><ele>157.0</ele><time>2026-04-11T07:51:33.961Z</time></trkpt><trkpt lat="43.7752807" lon="11.0228236"><ele>159.0</ele><time>2026-04-11T07:51:34.964Z</time></trkpt><trkpt lat="43.7753698" lon="11.0228001"><ele>161.0</ele><time>2026-04-11T07:51:35.977Z</time></trkpt><trkpt lat="43.7754508" lon="11.0227654"><ele>163.0</ele><time>2026-04-11T07:51:36.974Z</time></trkpt><trkpt lat="43.7755202" lon="11.022705"><ele>165.0</ele><time>2026-04-11T07:51:37.963Z</time></trkpt><trkpt lat="43.7755817" lon="11.0226286"><ele>167.0</ele><time>2026-04-11T07:51:38.98Z</time></trkpt><trkpt lat="43.7756251" lon="11.0225465"><ele>169.0</ele><time>2026-04-11T07:51:39.963Z</time></trkpt><trkpt lat="43.7756571" lon="11.0224567"><ele>171.0</ele><time>2026-04-11T07:51:40.973Z</time></trkpt><trkpt lat="43.7756748" lon="11.0223581"><ele>173.0</ele><time>2026-04-11T07:51:41.972Z</time></trkpt><trkpt lat="43.7756642" lon="11.0222483"><ele>175.0</ele><time>2026-04-11T07:51:42.979Z</time></trkpt><trkpt lat="43.7756475" lon="11.0221531"><ele>177.0</ele><time>2026-04-11T07:51:43.985Z</time></trkpt><trkpt lat="43.7756258" lon="11.0220705"><ele>179.0</ele><time>2026-04-11T07:51:44.957Z</time></trkpt><trkpt lat="43.7755758" lon="11.0219964"><ele>181.0</ele><time>2026-04-11T07:53:21.969Z</time></trkpt><trkpt lat="43.77557" lon="11.0218751"><ele>183.0</ele><time>2026-04-11T07:53:23.966Z</time></trkpt><trkpt lat="43.775559" lon="11.0217632"><ele>185.0</ele><time>2026-04-11T07:53:24.953Z</time></trkpt><trkpt lat="43.7755427" lon="11.0216169"><ele>187.0</ele><time>2026-04-11T07:53:25.948Z</time></trkpt><trkpt lat="43.7755212" lon="11.0214828"><ele>189.0</ele><time>2026-04-11T07:53:26.944Z</time></trkpt><trkpt lat="43.77549" lon="11.0213768"><ele>191.0</ele><time>2026-04-11T07:53:27.945Z</time></trkpt><trkpt lat="43.7754531" lon="11.0212915"><ele>193.0</ele><time>2026-04-11T07:53:28.949Z</time></trkpt><trkpt lat="43.7753956" lon="11.0212475"><ele>195.0</ele><time>2026-04-11T07:53:29.947Z</time></trkpt><trkpt lat="43.7753325" lon="11.02122"><ele>195.0</ele><time>2026-04-11T07:53:30.958Z</time></trkpt><trkpt lat="43.7752458" lon="11.0211652"><ele>195.0</ele><time>2026-04-11T07:53:32.957Z</time></trkpt><trkpt lat="43.7752312" lon="11.0210347"><ele>195.0</ele><time>2026-04-11T07:53:34.97Z</time></trkpt><trkpt lat="43.7752494" lon="11.0209334"><ele>195.0</ele><time>2026-04-11T07:53:35.957Z</time></trkpt><trkpt lat="43.775256" lon="11.0208171"><ele>195.0</ele><time>2026-04-11T07:53:36.969Z</time></trkpt><trkpt lat="43.7752444" lon="11.0207186"><ele>195.0</ele><time>2026-04-11T07:53:37.959Z</time></trkpt><trkpt lat="43.7752176" lon="11.0206199"><ele>195.4</ele><time>2026-04-11T07:53:38.961Z</time></trkpt><trkpt lat="43.7751881" lon="11.0205203"><ele>195.8</ele><time>2026-04-11T07:53:39.955Z</time></trkpt><trkpt lat="43.7751787" lon="11.0204243"><ele>196.2</ele><time>2026-04-11T07:53:40.954Z</time></trkpt><trkpt lat="43.7751622" lon="11.0203114"><ele>196.6</ele><time>2026-04-11T07:53:41.948Z</time></trkpt><trkpt lat="43.7751523" lon="11.0201677"><ele>197.0</ele><time>2026-04-11T07:53:42.946Z</time></trkpt><trkpt lat="43.7751585" lon="11.0199861"><ele>198.2</ele><time>2026-04-11T07:53:43.95Z</time></trkpt><trkpt lat="43.7751728" lon="11.0198092"><ele>199.39999999999998</ele><time>2026-04-11T07:53:44.963Z</time></trkpt><trkpt lat="43.7751839" lon="11.019645"><ele>200.60000000000002</ele><time>2026-04-11T07:53:45.952Z</time></trkpt><trkpt lat="43.7751972" lon="11.01951"><ele>201.8</ele><time>2026-04-11T07:53:46.954Z</time></trkpt><trkpt lat="43.7751987" lon="11.0193881"><ele>203.0</ele><time>2026-04-11T07:53:47.97Z</time></trkpt><trkpt lat="43.7751851" lon="11.0192872"><ele>199.50000000000003</ele><time>2026-04-11T07:53:48.964Z</time></trkpt><trkpt lat="43.775147" lon="11.0192153"><ele>196.0</ele><time>2026-04-11T07:53:49.97Z</time></trkpt><trkpt lat="43.7750812" lon="11.019174"><ele>192.5</ele><time>2026-04-11T07:53:50.955Z</time></trkpt><trkpt lat="43.7749959" lon="11.0191612"><ele>189.0</ele><time>2026-04-11T07:53:51.953Z</time></trkpt><trkpt lat="43.7748899" lon="11.0191627"><ele>185.5</ele><time>2026-04-11T07:53:52.956Z</time></trkpt><trkpt lat="43.7747721" lon="11.0191747"><ele>182.0</ele><time>2026-04-11T07:53:53.956Z</time></trkpt><trkpt lat="43.7746529" lon="11.0191871"><ele>182.0</ele><time>2026-04-11T07:53:54.946Z</time></trkpt><trkpt lat="43.7745325" lon="11.0191914"><ele>182.0</ele><time>2026-04-11T07:53:55.96Z</time></trkpt><trkpt lat="43.7744072" lon="11.0191766"><ele>182.0</ele><time>2026-04-11T07:53:56.95Z</time></trkpt><trkpt lat="43.7742912" lon="11.0191497"><ele>182.0</ele><time>2026-04-11T07:53:57.952Z</time></trkpt><trkpt lat="43.7741809" lon="11.0190914"><ele>184.25</ele><time>2026-04-11T07:53:58.951Z</time></trkpt><trkpt lat="43.7740666" lon="11.0190311"><ele>186.5</ele><time>2026-04-11T07:53:59.947Z</time></trkpt><trkpt lat="43.7739442" lon="11.0189703"><ele>188.75</ele><time>2026-04-11T07:54:00.964Z</time></trkpt><trkpt lat="43.7738146" lon="11.0189193"><ele>191.0</ele><time>2026-04-11T07:54:01.956Z</time></trkpt><trkpt lat="43.7736913" lon="11.0188733"><ele>191.0</ele><time>2026-04-11T07:54:02.953Z</time></trkpt><trkpt lat="43.7735849" lon="11.0188383"><ele>191.0</ele><time>2026-04-11T07:54:03.972Z</time></trkpt><trkpt lat="43.7734839" lon="11.0188339"><ele>191.0</ele><time>2026-04-11T07:54:04.957Z</time></trkpt><trkpt lat="43.7734133" lon="11.0188467"><ele>191.0</ele><time>2026-04-11T07:54:05.956Z</time></trkpt><trkpt lat="43.7733267" lon="11.0188551"><ele>191.0</ele><time>2026-04-11T07:54:07.963Z</time></trkpt><trkpt lat="43.7732617" lon="11.0187854"><ele>190.60000000000002</ele><time>2026-04-11T07:54:09.969Z</time></trkpt><trkpt lat="43.7731912" lon="11.0186493"><ele>190.2</ele><time>2026-04-11T07:54:11.973Z</time></trkpt><trkpt lat="43.7731234" lon="11.018585"><ele>189.8</ele><time>2026-04-11T07:54:12.965Z</time></trkpt><trkpt lat="43.7730349" lon="11.0185161"><ele>189.39999999999998</ele><time>2026-04-11T07:54:13.973Z</time></trkpt><trkpt lat="43.7729564" lon="11.0184701"><ele>189.0</ele><time>2026-04-11T07:54:14.962Z</time></trkpt><trkpt lat="43.7728768" lon="11.0184416"><ele>189.0</ele><time>2026-04-11T07:54:15.965Z</time></trkpt><trkpt lat="43.772802" lon="11.0184415"><ele>189.0</ele><time>2026-04-11T07:54:16.949Z</time></trkpt><trkpt lat="43.7727196" lon="11.018465"><ele>189.0</ele><time>2026-04-11T07:54:17.95Z</time></trkpt><trkpt lat="43.7726419" lon="11.0185212"><ele>189.0</ele><time>2026-04-11T07:54:18.961Z</time></trkpt><trkpt lat="43.7725562" lon="11.0185812"><ele>189.0</ele><time>2026-04-11T07:54:19.946Z</time></trkpt><trkpt lat="43.7724698" lon="11.0186159"><ele>189.0</ele><time>2026-04-11T07:54:20.96Z</time></trkpt><trkpt lat="43.7723771" lon="11.018611"><ele>190.39999999999998</ele><time>2026-04-11T07:54:21.953Z</time></trkpt><trkpt lat="43.772283" lon="11.0185681"><ele>191.8</ele><time>2026-04-11T07:54:22.955Z</time></trkpt><trkpt lat="43.7721877" lon="11.0185214"><ele>193.2</ele><time>2026-04-11T07:54:23.956Z</time></trkpt><trkpt lat="43.7720923" lon="11.0184684"><ele>194.60000000000002</ele><time>2026-04-11T07:54:24.966Z</time></trkpt><trkpt lat="43.7719968" lon="11.0184082"><ele>196.0</ele><time>2026-04-11T07:54:25.958Z</time></trkpt><trkpt lat="43.7719042" lon="11.0183336"><ele>199.0</ele><time>2026-04-11T07:54:26.957Z</time></trkpt><trkpt lat="43.7718138" lon="11.0182399"><ele>202.0</ele><time>2026-04-11T07:54:27.956Z</time></trkpt><trkpt lat="43.7717371" lon="11.0181375"><ele>205.0</ele><time>2026-04-11T07:54:28.946Z</time></trkpt><trkpt lat="43.7716617" lon="11.0180425"><ele>208.0</ele><time>2026-04-11T07:54:29.95Z</time></trkpt><trkpt lat="43.7716023" lon="11.0179358"><ele>211.0</ele><time>2026-04-11T07:54:30.968Z</time></trkpt><trkpt lat="43.7715435" lon="11.0178103"><ele>211.0</ele><time>2026-04-11T07:54:31.965Z</time></trkpt><trkpt lat="43.7714835" lon="11.0176736"><ele>211.0</ele><time>2026-04-11T07:54:32.95Z</time></trkpt><trkpt lat="43.7714114" lon="11.0175333"><ele>211.0</ele><time>2026-04-11T07:54:33.946Z</time></trkpt><trkpt lat="43.7713296" lon="11.0174034"><ele>211.0</ele><time>2026-04-11T07:54:34.961Z</time></trkpt><trkpt lat="43.7712492" lon="11.017299"><ele>216.4</ele><time>2026-04-11T07:54:35.956Z</time></trkpt><trkpt lat="43.7711602" lon="11.0172162"><ele>221.8</ele><time>2026-04-11T07:54:36.959Z</time></trkpt><trkpt lat="43.7710702" lon="11.0171534"><ele>227.20000000000002</ele><time>2026-04-11T07:54:37.948Z</time></trkpt><trkpt lat="43.7709714" lon="11.0171141"><ele>232.60000000000002</ele><time>2026-04-11T07:54:38.944Z</time></trkpt><trkpt lat="43.7708801" lon="11.0170944"><ele>238.0</ele><time>2026-04-11T07:54:39.942Z</time></trkpt><trkpt lat="43.7707858" lon="11.0171039"><ele>237.99999999999997</ele><time>2026-04-11T07:54:40.959Z</time></trkpt><trkpt lat="43.7707113" lon="11.0171871"><ele>238.0</ele><time>2026-04-11T07:54:41.962Z</time></trkpt><trkpt lat="43.7706766" lon="11.0172907"><ele>238.0</ele><time>2026-04-11T07:54:42.966Z</time></trkpt><trkpt lat="43.7706322" lon="11.0173829"><ele>238.0</ele><time>2026-04-11T07:54:43.956Z</time></trkpt><trkpt lat="43.7705873" lon="11.0174731"><ele>237.99999999999997</ele><time>2026-04-11T07:54:44.965Z</time></trkpt><trkpt lat="43.7705347" lon="11.0175549"><ele>238.0</ele><time>2026-04-11T07:54:45.973Z</time></trkpt><trkpt lat="43.7704584" lon="11.0176214"><ele>235.60000000000002</ele><time>2026-04-11T07:54:46.983Z</time></trkpt><trkpt lat="43.7703758" lon="11.0176545"><ele>233.20000000000002</ele><time>2026-04-11T07:54:47.971Z</time></trkpt><trkpt lat="43.7702884" lon="11.0176963"><ele>230.8</ele><time>2026-04-11T07:54:48.966Z</time></trkpt><trkpt lat="43.7702062" lon="11.0177478"><ele>228.4</ele><time>2026-04-11T07:54:49.975Z</time></trkpt><trkpt lat="43.770129" lon="11.0178268"><ele>226.0</ele><time>2026-04-11T07:54:50.952Z</time></trkpt><trkpt lat="43.770056" lon="11.0179214"><ele>225.99999999999997</ele><time>2026-04-11T07:54:51.96Z</time></trkpt><trkpt lat="43.7700025" lon="11.0179998"><ele>226.0</ele><time>2026-04-11T07:54:52.965Z</time></trkpt><trkpt lat="43.7699398" lon="11.0180533"><ele>226.0</ele><time>2026-04-11T07:54:53.973Z</time></trkpt><trkpt lat="43.7698652" lon="11.0180839"><ele>226.0</ele><time>2026-04-11T07:54:54.98Z</time></trkpt><trkpt lat="43.7697663" lon="11.0181253"><ele>225.99999999999997</ele><time>2026-04-11T07:54:55.969Z</time></trkpt><trkpt lat="43.7696594" lon="11.018161"><ele>226.0</ele><time>2026-04-11T07:54:56.977Z</time></trkpt><trkpt lat="43.7695471" lon="11.0181922"><ele>226.0</ele><time>2026-04-11T07:54:57.957Z</time></trkpt><trkpt lat="43.7694457" lon="11.0182339"><ele>226.0</ele><time>2026-04-11T07:54:58.961Z</time></trkpt><trkpt lat="43.7693356" lon="11.0182971"><ele>226.0</ele><time>2026-04-11T07:54:59.973Z</time></trkpt><trkpt lat="43.7692216" lon="11.0183764"><ele>226.0</ele><time>2026-04-11T07:55:00.965Z</time></trkpt><trkpt lat="43.769112" lon="11.0184513"><ele>221.8</ele><time>2026-04-11T07:55:01.958Z</time></trkpt><trkpt lat="43.7690133" lon="11.0185106"><ele>217.60000000000002</ele><time>2026-04-11T07:55:02.983Z</time></trkpt><trkpt lat="43.7689246" lon="11.0185644"><ele>213.4</ele><time>2026-04-11T07:55:03.969Z</time></trkpt><trkpt lat="43.768833" lon="11.0186151"><ele>209.2</ele><time>2026-04-11T07:55:04.966Z</time></trkpt><trkpt lat="43.7687497" lon="11.0186556"><ele>205.0</ele><time>2026-04-11T07:55:05.974Z</time></trkpt><trkpt lat="43.7686631" lon="11.018686"><ele>205.0</ele><time>2026-04-11T07:55:06.979Z</time></trkpt><trkpt lat="43.7685641" lon="11.0186969"><ele>205.0</ele><time>2026-04-11T07:55:07.98Z</time></trkpt><trkpt lat="43.7684562" lon="11.0187002"><ele>205.0</ele><time>2026-04-11T07:55:08.978Z</time></trkpt><trkpt lat="43.7683442" lon="11.0187095"><ele>205.0</ele><time>2026-04-11T07:55:09.958Z</time></trkpt><trkpt lat="43.7682282" lon="11.018746"><ele>205.0</ele><time>2026-04-11T07:55:10.967Z</time></trkpt><trkpt lat="43.7681151" lon="11.0187819"><ele>205.8</ele><time>2026-04-11T07:55:11.95Z</time></trkpt><trkpt lat="43.7680036" lon="11.0188006"><ele>206.6</ele><time>2026-04-11T07:55:12.975Z</time></trkpt><trkpt lat="43.7678986" lon="11.0188066"><ele>207.39999999999998</ele><time>2026-04-11T07:55:13.975Z</time></trkpt><trkpt lat="43.7678011" lon="11.0188171"><ele>208.2</ele><time>2026-04-11T07:55:14.96Z</time></trkpt><trkpt lat="43.7677191" lon="11.0188465"><ele>209.0</ele><time>2026-04-11T07:55:15.962Z</time></trkpt><trkpt lat="43.7676388" lon="11.0188812"><ele>209.0</ele><time>2026-04-11T07:55:16.954Z</time></trkpt><trkpt lat="43.7675696" lon="11.0189188"><ele>209.0</ele><time>2026-04-11T07:55:17.957Z</time></trkpt><trkpt lat="43.7674694" lon="11.0189367"><ele>209.0</ele><time>2026-04-11T07:55:19.976Z</time></trkpt><trkpt lat="43.7674048" lon="11.0189479"><ele>209.0</ele><time>2026-04-11T07:56:22.992Z</time></trkpt><trkpt lat="43.7672785" lon="11.0189119"><ele>209.0</ele><time>2026-04-11T07:56:39.966Z</time></trkpt><trkpt lat="43.7671869" lon="11.0189121"><ele>209.00000000000003</ele><time>2026-04-11T07:56:40.956Z</time></trkpt><trkpt lat="43.7670947" lon="11.0189007"><ele>209.0</ele><time>2026-04-11T07:56:41.954Z</time></trkpt><trkpt lat="43.7670137" lon="11.0188796"><ele>209.0</ele><time>2026-04-11T07:56:42.953Z</time></trkpt><trkpt lat="43.7669375" lon="11.0188442"><ele>209.0</ele><time>2026-04-11T07:56:43.954Z</time></trkpt><trkpt lat="43.7668565" lon="11.0187854"><ele>209.00000000000003</ele><time>2026-04-11T07:56:44.96Z</time></trkpt><trkpt lat="43.7667772" lon="11.0187095"><ele>209.0</ele><time>2026-04-11T07:56:45.963Z</time></trkpt><trkpt lat="43.7667085" lon="11.0186345"><ele>207.33333333333334</ele><time>2026-04-11T07:56:46.968Z</time></trkpt><trkpt lat="43.7666314" lon="11.0185919"><ele>205.66666666666669</ele><time>2026-04-11T07:56:47.962Z</time></trkpt><trkpt lat="43.7665419" lon="11.0185601"><ele>204.0</ele><time>2026-04-11T07:56:48.962Z</time></trkpt><trkpt lat="43.766455" lon="11.0185362"><ele>202.33333333333331</ele><time>2026-04-11T07:56:49.959Z</time></trkpt><trkpt lat="43.7663712" lon="11.0185119"><ele>200.66666666666666</ele><time>2026-04-11T07:56:50.962Z</time></trkpt><trkpt lat="43.7662997" lon="11.0184839"><ele>199.0</ele><time>2026-04-11T07:56:51.953Z</time></trkpt><trkpt lat="43.766242" lon="11.0184489"><ele>199.0</ele><time>2026-04-11T07:56:52.965Z</time></trkpt><trkpt lat="43.7661411" lon="11.0183741"><ele>199.0</ele><time>2026-04-11T07:56:54.972Z</time></trkpt><trkpt lat="43.7660502" lon="11.0182686"><ele>199.0</ele><time>2026-04-11T07:56:56.954Z</time></trkpt><trkpt lat="43.7659627" lon="11.0181703"><ele>199.0</ele><time>2026-04-11T07:56:58.959Z</time></trkpt><trkpt lat="43.7658847" lon="11.0180458"><ele>201.0</ele><time>2026-04-11T07:57:00.949Z</time></trkpt><trkpt lat="43.7658282" lon="11.0179492"><ele>203.0</ele><time>2026-04-11T07:57:02.956Z</time></trkpt><trkpt lat="43.7657555" lon="11.0178902"><ele>205.0</ele><time>2026-04-11T07:57:04.966Z</time></trkpt><trkpt lat="43.7656492" lon="11.0178778"><ele>207.0</ele><time>2026-04-11T07:57:06.965Z</time></trkpt><trkpt lat="43.7655391" lon="11.017887"><ele>209.0</ele><time>2026-04-11T07:57:08.953Z</time></trkpt><trkpt lat="43.7654237" lon="11.0178858"><ele>209.0</ele><time>2026-04-11T07:57:10.957Z</time></trkpt><trkpt lat="43.7653129" lon="11.0179029"><ele>209.0</ele><time>2026-04-11T07:57:12.954Z</time></trkpt><trkpt lat="43.7652083" lon="11.0179839"><ele>209.0</ele><time>2026-04-11T07:57:14.979Z</time></trkpt><trkpt lat="43.765111" lon="11.0180671"><ele>209.0</ele><time>2026-04-11T07:57:16.972Z</time></trkpt><trkpt lat="43.7650458" lon="11.018084"><ele>209.0</ele><time>2026-04-11T07:57:18.988Z</time></trkpt><trkpt lat="43.7649802" lon="11.0180204"><ele>207.0</ele><time>2026-04-11T07:57:20.983Z</time></trkpt><trkpt lat="43.7648667" lon="11.0179581"><ele>205.0</ele><time>2026-04-11T07:57:22.976Z</time></trkpt><trkpt lat="43.7647588" lon="11.0178989"><ele>203.0</ele><time>2026-04-11T07:57:24.973Z</time></trkpt><trkpt lat="43.764681" lon="11.0178159"><ele>201.0</ele><time>2026-04-11T07:57:26.96Z</time></trkpt><trkpt lat="43.7646416" lon="11.0177456"><ele>199.0</ele><time>2026-04-11T07:57:28.974Z</time></trkpt><trkpt lat="43.7646289" lon="11.0176561"><ele>198.99999999999997</ele><time>2026-04-11T07:57:30.971Z</time></trkpt><trkpt lat="43.7646012" lon="11.0175531"><ele>199.0</ele><time>2026-04-11T07:57:32.972Z</time></trkpt><trkpt lat="43.7645676" lon="11.0174378"><ele>199.0</ele><time>2026-04-11T07:57:34.974Z</time></trkpt><trkpt lat="43.7645123" lon="11.017335"><ele>199.0</ele><time>2026-04-11T07:57:36.97Z</time></trkpt><trkpt lat="43.7644173" lon="11.0172771"><ele>198.99999999999997</ele><time>2026-04-11T07:57:38.984Z</time></trkpt><trkpt lat="43.7643424" lon="11.0172532"><ele>199.0</ele><time>2026-04-11T07:57:40.981Z</time></trkpt><trkpt lat="43.7643082" lon="11.0171314"><ele>200.6</ele><time>2026-04-11T07:58:06.984Z</time></trkpt><trkpt lat="43.7642439" lon="11.0169849"><ele>202.2</ele><time>2026-04-11T07:58:08.952Z</time></trkpt><trkpt lat="43.7641983" lon="11.0169024"><ele>203.79999999999998</ele><time>2026-04-11T07:58:09.957Z</time></trkpt><trkpt lat="43.7641502" lon="11.0168194"><ele>205.39999999999998</ele><time>2026-04-11T07:58:10.95Z</time></trkpt><trkpt lat="43.7641102" lon="11.016741"><ele>207.0</ele><time>2026-04-11T07:58:11.957Z</time></trkpt><trkpt lat="43.7640389" lon="11.0166086"><ele>210.6</ele><time>2026-04-11T07:58:13.95Z</time></trkpt><trkpt lat="43.7640033" lon="11.0165331"><ele>214.2</ele><time>2026-04-11T07:58:14.938Z</time></trkpt><trkpt lat="43.7639508" lon="11.0164042"><ele>217.8</ele><time>2026-04-11T07:58:16.955Z</time></trkpt><trkpt lat="43.7638663" lon="11.016313"><ele>221.4</ele><time>2026-04-11T07:58:18.946Z</time></trkpt><trkpt lat="43.7637057" lon="11.0163082"><ele>225.0</ele><time>2026-04-11T07:58:20.96Z</time></trkpt><trkpt lat="43.7636017" lon="11.0163215"><ele>223.66666666666666</ele><time>2026-04-11T07:58:21.951Z</time></trkpt><trkpt lat="43.7635074" lon="11.0163166"><ele>222.33333333333331</ele><time>2026-04-11T07:58:22.964Z</time></trkpt><trkpt lat="43.7634335" lon="11.0162885"><ele>221.0</ele><time>2026-04-11T07:58:23.955Z</time></trkpt><trkpt lat="43.7633604" lon="11.0162469"><ele>219.66666666666666</ele><time>2026-04-11T07:58:24.958Z</time></trkpt><trkpt lat="43.7632849" lon="11.0161907"><ele>218.33333333333331</ele><time>2026-04-11T07:58:25.973Z</time></trkpt><trkpt lat="43.763212" lon="11.0161431"><ele>217.0</ele><time>2026-04-11T07:58:26.976Z</time></trkpt><trkpt lat="43.763143" lon="11.0161104"><ele>216.99999999999997</ele><time>2026-04-11T07:58:27.956Z</time></trkpt><trkpt lat="43.7630649" lon="11.0160969"><ele>217.0</ele><time>2026-04-11T07:58:28.959Z</time></trkpt><trkpt lat="43.7629864" lon="11.0161185"><ele>217.0</ele><time>2026-04-11T07:58:29.959Z</time></trkpt><trkpt lat="43.7629144" lon="11.0161479"><ele>217.0</ele><time>2026-04-11T07:58:30.962Z</time></trkpt><trkpt lat="43.7628329" lon="11.0161711"><ele>216.99999999999997</ele><time>2026-04-11T07:58:31.963Z</time></trkpt><trkpt lat="43.7627506" lon="11.0161761"><ele>217.0</ele><time>2026-04-11T07:58:32.96Z</time></trkpt><trkpt lat="43.7626766" lon="11.0161685"><ele>216.16666666666666</ele><time>2026-04-11T07:58:33.954Z</time></trkpt><trkpt lat="43.7626026" lon="11.0161772"><ele>215.33333333333331</ele><time>2026-04-11T07:58:34.956Z</time></trkpt><trkpt lat="43.7625386" lon="11.0162025"><ele>214.5</ele><time>2026-04-11T07:58:35.955Z</time></trkpt><trkpt lat="43.7624683" lon="11.0163661"><ele>213.66666666666669</ele><time>2026-04-11T07:58:37.951Z</time></trkpt><trkpt lat="43.7624526" lon="11.0164748"><ele>212.83333333333334</ele><time>2026-04-11T07:58:38.969Z</time></trkpt><trkpt lat="43.7624317" lon="11.0165571"><ele>212.0</ele><time>2026-04-11T07:58:39.963Z</time></trkpt><trkpt lat="43.7623386" lon="11.0166443"><ele>210.33333333333334</ele><time>2026-04-11T07:58:41.973Z</time></trkpt><trkpt lat="43.762272" lon="11.0166732"><ele>208.66666666666669</ele><time>2026-04-11T07:58:42.972Z</time></trkpt><trkpt lat="43.7622057" lon="11.0167093"><ele>207.0</ele><time>2026-04-11T07:58:43.966Z</time></trkpt><trkpt lat="43.7621234" lon="11.0167543"><ele>205.33333333333331</ele><time>2026-04-11T07:58:44.966Z</time></trkpt><trkpt lat="43.7620369" lon="11.0168018"><ele>203.66666666666666</ele><time>2026-04-11T07:58:45.963Z</time></trkpt><trkpt lat="43.7619408" lon="11.0168462"><ele>202.0</ele><time>2026-04-11T07:58:46.957Z</time></trkpt><trkpt lat="43.7618472" lon="11.0168635"><ele>202.0</ele><time>2026-04-11T07:58:47.96Z</time></trkpt><trkpt lat="43.7617475" lon="11.0168719"><ele>202.0</ele><time>2026-04-11T07:58:48.965Z</time></trkpt><trkpt lat="43.7616437" lon="11.0168836"><ele>202.0</ele><time>2026-04-11T07:58:49.96Z</time></trkpt><trkpt lat="43.7615457" lon="11.0169081"><ele>202.0</ele><time>2026-04-11T07:58:50.975Z</time></trkpt><trkpt lat="43.7614491" lon="11.0169358"><ele>202.0</ele><time>2026-04-11T07:58:51.978Z</time></trkpt><trkpt lat="43.7613652" lon="11.0169528"><ele>201.99999999999997</ele><time>2026-04-11T07:58:52.984Z</time></trkpt><trkpt lat="43.7612786" lon="11.0169597"><ele>202.0</ele><time>2026-04-11T07:58:53.97Z</time></trkpt><trkpt lat="43.7611926" lon="11.0169622"><ele>202.0</ele><time>2026-04-11T07:58:54.981Z</time></trkpt><trkpt lat="43.7611065" lon="11.0169635"><ele>202.0</ele><time>2026-04-11T07:58:55.975Z</time></trkpt><trkpt lat="43.7610267" lon="11.0169561"><ele>201.99999999999997</ele><time>2026-04-11T07:58:56.979Z</time></trkpt><trkpt lat="43.7609544" lon="11.0169419"><ele>202.0</ele><time>2026-04-11T07:58:57.985Z</time></trkpt><trkpt lat="43.7608926" lon="11.0169139"><ele>202.0</ele><time>2026-04-11T07:58:58.966Z</time></trkpt><trkpt lat="43.7607889" lon="11.0168613"><ele>202.0</ele><time>2026-04-11T07:59:00.976Z</time></trkpt><trkpt lat="43.7607161" lon="11.0168246"><ele>202.0</ele><time>2026-04-11T07:59:02.98Z</time></trkpt><trkpt lat="43.7606281" lon="11.0167861"><ele>202.0</ele><time>2026-04-11T08:02:01.992Z</time></trkpt><trkpt lat="43.7604866" lon="11.0168062"><ele>202.0</ele><time>2026-04-11T08:02:03.98Z</time></trkpt><trkpt lat="43.7603844" lon="11.0167848"><ele>202.0</ele><time>2026-04-11T08:02:04.968Z</time></trkpt><trkpt lat="43.7602864" lon="11.0167482"><ele>202.0</ele><time>2026-04-11T08:02:05.975Z</time></trkpt><trkpt lat="43.7601898" lon="11.0166855"><ele>202.0</ele><time>2026-04-11T08:02:06.95Z</time></trkpt><trkpt lat="43.7600848" lon="11.0165931"><ele>202.0</ele><time>2026-04-11T08:02:07.959Z</time></trkpt><trkpt lat="43.7599838" lon="11.0165012"><ele>201.16666666666666</ele><time>2026-04-11T08:02:08.964Z</time></trkpt><trkpt lat="43.7598995" lon="11.0164135"><ele>200.33333333333331</ele><time>2026-04-11T08:02:09.959Z</time></trkpt><trkpt lat="43.7598306" lon="11.0163481"><ele>199.5</ele><time>2026-04-11T08:02:10.958Z</time></trkpt><trkpt lat="43.7597602" lon="11.0162989"><ele>198.66666666666669</ele><time>2026-04-11T08:02:11.962Z</time></trkpt><trkpt lat="43.7596929" lon="11.0162522"><ele>197.83333333333334</ele><time>2026-04-11T08:02:12.959Z</time></trkpt><trkpt lat="43.7596238" lon="11.0162058"><ele>197.0</ele><time>2026-04-11T08:02:13.958Z</time></trkpt><trkpt lat="43.7595485" lon="11.016154"><ele>197.0</ele><time>2026-04-11T08:02:14.973Z</time></trkpt><trkpt lat="43.759464" lon="11.0160967"><ele>197.0</ele><time>2026-04-11T08:02:15.965Z</time></trkpt><trkpt lat="43.7593812" lon="11.0160277"><ele>197.0</ele><time>2026-04-11T08:02:16.968Z</time></trkpt><trkpt lat="43.7592949" lon="11.0159535"><ele>197.0</ele><time>2026-04-11T08:02:17.965Z</time></trkpt><trkpt lat="43.7592124" lon="11.0158801"><ele>197.0</ele><time>2026-04-11T08:02:18.968Z</time></trkpt><trkpt lat="43.7591347" lon="11.0157989"><ele>194.8</ele><time>2026-04-11T08:02:19.967Z</time></trkpt><trkpt lat="43.7590601" lon="11.0157043"><ele>192.6</ele><time>2026-04-11T08:02:20.978Z</time></trkpt><trkpt lat="43.7589863" lon="11.0156084"><ele>190.4</ele><time>2026-04-11T08:02:21.962Z</time></trkpt><trkpt lat="43.7589127" lon="11.0155172"><ele>188.20000000000002</ele><time>2026-04-11T08:02:22.956Z</time></trkpt><trkpt lat="43.7588381" lon="11.0154271"><ele>186.0</ele><time>2026-04-11T08:02:23.961Z</time></trkpt><trkpt lat="43.7587525" lon="11.0153573"><ele>186.0</ele><time>2026-04-11T08:02:24.955Z</time></trkpt><trkpt lat="43.7586608" lon="11.0153178"><ele>186.0</ele><time>2026-04-11T08:02:25.97Z</time></trkpt><trkpt lat="43.7585558" lon="11.0152951"><ele>186.0</ele><time>2026-04-11T08:02:26.951Z</time></trkpt><trkpt lat="43.7584542" lon="11.0152677"><ele>186.0</ele><time>2026-04-11T08:02:27.962Z</time></trkpt><trkpt lat="43.7583516" lon="11.0152511"><ele>186.0</ele><time>2026-04-11T08:02:28.96Z</time></trkpt><trkpt lat="43.758247" lon="11.0152377"><ele>185.60000000000002</ele><time>2026-04-11T08:02:29.958Z</time></trkpt><trkpt lat="43.7581405" lon="11.015232"><ele>185.2</ele><time>2026-04-11T08:02:30.966Z</time></trkpt><trkpt lat="43.758041" lon="11.0152308"><ele>184.8</ele><time>2026-04-11T08:02:31.96Z</time></trkpt><trkpt lat="43.7579401" lon="11.0152219"><ele>184.39999999999998</ele><time>2026-04-11T08:02:32.959Z</time></trkpt><trkpt lat="43.757845" lon="11.0152139"><ele>184.0</ele><time>2026-04-11T08:02:33.963Z</time></trkpt><trkpt lat="43.7577529" lon="11.0152006"><ele>183.39999999999998</ele><time>2026-04-11T08:02:34.957Z</time></trkpt><trkpt lat="43.757656" lon="11.0151913"><ele>182.8</ele><time>2026-04-11T08:02:35.964Z</time></trkpt><trkpt lat="43.7575618" lon="11.0151935"><ele>182.2</ele><time>2026-04-11T08:02:36.958Z</time></trkpt><trkpt lat="43.7574626" lon="11.0151898"><ele>181.60000000000002</ele><time>2026-04-11T08:02:37.971Z</time></trkpt><trkpt lat="43.7573481" lon="11.015167"><ele>181.0</ele><time>2026-04-11T08:02:38.967Z</time></trkpt><trkpt lat="43.7572242" lon="11.0151142"><ele>181.0</ele><time>2026-04-11T08:02:39.979Z</time></trkpt><trkpt lat="43.757106" lon="11.0150263"><ele>181.0</ele><time>2026-04-11T08:02:40.969Z</time></trkpt><trkpt lat="43.7570012" lon="11.0149074"><ele>181.0</ele><time>2026-04-11T08:02:41.982Z</time></trkpt><trkpt lat="43.7569005" lon="11.0147452"><ele>181.0</ele><time>2026-04-11T08:02:42.969Z</time></trkpt><trkpt lat="43.7568105" lon="11.0145509"><ele>179.8</ele><time>2026-04-11T08:02:43.97Z</time></trkpt><trkpt lat="43.7567252" lon="11.0143883"><ele>178.60000000000002</ele><time>2026-04-11T08:02:44.973Z</time></trkpt><trkpt lat="43.756664" lon="11.0142514"><ele>177.4</ele><time>2026-04-11T08:02:45.973Z</time></trkpt><trkpt lat="43.7566109" lon="11.0141435"><ele>176.2</ele><time>2026-04-11T08:02:46.971Z</time></trkpt><trkpt lat="43.7565595" lon="11.0140504"><ele>175.0</ele><time>2026-04-11T08:02:47.953Z</time></trkpt><trkpt lat="43.756511" lon="11.0139678"><ele>171.8</ele><time>2026-04-11T08:02:48.963Z</time></trkpt><trkpt lat="43.7564484" lon="11.0138973"><ele>168.6</ele><time>2026-04-11T08:02:49.958Z</time></trkpt><trkpt lat="43.7563758" lon="11.0138421"><ele>165.4</ele><time>2026-04-11T08:02:50.966Z</time></trkpt><trkpt lat="43.7562861" lon="11.0137857"><ele>162.2</ele><time>2026-04-11T08:02:51.961Z</time></trkpt><trkpt lat="43.7561942" lon="11.0137224"><ele>159.0</ele><time>2026-04-11T08:02:52.961Z</time></trkpt><trkpt lat="43.7561046" lon="11.0136584"><ele>159.16666666666666</ele><time>2026-04-11T08:02:53.969Z</time></trkpt><trkpt lat="43.7560228" lon="11.0135921"><ele>159.33333333333334</ele><time>2026-04-11T08:02:54.964Z</time></trkpt><trkpt lat="43.7559471" lon="11.0135324"><ele>159.5</ele><time>2026-04-11T08:02:55.964Z</time></trkpt><trkpt lat="43.7558759" lon="11.0134765"><ele>159.66666666666669</ele><time>2026-04-11T08:02:56.958Z</time></trkpt><trkpt lat="43.7558023" lon="11.0134424"><ele>159.83333333333334</ele><time>2026-04-11T08:02:57.964Z</time></trkpt><trkpt lat="43.7557344" lon="11.0134398"><ele>160.0</ele><time>2026-04-11T08:02:58.965Z</time></trkpt><trkpt lat="43.7556612" lon="11.0134496"><ele>160.0</ele><time>2026-04-11T08:02:59.964Z</time></trkpt><trkpt lat="43.7555881" lon="11.0134593"><ele>160.0</ele><time>2026-04-11T08:03:00.961Z</time></trkpt><trkpt lat="43.7554906" lon="11.0134813"><ele>160.0</ele><time>2026-04-11T08:03:02.95Z</time></trkpt><trkpt lat="43.7554369" lon="11.013583"><ele>160.0</ele><time>2026-04-11T08:03:04.969Z</time></trkpt><trkpt lat="43.7554123" lon="11.0136905"><ele>160.0</ele><time>2026-04-11T08:03:05.944Z</time></trkpt><trkpt lat="43.7553881" lon="11.0137968"><ele>160.0</ele><time>2026-04-11T08:03:06.938Z</time></trkpt><trkpt lat="43.7553485" lon="11.0138828"><ele>160.0</ele><time>2026-04-11T08:03:07.943Z</time></trkpt><trkpt lat="43.7552296" lon="11.0139468"><ele>160.0</ele><time>2026-04-11T08:03:09.952Z</time></trkpt><trkpt lat="43.7551516" lon="11.0139411"><ele>160.0</ele><time>2026-04-11T08:03:10.942Z</time></trkpt><trkpt lat="43.7550645" lon="11.0139273"><ele>160.0</ele><time>2026-04-11T08:03:11.948Z</time></trkpt><trkpt lat="43.7549774" lon="11.0139089"><ele>160.0</ele><time>2026-04-11T08:03:12.953Z</time></trkpt><trkpt lat="43.7548931" lon="11.013884"><ele>158.0</ele><time>2026-04-11T08:03:13.947Z</time></trkpt><trkpt lat="43.754821" lon="11.0138592"><ele>156.0</ele><time>2026-04-11T08:03:14.953Z</time></trkpt><trkpt lat="43.7547579" lon="11.0138431"><ele>154.0</ele><time>2026-04-11T08:03:15.948Z</time></trkpt><trkpt lat="43.7546661" lon="11.0138701"><ele>152.0</ele><time>2026-04-11T08:03:17.954Z</time></trkpt><trkpt lat="43.7546011" lon="11.0139534"><ele>150.0</ele><time>2026-04-11T08:03:19.952Z</time></trkpt><trkpt lat="43.7545646" lon="11.0141346"><ele>151.16666666666666</ele><time>2026-04-11T08:03:21.959Z</time></trkpt><trkpt lat="43.754556" lon="11.0142574"><ele>152.33333333333334</ele><time>2026-04-11T08:03:22.968Z</time></trkpt><trkpt lat="43.7545546" lon="11.0143724"><ele>153.5</ele><time>2026-04-11T08:03:23.961Z</time></trkpt><trkpt lat="43.7545495" lon="11.0144723"><ele>154.66666666666669</ele><time>2026-04-11T08:03:24.974Z</time></trkpt><trkpt lat="43.7545185" lon="11.0146274"><ele>155.83333333333334</ele><time>2026-04-11T08:03:26.953Z</time></trkpt><trkpt lat="43.7544449" lon="11.014691"><ele>157.0</ele><time>2026-04-11T08:03:28.957Z</time></trkpt><trkpt lat="43.7543816" lon="11.0147086"><ele>154.66666666666669</ele><time>2026-04-11T08:03:29.969Z</time></trkpt><trkpt lat="43.7543007" lon="11.0147334"><ele>152.33333333333334</ele><time>2026-04-11T08:03:30.974Z</time></trkpt><trkpt lat="43.7542167" lon="11.0147611"><ele>150.0</ele><time>2026-04-11T08:03:31.965Z</time></trkpt><trkpt lat="43.7541477" lon="11.0147897"><ele>147.66666666666666</ele><time>2026-04-11T08:03:32.963Z</time></trkpt><trkpt lat="43.7540558" lon="11.0148385"><ele>145.33333333333331</ele><time>2026-04-11T08:03:34.967Z</time></trkpt><trkpt lat="43.7539646" lon="11.0148169"><ele>143.0</ele><time>2026-04-11T08:03:55.986Z</time></trkpt><trkpt lat="43.7538581" lon="11.014836"><ele>143.0</ele><time>2026-04-11T08:03:57.981Z</time></trkpt><trkpt lat="43.7537668" lon="11.0148884"><ele>143.0</ele><time>2026-04-11T08:03:59.98Z</time></trkpt><trkpt lat="43.7536877" lon="11.014892"><ele>143.0</ele><time>2026-04-11T08:04:01.971Z</time></trkpt><trkpt lat="43.7536406" lon="11.0147627"><ele>143.0</ele><time>2026-04-11T08:04:03.969Z</time></trkpt><trkpt lat="43.7536276" lon="11.0146667"><ele>143.0</ele><time>2026-04-11T08:04:04.96Z</time></trkpt><trkpt lat="43.753614" lon="11.0145659"><ele>143.0</ele><time>2026-04-11T08:04:05.966Z</time></trkpt><trkpt lat="43.7535984" lon="11.014466"><ele>143.0</ele><time>2026-04-11T08:04:06.964Z</time></trkpt><trkpt lat="43.7535764" lon="11.01437"><ele>143.0</ele><time>2026-04-11T08:04:07.951Z</time></trkpt><trkpt lat="43.7535374" lon="11.0142723"><ele>143.0</ele><time>2026-04-11T08:04:08.952Z</time></trkpt><trkpt lat="43.7534873" lon="11.0141769"><ele>143.0</ele><time>2026-04-11T08:04:09.951Z</time></trkpt><trkpt lat="43.7534387" lon="11.0140742"><ele>143.0</ele><time>2026-04-11T08:04:10.962Z</time></trkpt><trkpt lat="43.753392" lon="11.0139782"><ele>143.0</ele><time>2026-04-11T08:04:11.963Z</time></trkpt><trkpt lat="43.7533478" lon="11.0138878"><ele>139.16666666666666</ele><time>2026-04-11T08:04:12.959Z</time></trkpt><trkpt lat="43.7533038" lon="11.0138096"><ele>135.33333333333331</ele><time>2026-04-11T08:04:13.958Z</time></trkpt><trkpt lat="43.7532615" lon="11.0137362"><ele>131.5</ele><time>2026-04-11T08:04:14.955Z</time></trkpt><trkpt lat="43.7532193" lon="11.0136611"><ele>127.66666666666666</ele><time>2026-04-11T08:04:15.954Z</time></trkpt><trkpt lat="43.7531676" lon="11.0135119"><ele>123.83333333333333</ele><time>2026-04-11T08:04:17.961Z</time></trkpt><trkpt lat="43.7531509" lon="11.0133582"><ele>120.0</ele><time>2026-04-11T08:04:19.958Z</time></trkpt><trkpt lat="43.7531691" lon="11.0132133"><ele>117.5</ele><time>2026-04-11T08:04:21.953Z</time></trkpt><trkpt lat="43.7532107" lon="11.0131035"><ele>115.0</ele><time>2026-04-11T08:04:23.962Z</time></trkpt><trkpt lat="43.7532725" lon="11.0129959"><ele>112.5</ele><time>2026-04-11T08:04:25.958Z</time></trkpt><trkpt lat="43.7533317" lon="11.012923"><ele>110.0</ele><time>2026-04-11T08:04:27.949Z</time></trkpt><trkpt lat="43.7533786" lon="11.0128308"><ele>107.5</ele><time>2026-04-11T08:04:29.948Z</time></trkpt><trkpt lat="43.7534186" lon="11.0127575"><ele>105.0</ele><time>2026-04-11T08:04:31.945Z</time></trkpt><trkpt lat="43.753493" lon="11.0126993"><ele>105.4</ele><time>2026-04-11T08:04:33.945Z</time></trkpt><trkpt lat="43.7535667" lon="11.0126129"><ele>105.8</ele><time>2026-04-11T08:04:35.949Z</time></trkpt><trkpt lat="43.7536359" lon="11.0125017"><ele>106.19999999999999</ele><time>2026-04-11T08:04:37.964Z</time></trkpt><trkpt lat="43.7536952" lon="11.0123792"><ele>106.6</ele><time>2026-04-11T08:04:39.948Z</time></trkpt><trkpt lat="43.7537332" lon="11.0122577"><ele>107.0</ele><time>2026-04-11T08:04:41.95Z</time></trkpt><trkpt lat="43.7537831" lon="11.0121373"><ele>106.99999999999999</ele><time>2026-04-11T08:04:43.955Z</time></trkpt><trkpt lat="43.7538222" lon="11.0120339"><ele>107.0</ele><time>2026-04-11T08:04:45.964Z</time></trkpt><trkpt lat="43.7538635" lon="11.0119274"><ele>107.0</ele><time>2026-04-11T08:04:47.954Z</time></trkpt><trkpt lat="43.7539066" lon="11.011834"><ele>107.0</ele><time>2026-04-11T08:04:49.956Z</time></trkpt><trkpt lat="43.7539523" lon="11.0117423"><ele>106.99999999999999</ele><time>2026-04-11T08:04:51.942Z</time></trkpt><trkpt lat="43.7540104" lon="11.0116599"><ele>107.0</ele><time>2026-04-11T08:04:53.956Z</time></trkpt><trkpt lat="43.75408" lon="11.011599"><ele>108.39999999999999</ele><time>2026-04-11T08:04:55.957Z</time></trkpt><trkpt lat="43.7541381" lon="11.0115277"><ele>109.79999999999998</ele><time>2026-04-11T08:04:57.952Z</time></trkpt><trkpt lat="43.754221" lon="11.0114379"><ele>111.2</ele><time>2026-04-11T08:04:59.941Z</time></trkpt><trkpt lat="43.7543081" lon="11.0113345"><ele>112.6</ele><time>2026-04-11T08:05:01.939Z</time></trkpt><trkpt lat="43.7543513" lon="11.0112589"><ele>114.0</ele><time>2026-04-11T08:05:03.948Z</time></trkpt><trkpt lat="43.7543003" lon="11.0111394"><ele>114.0</ele><time>2026-04-11T08:05:32.947Z</time></trkpt><trkpt lat="43.7542332" lon="11.0111435"><ele>114.0</ele><time>2026-04-11T08:05:38.957Z</time></trkpt><trkpt lat="43.7541833" lon="11.0112006"><ele>114.0</ele><time>2026-04-11T08:05:40.952Z</time></trkpt><trkpt lat="43.7540905" lon="11.0112868"><ele>114.0</ele><time>2026-04-11T08:05:42.952Z</time></trkpt><trkpt lat="43.7540164" lon="11.0113316"><ele>114.0</ele><time>2026-04-11T08:05:43.936Z</time></trkpt><trkpt lat="43.7539436" lon="11.0113719"><ele>114.0</ele><time>2026-04-11T08:05:44.935Z</time></trkpt><trkpt lat="43.7538681" lon="11.0114121"><ele>114.0</ele><time>2026-04-11T08:05:45.94Z</time></trkpt><trkpt lat="43.7537937" lon="11.0114606"><ele>114.0</ele><time>2026-04-11T08:05:46.939Z</time></trkpt><trkpt lat="43.7537113" lon="11.0115098"><ele>114.0</ele><time>2026-04-11T08:05:47.939Z</time></trkpt><trkpt lat="43.7536359" lon="11.0115719"><ele>114.0</ele><time>2026-04-11T08:05:48.948Z</time></trkpt><trkpt lat="43.7535644" lon="11.011631"><ele>114.0</ele><time>2026-04-11T08:05:49.938Z</time></trkpt><trkpt lat="43.7534976" lon="11.0116939"><ele>114.0</ele><time>2026-04-11T08:05:50.938Z</time></trkpt><trkpt lat="43.7534269" lon="11.011756"><ele>114.0</ele><time>2026-04-11T08:05:51.94Z</time></trkpt><trkpt lat="43.7533675" lon="11.0118149"><ele>113.99999999999999</ele><time>2026-04-11T08:05:52.939Z</time></trkpt><trkpt lat="43.7533061" lon="11.0118685"><ele>114.0</ele><time>2026-04-11T08:05:53.937Z</time></trkpt><trkpt lat="43.7532545" lon="11.011927"><ele>114.0</ele><time>2026-04-11T08:05:54.943Z</time></trkpt><trkpt lat="43.753198" lon="11.0119806"><ele>113.99999999999999</ele><time>2026-04-11T08:05:55.938Z</time></trkpt><trkpt lat="43.7531342" lon="11.0120278"><ele>114.0</ele><time>2026-04-11T08:05:56.94Z</time></trkpt><trkpt lat="43.7530653" lon="11.012076"><ele>114.0</ele><time>2026-04-11T08:05:57.947Z</time></trkpt><trkpt lat="43.7529965" lon="11.0121152"><ele>114.0</ele><time>2026-04-11T08:05:58.955Z</time></trkpt><trkpt lat="43.7529264" lon="11.0121468"><ele>114.0</ele><time>2026-04-11T08:05:59.95Z</time></trkpt><trkpt lat="43.7528576" lon="11.0121629"><ele>114.0</ele><time>2026-04-11T08:06:00.953Z</time></trkpt><trkpt lat="43.7527833" lon="11.0121526"><ele>114.0</ele><time>2026-04-11T08:06:01.941Z</time></trkpt><trkpt lat="43.7527039" lon="11.0121287"><ele>114.0</ele><time>2026-04-11T08:06:02.947Z</time></trkpt><trkpt lat="43.7526255" lon="11.0120834"><ele>114.0</ele><time>2026-04-11T08:06:03.945Z</time></trkpt><trkpt lat="43.7525608" lon="11.0120269"><ele>113.28571428571428</ele><time>2026-04-11T08:06:04.951Z</time></trkpt><trkpt lat="43.7525098" lon="11.0119565"><ele>112.57142857142856</ele><time>2026-04-11T08:06:05.952Z</time></trkpt><trkpt lat="43.752473" lon="11.0118796"><ele>111.85714285714286</ele><time>2026-04-11T08:06:06.956Z</time></trkpt><trkpt lat="43.7524457" lon="11.0117994"><ele>111.14285714285714</ele><time>2026-04-11T08:06:07.953Z</time></trkpt><trkpt lat="43.7524166" lon="11.0117196"><ele>110.42857142857143</ele><time>2026-04-11T08:06:08.963Z</time></trkpt><trkpt lat="43.752383" lon="11.0116414"><ele>109.71428571428572</ele><time>2026-04-11T08:06:09.958Z</time></trkpt><trkpt lat="43.7523488" lon="11.0115664"><ele>109.0</ele><time>2026-04-11T08:06:10.961Z</time></trkpt><trkpt lat="43.7523083" lon="11.0114941"><ele>111.50000000000001</ele><time>2026-04-11T08:06:11.955Z</time></trkpt><trkpt lat="43.7522707" lon="11.0114183"><ele>114.0</ele><time>2026-04-11T08:06:12.962Z</time></trkpt><trkpt lat="43.7522311" lon="11.0113424"><ele>116.5</ele><time>2026-04-11T08:06:13.966Z</time></trkpt><trkpt lat="43.7521827" lon="11.0112617"><ele>119.0</ele><time>2026-04-11T08:06:14.963Z</time></trkpt><trkpt lat="43.752126" lon="11.0111556"><ele>121.50000000000001</ele><time>2026-04-11T08:06:15.977Z</time></trkpt><trkpt lat="43.7520738" lon="11.0110453"><ele>124.0</ele><time>2026-04-11T08:06:16.967Z</time></trkpt><trkpt lat="43.7520224" lon="11.0109539"><ele>124.00000000000001</ele><time>2026-04-11T08:06:17.965Z</time></trkpt><trkpt lat="43.7519817" lon="11.0108601"><ele>124.0</ele><time>2026-04-11T08:06:18.962Z</time></trkpt><trkpt lat="43.7519406" lon="11.0107693"><ele>124.0</ele><time>2026-04-11T08:06:19.957Z</time></trkpt><trkpt lat="43.7519028" lon="11.0106767"><ele>124.0</ele><time>2026-04-11T08:06:20.957Z</time></trkpt><trkpt lat="43.75187" lon="11.0105741"><ele>124.00000000000001</ele><time>2026-04-11T08:06:21.962Z</time></trkpt><trkpt lat="43.7518346" lon="11.0104712"><ele>124.0</ele><time>2026-04-11T08:06:22.96Z</time></trkpt><trkpt lat="43.7518055" lon="11.0103686"><ele>123.66666666666667</ele><time>2026-04-11T08:06:23.961Z</time></trkpt><trkpt lat="43.751784" lon="11.0102681"><ele>123.33333333333334</ele><time>2026-04-11T08:06:24.962Z</time></trkpt><trkpt lat="43.751765" lon="11.0101704"><ele>123.0</ele><time>2026-04-11T08:06:25.955Z</time></trkpt><trkpt lat="43.7517534" lon="11.0100775"><ele>122.66666666666666</ele><time>2026-04-11T08:06:26.963Z</time></trkpt><trkpt lat="43.7517385" lon="11.0099722"><ele>122.33333333333333</ele><time>2026-04-11T08:06:28.965Z</time></trkpt><trkpt lat="43.7516945" lon="11.0098688"><ele>122.0</ele><time>2026-04-11T08:06:32.984Z</time></trkpt><trkpt lat="43.7515952" lon="11.0097826"><ele>120.8</ele><time>2026-04-11T08:06:34.982Z</time></trkpt><trkpt lat="43.751515" lon="11.0097193"><ele>119.6</ele><time>2026-04-11T08:06:35.952Z</time></trkpt><trkpt lat="43.7514225" lon="11.0096516"><ele>118.39999999999999</ele><time>2026-04-11T08:06:36.944Z</time></trkpt><trkpt lat="43.7513185" lon="11.0095807"><ele>117.19999999999999</ele><time>2026-04-11T08:06:37.937Z</time></trkpt><trkpt lat="43.7512122" lon="11.0094945"><ele>116.0</ele><time>2026-04-11T08:06:38.935Z</time></trkpt><trkpt lat="43.7511021" lon="11.0094023"><ele>115.0</ele><time>2026-04-11T08:06:39.946Z</time></trkpt><trkpt lat="43.7509868" lon="11.0093093"><ele>114.0</ele><time>2026-04-11T08:06:40.945Z</time></trkpt><trkpt lat="43.750873" lon="11.0092209"><ele>113.0</ele><time>2026-04-11T08:06:41.952Z</time></trkpt><trkpt lat="43.7507608" lon="11.0091412"><ele>112.0</ele><time>2026-04-11T08:06:42.94Z</time></trkpt><trkpt lat="43.7506546" lon="11.0090818"><ele>110.0</ele><time>2026-04-11T08:06:43.941Z</time></trkpt><trkpt lat="43.7505522" lon="11.0090478"><ele>108.0</ele><time>2026-04-11T08:06:44.939Z</time></trkpt><trkpt lat="43.7504381" lon="11.0090515"><ele>106.0</ele><time>2026-04-11T08:06:45.936Z</time></trkpt><trkpt lat="43.7503169" lon="11.009068"><ele>104.0</ele><time>2026-04-11T08:06:46.936Z</time></trkpt><trkpt lat="43.7501949" lon="11.009076"><ele>104.0</ele><time>2026-04-11T08:06:47.934Z</time></trkpt><trkpt lat="43.7500784" lon="11.0090563"><ele>104.0</ele><time>2026-04-11T08:06:48.936Z</time></trkpt><trkpt lat="43.7499832" lon="11.0089969"><ele>104.0</ele><time>2026-04-11T08:06:49.934Z</time></trkpt><trkpt lat="43.749893" lon="11.0089068"><ele>104.0</ele><time>2026-04-11T08:06:50.952Z</time></trkpt><trkpt lat="43.7498103" lon="11.0088019"><ele>104.0</ele><time>2026-04-11T08:06:51.946Z</time></trkpt><trkpt lat="43.7497253" lon="11.0087052"><ele>104.0</ele><time>2026-04-11T08:06:52.949Z</time></trkpt><trkpt lat="43.7496358" lon="11.0086204"><ele>104.0</ele><time>2026-04-11T08:06:53.956Z</time></trkpt><trkpt lat="43.7495441" lon="11.0085456"><ele>104.0</ele><time>2026-04-11T08:06:54.951Z</time></trkpt><trkpt lat="43.7494528" lon="11.0084817"><ele>104.0</ele><time>2026-04-11T08:06:55.957Z</time></trkpt><trkpt lat="43.7493602" lon="11.0084205"><ele>104.0</ele><time>2026-04-11T08:06:56.962Z</time></trkpt><trkpt lat="43.7492646" lon="11.00837"><ele>102.75</ele><time>2026-04-11T08:06:57.957Z</time></trkpt><trkpt lat="43.7491656" lon="11.0083267"><ele>101.5</ele><time>2026-04-11T08:06:58.963Z</time></trkpt><trkpt lat="43.7490571" lon="11.0082806"><ele>100.25</ele><time>2026-04-11T08:06:59.963Z</time></trkpt><trkpt lat="43.7489387" lon="11.0082304"><ele>99.0</ele><time>2026-04-11T08:07:00.977Z</time></trkpt><trkpt lat="43.7488154" lon="11.0081831"><ele>96.75</ele><time>2026-04-11T08:07:01.956Z</time></trkpt><trkpt lat="43.7486863" lon="11.0081394"><ele>94.5</ele><time>2026-04-11T08:07:02.955Z</time></trkpt><trkpt lat="43.7485605" lon="11.008102"><ele>92.25</ele><time>2026-04-11T08:07:03.949Z</time></trkpt><trkpt lat="43.7484323" lon="11.008073"><ele>90.0</ele><time>2026-04-11T08:07:04.955Z</time></trkpt><trkpt lat="43.7483003" lon="11.008055"><ele>89.75</ele><time>2026-04-11T08:07:05.964Z</time></trkpt><trkpt lat="43.7481759" lon="11.0080429"><ele>89.5</ele><time>2026-04-11T08:07:06.965Z</time></trkpt><trkpt lat="43.7480492" lon="11.0080341"><ele>89.25</ele><time>2026-04-11T08:07:07.968Z</time></trkpt><trkpt lat="43.7479273" lon="11.00802"><ele>89.0</ele><time>2026-04-11T08:07:08.981Z</time></trkpt><trkpt lat="43.7478057" lon="11.008"><ele>88.0</ele><time>2026-04-11T08:07:09.972Z</time></trkpt><trkpt lat="43.7476821" lon="11.0079856"><ele>87.0</ele><time>2026-04-11T08:07:10.968Z</time></trkpt><trkpt lat="43.7475671" lon="11.0079736"><ele>86.0</ele><time>2026-04-11T08:07:11.969Z</time></trkpt><trkpt lat="43.7474618" lon="11.0079651"><ele>85.0</ele><time>2026-04-11T08:07:12.979Z</time></trkpt><trkpt lat="43.7473645" lon="11.0079554"><ele>84.0</ele><time>2026-04-11T08:07:13.965Z</time></trkpt><trkpt lat="43.7472753" lon="11.0079451"><ele>84.0</ele><time>2026-04-11T08:07:14.954Z</time></trkpt><trkpt lat="43.7471979" lon="11.0079287"><ele>84.0</ele><time>2026-04-11T08:07:15.949Z</time></trkpt><trkpt lat="43.7471309" lon="11.0079019"><ele>84.0</ele><time>2026-04-11T08:07:16.965Z</time></trkpt><trkpt lat="43.7470691" lon="11.0078504"><ele>84.0</ele><time>2026-04-11T08:07:17.96Z</time></trkpt><trkpt lat="43.7470069" lon="11.0077764"><ele>84.0</ele><time>2026-04-11T08:07:18.951Z</time></trkpt><trkpt lat="43.7469349" lon="11.007676"><ele>84.0</ele><time>2026-04-11T08:07:19.965Z</time></trkpt><trkpt lat="43.7468637" lon="11.0075747"><ele>82.0</ele><time>2026-04-11T08:07:20.96Z</time></trkpt><trkpt lat="43.7467871" lon="11.0074707"><ele>80.0</ele><time>2026-04-11T08:07:21.947Z</time></trkpt><trkpt lat="43.7467031" lon="11.007382"><ele>78.0</ele><time>2026-04-11T08:07:22.942Z</time></trkpt><trkpt lat="43.7466135" lon="11.0072985"><ele>76.0</ele><time>2026-04-11T08:07:23.941Z</time></trkpt><trkpt lat="43.7465239" lon="11.0072277"><ele>74.0</ele><time>2026-04-11T08:07:24.945Z</time></trkpt><trkpt lat="43.7464374" lon="11.0071803"><ele>74.0</ele><time>2026-04-11T08:07:25.954Z</time></trkpt><trkpt lat="43.746361" lon="11.0071393"><ele>74.0</ele><time>2026-04-11T08:07:26.957Z</time></trkpt><trkpt lat="43.7462962" lon="11.0070923"><ele>74.0</ele><time>2026-04-11T08:07:27.949Z</time></trkpt><trkpt lat="43.7462395" lon="11.0070297"><ele>74.0</ele><time>2026-04-11T08:07:28.952Z</time></trkpt><trkpt lat="43.7461793" lon="11.0069147"><ele>74.0</ele><time>2026-04-11T08:07:30.957Z</time></trkpt><trkpt lat="43.7461654" lon="11.0068283"><ele>74.0</ele><time>2026-04-11T08:07:33.976Z</time></trkpt><trkpt lat="43.7462099" lon="11.0068917"><ele>74.0</ele><time>2026-04-11T08:07:58.985Z</time></trkpt><trkpt lat="43.7462474" lon="11.0069751"><ele>74.0</ele><time>2026-04-11T08:08:00.987Z</time></trkpt><trkpt lat="43.7462788" lon="11.0070878"><ele>74.0</ele><time>2026-04-11T08:08:02.978Z</time></trkpt><trkpt lat="43.7463052" lon="11.0071733"><ele>74.0</ele><time>2026-04-11T08:08:05.978Z</time></trkpt><trkpt lat="43.74637" lon="11.0071363"><ele>74.0</ele><time>2026-04-11T08:08:09.993Z</time></trkpt><trkpt lat="43.7463042" lon="11.0071709"><ele>74.0</ele><time>2026-04-11T08:08:17.974Z</time></trkpt><trkpt lat="43.7462789" lon="11.0072813"><ele>74.0</ele><time>2026-04-11T08:08:19.968Z</time></trkpt><trkpt lat="43.7462423" lon="11.0074106"><ele>74.0</ele><time>2026-04-11T08:08:21.965Z</time></trkpt><trkpt lat="43.7461943" lon="11.0074949"><ele>74.0</ele><time>2026-04-11T08:08:23.967Z</time></trkpt><trkpt lat="43.7461123" lon="11.0075151"><ele>74.0</ele><time>2026-04-11T08:08:25.964Z</time></trkpt><trkpt lat="43.7460415" lon="11.0075113"><ele>74.0</ele><time>2026-04-11T08:08:27.958Z</time></trkpt><trkpt lat="43.7459787" lon="11.0074828"><ele>74.0</ele><time>2026-04-11T08:08:29.962Z</time></trkpt><trkpt lat="43.7459133" lon="11.0075332"><ele>72.83333333333334</ele><time>2026-04-11T08:08:33.957Z</time></trkpt><trkpt lat="43.7458579" lon="11.0075865"><ele>71.66666666666667</ele><time>2026-04-11T08:08:36.961Z</time></trkpt><trkpt lat="43.7458063" lon="11.0076484"><ele>70.5</ele><time>2026-04-11T08:08:38.97Z</time></trkpt><trkpt lat="43.7457357" lon="11.0077173"><ele>69.33333333333333</ele><time>2026-04-11T08:08:40.956Z</time></trkpt><trkpt lat="43.7456814" lon="11.0077828"><ele>68.16666666666666</ele><time>2026-04-11T08:08:42.982Z</time></trkpt><trkpt lat="43.7456039" lon="11.0078635"><ele>67.0</ele><time>2026-04-11T08:08:44.975Z</time></trkpt><trkpt lat="43.7455005" lon="11.0079229"><ele>67.0</ele><time>2026-04-11T08:08:46.959Z</time></trkpt><trkpt lat="43.7454004" lon="11.0079727"><ele>67.0</ele><time>2026-04-11T08:08:48.967Z</time></trkpt><trkpt lat="43.7453391" lon="11.0080876"><ele>67.0</ele><time>2026-04-11T08:08:50.985Z</time></trkpt><trkpt lat="43.7453197" lon="11.0082241"><ele>67.0</ele><time>2026-04-11T08:08:52.978Z</time></trkpt><trkpt lat="43.7453273" lon="11.0083408"><ele>67.0</ele><time>2026-04-11T08:08:54.983Z</time></trkpt><trkpt lat="43.7453352" lon="11.0084379"><ele>64.66666666666666</ele><time>2026-04-11T08:08:56.993Z</time></trkpt><trkpt lat="43.7452509" lon="11.008496"><ele>62.33333333333333</ele><time>2026-04-11T08:08:59.979Z</time></trkpt><trkpt lat="43.7451867" lon="11.008492"><ele>60.0</ele><time>2026-04-11T08:09:00.976Z</time></trkpt><trkpt lat="43.7451072" lon="11.0084976"><ele>57.66666666666667</ele><time>2026-04-11T08:09:01.957Z</time></trkpt><trkpt lat="43.7450297" lon="11.0084873"><ele>55.333333333333336</ele><time>2026-04-11T08:09:02.959Z</time></trkpt><trkpt lat="43.7449479" lon="11.0084843"><ele>53.0</ele><time>2026-04-11T08:09:03.962Z</time></trkpt><trkpt lat="43.7448694" lon="11.0084778"><ele>52.66666666666667</ele><time>2026-04-11T08:09:04.965Z</time></trkpt><trkpt lat="43.7447984" lon="11.0084769"><ele>52.333333333333336</ele><time>2026-04-11T08:09:05.956Z</time></trkpt><trkpt lat="43.7447258" lon="11.0084649"><ele>52.0</ele><time>2026-04-11T08:09:06.968Z</time></trkpt><trkpt lat="43.7446516" lon="11.0084331"><ele>51.66666666666667</ele><time>2026-04-11T08:09:07.961Z</time></trkpt><trkpt lat="43.7445806" lon="11.0083888"><ele>51.333333333333336</ele><time>2026-04-11T08:09:08.953Z</time></trkpt><trkpt lat="43.7445133" lon="11.0083417"><ele>51.0</ele><time>2026-04-11T08:09:09.949Z</time></trkpt><trkpt lat="43.7444416" lon="11.0083127"><ele>53.285714285714285</ele><time>2026-04-11T08:09:10.954Z</time></trkpt><trkpt lat="43.7443684" lon="11.0082923"><ele>55.57142857142857</ele><time>2026-04-11T08:09:11.954Z</time></trkpt><trkpt lat="43.744292" lon="11.0082864"><ele>57.85714285714286</ele><time>2026-04-11T08:09:12.952Z</time></trkpt><trkpt lat="43.7442138" lon="11.0082813"><ele>60.14285714285714</ele><time>2026-04-11T08:09:13.955Z</time></trkpt><trkpt lat="43.7441365" lon="11.0082823"><ele>62.42857142857142</ele><time>2026-04-11T08:09:14.963Z</time></trkpt><trkpt lat="43.7440688" lon="11.0082839"><ele>64.71428571428572</ele><time>2026-04-11T08:09:15.953Z</time></trkpt><trkpt lat="43.7440049" lon="11.0082854"><ele>67.0</ele><time>2026-04-11T08:09:16.977Z</time></trkpt><trkpt lat="43.7438808" lon="11.0082766"><ele>67.0</ele><time>2026-04-11T08:09:18.96Z</time></trkpt><trkpt lat="43.7438122" lon="11.0082629"><ele>67.0</ele><time>2026-04-11T08:09:19.96Z</time></trkpt><trkpt lat="43.7437463" lon="11.0082519"><ele>67.0</ele><time>2026-04-11T08:09:20.974Z</time></trkpt><trkpt lat="43.7436838" lon="11.0082384"><ele>67.0</ele><time>2026-04-11T08:09:21.974Z</time></trkpt><trkpt lat="43.7435674" lon="11.0082117"><ele>67.0</ele><time>2026-04-11T08:09:23.981Z</time></trkpt><trkpt lat="43.7434478" lon="11.0081853"><ele>67.0</ele><time>2026-04-11T08:09:25.976Z</time></trkpt><trkpt lat="43.7433827" lon="11.0081751"><ele>66.33333333333333</ele><time>2026-04-11T08:09:26.98Z</time></trkpt><trkpt lat="43.7433164" lon="11.008164"><ele>65.66666666666666</ele><time>2026-04-11T08:09:27.972Z</time></trkpt><trkpt lat="43.743253" lon="11.0081478"><ele>65.0</ele><time>2026-04-11T08:09:28.981Z</time></trkpt><trkpt lat="43.7431857" lon="11.0081348"><ele>64.33333333333333</ele><time>2026-04-11T08:09:29.975Z</time></trkpt><trkpt lat="43.7430716" lon="11.0081301"><ele>63.666666666666664</ele><time>2026-04-11T08:09:31.968Z</time></trkpt><trkpt lat="43.742997" lon="11.0082032"><ele>63.0</ele><time>2026-04-11T08:09:33.973Z</time></trkpt><trkpt lat="43.743" lon="11.0083435"><ele>59.833333333333336</ele><time>2026-04-11T08:09:35.971Z</time></trkpt><trkpt lat="43.7430341" lon="11.0084952"><ele>56.666666666666664</ele><time>2026-04-11T08:09:37.956Z</time></trkpt><trkpt lat="43.7430687" lon="11.0086229"><ele>53.5</ele><time>2026-04-11T08:09:39.96Z</time></trkpt><trkpt lat="43.7430672" lon="11.0087195"><ele>50.33333333333333</ele><time>2026-04-11T08:09:42.969Z</time></trkpt><trkpt lat="43.7430023" lon="11.0087333"><ele>47.166666666666664</ele><time>2026-04-11T08:09:45.961Z</time></trkpt><trkpt lat="43.7429238" lon="11.0087226"><ele>44.0</ele><time>2026-04-11T08:09:47.984Z</time></trkpt><trkpt lat="43.7428373" lon="11.0087139"><ele>44.0</ele><time>2026-04-11T08:09:49.967Z</time></trkpt><trkpt lat="43.7427636" lon="11.0087143"><ele>44.0</ele><time>2026-04-11T08:09:51.967Z</time></trkpt><trkpt lat="43.7426903" lon="11.0087375"><ele>44.0</ele><time>2026-04-11T08:09:53.972Z</time></trkpt><trkpt lat="43.7426179" lon="11.0087656"><ele>44.0</ele><time>2026-04-11T08:09:55.97Z</time></trkpt><trkpt lat="43.7425477" lon="11.0087931"><ele>44.0</ele><time>2026-04-11T08:09:57.97Z</time></trkpt><trkpt lat="43.7424696" lon="11.0088146"><ele>44.0</ele><time>2026-04-11T08:09:59.974Z</time></trkpt><trkpt lat="43.7423852" lon="11.008849"><ele>44.33333333333333</ele><time>2026-04-11T08:10:01.966Z</time></trkpt><trkpt lat="43.7423003" lon="11.008873"><ele>44.666666666666664</ele><time>2026-04-11T08:10:03.961Z</time></trkpt><trkpt lat="43.74221" lon="11.0088961"><ele>45.0</ele><time>2026-04-11T08:10:05.972Z</time></trkpt><trkpt lat="43.7420994" lon="11.0089296"><ele>45.333333333333336</ele><time>2026-04-11T08:10:07.961Z</time></trkpt><trkpt lat="43.74203" lon="11.0089405"><ele>45.66666666666667</ele><time>2026-04-11T08:10:08.951Z</time></trkpt><trkpt lat="43.741955" lon="11.0089454"><ele>46.0</ele><time>2026-04-11T08:10:09.949Z</time></trkpt><trkpt lat="43.7418753" lon="11.0089418"><ele>45.199999999999996</ele><time>2026-04-11T08:10:10.955Z</time></trkpt><trkpt lat="43.7417882" lon="11.0089282"><ele>44.4</ele><time>2026-04-11T08:10:11.949Z</time></trkpt><trkpt lat="43.7416902" lon="11.0088969"><ele>43.6</ele><time>2026-04-11T08:10:12.953Z</time></trkpt><trkpt lat="43.741597" lon="11.0088625"><ele>42.8</ele><time>2026-04-11T08:10:13.948Z</time></trkpt><trkpt lat="43.7415094" lon="11.0088222"><ele>42.0</ele><time>2026-04-11T08:10:14.955Z</time></trkpt><trkpt lat="43.7414218" lon="11.0087867"><ele>42.0</ele><time>2026-04-11T08:10:15.956Z</time></trkpt><trkpt lat="43.7413351" lon="11.0087629"><ele>42.0</ele><time>2026-04-11T08:10:16.951Z</time></trkpt><trkpt lat="43.7412424" lon="11.0087516"><ele>42.0</ele><time>2026-04-11T08:10:17.958Z</time></trkpt><trkpt lat="43.7411424" lon="11.0087485"><ele>42.0</ele><time>2026-04-11T08:10:18.948Z</time></trkpt><trkpt lat="43.7410446" lon="11.0087543"><ele>42.0</ele><time>2026-04-11T08:10:19.95Z</time></trkpt><trkpt lat="43.7409472" lon="11.008771"><ele>41.0</ele><time>2026-04-11T08:10:20.952Z</time></trkpt><trkpt lat="43.7408457" lon="11.0087752"><ele>40.0</ele><time>2026-04-11T08:10:21.961Z</time></trkpt><trkpt lat="43.7407439" lon="11.008775"><ele>39.0</ele><time>2026-04-11T08:10:22.958Z</time></trkpt><trkpt lat="43.7406414" lon="11.0087694"><ele>38.0</ele><time>2026-04-11T08:10:23.965Z</time></trkpt><trkpt lat="43.7405363" lon="11.0087658"><ele>37.0</ele><time>2026-04-11T08:10:24.956Z</time></trkpt><trkpt lat="43.7404335" lon="11.0087525"><ele>37.0</ele><time>2026-04-11T08:10:25.953Z</time></trkpt><trkpt lat="43.7403319" lon="11.0087315"><ele>37.0</ele><time>2026-04-11T08:10:26.957Z</time></trkpt><trkpt lat="43.7402378" lon="11.0087077"><ele>37.0</ele><time>2026-04-11T08:10:27.952Z</time></trkpt><trkpt lat="43.7401409" lon="11.008686"><ele>37.0</ele><time>2026-04-11T08:10:28.955Z</time></trkpt><trkpt lat="43.7400386" lon="11.0086664"><ele>37.0</ele><time>2026-04-11T08:10:29.954Z</time></trkpt><trkpt lat="43.7399323" lon="11.0086505"><ele>37.0</ele><time>2026-04-11T08:10:30.95Z</time></trkpt><trkpt lat="43.7398263" lon="11.0086396"><ele>37.0</ele><time>2026-04-11T08:10:31.942Z</time></trkpt><trkpt lat="43.7397284" lon="11.0086324"><ele>37.0</ele><time>2026-04-11T08:10:32.944Z</time></trkpt><trkpt lat="43.7396207" lon="11.008636"><ele>37.0</ele><time>2026-04-11T08:10:33.952Z</time></trkpt><trkpt lat="43.7395065" lon="11.0086519"><ele>37.0</ele><time>2026-04-11T08:10:34.948Z</time></trkpt><trkpt lat="43.7393871" lon="11.0086713"><ele>37.25</ele><time>2026-04-11T08:10:35.96Z</time></trkpt><trkpt lat="43.7392648" lon="11.0086878"><ele>37.5</ele><time>2026-04-11T08:10:36.951Z</time></trkpt><trkpt lat="43.7391376" lon="11.0086979"><ele>37.75</ele><time>2026-04-11T08:10:37.953Z</time></trkpt><trkpt lat="43.7390155" lon="11.0087074"><ele>38.0</ele><time>2026-04-11T08:10:38.952Z</time></trkpt><trkpt lat="43.7389013" lon="11.0087108"><ele>38.0</ele><time>2026-04-11T08:10:39.955Z</time></trkpt><trkpt lat="43.7387949" lon="11.0087087"><ele>38.0</ele><time>2026-04-11T08:10:40.951Z</time></trkpt><trkpt lat="43.7387101" lon="11.0087069"><ele>38.0</ele><time>2026-04-11T08:10:41.95Z</time></trkpt><trkpt lat="43.7386457" lon="11.0087182"><ele>38.0</ele><time>2026-04-11T08:10:42.95Z</time></trkpt><trkpt lat="43.7386045" lon="11.0088198"><ele>38.0</ele><time>2026-04-11T08:10:44.95Z</time></trkpt><trkpt lat="43.7386487" lon="11.009007"><ele>38.0</ele><time>2026-04-11T08:10:46.949Z</time></trkpt><trkpt lat="43.738681" lon="11.0091258"><ele>38.0</ele><time>2026-04-11T08:10:47.949Z</time></trkpt><trkpt lat="43.7387201" lon="11.0092428"><ele>38.0</ele><time>2026-04-11T08:10:48.959Z</time></trkpt><trkpt lat="43.7387617" lon="11.00935"><ele>38.0</ele><time>2026-04-11T08:10:49.947Z</time></trkpt><trkpt lat="43.7387994" lon="11.0094465"><ele>38.0</ele><time>2026-04-11T08:10:50.96Z</time></trkpt><trkpt lat="43.7388233" lon="11.0095863"><ele>37.666666666666664</ele><time>2026-04-11T08:10:52.955Z</time></trkpt><trkpt lat="43.7387585" lon="11.0096322"><ele>37.33333333333333</ele><time>2026-04-11T08:10:55.958Z</time></trkpt><trkpt lat="43.7386599" lon="11.0096293"><ele>37.0</ele><time>2026-04-11T08:10:57.965Z</time></trkpt><trkpt lat="43.7385907" lon="11.0096107"><ele>36.666666666666664</ele><time>2026-04-11T08:10:58.958Z</time></trkpt><trkpt lat="43.7385156" lon="11.0095887"><ele>36.333333333333336</ele><time>2026-04-11T08:10:59.942Z</time></trkpt><trkpt lat="43.7384259" lon="11.009553"><ele>36.0</ele><time>2026-04-11T08:11:00.952Z</time></trkpt><trkpt lat="43.7383192" lon="11.0095242"><ele>35.2</ele><time>2026-04-11T08:11:01.94Z</time></trkpt><trkpt lat="43.7382118" lon="11.0094952"><ele>34.400000000000006</ele><time>2026-04-11T08:11:02.955Z</time></trkpt><trkpt lat="43.7381048" lon="11.0094706"><ele>33.6</ele><time>2026-04-11T08:11:03.949Z</time></trkpt><trkpt lat="43.7380046" lon="11.0094476"><ele>32.800000000000004</ele><time>2026-04-11T08:11:04.949Z</time></trkpt><trkpt lat="43.7379166" lon="11.0094321"><ele>32.0</ele><time>2026-04-11T08:11:05.948Z</time></trkpt><trkpt lat="43.7378485" lon="11.0094248"><ele>32.0</ele><time>2026-04-11T08:11:06.945Z</time></trkpt><trkpt lat="43.7377403" lon="11.0094155"><ele>32.0</ele><time>2026-04-11T08:11:08.956Z</time></trkpt><trkpt lat="43.7376432" lon="11.0093687"><ele>32.0</ele><time>2026-04-11T08:11:10.963Z</time></trkpt><trkpt lat="43.7375781" lon="11.0092547"><ele>32.0</ele><time>2026-04-11T08:11:12.952Z</time></trkpt><trkpt lat="43.7375653" lon="11.0091497"><ele>32.0</ele><time>2026-04-11T08:11:13.947Z</time></trkpt><trkpt lat="43.7375662" lon="11.0090182"><ele>31.6</ele><time>2026-04-11T08:11:14.964Z</time></trkpt><trkpt lat="43.7375759" lon="11.0088678"><ele>31.200000000000003</ele><time>2026-04-11T08:11:15.968Z</time></trkpt><trkpt lat="43.7375869" lon="11.008714"><ele>30.8</ele><time>2026-04-11T08:11:16.967Z</time></trkpt><trkpt lat="43.7375938" lon="11.0085608"><ele>30.4</ele><time>2026-04-11T08:11:17.977Z</time></trkpt><trkpt lat="43.7375994" lon="11.0084153"><ele>30.0</ele><time>2026-04-11T08:11:18.967Z</time></trkpt><trkpt lat="43.7375987" lon="11.0082783"><ele>30.0</ele><time>2026-04-11T08:11:19.971Z</time></trkpt><trkpt lat="43.7375968" lon="11.0081446"><ele>30.0</ele><time>2026-04-11T08:11:20.957Z</time></trkpt><trkpt lat="43.7375982" lon="11.0080107"><ele>30.0</ele><time>2026-04-11T08:11:21.953Z</time></trkpt><trkpt lat="43.7375964" lon="11.0078718"><ele>30.0</ele><time>2026-04-11T08:11:22.957Z</time></trkpt><trkpt lat="43.7375969" lon="11.0077282"><ele>30.0</ele><time>2026-04-11T08:11:23.961Z</time></trkpt><trkpt lat="43.7375922" lon="11.0075826"><ele>30.666666666666668</ele><time>2026-04-11T08:11:24.955Z</time></trkpt><trkpt lat="43.7375909" lon="11.0074407"><ele>31.333333333333336</ele><time>2026-04-11T08:11:25.963Z</time></trkpt><trkpt lat="43.7375931" lon="11.0073104"><ele>32.0</ele><time>2026-04-11T08:11:26.954Z</time></trkpt><trkpt lat="43.7376006" lon="11.0071955"><ele>32.66666666666667</ele><time>2026-04-11T08:11:27.953Z</time></trkpt><trkpt lat="43.7376201" lon="11.007091"><ele>33.333333333333336</ele><time>2026-04-11T08:11:28.952Z</time></trkpt><trkpt lat="43.737645" lon="11.0069952"><ele>34.0</ele><time>2026-04-11T08:11:29.956Z</time></trkpt><trkpt lat="43.7376562" lon="11.0069021"><ele>34.0</ele><time>2026-04-11T08:11:30.975Z</time></trkpt><trkpt lat="43.737639" lon="11.0068137"><ele>34.0</ele><time>2026-04-11T08:11:31.961Z</time></trkpt><trkpt lat="43.7376077" lon="11.0067198"><ele>34.0</ele><time>2026-04-11T08:11:32.957Z</time></trkpt><trkpt lat="43.7375847" lon="11.0066102"><ele>34.0</ele><time>2026-04-11T08:11:33.952Z</time></trkpt><trkpt lat="43.7375695" lon="11.0064814"><ele>34.0</ele><time>2026-04-11T08:11:34.956Z</time></trkpt><trkpt lat="43.7375688" lon="11.0063271"><ele>34.0</ele><time>2026-04-11T08:11:35.964Z</time></trkpt><trkpt lat="43.7375756" lon="11.0061538"><ele>34.0</ele><time>2026-04-11T08:11:36.963Z</time></trkpt><trkpt lat="43.7375785" lon="11.0059692"><ele>34.0</ele><time>2026-04-11T08:11:37.955Z</time></trkpt><trkpt lat="43.737579" lon="11.0057821"><ele>34.0</ele><time>2026-04-11T08:11:38.963Z</time></trkpt><trkpt lat="43.7375775" lon="11.0055937"><ele>34.0</ele><time>2026-04-11T08:11:39.953Z</time></trkpt><trkpt lat="43.7375784" lon="11.005404"><ele>34.25</ele><time>2026-04-11T08:11:40.949Z</time></trkpt><trkpt lat="43.7375794" lon="11.0052215"><ele>34.5</ele><time>2026-04-11T08:11:41.947Z</time></trkpt><trkpt lat="43.7375825" lon="11.0050434"><ele>34.75</ele><time>2026-04-11T08:11:42.945Z</time></trkpt><trkpt lat="43.7375846" lon="11.0048644"><ele>35.0</ele><time>2026-04-11T08:11:43.946Z</time></trkpt><trkpt lat="43.7375878" lon="11.0046925"><ele>34.2</ele><time>2026-04-11T08:11:44.947Z</time></trkpt><trkpt lat="43.737589" lon="11.0045261"><ele>33.4</ele><time>2026-04-11T08:11:45.946Z</time></trkpt><trkpt lat="43.7375896" lon="11.0043671"><ele>32.6</ele><time>2026-04-11T08:11:46.952Z</time></trkpt><trkpt lat="43.7375991" lon="11.0042206"><ele>31.8</ele><time>2026-04-11T08:11:47.941Z</time></trkpt><trkpt lat="43.7376202" lon="11.0040781"><ele>31.0</ele><time>2026-04-11T08:11:48.948Z</time></trkpt><trkpt lat="43.737646" lon="11.0039531"><ele>31.0</ele><time>2026-04-11T08:11:49.941Z</time></trkpt><trkpt lat="43.7376722" lon="11.0038439"><ele>31.0</ele><time>2026-04-11T08:11:50.953Z</time></trkpt><trkpt lat="43.7376972" lon="11.0037582"><ele>31.0</ele><time>2026-04-11T08:11:51.935Z</time></trkpt><trkpt lat="43.7377717" lon="11.0036713"><ele>31.0</ele><time>2026-04-11T08:11:53.947Z</time></trkpt><trkpt lat="43.7378725" lon="11.0036796"><ele>31.0</ele><time>2026-04-11T08:11:55.936Z</time></trkpt><trkpt lat="43.7379998" lon="11.0037076"><ele>31.0</ele><time>2026-04-11T08:11:57.931Z</time></trkpt><trkpt lat="43.7380783" lon="11.0037094"><ele>31.0</ele><time>2026-04-11T08:11:58.933Z</time></trkpt><trkpt lat="43.7381677" lon="11.0037091"><ele>31.0</ele><time>2026-04-11T08:11:59.932Z</time></trkpt><trkpt lat="43.738265" lon="11.0037099"><ele>31.0</ele><time>2026-04-11T08:12:00.935Z</time></trkpt><trkpt lat="43.738374" lon="11.0037107"><ele>31.0</ele><time>2026-04-11T08:12:01.926Z</time></trkpt><trkpt lat="43.7385011" lon="11.003718"><ele>31.0</ele><time>2026-04-11T08:12:02.928Z</time></trkpt><trkpt lat="43.7386334" lon="11.0037273"><ele>31.0</ele><time>2026-04-11T08:12:03.923Z</time></trkpt><trkpt lat="43.738767" lon="11.0037496"><ele>31.0</ele><time>2026-04-11T08:12:04.923Z</time></trkpt><trkpt lat="43.7389027" lon="11.0037748"><ele>31.0</ele><time>2026-04-11T08:12:05.924Z</time></trkpt><trkpt lat="43.7390408" lon="11.0037986"><ele>31.0</ele><time>2026-04-11T08:12:06.926Z</time></trkpt><trkpt lat="43.739181" lon="11.0038251"><ele>31.0</ele><time>2026-04-11T08:12:07.93Z</time></trkpt><trkpt lat="43.73932" lon="11.0038482"><ele>31.0</ele><time>2026-04-11T08:12:08.924Z</time></trkpt><trkpt lat="43.7394637" lon="11.0038703"><ele>31.0</ele><time>2026-04-11T08:12:09.927Z</time></trkpt><trkpt lat="43.7396129" lon="11.003886"><ele>32.25</ele><time>2026-04-11T08:12:10.924Z</time></trkpt><trkpt lat="43.7397616" lon="11.0039008"><ele>33.5</ele><time>2026-04-11T08:12:11.929Z</time></trkpt><trkpt lat="43.7399034" lon="11.0039153"><ele>34.75</ele><time>2026-04-11T08:12:12.925Z</time></trkpt><trkpt lat="43.7400376" lon="11.0039309"><ele>36.0</ele><time>2026-04-11T08:12:13.929Z</time></trkpt><trkpt lat="43.740168" lon="11.0039471"><ele>37.75</ele><time>2026-04-11T08:12:14.932Z</time></trkpt><trkpt lat="43.7402916" lon="11.0039614"><ele>39.5</ele><time>2026-04-11T08:12:15.929Z</time></trkpt><trkpt lat="43.7404103" lon="11.0039755"><ele>41.25</ele><time>2026-04-11T08:12:16.932Z</time></trkpt><trkpt lat="43.7405295" lon="11.0039776"><ele>43.0</ele><time>2026-04-11T08:12:17.93Z</time></trkpt><trkpt lat="43.7406501" lon="11.0039703"><ele>43.0</ele><time>2026-04-11T08:12:18.926Z</time></trkpt><trkpt lat="43.7407743" lon="11.0039431"><ele>43.0</ele><time>2026-04-11T08:12:19.935Z</time></trkpt><trkpt lat="43.7408926" lon="11.0039086"><ele>43.0</ele><time>2026-04-11T08:12:20.927Z</time></trkpt><trkpt lat="43.7409963" lon="11.003876"><ele>43.0</ele><time>2026-04-11T08:12:21.936Z</time></trkpt><trkpt lat="43.7410993" lon="11.0038596"><ele>43.5</ele><time>2026-04-11T08:12:22.927Z</time></trkpt><trkpt lat="43.7412136" lon="11.0038694"><ele>44.0</ele><time>2026-04-11T08:12:23.928Z</time></trkpt><trkpt lat="43.7413362" lon="11.003882"><ele>44.5</ele><time>2026-04-11T08:12:24.926Z</time></trkpt><trkpt lat="43.7414507" lon="11.0038881"><ele>45.0</ele><time>2026-04-11T08:12:25.926Z</time></trkpt><trkpt lat="43.7415552" lon="11.0038807"><ele>45.0</ele><time>2026-04-11T08:12:26.925Z</time></trkpt><trkpt lat="43.74165" lon="11.0038588"><ele>45.0</ele><time>2026-04-11T08:12:27.92Z</time></trkpt><trkpt lat="43.7417388" lon="11.0038362"><ele>45.0</ele><time>2026-04-11T08:12:28.921Z</time></trkpt><trkpt lat="43.7418217" lon="11.003815"><ele>45.0</ele><time>2026-04-11T08:12:29.921Z</time></trkpt><trkpt lat="43.7418989" lon="11.0037968"><ele>45.0</ele><time>2026-04-11T08:12:30.93Z</time></trkpt><trkpt lat="43.7419823" lon="11.0037808"><ele>45.0</ele><time>2026-04-11T08:12:31.921Z</time></trkpt><trkpt lat="43.7420894" lon="11.0037819"><ele>45.75</ele><time>2026-04-11T08:12:32.92Z</time></trkpt><trkpt lat="43.7422003" lon="11.0037989"><ele>46.5</ele><time>2026-04-11T08:12:33.918Z</time></trkpt><trkpt lat="43.7423251" lon="11.0038228"><ele>47.25</ele><time>2026-04-11T08:12:34.919Z</time></trkpt><trkpt lat="43.7424586" lon="11.0038549"><ele>48.0</ele><time>2026-04-11T08:12:35.914Z</time></trkpt><trkpt lat="43.7425974" lon="11.0038959"><ele>48.75</ele><time>2026-04-11T08:12:36.921Z</time></trkpt><trkpt lat="43.7427446" lon="11.0039284"><ele>49.5</ele><time>2026-04-11T08:12:37.917Z</time></trkpt><trkpt lat="43.7428887" lon="11.0039494"><ele>50.25</ele><time>2026-04-11T08:12:38.917Z</time></trkpt><trkpt lat="43.7430385" lon="11.0039494"><ele>51.0</ele><time>2026-04-11T08:12:39.917Z</time></trkpt><trkpt lat="43.7431684" lon="11.0039412"><ele>51.0</ele><time>2026-04-11T08:12:40.918Z</time></trkpt><trkpt lat="43.7432883" lon="11.0039386"><ele>51.0</ele><time>2026-04-11T08:12:41.92Z</time></trkpt><trkpt lat="43.7433902" lon="11.0039341"><ele>51.0</ele><time>2026-04-11T08:12:42.917Z</time></trkpt><trkpt lat="43.7434848" lon="11.0039385"><ele>51.0</ele><time>2026-04-11T08:12:43.916Z</time></trkpt><trkpt lat="43.7435605" lon="11.0039527"><ele>51.0</ele><time>2026-04-11T08:12:44.917Z</time></trkpt><trkpt lat="43.7436751" lon="11.0039734"><ele>53.4</ele><time>2026-04-11T08:12:46.921Z</time></trkpt><trkpt lat="43.7437761" lon="11.0039856"><ele>55.8</ele><time>2026-04-11T08:12:48.926Z</time></trkpt><trkpt lat="43.7438564" lon="11.0039874"><ele>58.199999999999996</ele><time>2026-04-11T08:12:50.926Z</time></trkpt><trkpt lat="43.7439229" lon="11.0039728"><ele>60.599999999999994</ele><time>2026-04-11T08:12:53.949Z</time></trkpt><trkpt lat="43.7440235" lon="11.0040185"><ele>63.0</ele><time>2026-04-11T08:14:23.951Z</time></trkpt><trkpt lat="43.7441555" lon="11.0040286"><ele>63.0</ele><time>2026-04-11T08:14:25.951Z</time></trkpt><trkpt lat="43.7442782" lon="11.0040466"><ele>63.0</ele><time>2026-04-11T08:14:27.927Z</time></trkpt><trkpt lat="43.7443458" lon="11.0040508"><ele>63.0</ele><time>2026-04-11T08:14:28.928Z</time></trkpt><trkpt lat="43.7444199" lon="11.0040632"><ele>63.0</ele><time>2026-04-11T08:14:29.933Z</time></trkpt><trkpt lat="43.7444961" lon="11.004086"><ele>63.0</ele><time>2026-04-11T08:14:30.938Z</time></trkpt><trkpt lat="43.7445716" lon="11.0041063"><ele>63.0</ele><time>2026-04-11T08:14:31.927Z</time></trkpt><trkpt lat="43.744639" lon="11.0041304"><ele>62.714285714285715</ele><time>2026-04-11T08:14:32.928Z</time></trkpt><trkpt lat="43.7447092" lon="11.004156"><ele>62.42857142857143</ele><time>2026-04-11T08:14:33.93Z</time></trkpt><trkpt lat="43.7447696" lon="11.0041832"><ele>62.14285714285714</ele><time>2026-04-11T08:14:34.929Z</time></trkpt><trkpt lat="43.7448405" lon="11.0042001"><ele>61.857142857142854</ele><time>2026-04-11T08:14:35.937Z</time></trkpt><trkpt lat="43.7449069" lon="11.0042156"><ele>61.57142857142857</ele><time>2026-04-11T08:14:36.927Z</time></trkpt><trkpt lat="43.7449839" lon="11.0042349"><ele>61.28571428571428</ele><time>2026-04-11T08:14:37.927Z</time></trkpt><trkpt lat="43.7450607" lon="11.004254"><ele>60.99999999999999</ele><time>2026-04-11T08:14:38.929Z</time></trkpt><trkpt lat="43.7451403" lon="11.0042747"><ele>61.33333333333333</ele><time>2026-04-11T08:14:39.929Z</time></trkpt><trkpt lat="43.7452248" lon="11.0042968"><ele>61.666666666666664</ele><time>2026-04-11T08:14:40.927Z</time></trkpt><trkpt lat="43.7453104" lon="11.0043156"><ele>62.0</ele><time>2026-04-11T08:14:41.928Z</time></trkpt><trkpt lat="43.7453935" lon="11.0043313"><ele>62.33333333333333</ele><time>2026-04-11T08:14:42.919Z</time></trkpt><trkpt lat="43.7454742" lon="11.0043439"><ele>62.666666666666664</ele><time>2026-04-11T08:14:43.926Z</time></trkpt><trkpt lat="43.7455601" lon="11.0043547"><ele>63.0</ele><time>2026-04-11T08:14:44.92Z</time></trkpt><trkpt lat="43.7456549" lon="11.0043645"><ele>63.0</ele><time>2026-04-11T08:14:45.928Z</time></trkpt><trkpt lat="43.7457524" lon="11.0043719"><ele>63.0</ele><time>2026-04-11T08:14:46.919Z</time></trkpt><trkpt lat="43.7458486" lon="11.0043732"><ele>63.0</ele><time>2026-04-11T08:14:47.928Z</time></trkpt><trkpt lat="43.7459348" lon="11.0043686"><ele>63.0</ele><time>2026-04-11T08:14:48.928Z</time></trkpt><trkpt lat="43.7460124" lon="11.0043695"><ele>63.0</ele><time>2026-04-11T08:14:49.928Z</time></trkpt><trkpt lat="43.7460852" lon="11.0043728"><ele>63.0</ele><time>2026-04-11T08:14:50.934Z</time></trkpt><trkpt lat="43.7461638" lon="11.0043859"><ele>61.833333333333336</ele><time>2026-04-11T08:14:51.934Z</time></trkpt><trkpt lat="43.7462396" lon="11.0043988"><ele>60.66666666666667</ele><time>2026-04-11T08:14:52.93Z</time></trkpt><trkpt lat="43.7463085" lon="11.0044086"><ele>59.5</ele><time>2026-04-11T08:14:53.926Z</time></trkpt><trkpt lat="43.7464116" lon="11.0044098"><ele>58.333333333333336</ele><time>2026-04-11T08:14:55.929Z</time></trkpt><trkpt lat="43.7464882" lon="11.0043986"><ele>57.16666666666667</ele><time>2026-04-11T08:14:57.927Z</time></trkpt><trkpt lat="43.7465535" lon="11.0044172"><ele>56.0</ele><time>2026-04-11T08:15:00.944Z</time></trkpt><trkpt lat="43.7465091" lon="11.004483"><ele>56.0</ele><time>2026-04-11T08:15:05.941Z</time></trkpt><trkpt lat="43.7465598" lon="11.0046842"><ele>56.0</ele><time>2026-04-11T08:15:07.933Z</time></trkpt><trkpt lat="43.7466398" lon="11.0048356"><ele>56.0</ele><time>2026-04-11T08:15:08.929Z</time></trkpt><trkpt lat="43.7467436" lon="11.0050088"><ele>57.0</ele><time>2026-04-11T08:15:09.919Z</time></trkpt><trkpt lat="43.7468499" lon="11.0051825"><ele>58.0</ele><time>2026-04-11T08:15:10.925Z</time></trkpt><trkpt lat="43.746965" lon="11.0053379"><ele>59.0</ele><time>2026-04-11T08:15:11.926Z</time></trkpt><trkpt lat="43.7470685" lon="11.0054468"><ele>62.00000000000001</ele><time>2026-04-11T08:15:12.933Z</time></trkpt><trkpt lat="43.7471383" lon="11.0055157"><ele>65.0</ele><time>2026-04-11T08:15:13.922Z</time></trkpt><trkpt lat="43.747215" lon="11.005556"><ele>68.0</ele><time>2026-04-11T08:15:14.928Z</time></trkpt><trkpt lat="43.7472973" lon="11.0055745"><ele>71.0</ele><time>2026-04-11T08:15:15.927Z</time></trkpt><trkpt lat="43.7473766" lon="11.0055659"><ele>74.0</ele><time>2026-04-11T08:15:16.939Z</time></trkpt><trkpt lat="43.7474558" lon="11.0055644"><ele>77.0</ele><time>2026-04-11T08:15:17.933Z</time></trkpt><trkpt lat="43.7475566" lon="11.0055555"><ele>77.0</ele><time>2026-04-11T08:15:18.937Z</time></trkpt><trkpt lat="43.7476684" lon="11.0055347"><ele>77.0</ele><time>2026-04-11T08:15:19.93Z</time></trkpt><trkpt lat="43.7477977" lon="11.00551"><ele>77.0</ele><time>2026-04-11T08:15:20.939Z</time></trkpt><trkpt lat="43.7479234" lon="11.0054963"><ele>77.0</ele><time>2026-04-11T08:15:21.938Z</time></trkpt><trkpt lat="43.7480398" lon="11.0054749"><ele>78.6</ele><time>2026-04-11T08:15:22.94Z</time></trkpt><trkpt lat="43.7481435" lon="11.0054638"><ele>80.2</ele><time>2026-04-11T08:15:23.945Z</time></trkpt><trkpt lat="43.7482399" lon="11.0054641"><ele>81.8</ele><time>2026-04-11T08:15:24.945Z</time></trkpt><trkpt lat="43.7483422" lon="11.0054699"><ele>83.4</ele><time>2026-04-11T08:15:25.944Z</time></trkpt><trkpt lat="43.7484402" lon="11.0055095"><ele>85.0</ele><time>2026-04-11T08:15:26.953Z</time></trkpt><trkpt lat="43.7485375" lon="11.0055763"><ele>86.25</ele><time>2026-04-11T08:15:27.957Z</time></trkpt><trkpt lat="43.7486406" lon="11.0056871"><ele>87.5</ele><time>2026-04-11T08:15:28.947Z</time></trkpt><trkpt lat="43.7487522" lon="11.0057968"><ele>88.75</ele><time>2026-04-11T08:15:29.948Z</time></trkpt><trkpt lat="43.7488617" lon="11.0058944"><ele>90.0</ele><time>2026-04-11T08:15:30.952Z</time></trkpt><trkpt lat="43.7489761" lon="11.0059669"><ele>90.0</ele><time>2026-04-11T08:15:31.958Z</time></trkpt><trkpt lat="43.7491052" lon="11.0060098"><ele>90.0</ele><time>2026-04-11T08:15:32.968Z</time></trkpt><trkpt lat="43.7492535" lon="11.0060217"><ele>90.0</ele><time>2026-04-11T08:15:33.97Z</time></trkpt><trkpt lat="43.7494095" lon="11.0060115"><ele>90.0</ele><time>2026-04-11T08:15:34.965Z</time></trkpt><trkpt lat="43.7495622" lon="11.0059877"><ele>92.25</ele><time>2026-04-11T08:15:35.962Z</time></trkpt><trkpt lat="43.7497122" lon="11.0059554"><ele>94.5</ele><time>2026-04-11T08:15:36.96Z</time></trkpt><trkpt lat="43.7498455" lon="11.0059363"><ele>96.75</ele><time>2026-04-11T08:15:37.954Z</time></trkpt><trkpt lat="43.7499736" lon="11.0059378"><ele>99.0</ele><time>2026-04-11T08:15:38.954Z</time></trkpt><trkpt lat="43.7500979" lon="11.0059354"><ele>100.5</ele><time>2026-04-11T08:15:39.955Z</time></trkpt><trkpt lat="43.7502206" lon="11.0059232"><ele>102.0</ele><time>2026-04-11T08:15:40.961Z</time></trkpt><trkpt lat="43.7503432" lon="11.0059233"><ele>103.5</ele><time>2026-04-11T08:15:41.964Z</time></trkpt><trkpt lat="43.7504726" lon="11.0059461"><ele>105.0</ele><time>2026-04-11T08:15:42.971Z</time></trkpt><trkpt lat="43.7506013" lon="11.0059885"><ele>105.0</ele><time>2026-04-11T08:15:43.957Z</time></trkpt><trkpt lat="43.750722" lon="11.0060328"><ele>105.0</ele><time>2026-04-11T08:15:44.951Z</time></trkpt><trkpt lat="43.7508321" lon="11.0060804"><ele>105.0</ele><time>2026-04-11T08:15:45.964Z</time></trkpt><trkpt lat="43.7509295" lon="11.0061215"><ele>105.0</ele><time>2026-04-11T08:15:46.957Z</time></trkpt><trkpt lat="43.7510319" lon="11.006138"><ele>105.0</ele><time>2026-04-11T08:15:47.965Z</time></trkpt><trkpt lat="43.7511444" lon="11.0061257"><ele>107.0</ele><time>2026-04-11T08:15:48.955Z</time></trkpt><trkpt lat="43.7512756" lon="11.0060871"><ele>109.0</ele><time>2026-04-11T08:15:49.956Z</time></trkpt><trkpt lat="43.7514056" lon="11.0060393"><ele>111.0</ele><time>2026-04-11T08:15:50.972Z</time></trkpt><trkpt lat="43.7515268" lon="11.0059847"><ele>113.0</ele><time>2026-04-11T08:15:51.967Z</time></trkpt><trkpt lat="43.7516446" lon="11.0059155"><ele>112.75</ele><time>2026-04-11T08:15:52.975Z</time></trkpt><trkpt lat="43.7517595" lon="11.0058258"><ele>112.5</ele><time>2026-04-11T08:15:53.962Z</time></trkpt><trkpt lat="43.751868" lon="11.005726"><ele>112.25</ele><time>2026-04-11T08:15:54.973Z</time></trkpt><trkpt lat="43.7519781" lon="11.0056247"><ele>112.0</ele><time>2026-04-11T08:15:55.958Z</time></trkpt><trkpt lat="43.7520916" lon="11.0055353"><ele>114.75</ele><time>2026-04-11T08:15:56.96Z</time></trkpt><trkpt lat="43.7522104" lon="11.0054643"><ele>117.5</ele><time>2026-04-11T08:15:57.961Z</time></trkpt><trkpt lat="43.7523332" lon="11.0054006"><ele>120.25</ele><time>2026-04-11T08:15:58.962Z</time></trkpt><trkpt lat="43.7524502" lon="11.0053557"><ele>123.0</ele><time>2026-04-11T08:15:59.945Z</time></trkpt><trkpt lat="43.7525569" lon="11.0053414"><ele>123.0</ele><time>2026-04-11T08:16:00.955Z</time></trkpt><trkpt lat="43.7526592" lon="11.0053535"><ele>123.00000000000001</ele><time>2026-04-11T08:16:01.944Z</time></trkpt><trkpt lat="43.7527659" lon="11.0053887"><ele>123.00000000000001</ele><time>2026-04-11T08:16:02.94Z</time></trkpt><trkpt lat="43.7528727" lon="11.0054411"><ele>123.0</ele><time>2026-04-11T08:16:03.946Z</time></trkpt><trkpt lat="43.7529773" lon="11.0054964"><ele>123.0</ele><time>2026-04-11T08:16:04.949Z</time></trkpt><trkpt lat="43.7530812" lon="11.0055561"><ele>124.4</ele><time>2026-04-11T08:16:05.947Z</time></trkpt><trkpt lat="43.7531904" lon="11.0056228"><ele>125.80000000000001</ele><time>2026-04-11T08:16:06.951Z</time></trkpt><trkpt lat="43.7533033" lon="11.0056954"><ele>127.2</ele><time>2026-04-11T08:16:07.975Z</time></trkpt><trkpt lat="43.7533918" lon="11.0057631"><ele>128.6</ele><time>2026-04-11T08:16:08.966Z</time></trkpt><trkpt lat="43.7534645" lon="11.0058232"><ele>130.0</ele><time>2026-04-11T08:16:09.961Z</time></trkpt><trkpt lat="43.7535212" lon="11.0058889"><ele>132.0</ele><time>2026-04-11T08:16:11.95Z</time></trkpt><trkpt lat="43.7535986" lon="11.0059599"><ele>134.0</ele><time>2026-04-11T08:16:25.973Z</time></trkpt><trkpt lat="43.7536617" lon="11.0060219"><ele>136.0</ele><time>2026-04-11T08:16:27.969Z</time></trkpt><trkpt lat="43.7537199" lon="11.0060642"><ele>138.0</ele><time>2026-04-11T08:16:29.965Z</time></trkpt><trkpt lat="43.7537823" lon="11.0061188"><ele>140.0</ele><time>2026-04-11T08:16:31.966Z</time></trkpt><trkpt lat="43.7538438" lon="11.0061806"><ele>142.0</ele><time>2026-04-11T08:16:33.968Z</time></trkpt><trkpt lat="43.7539009" lon="11.0062213"><ele>142.0</ele><time>2026-04-11T08:16:35.961Z</time></trkpt><trkpt lat="43.7539819" lon="11.006265"><ele>142.0</ele><time>2026-04-11T08:16:38.964Z</time></trkpt><trkpt lat="43.7540583" lon="11.0062738"><ele>142.0</ele><time>2026-04-11T08:16:41.966Z</time></trkpt><trkpt lat="43.7540449" lon="11.006372"><ele>142.0</ele><time>2026-04-11T08:18:18.967Z</time></trkpt><trkpt lat="43.7539755" lon="11.0063582"><ele>142.0</ele><time>2026-04-11T08:20:15.974Z</time></trkpt><trkpt lat="43.7539176" lon="11.0065101"><ele>142.0</ele><time>2026-04-11T08:21:03.969Z</time></trkpt><trkpt lat="43.753888" lon="11.0066087"><ele>143.4</ele><time>2026-04-11T08:21:04.944Z</time></trkpt><trkpt lat="43.7538664" lon="11.0067254"><ele>144.79999999999998</ele><time>2026-04-11T08:21:05.953Z</time></trkpt><trkpt lat="43.7538524" lon="11.0068528"><ele>146.2</ele><time>2026-04-11T08:21:06.946Z</time></trkpt><trkpt lat="43.75384" lon="11.0069858"><ele>147.6</ele><time>2026-04-11T08:21:07.952Z</time></trkpt><trkpt lat="43.7538292" lon="11.0071251"><ele>149.0</ele><time>2026-04-11T08:21:08.949Z</time></trkpt><trkpt lat="43.753818" lon="11.0072645"><ele>149.0</ele><time>2026-04-11T08:21:09.948Z</time></trkpt><trkpt lat="43.753804" lon="11.0073869"><ele>149.0</ele><time>2026-04-11T08:21:10.944Z</time></trkpt><trkpt lat="43.7537778" lon="11.0075035"><ele>149.0</ele><time>2026-04-11T08:21:11.944Z</time></trkpt><trkpt lat="43.7537383" lon="11.0076119"><ele>149.0</ele><time>2026-04-11T08:21:12.945Z</time></trkpt><trkpt lat="43.7536839" lon="11.0077136"><ele>149.0</ele><time>2026-04-11T08:21:13.948Z</time></trkpt><trkpt lat="43.7536226" lon="11.0078043"><ele>149.0</ele><time>2026-04-11T08:21:14.953Z</time></trkpt><trkpt lat="43.7535558" lon="11.0078986"><ele>147.4</ele><time>2026-04-11T08:21:15.953Z</time></trkpt><trkpt lat="43.7534908" lon="11.0080067"><ele>145.8</ele><time>2026-04-11T08:21:16.955Z</time></trkpt><trkpt lat="43.7534257" lon="11.0081125"><ele>144.2</ele><time>2026-04-11T08:21:17.953Z</time></trkpt><trkpt lat="43.7533704" lon="11.0082111"><ele>142.6</ele><time>2026-04-11T08:21:18.959Z</time></trkpt><trkpt lat="43.7533195" lon="11.0083056"><ele>141.0</ele><time>2026-04-11T08:21:19.947Z</time></trkpt><trkpt lat="43.7532736" lon="11.0083887"><ele>141.0</ele><time>2026-04-11T08:21:20.952Z</time></trkpt><trkpt lat="43.7531961" lon="11.0085196"><ele>141.0</ele><time>2026-04-11T08:21:22.955Z</time></trkpt><trkpt lat="43.7531479" lon="11.0086225"><ele>141.0</ele><time>2026-04-11T08:21:24.958Z</time></trkpt><trkpt lat="43.7531222" lon="11.0087194"><ele>141.0</ele><time>2026-04-11T08:21:26.957Z</time></trkpt><trkpt lat="43.7530845" lon="11.0088086"><ele>141.0</ele><time>2026-04-11T08:21:28.958Z</time></trkpt><trkpt lat="43.7530202" lon="11.0089094"><ele>141.0</ele><time>2026-04-11T08:21:30.971Z</time></trkpt><trkpt lat="43.7529349" lon="11.0090538"><ele>141.0</ele><time>2026-04-11T08:21:32.95Z</time></trkpt><trkpt lat="43.7528775" lon="11.0091522"><ele>141.0</ele><time>2026-04-11T08:21:33.944Z</time></trkpt><trkpt lat="43.7528088" lon="11.0092717"><ele>141.0</ele><time>2026-04-11T08:21:34.95Z</time></trkpt><trkpt lat="43.7527359" lon="11.0094002"><ele>138.6</ele><time>2026-04-11T08:21:35.952Z</time></trkpt><trkpt lat="43.7526624" lon="11.0095203"><ele>136.2</ele><time>2026-04-11T08:21:36.956Z</time></trkpt><trkpt lat="43.7525913" lon="11.0096268"><ele>133.8</ele><time>2026-04-11T08:21:37.946Z</time></trkpt><trkpt lat="43.7525261" lon="11.0097193"><ele>131.4</ele><time>2026-04-11T08:21:38.959Z</time></trkpt><trkpt lat="43.7524533" lon="11.0097933"><ele>129.0</ele><time>2026-04-11T08:21:39.948Z</time></trkpt><trkpt lat="43.7523798" lon="11.0098614"><ele>129.0</ele><time>2026-04-11T08:21:40.951Z</time></trkpt><trkpt lat="43.7522975" lon="11.0099134"><ele>129.0</ele><time>2026-04-11T08:21:41.95Z</time></trkpt><trkpt lat="43.7521994" lon="11.0099612"><ele>129.0</ele><time>2026-04-11T08:21:42.949Z</time></trkpt><trkpt lat="43.7521005" lon="11.0099996"><ele>129.0</ele><time>2026-04-11T08:21:43.938Z</time></trkpt><trkpt lat="43.7520072" lon="11.0100334"><ele>129.0</ele><time>2026-04-11T08:21:44.942Z</time></trkpt><trkpt lat="43.7519156" lon="11.0100612"><ele>127.83333333333333</ele><time>2026-04-11T08:21:45.931Z</time></trkpt><trkpt lat="43.7518276" lon="11.0100738"><ele>126.66666666666666</ele><time>2026-04-11T08:21:46.95Z</time></trkpt><trkpt lat="43.7517472" lon="11.0100539"><ele>125.5</ele><time>2026-04-11T08:21:47.946Z</time></trkpt><trkpt lat="43.7516729" lon="11.010006"><ele>124.33333333333333</ele><time>2026-04-11T08:21:48.945Z</time></trkpt><trkpt lat="43.7515904" lon="11.0099386"><ele>123.16666666666666</ele><time>2026-04-11T08:21:49.944Z</time></trkpt><trkpt lat="43.751507" lon="11.0098627"><ele>122.0</ele><time>2026-04-11T08:21:50.939Z</time></trkpt><trkpt lat="43.7514237" lon="11.0097774"><ele>120.5</ele><time>2026-04-11T08:21:51.939Z</time></trkpt><trkpt lat="43.7513344" lon="11.0096896"><ele>119.0</ele><time>2026-04-11T08:21:52.937Z</time></trkpt><trkpt lat="43.7512405" lon="11.0095929"><ele>117.5</ele><time>2026-04-11T08:21:53.931Z</time></trkpt><trkpt lat="43.7511368" lon="11.0094957"><ele>116.0</ele><time>2026-04-11T08:21:54.926Z</time></trkpt><trkpt lat="43.7510292" lon="11.0093915"><ele>115.0</ele><time>2026-04-11T08:21:55.928Z</time></trkpt><trkpt lat="43.7509228" lon="11.0092921"><ele>114.0</ele><time>2026-04-11T08:21:56.926Z</time></trkpt><trkpt lat="43.7508259" lon="11.0092077"><ele>113.0</ele><time>2026-04-11T08:21:57.921Z</time></trkpt><trkpt lat="43.7507259" lon="11.0091389"><ele>112.0</ele><time>2026-04-11T08:21:58.93Z</time></trkpt><trkpt lat="43.7506245" lon="11.0090995"><ele>110.0</ele><time>2026-04-11T08:21:59.922Z</time></trkpt><trkpt lat="43.7505211" lon="11.0090865"><ele>108.0</ele><time>2026-04-11T08:22:00.933Z</time></trkpt><trkpt lat="43.7503965" lon="11.0090973"><ele>106.0</ele><time>2026-04-11T08:22:01.927Z</time></trkpt><trkpt lat="43.7502645" lon="11.0091103"><ele>104.0</ele><time>2026-04-11T08:22:02.93Z</time></trkpt><trkpt lat="43.7501464" lon="11.0090991"><ele>104.0</ele><time>2026-04-11T08:22:03.93Z</time></trkpt><trkpt lat="43.7500389" lon="11.0090562"><ele>104.0</ele><time>2026-04-11T08:22:04.922Z</time></trkpt><trkpt lat="43.7499467" lon="11.0089761"><ele>104.0</ele><time>2026-04-11T08:22:05.936Z</time></trkpt><trkpt lat="43.749863" lon="11.0088679"><ele>104.0</ele><time>2026-04-11T08:22:06.932Z</time></trkpt><trkpt lat="43.7497763" lon="11.0087535"><ele>104.0</ele><time>2026-04-11T08:22:07.934Z</time></trkpt><trkpt lat="43.749691" lon="11.0086545"><ele>104.0</ele><time>2026-04-11T08:22:08.934Z</time></trkpt><trkpt lat="43.7495936" lon="11.0085667"><ele>104.0</ele><time>2026-04-11T08:22:09.952Z</time></trkpt><trkpt lat="43.7494868" lon="11.0084976"><ele>104.0</ele><time>2026-04-11T08:22:10.944Z</time></trkpt><trkpt lat="43.7493872" lon="11.0084547"><ele>103.0</ele><time>2026-04-11T08:22:11.943Z</time></trkpt><trkpt lat="43.7492876" lon="11.0084201"><ele>102.0</ele><time>2026-04-11T08:22:12.942Z</time></trkpt><trkpt lat="43.7491949" lon="11.00838"><ele>101.0</ele><time>2026-04-11T08:22:13.944Z</time></trkpt><trkpt lat="43.7490935" lon="11.0083235"><ele>100.0</ele><time>2026-04-11T08:22:14.946Z</time></trkpt><trkpt lat="43.7489875" lon="11.0082644"><ele>99.0</ele><time>2026-04-11T08:22:15.938Z</time></trkpt><trkpt lat="43.7488766" lon="11.0082164"><ele>96.75</ele><time>2026-04-11T08:22:16.94Z</time></trkpt><trkpt lat="43.7487551" lon="11.008166"><ele>94.5</ele><time>2026-04-11T08:22:17.941Z</time></trkpt><trkpt lat="43.7486262" lon="11.0081205"><ele>92.25</ele><time>2026-04-11T08:22:18.942Z</time></trkpt><trkpt lat="43.7484883" lon="11.0080801"><ele>90.0</ele><time>2026-04-11T08:22:19.942Z</time></trkpt><trkpt lat="43.7483375" lon="11.0080488"><ele>89.66666666666667</ele><time>2026-04-11T08:22:20.952Z</time></trkpt><trkpt lat="43.7481764" lon="11.0080374"><ele>89.33333333333334</ele><time>2026-04-11T08:22:21.952Z</time></trkpt><trkpt lat="43.7480237" lon="11.0080236"><ele>89.0</ele><time>2026-04-11T08:22:22.958Z</time></trkpt><trkpt lat="43.7478762" lon="11.0080114"><ele>89.0</ele><time>2026-04-11T08:22:23.953Z</time></trkpt><trkpt lat="43.747748" lon="11.0079971"><ele>89.0</ele><time>2026-04-11T08:22:24.953Z</time></trkpt><trkpt lat="43.747629" lon="11.0079791"><ele>89.0</ele><time>2026-04-11T08:22:25.953Z</time></trkpt><trkpt lat="43.7475116" lon="11.0079653"><ele>89.0</ele><time>2026-04-11T08:22:26.945Z</time></trkpt><trkpt lat="43.7474062" lon="11.0079558"><ele>88.0</ele><time>2026-04-11T08:22:27.943Z</time></trkpt><trkpt lat="43.7473036" lon="11.0079456"><ele>87.0</ele><time>2026-04-11T08:22:28.949Z</time></trkpt><trkpt lat="43.7472076" lon="11.0079314"><ele>86.0</ele><time>2026-04-11T08:22:29.944Z</time></trkpt><trkpt lat="43.7471141" lon="11.0079062"><ele>85.0</ele><time>2026-04-11T08:22:30.953Z</time></trkpt><trkpt lat="43.7470275" lon="11.0078629"><ele>84.0</ele><time>2026-04-11T08:22:31.944Z</time></trkpt><trkpt lat="43.7469594" lon="11.0077933"><ele>84.0</ele><time>2026-04-11T08:22:32.946Z</time></trkpt><trkpt lat="43.7468991" lon="11.0076953"><ele>84.0</ele><time>2026-04-11T08:22:33.945Z</time></trkpt><trkpt lat="43.7468371" lon="11.0075915"><ele>84.0</ele><time>2026-04-11T08:22:34.947Z</time></trkpt><trkpt lat="43.7467686" lon="11.0074852"><ele>84.0</ele><time>2026-04-11T08:22:35.946Z</time></trkpt><trkpt lat="43.7466875" lon="11.0073973"><ele>84.0</ele><time>2026-04-11T08:22:36.947Z</time></trkpt><trkpt lat="43.7465996" lon="11.0073235"><ele>82.0</ele><time>2026-04-11T08:22:37.94Z</time></trkpt><trkpt lat="43.7465083" lon="11.0072583"><ele>80.0</ele><time>2026-04-11T08:22:38.941Z</time></trkpt><trkpt lat="43.7464173" lon="11.0071995"><ele>78.0</ele><time>2026-04-11T08:22:39.939Z</time></trkpt><trkpt lat="43.7463369" lon="11.0071429"><ele>76.0</ele><time>2026-04-11T08:22:40.947Z</time></trkpt><trkpt lat="43.7462661" lon="11.0070678"><ele>74.0</ele><time>2026-04-11T08:22:41.936Z</time></trkpt><trkpt lat="43.7462055" lon="11.0069729"><ele>74.0</ele><time>2026-04-11T08:22:42.942Z</time></trkpt><trkpt lat="43.7461657" lon="11.0068692"><ele>74.0</ele><time>2026-04-11T08:22:43.944Z</time></trkpt><trkpt lat="43.7461345" lon="11.00678"><ele>74.0</ele><time>2026-04-11T08:22:44.946Z</time></trkpt><trkpt lat="43.7461005" lon="11.0066405"><ele>74.0</ele><time>2026-04-11T08:22:46.945Z</time></trkpt><trkpt lat="43.746065" lon="11.006566"><ele>74.0</ele><time>2026-04-11T08:22:48.953Z</time></trkpt><trkpt lat="43.7460097" lon="11.0064806"><ele>74.0</ele><time>2026-04-11T08:22:51.959Z</time></trkpt><trkpt lat="43.74593" lon="11.0064337"><ele>73.60000000000001</ele><time>2026-04-11T08:22:54.962Z</time></trkpt><trkpt lat="43.7458212" lon="11.0064007"><ele>73.2</ele><time>2026-04-11T08:22:56.956Z</time></trkpt><trkpt lat="43.7457454" lon="11.0063867"><ele>72.80000000000001</ele><time>2026-04-11T08:22:57.951Z</time></trkpt><trkpt lat="43.7456557" lon="11.0063783"><ele>72.4</ele><time>2026-04-11T08:22:58.951Z</time></trkpt><trkpt lat="43.7455329" lon="11.006401"><ele>72.0</ele><time>2026-04-11T08:22:59.937Z</time></trkpt><trkpt lat="43.7454055" lon="11.0064423"><ele>72.0</ele><time>2026-04-11T08:23:00.945Z</time></trkpt><trkpt lat="43.7452828" lon="11.0064901"><ele>72.0</ele><time>2026-04-11T08:23:01.947Z</time></trkpt><trkpt lat="43.7451647" lon="11.0065331"><ele>72.0</ele><time>2026-04-11T08:23:02.961Z</time></trkpt><trkpt lat="43.745045" lon="11.0065504"><ele>72.0</ele><time>2026-04-11T08:23:03.952Z</time></trkpt><trkpt lat="43.7449265" lon="11.0065355"><ele>73.0</ele><time>2026-04-11T08:23:04.954Z</time></trkpt><trkpt lat="43.7448081" lon="11.0065092"><ele>74.0</ele><time>2026-04-11T08:23:05.96Z</time></trkpt><trkpt lat="43.7446827" lon="11.0064946"><ele>75.0</ele><time>2026-04-11T08:23:06.956Z</time></trkpt><trkpt lat="43.744567" lon="11.0064953"><ele>76.0</ele><time>2026-04-11T08:23:07.95Z</time></trkpt><trkpt lat="43.7444691" lon="11.0065162"><ele>76.0</ele><time>2026-04-11T08:23:08.957Z</time></trkpt><trkpt lat="43.7443836" lon="11.0065541"><ele>76.0</ele><time>2026-04-11T08:23:09.955Z</time></trkpt><trkpt lat="43.7443176" lon="11.0066229"><ele>76.0</ele><time>2026-04-11T08:23:10.953Z</time></trkpt><trkpt lat="43.7442481" lon="11.0066668"><ele>76.0</ele><time>2026-04-11T08:23:11.97Z</time></trkpt><trkpt lat="43.7441742" lon="11.0066938"><ele>76.0</ele><time>2026-04-11T08:23:12.971Z</time></trkpt><trkpt lat="43.744088" lon="11.0066996"><ele>76.0</ele><time>2026-04-11T08:23:13.965Z</time></trkpt><trkpt lat="43.7439974" lon="11.0066899"><ele>75.8</ele><time>2026-04-11T08:23:14.967Z</time></trkpt><trkpt lat="43.7439003" lon="11.0066535"><ele>75.6</ele><time>2026-04-11T08:23:15.955Z</time></trkpt><trkpt lat="43.7437966" lon="11.006606"><ele>75.4</ele><time>2026-04-11T08:23:16.957Z</time></trkpt><trkpt lat="43.7436892" lon="11.0065618"><ele>75.2</ele><time>2026-04-11T08:23:17.956Z</time></trkpt><trkpt lat="43.7435789" lon="11.0065257"><ele>75.0</ele><time>2026-04-11T08:23:18.951Z</time></trkpt><trkpt lat="43.7434685" lon="11.0065087"><ele>74.2</ele><time>2026-04-11T08:23:19.944Z</time></trkpt><trkpt lat="43.7433591" lon="11.0065015"><ele>73.4</ele><time>2026-04-11T08:23:20.947Z</time></trkpt><trkpt lat="43.7432582" lon="11.0064986"><ele>72.6</ele><time>2026-04-11T08:23:21.946Z</time></trkpt><trkpt lat="43.7431652" lon="11.006505"><ele>71.8</ele><time>2026-04-11T08:23:22.947Z</time></trkpt><trkpt lat="43.743088" lon="11.006507"><ele>71.0</ele><time>2026-04-11T08:23:23.961Z</time></trkpt><trkpt lat="43.7430147" lon="11.0065009"><ele>71.0</ele><time>2026-04-11T08:23:24.972Z</time></trkpt><trkpt lat="43.7429484" lon="11.0064823"><ele>71.0</ele><time>2026-04-11T08:23:25.961Z</time></trkpt><trkpt lat="43.7428511" lon="11.0063973"><ele>71.0</ele><time>2026-04-11T08:23:27.96Z</time></trkpt><trkpt lat="43.7428092" lon="11.0062434"><ele>71.0</ele><time>2026-04-11T08:23:29.946Z</time></trkpt><trkpt lat="43.742777" lon="11.006147"><ele>71.0</ele><time>2026-04-11T08:23:30.947Z</time></trkpt><trkpt lat="43.7427327" lon="11.0060413"><ele>70.39999999999999</ele><time>2026-04-11T08:23:31.942Z</time></trkpt><trkpt lat="43.742676" lon="11.0059249"><ele>69.8</ele><time>2026-04-11T08:23:32.947Z</time></trkpt><trkpt lat="43.7426081" lon="11.0058171"><ele>69.19999999999999</ele><time>2026-04-11T08:23:33.947Z</time></trkpt><trkpt lat="43.7425364" lon="11.0057048"><ele>68.6</ele><time>2026-04-11T08:23:34.942Z</time></trkpt><trkpt lat="43.7424611" lon="11.0055883"><ele>68.0</ele><time>2026-04-11T08:23:35.941Z</time></trkpt><trkpt lat="43.7423877" lon="11.0054801"><ele>67.2</ele><time>2026-04-11T08:23:36.952Z</time></trkpt><trkpt lat="43.74232" lon="11.0053689"><ele>66.4</ele><time>2026-04-11T08:23:37.947Z</time></trkpt><trkpt lat="43.742263" lon="11.0052618"><ele>65.60000000000001</ele><time>2026-04-11T08:23:38.953Z</time></trkpt><trkpt lat="43.7422193" lon="11.0051559"><ele>64.8</ele><time>2026-04-11T08:23:39.945Z</time></trkpt><trkpt lat="43.7421928" lon="11.0050473"><ele>64.0</ele><time>2026-04-11T08:23:40.943Z</time></trkpt><trkpt lat="43.7421831" lon="11.0049401"><ele>62.166666666666664</ele><time>2026-04-11T08:23:41.942Z</time></trkpt><trkpt lat="43.7421937" lon="11.0048376"><ele>60.33333333333333</ele><time>2026-04-11T08:23:42.971Z</time></trkpt><trkpt lat="43.7422176" lon="11.0047278"><ele>58.5</ele><time>2026-04-11T08:23:43.95Z</time></trkpt><trkpt lat="43.7422468" lon="11.0046238"><ele>56.66666666666667</ele><time>2026-04-11T08:23:44.948Z</time></trkpt><trkpt lat="43.7422781" lon="11.0045414"><ele>54.833333333333336</ele><time>2026-04-11T08:23:45.941Z</time></trkpt><trkpt lat="43.7423744" lon="11.0044759"><ele>53.0</ele><time>2026-04-11T08:23:47.94Z</time></trkpt><trkpt lat="43.7424778" lon="11.0044406"><ele>53.0</ele><time>2026-04-11T08:23:49.94Z</time></trkpt><trkpt lat="43.7425978" lon="11.0044162"><ele>53.0</ele><time>2026-04-11T08:23:51.935Z</time></trkpt><trkpt lat="43.7426608" lon="11.0043974"><ele>53.0</ele><time>2026-04-11T08:23:52.938Z</time></trkpt><trkpt lat="43.7427248" lon="11.004371"><ele>53.0</ele><time>2026-04-11T08:23:53.934Z</time></trkpt><trkpt lat="43.7428524" lon="11.0043133"><ele>53.0</ele><time>2026-04-11T08:23:55.932Z</time></trkpt><trkpt lat="43.7429302" lon="11.004264"><ele>52.833333333333336</ele><time>2026-04-11T08:23:56.936Z</time></trkpt><trkpt lat="43.7430108" lon="11.0042124"><ele>52.66666666666667</ele><time>2026-04-11T08:23:57.931Z</time></trkpt><trkpt lat="43.7430841" lon="11.0041496"><ele>52.5</ele><time>2026-04-11T08:23:58.933Z</time></trkpt><trkpt lat="43.7431564" lon="11.0040806"><ele>52.33333333333333</ele><time>2026-04-11T08:23:59.94Z</time></trkpt><trkpt lat="43.7432261" lon="11.0040102"><ele>52.166666666666664</ele><time>2026-04-11T08:24:00.944Z</time></trkpt><trkpt lat="43.7433027" lon="11.0039463"><ele>52.0</ele><time>2026-04-11T08:24:01.928Z</time></trkpt><trkpt lat="43.7433801" lon="11.0039132"><ele>51.83333333333333</ele><time>2026-04-11T08:24:02.934Z</time></trkpt><trkpt lat="43.7434549" lon="11.0038998"><ele>51.666666666666664</ele><time>2026-04-11T08:24:03.926Z</time></trkpt><trkpt lat="43.7435204" lon="11.0038969"><ele>51.5</ele><time>2026-04-11T08:24:04.931Z</time></trkpt><trkpt lat="43.7435839" lon="11.0038939"><ele>51.33333333333333</ele><time>2026-04-11T08:24:05.931Z</time></trkpt><trkpt lat="43.7436816" lon="11.0039319"><ele>51.166666666666664</ele><time>2026-04-11T08:24:07.933Z</time></trkpt><trkpt lat="43.7437553" lon="11.0039646"><ele>51.0</ele><time>2026-04-11T08:24:09.944Z</time></trkpt><trkpt lat="43.7438315" lon="11.0039786"><ele>53.4</ele><time>2026-04-11T08:24:22.948Z</time></trkpt><trkpt lat="43.7439413" lon="11.003993"><ele>55.8</ele><time>2026-04-11T08:24:24.924Z</time></trkpt><trkpt lat="43.7440665" lon="11.0040365"><ele>58.199999999999996</ele><time>2026-04-11T08:24:26.927Z</time></trkpt><trkpt lat="43.744131" lon="11.0040726"><ele>60.599999999999994</ele><time>2026-04-11T08:24:27.92Z</time></trkpt><trkpt lat="43.7442104" lon="11.0040947"><ele>63.0</ele><time>2026-04-11T08:24:28.922Z</time></trkpt><trkpt lat="43.744282" lon="11.0041012"><ele>63.0</ele><time>2026-04-11T08:24:29.926Z</time></trkpt><trkpt lat="43.7443554" lon="11.0041118"><ele>63.0</ele><time>2026-04-11T08:24:30.929Z</time></trkpt><trkpt lat="43.7444372" lon="11.0041223"><ele>63.0</ele><time>2026-04-11T08:24:31.922Z</time></trkpt><trkpt lat="43.7445144" lon="11.0041222"><ele>63.0</ele><time>2026-04-11T08:24:32.929Z</time></trkpt><trkpt lat="43.7445995" lon="11.0041284"><ele>63.0</ele><time>2026-04-11T08:24:33.932Z</time></trkpt><trkpt lat="43.7446796" lon="11.0041341"><ele>63.0</ele><time>2026-04-11T08:24:34.936Z</time></trkpt><trkpt lat="43.7447578" lon="11.0041571"><ele>63.0</ele><time>2026-04-11T08:24:35.939Z</time></trkpt><trkpt lat="43.7448406" lon="11.0041886"><ele>63.0</ele><time>2026-04-11T08:24:36.937Z</time></trkpt><trkpt lat="43.7449313" lon="11.0042185"><ele>63.0</ele><time>2026-04-11T08:24:37.935Z</time></trkpt><trkpt lat="43.7450306" lon="11.0042546"><ele>63.0</ele><time>2026-04-11T08:24:38.931Z</time></trkpt><trkpt lat="43.7451287" lon="11.0042881"><ele>63.0</ele><time>2026-04-11T08:24:39.931Z</time></trkpt><trkpt lat="43.7452358" lon="11.0043231"><ele>63.0</ele><time>2026-04-11T08:24:40.934Z</time></trkpt><trkpt lat="43.7453453" lon="11.0043502"><ele>63.0</ele><time>2026-04-11T08:24:41.944Z</time></trkpt><trkpt lat="43.7454567" lon="11.0043606"><ele>63.0</ele><time>2026-04-11T08:24:42.936Z</time></trkpt><trkpt lat="43.7455801" lon="11.004365"><ele>63.0</ele><time>2026-04-11T08:24:43.934Z</time></trkpt><trkpt lat="43.7457067" lon="11.0043767"><ele>63.0</ele><time>2026-04-11T08:24:44.923Z</time></trkpt><trkpt lat="43.7458357" lon="11.0043822"><ele>63.0</ele><time>2026-04-11T08:24:45.924Z</time></trkpt><trkpt lat="43.7459608" lon="11.0043854"><ele>63.0</ele><time>2026-04-11T08:24:46.923Z</time></trkpt><trkpt lat="43.7460754" lon="11.0043897"><ele>63.0</ele><time>2026-04-11T08:24:47.926Z</time></trkpt><trkpt lat="43.7461801" lon="11.0043912"><ele>61.833333333333336</ele><time>2026-04-11T08:24:48.925Z</time></trkpt><trkpt lat="43.7462735" lon="11.004401"><ele>60.66666666666667</ele><time>2026-04-11T08:24:49.921Z</time></trkpt><trkpt lat="43.746354" lon="11.0044094"><ele>59.5</ele><time>2026-04-11T08:24:50.929Z</time></trkpt><trkpt lat="43.7464226" lon="11.0044222"><ele>58.333333333333336</ele><time>2026-04-11T08:24:51.925Z</time></trkpt><trkpt lat="43.7465201" lon="11.004407"><ele>57.16666666666667</ele><time>2026-04-11T08:24:53.927Z</time></trkpt><trkpt lat="43.7465663" lon="11.0043127"><ele>56.0</ele><time>2026-04-11T08:24:55.939Z</time></trkpt><trkpt lat="43.7465512" lon="11.0041778"><ele>57.599999999999994</ele><time>2026-04-11T08:24:57.934Z</time></trkpt><trkpt lat="43.7465243" lon="11.0040895"><ele>59.199999999999996</ele><time>2026-04-11T08:24:58.934Z</time></trkpt><trkpt lat="43.7464944" lon="11.0039837"><ele>60.800000000000004</ele><time>2026-04-11T08:24:59.932Z</time></trkpt><trkpt lat="43.7464531" lon="11.0038676"><ele>62.400000000000006</ele><time>2026-04-11T08:25:00.94Z</time></trkpt><trkpt lat="43.7464079" lon="11.0037416"><ele>64.0</ele><time>2026-04-11T08:25:01.93Z</time></trkpt><trkpt lat="43.7463616" lon="11.0035932"><ele>64.0</ele><time>2026-04-11T08:25:02.939Z</time></trkpt><trkpt lat="43.7463099" lon="11.0034175"><ele>64.0</ele><time>2026-04-11T08:25:03.937Z</time></trkpt><trkpt lat="43.746259" lon="11.0031903"><ele>64.0</ele><time>2026-04-11T08:25:04.935Z</time></trkpt><trkpt lat="43.7462101" lon="11.0029469"><ele>67.5</ele><time>2026-04-11T08:25:05.931Z</time></trkpt><trkpt lat="43.746141" lon="11.0027489"><ele>71.0</ele><time>2026-04-11T08:25:06.929Z</time></trkpt><trkpt lat="43.7460842" lon="11.0026008"><ele>74.5</ele><time>2026-04-11T08:25:07.931Z</time></trkpt><trkpt lat="43.7460915" lon="11.0024724"><ele>78.0</ele><time>2026-04-11T08:25:08.928Z</time></trkpt><trkpt lat="43.7461243" lon="11.002368"><ele>79.33333333333333</ele><time>2026-04-11T08:25:09.934Z</time></trkpt><trkpt lat="43.7461536" lon="11.002273"><ele>80.66666666666667</ele><time>2026-04-11T08:25:10.933Z</time></trkpt><trkpt lat="43.7462337" lon="11.0021751"><ele>82.0</ele><time>2026-04-11T08:25:12.944Z</time></trkpt><trkpt lat="43.7463463" lon="11.0021564"><ele>83.33333333333334</ele><time>2026-04-11T08:25:14.944Z</time></trkpt><trkpt lat="43.7464105" lon="11.002175"><ele>84.66666666666667</ele><time>2026-04-11T08:25:15.938Z</time></trkpt><trkpt lat="43.7464741" lon="11.0021877"><ele>86.0</ele><time>2026-04-11T08:25:16.939Z</time></trkpt><trkpt lat="43.7465617" lon="11.002153"><ele>86.0</ele><time>2026-04-11T08:25:18.938Z</time></trkpt><trkpt lat="43.7466238" lon="11.0020903"><ele>86.0</ele><time>2026-04-11T08:25:20.958Z</time></trkpt><trkpt lat="43.7466515" lon="11.0019849"><ele>86.0</ele><time>2026-04-11T08:25:22.952Z</time></trkpt><trkpt lat="43.7466365" lon="11.0018089"><ele>86.0</ele><time>2026-04-11T08:25:24.936Z</time></trkpt><trkpt lat="43.7466132" lon="11.001699"><ele>86.0</ele><time>2026-04-11T08:25:25.943Z</time></trkpt><trkpt lat="43.7465834" lon="11.0015893"><ele>85.33333333333334</ele><time>2026-04-11T08:25:26.947Z</time></trkpt><trkpt lat="43.7465539" lon="11.0014817"><ele>84.66666666666667</ele><time>2026-04-11T08:25:27.939Z</time></trkpt><trkpt lat="43.7465349" lon="11.0013934"><ele>84.0</ele><time>2026-04-11T08:25:28.953Z</time></trkpt><trkpt lat="43.7465132" lon="11.0012412"><ele>83.33333333333333</ele><time>2026-04-11T08:25:30.949Z</time></trkpt><trkpt lat="43.74651" lon="11.0011374"><ele>82.66666666666666</ele><time>2026-04-11T08:25:32.946Z</time></trkpt><trkpt lat="43.7464843" lon="11.0010258"><ele>82.0</ele><time>2026-04-11T08:25:34.965Z</time></trkpt><trkpt lat="43.7464625" lon="11.0008918"><ele>80.14285714285714</ele><time>2026-04-11T08:25:36.958Z</time></trkpt><trkpt lat="43.7464442" lon="11.0007996"><ele>78.28571428571428</ele><time>2026-04-11T08:25:37.955Z</time></trkpt><trkpt lat="43.7464301" lon="11.0007009"><ele>76.42857142857143</ele><time>2026-04-11T08:25:38.963Z</time></trkpt><trkpt lat="43.7464221" lon="11.0006047"><ele>74.57142857142857</ele><time>2026-04-11T08:25:39.963Z</time></trkpt><trkpt lat="43.7464139" lon="11.0005066"><ele>72.71428571428572</ele><time>2026-04-11T08:25:40.946Z</time></trkpt><trkpt lat="43.7463947" lon="11.0004096"><ele>70.85714285714286</ele><time>2026-04-11T08:25:41.953Z</time></trkpt><trkpt lat="43.746376" lon="11.0003078"><ele>69.0</ele><time>2026-04-11T08:25:42.946Z</time></trkpt><trkpt lat="43.7463566" lon="11.0001996"><ele>69.0</ele><time>2026-04-11T08:25:43.955Z</time></trkpt><trkpt lat="43.7463389" lon="11.0000746"><ele>69.0</ele><time>2026-04-11T08:25:44.95Z</time></trkpt><trkpt lat="43.7463111" lon="10.9999557"><ele>69.0</ele><time>2026-04-11T08:25:45.957Z</time></trkpt><trkpt lat="43.7462948" lon="10.9998379"><ele>69.0</ele><time>2026-04-11T08:25:46.943Z</time></trkpt><trkpt lat="43.74629" lon="10.9997277"><ele>69.0</ele><time>2026-04-11T08:25:47.936Z</time></trkpt><trkpt lat="43.7462963" lon="10.9996216"><ele>69.0</ele><time>2026-04-11T08:25:48.925Z</time></trkpt><trkpt lat="43.7463181" lon="10.9995241"><ele>69.0</ele><time>2026-04-11T08:25:49.924Z</time></trkpt><trkpt lat="43.7463533" lon="10.9994337"><ele>69.0</ele><time>2026-04-11T08:25:50.919Z</time></trkpt><trkpt lat="43.7464059" lon="10.9993525"><ele>69.0</ele><time>2026-04-11T08:25:51.917Z</time></trkpt><trkpt lat="43.7464606" lon="10.9992994"><ele>69.0</ele><time>2026-04-11T08:25:52.924Z</time></trkpt><trkpt lat="43.7465247" lon="10.9992014"><ele>69.0</ele><time>2026-04-11T08:25:54.925Z</time></trkpt><trkpt lat="43.7464698" lon="10.9991084"><ele>69.0</ele><time>2026-04-11T08:25:56.922Z</time></trkpt><trkpt lat="43.7464016" lon="10.9991057"><ele>69.0</ele><time>2026-04-11T08:25:57.92Z</time></trkpt><trkpt lat="43.7463298" lon="10.9991326"><ele>69.0</ele><time>2026-04-11T08:25:58.922Z</time></trkpt><trkpt lat="43.7462581" lon="10.9991939"><ele>69.0</ele><time>2026-04-11T08:25:59.921Z</time></trkpt><trkpt lat="43.7461874" lon="10.9992746"><ele>69.0</ele><time>2026-04-11T08:26:00.93Z</time></trkpt><trkpt lat="43.7461264" lon="10.999344"><ele>69.0</ele><time>2026-04-11T08:26:01.917Z</time></trkpt><trkpt lat="43.7460777" lon="10.999406"><ele>69.0</ele><time>2026-04-11T08:26:02.923Z</time></trkpt><trkpt lat="43.745992" lon="10.9994129"><ele>67.60000000000001</ele><time>2026-04-11T08:26:04.934Z</time></trkpt><trkpt lat="43.745931" lon="10.9993297"><ele>66.2</ele><time>2026-04-11T08:26:06.944Z</time></trkpt><trkpt lat="43.7459492" lon="10.9991442"><ele>64.80000000000001</ele><time>2026-04-11T08:26:08.935Z</time></trkpt><trkpt lat="43.7459874" lon="10.9990395"><ele>63.400000000000006</ele><time>2026-04-11T08:26:09.942Z</time></trkpt><trkpt lat="43.74604" lon="10.9989345"><ele>62.0</ele><time>2026-04-11T08:26:10.933Z</time></trkpt><trkpt lat="43.7461043" lon="10.9988299"><ele>60.0</ele><time>2026-04-11T08:26:11.928Z</time></trkpt><trkpt lat="43.7461708" lon="10.9987202"><ele>58.0</ele><time>2026-04-11T08:26:12.927Z</time></trkpt><trkpt lat="43.7462376" lon="10.9986081"><ele>56.0</ele><time>2026-04-11T08:26:13.929Z</time></trkpt><trkpt lat="43.7463011" lon="10.9984911"><ele>54.0</ele><time>2026-04-11T08:26:14.926Z</time></trkpt><trkpt lat="43.7463596" lon="10.9983834"><ele>52.0</ele><time>2026-04-11T08:26:15.935Z</time></trkpt><trkpt lat="43.7464151" lon="10.9982712"><ele>49.2</ele><time>2026-04-11T08:26:16.933Z</time></trkpt><trkpt lat="43.7464655" lon="10.9981573"><ele>46.400000000000006</ele><time>2026-04-11T08:26:17.922Z</time></trkpt><trkpt lat="43.7465066" lon="10.9980444"><ele>43.599999999999994</ele><time>2026-04-11T08:26:18.93Z</time></trkpt><trkpt lat="43.7465431" lon="10.9979285"><ele>40.8</ele><time>2026-04-11T08:26:19.923Z</time></trkpt><trkpt lat="43.7465617" lon="10.9978103"><ele>38.0</ele><time>2026-04-11T08:26:20.931Z</time></trkpt><trkpt lat="43.7465663" lon="10.9976874"><ele>38.0</ele><time>2026-04-11T08:26:21.925Z</time></trkpt><trkpt lat="43.7465541" lon="10.997566"><ele>38.0</ele><time>2026-04-11T08:26:22.928Z</time></trkpt><trkpt lat="43.7465331" lon="10.9974553"><ele>38.0</ele><time>2026-04-11T08:26:23.931Z</time></trkpt><trkpt lat="43.7464933" lon="10.9973554"><ele>38.0</ele><time>2026-04-11T08:26:24.931Z</time></trkpt><trkpt lat="43.7464403" lon="10.9972708"><ele>38.0</ele><time>2026-04-11T08:26:25.931Z</time></trkpt><trkpt lat="43.74639" lon="10.9972111"><ele>38.0</ele><time>2026-04-11T08:26:26.939Z</time></trkpt><trkpt lat="43.7463246" lon="10.9971393"><ele>37.83333333333333</ele><time>2026-04-11T08:26:28.945Z</time></trkpt><trkpt lat="43.746361" lon="10.9970592"><ele>37.666666666666664</ele><time>2026-04-11T08:27:43.954Z</time></trkpt><trkpt lat="43.7464007" lon="10.9969289"><ele>37.5</ele><time>2026-04-11T08:27:45.941Z</time></trkpt><trkpt lat="43.746441" lon="10.9968242"><ele>37.333333333333336</ele><time>2026-04-11T08:27:47.949Z</time></trkpt><trkpt lat="43.746499" lon="10.9967477"><ele>37.16666666666667</ele><time>2026-04-11T08:27:49.957Z</time></trkpt><trkpt lat="43.7465861" lon="10.9966866"><ele>37.0</ele><time>2026-04-11T08:27:51.954Z</time></trkpt><trkpt lat="43.7466785" lon="10.9966001"><ele>38.57142857142857</ele><time>2026-04-11T08:27:53.936Z</time></trkpt><trkpt lat="43.7467109" lon="10.9965176"><ele>40.14285714285714</ele><time>2026-04-11T08:27:55.949Z</time></trkpt><trkpt lat="43.746706" lon="10.9964266"><ele>41.71428571428571</ele><time>2026-04-11T08:27:58.952Z</time></trkpt><trkpt lat="43.7466575" lon="10.996365"><ele>43.285714285714285</ele><time>2026-04-11T08:28:01.946Z</time></trkpt><trkpt lat="43.7465912" lon="10.99633"><ele>44.857142857142854</ele><time>2026-04-11T08:28:03.952Z</time></trkpt><trkpt lat="43.7464991" lon="10.9963075"><ele>46.42857142857142</ele><time>2026-04-11T08:28:05.958Z</time></trkpt><trkpt lat="43.7464377" lon="10.9962718"><ele>48.0</ele><time>2026-04-11T08:28:07.946Z</time></trkpt><trkpt lat="43.7465037" lon="10.996207"><ele>48.0</ele><time>2026-04-11T08:28:11.955Z</time></trkpt><trkpt lat="43.7465753" lon="10.9961597"><ele>48.0</ele><time>2026-04-11T08:28:13.952Z</time></trkpt><trkpt lat="43.7466523" lon="10.9961652"><ele>48.0</ele><time>2026-04-11T08:28:15.962Z</time></trkpt><trkpt lat="43.7467154" lon="10.996201"><ele>48.0</ele><time>2026-04-11T08:28:16.962Z</time></trkpt><trkpt lat="43.7467862" lon="10.996233"><ele>48.0</ele><time>2026-04-11T08:28:17.958Z</time></trkpt><trkpt lat="43.7468511" lon="10.9962714"><ele>48.0</ele><time>2026-04-11T08:28:18.957Z</time></trkpt><trkpt lat="43.7469433" lon="10.9963071"><ele>47.99999999999999</ele><time>2026-04-11T08:28:20.968Z</time></trkpt><trkpt lat="43.7469536" lon="10.9961919"><ele>48.0</ele><time>2026-04-11T08:28:23.946Z</time></trkpt><trkpt lat="43.7468973" lon="10.9961085"><ele>48.0</ele><time>2026-04-11T08:28:26.954Z</time></trkpt><trkpt lat="43.7468612" lon="10.9960223"><ele>48.0</ele><time>2026-04-11T08:28:28.961Z</time></trkpt><trkpt lat="43.7468222" lon="10.9959464"><ele>48.0</ele><time>2026-04-11T08:28:29.963Z</time></trkpt><trkpt lat="43.7467913" lon="10.9958545"><ele>47.99999999999999</ele><time>2026-04-11T08:28:30.95Z</time></trkpt><trkpt lat="43.7467639" lon="10.9957712"><ele>48.0</ele><time>2026-04-11T08:28:31.95Z</time></trkpt><trkpt lat="43.7467335" lon="10.9956911"><ele>50.833333333333336</ele><time>2026-04-11T08:28:32.96Z</time></trkpt><trkpt lat="43.7467032" lon="10.995602"><ele>53.66666666666667</ele><time>2026-04-11T08:28:33.955Z</time></trkpt><trkpt lat="43.7466732" lon="10.9955115"><ele>56.5</ele><time>2026-04-11T08:28:34.963Z</time></trkpt><trkpt lat="43.7466508" lon="10.9954239"><ele>59.333333333333336</ele><time>2026-04-11T08:28:35.968Z</time></trkpt><trkpt lat="43.7466438" lon="10.9952741"><ele>62.16666666666667</ele><time>2026-04-11T08:28:37.969Z</time></trkpt><trkpt lat="43.746679" lon="10.9951588"><ele>65.0</ele><time>2026-04-11T08:28:39.989Z</time></trkpt><trkpt lat="43.7467616" lon="10.99507"><ele>65.0</ele><time>2026-04-11T08:28:41.99Z</time></trkpt><trkpt lat="43.7468689" lon="10.9950578"><ele>65.0</ele><time>2026-04-11T08:28:43.962Z</time></trkpt><trkpt lat="43.7469271" lon="10.995095"><ele>65.0</ele><time>2026-04-11T08:28:44.964Z</time></trkpt><trkpt lat="43.7470315" lon="10.9951564"><ele>65.0</ele><time>2026-04-11T08:28:46.968Z</time></trkpt><trkpt lat="43.7471033" lon="10.9952422"><ele>65.0</ele><time>2026-04-11T08:28:48.974Z</time></trkpt><trkpt lat="43.7471535" lon="10.9953545"><ele>70.0</ele><time>2026-04-11T08:28:50.985Z</time></trkpt><trkpt lat="43.7472012" lon="10.9954608"><ele>75.0</ele><time>2026-04-11T08:28:52.987Z</time></trkpt><trkpt lat="43.7472677" lon="10.9955716"><ele>80.0</ele><time>2026-04-11T08:28:54.984Z</time></trkpt><trkpt lat="43.7473353" lon="10.9956547"><ele>85.0</ele><time>2026-04-11T08:28:56.968Z</time></trkpt><trkpt lat="43.7474133" lon="10.995713"><ele>90.0</ele><time>2026-04-11T08:28:58.98Z</time></trkpt><trkpt lat="43.7475352" lon="10.9957537"><ele>90.0</ele><time>2026-04-11T08:29:00.979Z</time></trkpt><trkpt lat="43.7476341" lon="10.9957788"><ele>90.0</ele><time>2026-04-11T08:29:02.968Z</time></trkpt><trkpt lat="43.7477078" lon="10.9957391"><ele>90.0</ele><time>2026-04-11T08:29:04.978Z</time></trkpt><trkpt lat="43.7477415" lon="10.9956368"><ele>90.0</ele><time>2026-04-11T08:29:06.966Z</time></trkpt><trkpt lat="43.747779" lon="10.9954721"><ele>90.0</ele><time>2026-04-11T08:29:08.946Z</time></trkpt><trkpt lat="43.7478021" lon="10.9953907"><ele>90.0</ele><time>2026-04-11T08:29:09.95Z</time></trkpt><trkpt lat="43.7478384" lon="10.9952721"><ele>91.0</ele><time>2026-04-11T08:29:11.961Z</time></trkpt><trkpt lat="43.7479429" lon="10.9952714"><ele>92.0</ele><time>2026-04-11T08:39:51.946Z</time></trkpt><trkpt lat="43.7480617" lon="10.9952477"><ele>93.0</ele><time>2026-04-11T08:39:53.941Z</time></trkpt><trkpt lat="43.7481476" lon="10.9952149"><ele>94.0</ele><time>2026-04-11T08:39:54.933Z</time></trkpt><trkpt lat="43.7482524" lon="10.9951737"><ele>95.0</ele><time>2026-04-11T08:39:55.936Z</time></trkpt><trkpt lat="43.7483537" lon="10.9951228"><ele>95.0</ele><time>2026-04-11T08:39:56.938Z</time></trkpt><trkpt lat="43.7484414" lon="10.9950629"><ele>95.0</ele><time>2026-04-11T08:39:57.941Z</time></trkpt><trkpt lat="43.7485087" lon="10.9949923"><ele>95.0</ele><time>2026-04-11T08:39:58.943Z</time></trkpt><trkpt lat="43.7485634" lon="10.9949009"><ele>95.0</ele><time>2026-04-11T08:39:59.935Z</time></trkpt><trkpt lat="43.7486255" lon="10.994799"><ele>95.0</ele><time>2026-04-11T08:40:00.955Z</time></trkpt><trkpt lat="43.7486989" lon="10.9947078"><ele>96.14285714285714</ele><time>2026-04-11T08:40:01.943Z</time></trkpt><trkpt lat="43.7487758" lon="10.9946524"><ele>97.28571428571429</ele><time>2026-04-11T08:40:02.943Z</time></trkpt><trkpt lat="43.7488461" lon="10.9946145"><ele>98.42857142857142</ele><time>2026-04-11T08:40:03.946Z</time></trkpt><trkpt lat="43.7488993" lon="10.9945677"><ele>99.57142857142857</ele><time>2026-04-11T08:40:04.946Z</time></trkpt><trkpt lat="43.7489485" lon="10.9945021"><ele>100.71428571428571</ele><time>2026-04-11T08:40:05.939Z</time></trkpt><trkpt lat="43.7489879" lon="10.9944125"><ele>101.85714285714285</ele><time>2026-04-11T08:40:06.941Z</time></trkpt><trkpt lat="43.7490249" lon="10.9943193"><ele>103.0</ele><time>2026-04-11T08:40:07.94Z</time></trkpt><trkpt lat="43.7490602" lon="10.9942314"><ele>103.66666666666667</ele><time>2026-04-11T08:40:08.938Z</time></trkpt><trkpt lat="43.7490964" lon="10.9941449"><ele>104.33333333333334</ele><time>2026-04-11T08:40:09.942Z</time></trkpt><trkpt lat="43.749131" lon="10.9940648"><ele>105.0</ele><time>2026-04-11T08:40:10.945Z</time></trkpt><trkpt lat="43.7491969" lon="10.9939221"><ele>105.66666666666666</ele><time>2026-04-11T08:40:12.945Z</time></trkpt><trkpt lat="43.7492286" lon="10.9938209"><ele>106.33333333333333</ele><time>2026-04-11T08:40:14.939Z</time></trkpt><trkpt lat="43.7491643" lon="10.9938042"><ele>107.0</ele><time>2026-04-11T08:40:24.974Z</time></trkpt><trkpt lat="43.7490237" lon="10.9938088"><ele>107.0</ele><time>2026-04-11T08:40:26.952Z</time></trkpt><trkpt lat="43.7489259" lon="10.9938023"><ele>106.99999999999999</ele><time>2026-04-11T08:40:27.952Z</time></trkpt><trkpt lat="43.7488301" lon="10.9937862"><ele>106.99999999999999</ele><time>2026-04-11T08:40:28.95Z</time></trkpt><trkpt lat="43.7487446" lon="10.9937519"><ele>107.0</ele><time>2026-04-11T08:40:29.944Z</time></trkpt><trkpt lat="43.7486637" lon="10.9936813"><ele>107.0</ele><time>2026-04-11T08:40:30.953Z</time></trkpt><trkpt lat="43.7485916" lon="10.9935838"><ele>106.39999999999999</ele><time>2026-04-11T08:40:31.95Z</time></trkpt><trkpt lat="43.7485241" lon="10.9934819"><ele>105.79999999999998</ele><time>2026-04-11T08:40:32.944Z</time></trkpt><trkpt lat="43.748458" lon="10.9933866"><ele>105.2</ele><time>2026-04-11T08:40:33.946Z</time></trkpt><trkpt lat="43.7483947" lon="10.9932877"><ele>104.6</ele><time>2026-04-11T08:40:34.946Z</time></trkpt><trkpt lat="43.7483319" lon="10.9931843"><ele>104.0</ele><time>2026-04-11T08:40:35.933Z</time></trkpt><trkpt lat="43.7482717" lon="10.9930797"><ele>103.99999999999999</ele><time>2026-04-11T08:40:36.931Z</time></trkpt><trkpt lat="43.7482175" lon="10.9929768"><ele>104.0</ele><time>2026-04-11T08:40:37.932Z</time></trkpt><trkpt lat="43.7481697" lon="10.9928753"><ele>104.0</ele><time>2026-04-11T08:40:38.937Z</time></trkpt><trkpt lat="43.7481302" lon="10.992778"><ele>104.0</ele><time>2026-04-11T08:40:39.942Z</time></trkpt><trkpt lat="43.7481003" lon="10.9926888"><ele>103.99999999999999</ele><time>2026-04-11T08:40:40.935Z</time></trkpt><trkpt lat="43.7480664" lon="10.9926151"><ele>104.0</ele><time>2026-04-11T08:40:41.938Z</time></trkpt><trkpt lat="43.747984" lon="10.9924838"><ele>100.99999999999999</ele><time>2026-04-11T08:40:43.936Z</time></trkpt><trkpt lat="43.7478857" lon="10.992388"><ele>98.0</ele><time>2026-04-11T08:40:45.933Z</time></trkpt><trkpt lat="43.7477704" lon="10.9923611"><ele>95.0</ele><time>2026-04-11T08:40:47.934Z</time></trkpt><trkpt lat="43.7476992" lon="10.9923837"><ele>92.0</ele><time>2026-04-11T08:40:48.927Z</time></trkpt><trkpt lat="43.7476342" lon="10.9924312"><ele>89.0</ele><time>2026-04-11T08:40:49.928Z</time></trkpt><trkpt lat="43.7475771" lon="10.992469"><ele>86.0</ele><time>2026-04-11T08:40:50.923Z</time></trkpt><trkpt lat="43.747487" lon="10.9924819"><ele>86.0</ele><time>2026-04-11T08:40:52.932Z</time></trkpt><trkpt lat="43.7474259" lon="10.9923495"><ele>86.0</ele><time>2026-04-11T08:40:54.933Z</time></trkpt><trkpt lat="43.7474106" lon="10.9922512"><ele>86.0</ele><time>2026-04-11T08:40:55.926Z</time></trkpt><trkpt lat="43.7473982" lon="10.9921464"><ele>86.0</ele><time>2026-04-11T08:40:56.933Z</time></trkpt><trkpt lat="43.7473925" lon="10.9920417"><ele>86.0</ele><time>2026-04-11T08:40:57.936Z</time></trkpt><trkpt lat="43.7473912" lon="10.9919438"><ele>86.0</ele><time>2026-04-11T08:40:58.941Z</time></trkpt><trkpt lat="43.7474001" lon="10.9918556"><ele>86.0</ele><time>2026-04-11T08:40:59.937Z</time></trkpt><trkpt lat="43.747437" lon="10.9917008"><ele>86.0</ele><time>2026-04-11T08:41:01.935Z</time></trkpt><trkpt lat="43.7474591" lon="10.9915583"><ele>86.0</ele><time>2026-04-11T08:41:03.928Z</time></trkpt><trkpt lat="43.747476" lon="10.9914064"><ele>86.0</ele><time>2026-04-11T08:41:05.926Z</time></trkpt><trkpt lat="43.7474837" lon="10.9912311"><ele>82.8</ele><time>2026-04-11T08:41:07.928Z</time></trkpt><trkpt lat="43.7474568" lon="10.9910723"><ele>79.6</ele><time>2026-04-11T08:41:09.934Z</time></trkpt><trkpt lat="43.7473579" lon="10.9909749"><ele>76.4</ele><time>2026-04-11T08:41:11.941Z</time></trkpt><trkpt lat="43.747289" lon="10.9909634"><ele>73.2</ele><time>2026-04-11T08:41:12.942Z</time></trkpt><trkpt lat="43.7472121" lon="10.9909716"><ele>70.0</ele><time>2026-04-11T08:41:13.951Z</time></trkpt><trkpt lat="43.747126" lon="10.9909934"><ele>70.0</ele><time>2026-04-11T08:41:14.936Z</time></trkpt><trkpt lat="43.7470311" lon="10.9910319"><ele>70.0</ele><time>2026-04-11T08:41:15.946Z</time></trkpt><trkpt lat="43.7469333" lon="10.9910831"><ele>70.0</ele><time>2026-04-11T08:41:16.924Z</time></trkpt><trkpt lat="43.746839" lon="10.9911351"><ele>70.0</ele><time>2026-04-11T08:41:17.918Z</time></trkpt><trkpt lat="43.7467455" lon="10.9911861"><ele>70.0</ele><time>2026-04-11T08:41:18.925Z</time></trkpt><trkpt lat="43.7466582" lon="10.9912375"><ele>67.5</ele><time>2026-04-11T08:41:19.929Z</time></trkpt><trkpt lat="43.7465857" lon="10.9912949"><ele>65.0</ele><time>2026-04-11T08:41:20.923Z</time></trkpt><trkpt lat="43.7465289" lon="10.9913526"><ele>62.5</ele><time>2026-04-11T08:41:21.926Z</time></trkpt><trkpt lat="43.746441" lon="10.9914134"><ele>60.0</ele><time>2026-04-11T08:41:23.931Z</time></trkpt><trkpt lat="43.7463733" lon="10.9913407"><ele>57.49999999999999</ele><time>2026-04-11T08:41:25.957Z</time></trkpt><trkpt lat="43.74635" lon="10.9912465"><ele>55.0</ele><time>2026-04-11T08:41:26.93Z</time></trkpt><trkpt lat="43.7463171" lon="10.9911621"><ele>54.99999999999999</ele><time>2026-04-11T08:41:27.939Z</time></trkpt><trkpt lat="43.7462643" lon="10.9911141"><ele>55.0</ele><time>2026-04-11T08:41:28.936Z</time></trkpt><trkpt lat="43.7462008" lon="10.9910765"><ele>55.0</ele><time>2026-04-11T08:41:29.932Z</time></trkpt><trkpt lat="43.7461324" lon="10.9910269"><ele>55.0</ele><time>2026-04-11T08:41:30.938Z</time></trkpt><trkpt lat="43.7460653" lon="10.9909691"><ele>54.99999999999999</ele><time>2026-04-11T08:41:31.927Z</time></trkpt><trkpt lat="43.7459919" lon="10.9908919"><ele>55.0</ele><time>2026-04-11T08:41:32.93Z</time></trkpt><trkpt lat="43.7459214" lon="10.9908183"><ele>51.49999999999999</ele><time>2026-04-11T08:41:33.935Z</time></trkpt><trkpt lat="43.7458549" lon="10.9907373"><ele>48.0</ele><time>2026-04-11T08:41:34.941Z</time></trkpt><trkpt lat="43.7457921" lon="10.9906642"><ele>44.5</ele><time>2026-04-11T08:41:35.931Z</time></trkpt><trkpt lat="43.745736" lon="10.9906064"><ele>41.0</ele><time>2026-04-11T08:41:36.953Z</time></trkpt><trkpt lat="43.7456634" lon="10.9905174"><ele>37.5</ele><time>2026-04-11T08:41:38.931Z</time></trkpt><trkpt lat="43.7456306" lon="10.9904276"><ele>34.0</ele><time>2026-04-11T08:41:40.934Z</time></trkpt><trkpt lat="43.7456241" lon="10.9902983"><ele>34.0</ele><time>2026-04-11T08:41:42.941Z</time></trkpt><trkpt lat="43.7456094" lon="10.9901703"><ele>34.0</ele><time>2026-04-11T08:41:44.948Z</time></trkpt><trkpt lat="43.745589" lon="10.9900727"><ele>34.0</ele><time>2026-04-11T08:41:46.951Z</time></trkpt><trkpt lat="43.745595" lon="10.9899274"><ele>34.0</ele><time>2026-04-11T08:41:56.95Z</time></trkpt><trkpt lat="43.7455926" lon="10.9898117"><ele>34.0</ele><time>2026-04-11T08:41:57.936Z</time></trkpt><trkpt lat="43.7455913" lon="10.9896704"><ele>33.5</ele><time>2026-04-11T08:41:58.937Z</time></trkpt><trkpt lat="43.7455942" lon="10.9895383"><ele>33.0</ele><time>2026-04-11T08:41:59.924Z</time></trkpt><trkpt lat="43.7455967" lon="10.9894159"><ele>32.5</ele><time>2026-04-11T08:42:00.935Z</time></trkpt><trkpt lat="43.7456042" lon="10.9893006"><ele>32.0</ele><time>2026-04-11T08:42:01.932Z</time></trkpt><trkpt lat="43.7456156" lon="10.9891891"><ele>31.500000000000004</ele><time>2026-04-11T08:42:02.931Z</time></trkpt><trkpt lat="43.7456315" lon="10.9890848"><ele>31.0</ele><time>2026-04-11T08:42:03.931Z</time></trkpt><trkpt lat="43.7456539" lon="10.9889831"><ele>31.000000000000004</ele><time>2026-04-11T08:42:04.931Z</time></trkpt><trkpt lat="43.7456837" lon="10.98888"><ele>31.0</ele><time>2026-04-11T08:42:05.932Z</time></trkpt><trkpt lat="43.7457035" lon="10.9887888"><ele>31.0</ele><time>2026-04-11T08:42:06.929Z</time></trkpt><trkpt lat="43.7457404" lon="10.9886607"><ele>31.0</ele><time>2026-04-11T08:42:08.942Z</time></trkpt><trkpt lat="43.7458305" lon="10.9886609"><ele>31.000000000000004</ele><time>2026-04-11T08:42:12.937Z</time></trkpt><trkpt lat="43.7459035" lon="10.9887483"><ele>31.0</ele><time>2026-04-11T08:42:13.928Z</time></trkpt><trkpt lat="43.7459717" lon="10.9888986"><ele>31.0</ele><time>2026-04-11T08:42:14.924Z</time></trkpt><trkpt lat="43.7460399" lon="10.9890337"><ele>31.0</ele><time>2026-04-11T08:42:15.935Z</time></trkpt><trkpt lat="43.7461064" lon="10.9891685"><ele>31.0</ele><time>2026-04-11T08:42:16.928Z</time></trkpt><trkpt lat="43.7461732" lon="10.989273"><ele>31.0</ele><time>2026-04-11T08:42:17.927Z</time></trkpt><trkpt lat="43.746258" lon="10.9893473"><ele>31.0</ele><time>2026-04-11T08:42:18.928Z</time></trkpt><trkpt lat="43.7463543" lon="10.989373"><ele>31.4</ele><time>2026-04-11T08:42:19.929Z</time></trkpt><trkpt lat="43.7464531" lon="10.9893808"><ele>31.8</ele><time>2026-04-11T08:42:20.929Z</time></trkpt><trkpt lat="43.7465525" lon="10.989392"><ele>32.199999999999996</ele><time>2026-04-11T08:42:21.931Z</time></trkpt><trkpt lat="43.7466596" lon="10.9894116"><ele>32.6</ele><time>2026-04-11T08:42:22.936Z</time></trkpt><trkpt lat="43.7467616" lon="10.9894521"><ele>33.0</ele><time>2026-04-11T08:42:23.937Z</time></trkpt><trkpt lat="43.7468666" lon="10.9894995"><ele>33.6</ele><time>2026-04-11T08:42:24.939Z</time></trkpt><trkpt lat="43.7469669" lon="10.9895484"><ele>34.199999999999996</ele><time>2026-04-11T08:42:25.939Z</time></trkpt><trkpt lat="43.7470764" lon="10.9896037"><ele>34.8</ele><time>2026-04-11T08:42:26.939Z</time></trkpt><trkpt lat="43.7471789" lon="10.9896672"><ele>35.4</ele><time>2026-04-11T08:42:27.934Z</time></trkpt><trkpt lat="43.7472795" lon="10.9897345"><ele>36.0</ele><time>2026-04-11T08:42:28.935Z</time></trkpt><trkpt lat="43.7473774" lon="10.9897989"><ele>36.0</ele><time>2026-04-11T08:42:29.924Z</time></trkpt><trkpt lat="43.7474651" lon="10.9898586"><ele>36.0</ele><time>2026-04-11T08:42:30.934Z</time></trkpt><trkpt lat="43.7475521" lon="10.9899036"><ele>36.0</ele><time>2026-04-11T08:42:31.926Z</time></trkpt><trkpt lat="43.7476277" lon="10.9899173"><ele>36.0</ele><time>2026-04-11T08:42:32.925Z</time></trkpt><trkpt lat="43.7477068" lon="10.9899192"><ele>36.0</ele><time>2026-04-11T08:42:33.924Z</time></trkpt><trkpt lat="43.7477842" lon="10.9899198"><ele>36.0</ele><time>2026-04-11T08:42:34.934Z</time></trkpt><trkpt lat="43.7478609" lon="10.989919"><ele>37.0</ele><time>2026-04-11T08:42:35.933Z</time></trkpt><trkpt lat="43.7479391" lon="10.9899195"><ele>38.0</ele><time>2026-04-11T08:42:36.924Z</time></trkpt><trkpt lat="43.7480156" lon="10.9899195"><ele>39.0</ele><time>2026-04-11T08:42:37.925Z</time></trkpt><trkpt lat="43.7480903" lon="10.9899176"><ele>40.0</ele><time>2026-04-11T08:42:38.923Z</time></trkpt><trkpt lat="43.7481694" lon="10.9899198"><ele>41.0</ele><time>2026-04-11T08:42:39.922Z</time></trkpt><trkpt lat="43.7482472" lon="10.9899248"><ele>42.0</ele><time>2026-04-11T08:42:40.92Z</time></trkpt><trkpt lat="43.7483263" lon="10.9899311"><ele>42.0</ele><time>2026-04-11T08:42:41.922Z</time></trkpt><trkpt lat="43.7484086" lon="10.9899377"><ele>42.0</ele><time>2026-04-11T08:42:42.923Z</time></trkpt><trkpt lat="43.7485008" lon="10.9899405"><ele>42.0</ele><time>2026-04-11T08:42:43.92Z</time></trkpt><trkpt lat="43.7485932" lon="10.989945"><ele>42.0</ele><time>2026-04-11T08:42:44.926Z</time></trkpt><trkpt lat="43.7486879" lon="10.9899478"><ele>42.0</ele><time>2026-04-11T08:42:45.916Z</time></trkpt><trkpt lat="43.7487888" lon="10.989958"><ele>43.0</ele><time>2026-04-11T08:42:46.926Z</time></trkpt><trkpt lat="43.7488924" lon="10.9899647"><ele>44.0</ele><time>2026-04-11T08:42:47.914Z</time></trkpt><trkpt lat="43.7489983" lon="10.9899707"><ele>45.0</ele><time>2026-04-11T08:42:48.915Z</time></trkpt><trkpt lat="43.7490973" lon="10.9899735"><ele>46.0</ele><time>2026-04-11T08:42:49.914Z</time></trkpt><trkpt lat="43.7491864" lon="10.9899762"><ele>47.0</ele><time>2026-04-11T08:42:50.916Z</time></trkpt><trkpt lat="43.7492594" lon="10.9899791"><ele>47.0</ele><time>2026-04-11T08:42:51.914Z</time></trkpt><trkpt lat="43.7493572" lon="10.9899741"><ele>47.0</ele><time>2026-04-11T08:42:53.916Z</time></trkpt><trkpt lat="43.7494551" lon="10.9899676"><ele>47.0</ele><time>2026-04-11T08:44:17.925Z</time></trkpt><trkpt lat="43.749519" lon="10.9899505"><ele>47.0</ele><time>2026-04-11T08:44:47.93Z</time></trkpt><trkpt lat="43.7496027" lon="10.9898475"><ele>47.0</ele><time>2026-04-11T08:44:50.934Z</time></trkpt><trkpt lat="43.7496631" lon="10.9898202"><ele>47.0</ele><time>2026-04-11T08:44:51.911Z</time></trkpt><trkpt lat="43.7497342" lon="10.9898018"><ele>48.33333333333333</ele><time>2026-04-11T08:44:52.915Z</time></trkpt><trkpt lat="43.7498192" lon="10.9897901"><ele>49.666666666666664</ele><time>2026-04-11T08:44:53.911Z</time></trkpt><trkpt lat="43.7499085" lon="10.9897713"><ele>51.0</ele><time>2026-04-11T08:44:54.911Z</time></trkpt><trkpt lat="43.7499964" lon="10.9897486"><ele>52.33333333333333</ele><time>2026-04-11T08:44:55.913Z</time></trkpt><trkpt lat="43.7500732" lon="10.989726"><ele>53.666666666666664</ele><time>2026-04-11T08:44:56.91Z</time></trkpt><trkpt lat="43.7501401" lon="10.9896975"><ele>55.0</ele><time>2026-04-11T08:44:57.917Z</time></trkpt><trkpt lat="43.7502062" lon="10.9896773"><ele>55.666666666666664</ele><time>2026-04-11T08:44:58.914Z</time></trkpt><trkpt lat="43.750283" lon="10.9896651"><ele>56.33333333333333</ele><time>2026-04-11T08:44:59.913Z</time></trkpt><trkpt lat="43.7503559" lon="10.9896563"><ele>57.0</ele><time>2026-04-11T08:45:00.931Z</time></trkpt><trkpt lat="43.7504336" lon="10.989647"><ele>57.66666666666667</ele><time>2026-04-11T08:45:01.913Z</time></trkpt><trkpt lat="43.7505129" lon="10.9896304"><ele>58.333333333333336</ele><time>2026-04-11T08:45:02.913Z</time></trkpt><trkpt lat="43.7505946" lon="10.9896094"><ele>59.0</ele><time>2026-04-11T08:45:03.916Z</time></trkpt><trkpt lat="43.7506719" lon="10.9895907"><ele>59.0</ele><time>2026-04-11T08:45:04.917Z</time></trkpt><trkpt lat="43.7507362" lon="10.9895783"><ele>59.00000000000001</ele><time>2026-04-11T08:45:05.919Z</time></trkpt><trkpt lat="43.7508615" lon="10.989565"><ele>59.00000000000001</ele><time>2026-04-11T08:45:07.918Z</time></trkpt><trkpt lat="43.750997" lon="10.9895494"><ele>59.0</ele><time>2026-04-11T08:45:09.919Z</time></trkpt><trkpt lat="43.7510735" lon="10.989542"><ele>59.0</ele><time>2026-04-11T08:45:10.92Z</time></trkpt><trkpt lat="43.751142" lon="10.9895422"><ele>60.66666666666667</ele><time>2026-04-11T08:45:11.916Z</time></trkpt><trkpt lat="43.751251" lon="10.9895782"><ele>62.333333333333336</ele><time>2026-04-11T08:45:13.916Z</time></trkpt><trkpt lat="43.7513145" lon="10.9896421"><ele>64.0</ele><time>2026-04-11T08:45:15.91Z</time></trkpt><trkpt lat="43.7513591" lon="10.989725"><ele>65.66666666666667</ele><time>2026-04-11T08:45:17.924Z</time></trkpt><trkpt lat="43.7513049" lon="10.9897733"><ele>67.33333333333333</ele><time>2026-04-11T08:46:25.924Z</time></trkpt><trkpt lat="43.751259" lon="10.9896732"><ele>69.0</ele><time>2026-04-11T08:46:42.933Z</time></trkpt><trkpt lat="43.7512506" lon="10.9895775"><ele>69.0</ele><time>2026-04-11T08:46:44.924Z</time></trkpt><trkpt lat="43.7512903" lon="10.9895078"><ele>69.0</ele><time>2026-04-11T08:46:46.918Z</time></trkpt><trkpt lat="43.7513698" lon="10.9894907"><ele>69.0</ele><time>2026-04-11T08:46:48.916Z</time></trkpt><trkpt lat="43.7514496" lon="10.989507"><ele>69.0</ele><time>2026-04-11T08:46:50.916Z</time></trkpt><trkpt lat="43.7515034" lon="10.9894289"><ele>69.0</ele><time>2026-04-11T08:46:52.926Z</time></trkpt><trkpt lat="43.7515755" lon="10.9893414"><ele>69.0</ele><time>2026-04-11T08:46:54.954Z</time></trkpt><trkpt lat="43.7516722" lon="10.9892375"><ele>69.2</ele><time>2026-04-11T08:46:56.935Z</time></trkpt><trkpt lat="43.7517651" lon="10.9891545"><ele>69.4</ele><time>2026-04-11T08:46:58.932Z</time></trkpt><trkpt lat="43.7518554" lon="10.9891161"><ele>69.6</ele><time>2026-04-11T08:47:00.946Z</time></trkpt><trkpt lat="43.7519707" lon="10.9891308"><ele>69.8</ele><time>2026-04-11T08:47:02.946Z</time></trkpt><trkpt lat="43.7520957" lon="10.9891689"><ele>70.0</ele><time>2026-04-11T08:47:04.945Z</time></trkpt><trkpt lat="43.7521855" lon="10.989157"><ele>72.0</ele><time>2026-04-11T08:47:06.929Z</time></trkpt><trkpt lat="43.7522212" lon="10.9890812"><ele>74.0</ele><time>2026-04-11T08:47:08.95Z</time></trkpt><trkpt lat="43.7522543" lon="10.9889725"><ele>76.0</ele><time>2026-04-11T08:47:10.949Z</time></trkpt><trkpt lat="43.7523239" lon="10.988889"><ele>78.0</ele><time>2026-04-11T08:47:12.941Z</time></trkpt><trkpt lat="43.7524105" lon="10.9888998"><ele>80.0</ele><time>2026-04-11T08:47:14.949Z</time></trkpt><trkpt lat="43.7525203" lon="10.9889406"><ele>82.0</ele><time>2026-04-11T08:47:16.946Z</time></trkpt><trkpt lat="43.7525869" lon="10.988941"><ele>82.0</ele><time>2026-04-11T08:47:17.935Z</time></trkpt><trkpt lat="43.7526662" lon="10.9889334"><ele>82.0</ele><time>2026-04-11T08:47:18.931Z</time></trkpt><trkpt lat="43.7527433" lon="10.988927"><ele>82.0</ele><time>2026-04-11T08:47:19.92Z</time></trkpt><trkpt lat="43.7528154" lon="10.9888964"><ele>82.0</ele><time>2026-04-11T08:47:20.926Z</time></trkpt><trkpt lat="43.7528856" lon="10.9888452"><ele>82.0</ele><time>2026-04-11T08:47:21.936Z</time></trkpt><trkpt lat="43.7529584" lon="10.988798"><ele>82.0</ele><time>2026-04-11T08:47:22.939Z</time></trkpt><trkpt lat="43.753038" lon="10.9887556"><ele>83.5</ele><time>2026-04-11T08:47:23.947Z</time></trkpt><trkpt lat="43.753114" lon="10.9887176"><ele>85.0</ele><time>2026-04-11T08:47:24.952Z</time></trkpt><trkpt lat="43.7531897" lon="10.9886825"><ele>86.5</ele><time>2026-04-11T08:47:25.938Z</time></trkpt><trkpt lat="43.7532705" lon="10.9886423"><ele>88.0</ele><time>2026-04-11T08:47:26.951Z</time></trkpt><trkpt lat="43.7533494" lon="10.9886074"><ele>89.5</ele><time>2026-04-11T08:47:27.941Z</time></trkpt><trkpt lat="43.7534293" lon="10.9885773"><ele>91.0</ele><time>2026-04-11T08:47:28.948Z</time></trkpt><trkpt lat="43.7535102" lon="10.9885516"><ele>93.0</ele><time>2026-04-11T08:47:29.949Z</time></trkpt><trkpt lat="43.7535857" lon="10.9885286"><ele>95.0</ele><time>2026-04-11T08:47:30.948Z</time></trkpt><trkpt lat="43.7536827" lon="10.9884932"><ele>97.0</ele><time>2026-04-11T08:47:32.935Z</time></trkpt><trkpt lat="43.7536396" lon="10.9883864"><ele>99.0</ele><time>2026-04-11T08:47:38.964Z</time></trkpt><trkpt lat="43.7536109" lon="10.9882602"><ele>101.0</ele><time>2026-04-11T08:47:40.948Z</time></trkpt><trkpt lat="43.7536003" lon="10.9881312"><ele>102.6</ele><time>2026-04-11T08:47:42.953Z</time></trkpt><trkpt lat="43.7535933" lon="10.9880038"><ele>104.19999999999999</ele><time>2026-04-11T08:47:44.952Z</time></trkpt><trkpt lat="43.7536009" lon="10.9878911"><ele>105.80000000000001</ele><time>2026-04-11T08:47:46.957Z</time></trkpt><trkpt lat="43.753638" lon="10.9878102"><ele>107.4</ele><time>2026-04-11T08:47:59.953Z</time></trkpt><trkpt lat="43.7536249" lon="10.9879283"><ele>109.0</ele><time>2026-04-11T08:48:08.948Z</time></trkpt><trkpt lat="43.7536027" lon="10.9881112"><ele>109.00000000000001</ele><time>2026-04-11T08:48:10.942Z</time></trkpt><trkpt lat="43.7535949" lon="10.9882063"><ele>109.0</ele><time>2026-04-11T08:48:11.935Z</time></trkpt><trkpt lat="43.7535869" lon="10.9883006"><ele>109.0</ele><time>2026-04-11T08:48:12.948Z</time></trkpt><trkpt lat="43.7535826" lon="10.9884432"><ele>109.0</ele><time>2026-04-11T08:48:14.924Z</time></trkpt><trkpt lat="43.7535958" lon="10.9885352"><ele>109.00000000000001</ele><time>2026-04-11T08:48:16.948Z</time></trkpt><trkpt lat="43.7536296" lon="10.9883728"><ele>109.0</ele><time>2026-04-11T08:48:54.943Z</time></trkpt><trkpt lat="43.7536205" lon="10.9882461"><ele>109.00000000000001</ele><time>2026-04-11T08:48:55.937Z</time></trkpt><trkpt lat="43.7536127" lon="10.9881057"><ele>109.0</ele><time>2026-04-11T08:48:56.934Z</time></trkpt><trkpt lat="43.7536095" lon="10.9879596"><ele>109.0</ele><time>2026-04-11T08:48:57.943Z</time></trkpt><trkpt lat="43.7536046" lon="10.9878294"><ele>109.0</ele><time>2026-04-11T08:48:58.939Z</time></trkpt><trkpt lat="43.753599" lon="10.9877181"><ele>109.00000000000001</ele><time>2026-04-11T08:48:59.933Z</time></trkpt><trkpt lat="43.7535965" lon="10.9876296"><ele>109.0</ele><time>2026-04-11T08:49:00.939Z</time></trkpt><trkpt lat="43.7535615" lon="10.9874924"><ele>108.6</ele><time>2026-04-11T08:49:02.934Z</time></trkpt><trkpt lat="43.7535117" lon="10.9873495"><ele>108.2</ele><time>2026-04-11T08:49:04.934Z</time></trkpt><trkpt lat="43.7534379" lon="10.9872411"><ele>107.79999999999998</ele><time>2026-04-11T08:49:06.934Z</time></trkpt><trkpt lat="43.7533467" lon="10.987165"><ele>107.39999999999999</ele><time>2026-04-11T08:49:08.948Z</time></trkpt><trkpt lat="43.75326" lon="10.9871096"><ele>107.0</ele><time>2026-04-11T08:49:10.95Z</time></trkpt><trkpt lat="43.7532193" lon="10.9870395"><ele>106.99999999999999</ele><time>2026-04-11T08:49:13.961Z</time></trkpt><trkpt lat="43.7532479" lon="10.9869247"><ele>107.0</ele><time>2026-04-11T08:49:16.954Z</time></trkpt><trkpt lat="43.7532969" lon="10.9868575"><ele>107.0</ele><time>2026-04-11T08:49:19.95Z</time></trkpt><trkpt lat="43.7533617" lon="10.9867962"><ele>107.0</ele><time>2026-04-11T08:49:23.949Z</time></trkpt><trkpt lat="43.7534563" lon="10.9867972"><ele>106.99999999999999</ele><time>2026-04-11T08:49:25.953Z</time></trkpt><trkpt lat="43.753551" lon="10.9868028"><ele>107.0</ele><time>2026-04-11T08:49:27.95Z</time></trkpt><trkpt lat="43.7536161" lon="10.9868"><ele>108.83333333333333</ele><time>2026-04-11T08:49:29.952Z</time></trkpt><trkpt lat="43.753673" lon="10.9867567"><ele>110.66666666666666</ele><time>2026-04-11T08:49:32.963Z</time></trkpt><trkpt lat="43.7537374" lon="10.9868039"><ele>112.5</ele><time>2026-04-11T08:49:36.952Z</time></trkpt><trkpt lat="43.7538099" lon="10.9868113"><ele>114.33333333333334</ele><time>2026-04-11T08:49:38.954Z</time></trkpt><trkpt lat="43.7539126" lon="10.9868601"><ele>116.16666666666667</ele><time>2026-04-11T08:49:40.965Z</time></trkpt><trkpt lat="43.7539741" lon="10.9869127"><ele>118.0</ele><time>2026-04-11T08:49:41.949Z</time></trkpt><trkpt lat="43.7540421" lon="10.9869762"><ele>118.00000000000001</ele><time>2026-04-11T08:49:42.949Z</time></trkpt><trkpt lat="43.7541149" lon="10.9870403"><ele>118.0</ele><time>2026-04-11T08:49:43.948Z</time></trkpt><trkpt lat="43.754197" lon="10.9870978"><ele>118.0</ele><time>2026-04-11T08:49:44.948Z</time></trkpt><trkpt lat="43.7542762" lon="10.987145"><ele>118.0</ele><time>2026-04-11T08:49:45.943Z</time></trkpt><trkpt lat="43.7543619" lon="10.9871787"><ele>118.00000000000001</ele><time>2026-04-11T08:49:46.943Z</time></trkpt><trkpt lat="43.7544557" lon="10.9872004"><ele>118.0</ele><time>2026-04-11T08:49:47.943Z</time></trkpt><trkpt lat="43.7545524" lon="10.9872252"><ele>120.2</ele><time>2026-04-11T08:49:48.94Z</time></trkpt><trkpt lat="43.7546503" lon="10.9872541"><ele>122.4</ele><time>2026-04-11T08:49:49.945Z</time></trkpt><trkpt lat="43.7547475" lon="10.9872833"><ele>124.60000000000001</ele><time>2026-04-11T08:49:50.944Z</time></trkpt><trkpt lat="43.75484" lon="10.987309"><ele>126.80000000000001</ele><time>2026-04-11T08:49:51.942Z</time></trkpt><trkpt lat="43.7549273" lon="10.9873311"><ele>129.0</ele><time>2026-04-11T08:49:52.946Z</time></trkpt><trkpt lat="43.75501" lon="10.9873526"><ele>129.0</ele><time>2026-04-11T08:49:53.945Z</time></trkpt><trkpt lat="43.7550973" lon="10.987375"><ele>129.0</ele><time>2026-04-11T08:49:54.943Z</time></trkpt><trkpt lat="43.7551838" lon="10.9874021"><ele>129.0</ele><time>2026-04-11T08:49:55.941Z</time></trkpt><trkpt lat="43.7552696" lon="10.9874369"><ele>129.0</ele><time>2026-04-11T08:49:56.945Z</time></trkpt><trkpt lat="43.7553546" lon="10.9874724"><ele>129.0</ele><time>2026-04-11T08:49:57.939Z</time></trkpt><trkpt lat="43.7554417" lon="10.987506"><ele>129.0</ele><time>2026-04-11T08:49:58.939Z</time></trkpt><trkpt lat="43.7555314" lon="10.9875326"><ele>128.33333333333334</ele><time>2026-04-11T08:49:59.947Z</time></trkpt><trkpt lat="43.7556214" lon="10.9875609"><ele>127.66666666666666</ele><time>2026-04-11T08:50:00.942Z</time></trkpt><trkpt lat="43.7557049" lon="10.9875896"><ele>127.0</ele><time>2026-04-11T08:50:01.941Z</time></trkpt><trkpt lat="43.755784" lon="10.9876101"><ele>126.33333333333333</ele><time>2026-04-11T08:50:02.936Z</time></trkpt><trkpt lat="43.7558591" lon="10.987625"><ele>125.66666666666666</ele><time>2026-04-11T08:50:03.936Z</time></trkpt><trkpt lat="43.7559267" lon="10.9876353"><ele>125.0</ele><time>2026-04-11T08:50:04.932Z</time></trkpt><trkpt lat="43.7560071" lon="10.9876196"><ele>126.0</ele><time>2026-04-11T08:50:06.937Z</time></trkpt><trkpt lat="43.7560876" lon="10.987588"><ele>127.0</ele><time>2026-04-11T08:50:08.946Z</time></trkpt><trkpt lat="43.7562127" lon="10.9875306"><ele>128.0</ele><time>2026-04-11T08:50:10.943Z</time></trkpt><trkpt lat="43.7562923" lon="10.9874893"><ele>129.0</ele><time>2026-04-11T08:50:11.937Z</time></trkpt><trkpt lat="43.7563805" lon="10.9874453"><ele>130.0</ele><time>2026-04-11T08:50:12.942Z</time></trkpt><trkpt lat="43.756484" lon="10.9873952"><ele>133.0</ele><time>2026-04-11T08:50:13.947Z</time></trkpt><trkpt lat="43.7565914" lon="10.9873461"><ele>136.0</ele><time>2026-04-11T08:50:14.948Z</time></trkpt><trkpt lat="43.7567059" lon="10.9872994"><ele>139.0</ele><time>2026-04-11T08:50:15.943Z</time></trkpt><trkpt lat="43.7568278" lon="10.9872566"><ele>142.0</ele><time>2026-04-11T08:50:16.953Z</time></trkpt><trkpt lat="43.7569565" lon="10.9872091"><ele>142.25</ele><time>2026-04-11T08:50:17.942Z</time></trkpt><trkpt lat="43.7570879" lon="10.9871606"><ele>142.5</ele><time>2026-04-11T08:50:18.945Z</time></trkpt><trkpt lat="43.7572166" lon="10.9871126"><ele>142.75</ele><time>2026-04-11T08:50:19.947Z</time></trkpt><trkpt lat="43.757346" lon="10.9870581"><ele>143.0</ele><time>2026-04-11T08:50:20.948Z</time></trkpt><trkpt lat="43.7574747" lon="10.9870019"><ele>143.0</ele><time>2026-04-11T08:50:21.944Z</time></trkpt><trkpt lat="43.7576049" lon="10.9869463"><ele>143.0</ele><time>2026-04-11T08:50:22.953Z</time></trkpt><trkpt lat="43.7577349" lon="10.9868959"><ele>143.0</ele><time>2026-04-11T08:50:23.944Z</time></trkpt><trkpt lat="43.7578646" lon="10.9868439"><ele>143.0</ele><time>2026-04-11T08:50:24.945Z</time></trkpt><trkpt lat="43.7579944" lon="10.9867887"><ele>143.5</ele><time>2026-04-11T08:50:25.942Z</time></trkpt><trkpt lat="43.7581233" lon="10.9867363"><ele>144.0</ele><time>2026-04-11T08:50:26.945Z</time></trkpt><trkpt lat="43.7582567" lon="10.9866854"><ele>144.5</ele><time>2026-04-11T08:50:27.948Z</time></trkpt><trkpt lat="43.7583931" lon="10.9866341"><ele>145.0</ele><time>2026-04-11T08:50:28.957Z</time></trkpt><trkpt lat="43.7585314" lon="10.986582"><ele>148.5</ele><time>2026-04-11T08:50:29.948Z</time></trkpt><trkpt lat="43.7586724" lon="10.986534"><ele>152.0</ele><time>2026-04-11T08:50:30.968Z</time></trkpt><trkpt lat="43.7588028" lon="10.9864782"><ele>155.5</ele><time>2026-04-11T08:50:31.944Z</time></trkpt><trkpt lat="43.7589367" lon="10.9864164"><ele>159.0</ele><time>2026-04-11T08:50:32.954Z</time></trkpt><trkpt lat="43.7590694" lon="10.9863576"><ele>159.0</ele><time>2026-04-11T08:50:33.947Z</time></trkpt><trkpt lat="43.7591923" lon="10.9863009"><ele>159.0</ele><time>2026-04-11T08:50:34.945Z</time></trkpt><trkpt lat="43.759327" lon="10.9862482"><ele>159.0</ele><time>2026-04-11T08:50:35.939Z</time></trkpt><trkpt lat="43.7594603" lon="10.9861876"><ele>159.0</ele><time>2026-04-11T08:50:36.947Z</time></trkpt><trkpt lat="43.7595839" lon="10.9861418"><ele>160.6</ele><time>2026-04-11T08:50:37.948Z</time></trkpt><trkpt lat="43.7597013" lon="10.9861119"><ele>162.2</ele><time>2026-04-11T08:50:38.948Z</time></trkpt><trkpt lat="43.7597964" lon="10.9860709"><ele>163.79999999999998</ele><time>2026-04-11T08:50:39.944Z</time></trkpt><trkpt lat="43.759882" lon="10.9860358"><ele>165.4</ele><time>2026-04-11T08:50:40.941Z</time></trkpt><trkpt lat="43.7599462" lon="10.986007"><ele>167.0</ele><time>2026-04-11T08:50:41.946Z</time></trkpt><trkpt lat="43.7600409" lon="10.9860089"><ele>167.0</ele><time>2026-04-11T08:50:43.948Z</time></trkpt><trkpt lat="43.7601286" lon="10.9860573"><ele>167.0</ele><time>2026-04-11T08:50:45.941Z</time></trkpt><trkpt lat="43.760245" lon="10.9860917"><ele>167.0</ele><time>2026-04-11T08:50:47.937Z</time></trkpt><trkpt lat="43.7603115" lon="10.9861035"><ele>167.0</ele><time>2026-04-11T08:50:48.942Z</time></trkpt><trkpt lat="43.7604207" lon="10.9861306"><ele>167.0</ele><time>2026-04-11T08:50:50.937Z</time></trkpt><trkpt lat="43.7604849" lon="10.9861496"><ele>168.6</ele><time>2026-04-11T08:50:52.942Z</time></trkpt><trkpt lat="43.7605861" lon="10.9861593"><ele>170.2</ele><time>2026-04-11T08:50:55.94Z</time></trkpt><trkpt lat="43.7606996" lon="10.98621"><ele>171.8</ele><time>2026-04-11T08:50:57.927Z</time></trkpt><trkpt lat="43.760811" lon="10.9862427"><ele>173.4</ele><time>2026-04-11T08:50:59.923Z</time></trkpt><trkpt lat="43.7609001" lon="10.9862204"><ele>175.0</ele><time>2026-04-11T08:51:01.942Z</time></trkpt><trkpt lat="43.7609698" lon="10.9861376"><ele>175.16666666666669</ele><time>2026-04-11T08:51:03.945Z</time></trkpt><trkpt lat="43.7610512" lon="10.9860221"><ele>175.33333333333334</ele><time>2026-04-11T08:51:05.94Z</time></trkpt><trkpt lat="43.7611061" lon="10.9859658"><ele>175.5</ele><time>2026-04-11T08:51:06.938Z</time></trkpt><trkpt lat="43.7611667" lon="10.9859156"><ele>175.66666666666666</ele><time>2026-04-11T08:51:07.943Z</time></trkpt><trkpt lat="43.761232" lon="10.9858749"><ele>175.83333333333331</ele><time>2026-04-11T08:51:08.941Z</time></trkpt><trkpt lat="43.7613" lon="10.9858317"><ele>176.0</ele><time>2026-04-11T08:51:09.94Z</time></trkpt><trkpt lat="43.7613683" lon="10.9857811"><ele>178.0</ele><time>2026-04-11T08:51:10.942Z</time></trkpt><trkpt lat="43.7614279" lon="10.9857393"><ele>180.0</ele><time>2026-04-11T08:51:11.943Z</time></trkpt><trkpt lat="43.7615115" lon="10.9856678"><ele>182.0</ele><time>2026-04-11T08:51:13.943Z</time></trkpt><trkpt lat="43.7616024" lon="10.9856353"><ele>184.0</ele><time>2026-04-11T08:51:15.941Z</time></trkpt><trkpt lat="43.7616693" lon="10.9856354"><ele>186.0</ele><time>2026-04-11T08:51:16.943Z</time></trkpt><trkpt lat="43.7617547" lon="10.9856389"><ele>188.0</ele><time>2026-04-11T08:51:17.942Z</time></trkpt><trkpt lat="43.7618472" lon="10.9856397"><ele>189.4</ele><time>2026-04-11T08:51:18.943Z</time></trkpt><trkpt lat="43.7619467" lon="10.9856369"><ele>190.8</ele><time>2026-04-11T08:51:19.949Z</time></trkpt><trkpt lat="43.762054" lon="10.9856337"><ele>192.2</ele><time>2026-04-11T08:51:20.943Z</time></trkpt><trkpt lat="43.7621629" lon="10.9856337"><ele>193.6</ele><time>2026-04-11T08:51:21.943Z</time></trkpt><trkpt lat="43.7622778" lon="10.9856277"><ele>195.0</ele><time>2026-04-11T08:51:22.947Z</time></trkpt><trkpt lat="43.7623925" lon="10.9856153"><ele>195.0</ele><time>2026-04-11T08:51:23.944Z</time></trkpt><trkpt lat="43.7625093" lon="10.985597"><ele>195.0</ele><time>2026-04-11T08:51:24.954Z</time></trkpt><trkpt lat="43.7626295" lon="10.9855822"><ele>195.0</ele><time>2026-04-11T08:51:25.946Z</time></trkpt><trkpt lat="43.7627511" lon="10.9855724"><ele>195.0</ele><time>2026-04-11T08:51:26.946Z</time></trkpt><trkpt lat="43.7628754" lon="10.9855575"><ele>196.5</ele><time>2026-04-11T08:51:27.942Z</time></trkpt><trkpt lat="43.7630023" lon="10.9855431"><ele>198.0</ele><time>2026-04-11T08:51:28.945Z</time></trkpt><trkpt lat="43.7631311" lon="10.9855275"><ele>199.5</ele><time>2026-04-11T08:51:29.941Z</time></trkpt><trkpt lat="43.7632622" lon="10.9855135"><ele>201.0</ele><time>2026-04-11T08:51:30.952Z</time></trkpt><trkpt lat="43.7633926" lon="10.9854977"><ele>201.0</ele><time>2026-04-11T08:51:31.942Z</time></trkpt><trkpt lat="43.7635227" lon="10.9854833"><ele>201.0</ele><time>2026-04-11T08:51:32.952Z</time></trkpt><trkpt lat="43.7636559" lon="10.9854749"><ele>201.0</ele><time>2026-04-11T08:51:33.943Z</time></trkpt><trkpt lat="43.763791" lon="10.9854675"><ele>201.0</ele><time>2026-04-11T08:51:34.942Z</time></trkpt><trkpt lat="43.7639307" lon="10.9854626"><ele>203.0</ele><time>2026-04-11T08:51:35.949Z</time></trkpt><trkpt lat="43.7640661" lon="10.9854631"><ele>205.0</ele><time>2026-04-11T08:51:36.94Z</time></trkpt><trkpt lat="43.7641991" lon="10.9854742"><ele>207.0</ele><time>2026-04-11T08:51:37.943Z</time></trkpt><trkpt lat="43.7643297" lon="10.9855057"><ele>209.0</ele><time>2026-04-11T08:51:38.938Z</time></trkpt><trkpt lat="43.7644546" lon="10.9855771"><ele>209.0</ele><time>2026-04-11T08:51:39.939Z</time></trkpt><trkpt lat="43.7645614" lon="10.9856921"><ele>209.0</ele><time>2026-04-11T08:51:40.935Z</time></trkpt><trkpt lat="43.7646464" lon="10.9858205"><ele>209.0</ele><time>2026-04-11T08:51:41.934Z</time></trkpt><trkpt lat="43.764726" lon="10.9859376"><ele>209.0</ele><time>2026-04-11T08:51:42.936Z</time></trkpt><trkpt lat="43.7648158" lon="10.9860356"><ele>209.0</ele><time>2026-04-11T08:51:43.933Z</time></trkpt><trkpt lat="43.764926" lon="10.9861011"><ele>209.0</ele><time>2026-04-11T08:51:44.933Z</time></trkpt><trkpt lat="43.7650453" lon="10.9861444"><ele>209.0</ele><time>2026-04-11T08:51:45.93Z</time></trkpt><trkpt lat="43.7651802" lon="10.9861637"><ele>209.0</ele><time>2026-04-11T08:51:46.93Z</time></trkpt><trkpt lat="43.7653197" lon="10.986175"><ele>212.0</ele><time>2026-04-11T08:51:47.933Z</time></trkpt><trkpt lat="43.7654744" lon="10.9861903"><ele>215.0</ele><time>2026-04-11T08:51:48.934Z</time></trkpt><trkpt lat="43.7656365" lon="10.9862343"><ele>218.0</ele><time>2026-04-11T08:51:49.95Z</time></trkpt><trkpt lat="43.7657952" lon="10.9862915"><ele>218.0</ele><time>2026-04-11T08:51:50.953Z</time></trkpt><trkpt lat="43.7659482" lon="10.9863434"><ele>218.0</ele><time>2026-04-11T08:51:51.951Z</time></trkpt><trkpt lat="43.7660935" lon="10.9863795"><ele>218.0</ele><time>2026-04-11T08:51:52.958Z</time></trkpt><trkpt lat="43.7662418" lon="10.9864221"><ele>220.25</ele><time>2026-04-11T08:51:53.948Z</time></trkpt><trkpt lat="43.7663792" lon="10.9864677"><ele>222.5</ele><time>2026-04-11T08:51:54.949Z</time></trkpt><trkpt lat="43.7665121" lon="10.9865262"><ele>224.75</ele><time>2026-04-11T08:51:55.951Z</time></trkpt><trkpt lat="43.7666389" lon="10.9866005"><ele>227.0</ele><time>2026-04-11T08:51:56.947Z</time></trkpt><trkpt lat="43.7667531" lon="10.9867066"><ele>227.6</ele><time>2026-04-11T08:51:57.946Z</time></trkpt><trkpt lat="43.7668556" lon="10.9868129"><ele>228.2</ele><time>2026-04-11T08:51:58.945Z</time></trkpt><trkpt lat="43.7669299" lon="10.9869228"><ele>228.8</ele><time>2026-04-11T08:51:59.936Z</time></trkpt><trkpt lat="43.7669794" lon="10.9870417"><ele>229.4</ele><time>2026-04-11T08:52:00.949Z</time></trkpt><trkpt lat="43.7669916" lon="10.9871662"><ele>230.0</ele><time>2026-04-11T08:52:01.933Z</time></trkpt><trkpt lat="43.7669821" lon="10.9873052"><ele>231.8</ele><time>2026-04-11T08:52:02.93Z</time></trkpt><trkpt lat="43.7669586" lon="10.9874452"><ele>233.6</ele><time>2026-04-11T08:52:03.941Z</time></trkpt><trkpt lat="43.7669617" lon="10.987586"><ele>235.39999999999998</ele><time>2026-04-11T08:52:04.93Z</time></trkpt><trkpt lat="43.7669801" lon="10.9877218"><ele>237.2</ele><time>2026-04-11T08:52:05.936Z</time></trkpt><trkpt lat="43.7670267" lon="10.9878446"><ele>239.0</ele><time>2026-04-11T08:52:06.933Z</time></trkpt><trkpt lat="43.7670987" lon="10.9879365"><ele>240.75</ele><time>2026-04-11T08:52:07.934Z</time></trkpt><trkpt lat="43.7671812" lon="10.9879692"><ele>242.5</ele><time>2026-04-11T08:52:08.93Z</time></trkpt><trkpt lat="43.7672768" lon="10.9879217"><ele>244.25</ele><time>2026-04-11T08:52:09.932Z</time></trkpt><trkpt lat="43.7673785" lon="10.9878086"><ele>246.0</ele><time>2026-04-11T08:52:10.935Z</time></trkpt><trkpt lat="43.7674866" lon="10.9876395"><ele>246.0</ele><time>2026-04-11T08:52:11.928Z</time></trkpt><trkpt lat="43.7675998" lon="10.9874664"><ele>246.0</ele><time>2026-04-11T08:52:12.929Z</time></trkpt><trkpt lat="43.7677094" lon="10.987312"><ele>246.0</ele><time>2026-04-11T08:52:13.924Z</time></trkpt><trkpt lat="43.7678044" lon="10.9871853"><ele>246.0</ele><time>2026-04-11T08:52:14.929Z</time></trkpt><trkpt lat="43.7678848" lon="10.9871042"><ele>246.0</ele><time>2026-04-11T08:52:15.932Z</time></trkpt><trkpt lat="43.7679558" lon="10.9870776"><ele>246.0</ele><time>2026-04-11T08:52:16.93Z</time></trkpt><trkpt lat="43.7680294" lon="10.9871116"><ele>246.0</ele><time>2026-04-11T08:52:17.927Z</time></trkpt><trkpt lat="43.7680998" lon="10.9871976"><ele>246.0</ele><time>2026-04-11T08:52:18.925Z</time></trkpt><trkpt lat="43.7681366" lon="10.9873321"><ele>246.0</ele><time>2026-04-11T08:52:19.93Z</time></trkpt><trkpt lat="43.7681339" lon="10.9874866"><ele>248.5</ele><time>2026-04-11T08:52:20.925Z</time></trkpt><trkpt lat="43.7681127" lon="10.9876518"><ele>251.0</ele><time>2026-04-11T08:52:21.93Z</time></trkpt><trkpt lat="43.7680777" lon="10.9878266"><ele>253.5</ele><time>2026-04-11T08:52:22.934Z</time></trkpt><trkpt lat="43.7680384" lon="10.9880092"><ele>256.0</ele><time>2026-04-11T08:52:23.932Z</time></trkpt><trkpt lat="43.7679954" lon="10.9882072"><ele>258.25</ele><time>2026-04-11T08:52:24.933Z</time></trkpt><trkpt lat="43.7679531" lon="10.9884023"><ele>260.5</ele><time>2026-04-11T08:52:25.932Z</time></trkpt><trkpt lat="43.7679051" lon="10.9885935"><ele>262.75</ele><time>2026-04-11T08:52:26.931Z</time></trkpt><trkpt lat="43.7678588" lon="10.9887735"><ele>265.0</ele><time>2026-04-11T08:52:27.932Z</time></trkpt><trkpt lat="43.7678205" lon="10.9889341"><ele>265.0</ele><time>2026-04-11T08:52:28.936Z</time></trkpt><trkpt lat="43.7677897" lon="10.9890857"><ele>265.0</ele><time>2026-04-11T08:52:29.94Z</time></trkpt><trkpt lat="43.7677715" lon="10.9892322"><ele>265.0</ele><time>2026-04-11T08:52:30.947Z</time></trkpt><trkpt lat="43.767776" lon="10.9893681"><ele>265.0</ele><time>2026-04-11T08:52:31.939Z</time></trkpt><trkpt lat="43.7678153" lon="10.989473"><ele>265.0</ele><time>2026-04-11T08:52:32.941Z</time></trkpt><trkpt lat="43.7678752" lon="10.9895353"><ele>265.0</ele><time>2026-04-11T08:52:33.935Z</time></trkpt><trkpt lat="43.7679456" lon="10.9895396"><ele>265.0</ele><time>2026-04-11T08:52:34.947Z</time></trkpt><trkpt lat="43.7680251" lon="10.9894526"><ele>265.0</ele><time>2026-04-11T08:52:35.935Z</time></trkpt><trkpt lat="43.7680993" lon="10.9892992"><ele>265.0</ele><time>2026-04-11T08:52:36.933Z</time></trkpt><trkpt lat="43.7681675" lon="10.9891346"><ele>265.0</ele><time>2026-04-11T08:52:37.926Z</time></trkpt><trkpt lat="43.7682373" lon="10.9889826"><ele>265.0</ele><time>2026-04-11T08:52:38.932Z</time></trkpt><trkpt lat="43.7683163" lon="10.9888649"><ele>265.0</ele><time>2026-04-11T08:52:39.93Z</time></trkpt><trkpt lat="43.7683908" lon="10.9887918"><ele>265.0</ele><time>2026-04-11T08:52:40.938Z</time></trkpt><trkpt lat="43.7684621" lon="10.9887709"><ele>265.0</ele><time>2026-04-11T08:52:41.928Z</time></trkpt><trkpt lat="43.7685295" lon="10.9888318"><ele>265.0</ele><time>2026-04-11T08:52:42.931Z</time></trkpt><trkpt lat="43.7685759" lon="10.9889422"><ele>264.8</ele><time>2026-04-11T08:52:43.925Z</time></trkpt><trkpt lat="43.7685681" lon="10.9890785"><ele>264.6</ele><time>2026-04-11T08:52:44.926Z</time></trkpt><trkpt lat="43.7685263" lon="10.9892146"><ele>264.4</ele><time>2026-04-11T08:52:45.927Z</time></trkpt><trkpt lat="43.768478" lon="10.9893593"><ele>264.2</ele><time>2026-04-11T08:52:46.93Z</time></trkpt><trkpt lat="43.7684446" lon="10.9895012"><ele>264.0</ele><time>2026-04-11T08:52:47.939Z</time></trkpt><trkpt lat="43.7684399" lon="10.9896407"><ele>264.0</ele><time>2026-04-11T08:52:48.936Z</time></trkpt><trkpt lat="43.7684737" lon="10.9897411"><ele>264.0</ele><time>2026-04-11T08:52:49.936Z</time></trkpt><trkpt lat="43.7685837" lon="10.9897644"><ele>264.0</ele><time>2026-04-11T08:52:51.933Z</time></trkpt><trkpt lat="43.7686585" lon="10.9896917"><ele>264.0</ele><time>2026-04-11T08:52:52.935Z</time></trkpt><trkpt lat="43.7687435" lon="10.9896294"><ele>264.0</ele><time>2026-04-11T08:52:53.924Z</time></trkpt><trkpt lat="43.7688313" lon="10.9895746"><ele>266.5</ele><time>2026-04-11T08:52:54.928Z</time></trkpt><trkpt lat="43.7689163" lon="10.9895601"><ele>269.0</ele><time>2026-04-11T08:52:55.938Z</time></trkpt><trkpt lat="43.7689922" lon="10.9895758"><ele>271.5</ele><time>2026-04-11T08:52:56.936Z</time></trkpt><trkpt lat="43.7690637" lon="10.9896168"><ele>274.0</ele><time>2026-04-11T08:52:57.942Z</time></trkpt><trkpt lat="43.7691331" lon="10.9896831"><ele>276.5</ele><time>2026-04-11T08:52:58.94Z</time></trkpt><trkpt lat="43.7692049" lon="10.9897635"><ele>279.0</ele><time>2026-04-11T08:52:59.93Z</time></trkpt><trkpt lat="43.7692795" lon="10.9898468"><ele>279.0</ele><time>2026-04-11T08:53:00.938Z</time></trkpt><trkpt lat="43.7693576" lon="10.9899347"><ele>279.0</ele><time>2026-04-11T08:53:01.931Z</time></trkpt><trkpt lat="43.7694269" lon="10.9900319"><ele>279.0</ele><time>2026-04-11T08:53:02.928Z</time></trkpt><trkpt lat="43.7694871" lon="10.9901369"><ele>279.0</ele><time>2026-04-11T08:53:03.936Z</time></trkpt><trkpt lat="43.7695002" lon="10.9902225"><ele>279.0</ele><time>2026-04-11T08:53:04.934Z</time></trkpt><trkpt lat="43.7694537" lon="10.9902938"><ele>279.0</ele><time>2026-04-11T08:53:15.961Z</time></trkpt><trkpt lat="43.7694553" lon="10.9903926"><ele>278.4</ele><time>2026-04-11T08:53:17.953Z</time></trkpt><trkpt lat="43.7694809" lon="10.9904941"><ele>277.79999999999995</ele><time>2026-04-11T08:53:18.949Z</time></trkpt><trkpt lat="43.7695229" lon="10.9905892"><ele>277.20000000000005</ele><time>2026-04-11T08:53:19.93Z</time></trkpt><trkpt lat="43.769579" lon="10.9906865"><ele>276.6</ele><time>2026-04-11T08:53:20.935Z</time></trkpt><trkpt lat="43.7696514" lon="10.9907866"><ele>276.0</ele><time>2026-04-11T08:53:21.931Z</time></trkpt><trkpt lat="43.7697321" lon="10.9908989"><ele>276.0</ele><time>2026-04-11T08:53:22.934Z</time></trkpt><trkpt lat="43.7698039" lon="10.9910046"><ele>276.0</ele><time>2026-04-11T08:53:23.932Z</time></trkpt><trkpt lat="43.7698521" lon="10.9911045"><ele>276.0</ele><time>2026-04-11T08:53:24.93Z</time></trkpt><trkpt lat="43.7699014" lon="10.9911889"><ele>276.0</ele><time>2026-04-11T08:53:25.93Z</time></trkpt><trkpt lat="43.7699598" lon="10.9912528"><ele>276.0</ele><time>2026-04-11T08:53:26.935Z</time></trkpt><trkpt lat="43.7700269" lon="10.9913084"><ele>276.0</ele><time>2026-04-11T08:53:27.936Z</time></trkpt><trkpt lat="43.7701037" lon="10.9913616"><ele>276.0</ele><time>2026-04-11T08:53:28.94Z</time></trkpt><trkpt lat="43.7701727" lon="10.9914186"><ele>276.0</ele><time>2026-04-11T08:53:29.94Z</time></trkpt><trkpt lat="43.7702316" lon="10.9914724"><ele>276.0</ele><time>2026-04-11T08:53:30.949Z</time></trkpt><trkpt lat="43.7702866" lon="10.9915166"><ele>276.0</ele><time>2026-04-11T08:53:31.943Z</time></trkpt><trkpt lat="43.7703524" lon="10.9915507"><ele>276.0</ele><time>2026-04-11T08:53:32.952Z</time></trkpt><trkpt lat="43.7704275" lon="10.9915793"><ele>276.0</ele><time>2026-04-11T08:53:33.94Z</time></trkpt><trkpt lat="43.7705006" lon="10.9916224"><ele>276.0</ele><time>2026-04-11T08:53:34.938Z</time></trkpt><trkpt lat="43.7705616" lon="10.9916705"><ele>274.0</ele><time>2026-04-11T08:53:35.933Z</time></trkpt><trkpt lat="43.7706071" lon="10.9917351"><ele>272.0</ele><time>2026-04-11T08:53:36.943Z</time></trkpt><trkpt lat="43.7706689" lon="10.9918756"><ele>270.0</ele><time>2026-04-11T08:53:38.933Z</time></trkpt><trkpt lat="43.7706888" lon="10.9920392"><ele>268.0</ele><time>2026-04-11T08:53:40.931Z</time></trkpt><trkpt lat="43.7707628" lon="10.9921819"><ele>266.0</ele><time>2026-04-11T08:53:42.93Z</time></trkpt><trkpt lat="43.7708185" lon="10.9922455"><ele>266.0</ele><time>2026-04-11T08:53:43.93Z</time></trkpt><trkpt lat="43.7708718" lon="10.9922989"><ele>266.0</ele><time>2026-04-11T08:53:44.928Z</time></trkpt><trkpt lat="43.7709319" lon="10.9923433"><ele>266.0</ele><time>2026-04-11T08:53:45.929Z</time></trkpt><trkpt lat="43.7710001" lon="10.9923832"><ele>266.0</ele><time>2026-04-11T08:53:46.932Z</time></trkpt><trkpt lat="43.7710753" lon="10.9924144"><ele>266.0</ele><time>2026-04-11T08:53:47.925Z</time></trkpt><trkpt lat="43.7711578" lon="10.9924377"><ele>266.0</ele><time>2026-04-11T08:53:48.927Z</time></trkpt><trkpt lat="43.7712477" lon="10.9924463"><ele>266.0</ele><time>2026-04-11T08:53:49.924Z</time></trkpt><trkpt lat="43.7713398" lon="10.9924687"><ele>266.0</ele><time>2026-04-11T08:53:50.93Z</time></trkpt><trkpt lat="43.7714288" lon="10.9925092"><ele>266.0</ele><time>2026-04-11T08:53:51.928Z</time></trkpt><trkpt lat="43.7715114" lon="10.9925597"><ele>266.0</ele><time>2026-04-11T08:53:52.935Z</time></trkpt><trkpt lat="43.7715895" lon="10.9926151"><ele>266.0</ele><time>2026-04-11T08:53:53.928Z</time></trkpt><trkpt lat="43.7716623" lon="10.9926837"><ele>266.0</ele><time>2026-04-11T08:53:54.926Z</time></trkpt><trkpt lat="43.771717" lon="10.9927588"><ele>266.0</ele><time>2026-04-11T08:53:55.926Z</time></trkpt><trkpt lat="43.7717557" lon="10.9928414"><ele>266.0</ele><time>2026-04-11T08:53:56.925Z</time></trkpt><trkpt lat="43.7717732" lon="10.9929351"><ele>266.0</ele><time>2026-04-11T08:53:57.935Z</time></trkpt><trkpt lat="43.7717641" lon="10.9930298"><ele>266.0</ele><time>2026-04-11T08:53:58.935Z</time></trkpt><trkpt lat="43.7717188" lon="10.9931743"><ele>266.0</ele><time>2026-04-11T08:54:00.947Z</time></trkpt><trkpt lat="43.7716234" lon="10.9932601"><ele>266.0</ele><time>2026-04-11T08:54:02.939Z</time></trkpt><trkpt lat="43.7715193" lon="10.9933007"><ele>266.0</ele><time>2026-04-11T08:54:04.943Z</time></trkpt><trkpt lat="43.7715731" lon="10.9933886"><ele>266.0</ele><time>2026-04-11T08:54:11.941Z</time></trkpt><trkpt lat="43.7716391" lon="10.9934246"><ele>266.0</ele><time>2026-04-11T08:54:12.942Z</time></trkpt><trkpt lat="43.771726" lon="10.9934652"><ele>266.0</ele><time>2026-04-11T08:54:13.932Z</time></trkpt><trkpt lat="43.7718189" lon="10.993506"><ele>268.83333333333337</ele><time>2026-04-11T08:54:14.93Z</time></trkpt><trkpt lat="43.7719069" lon="10.9935331"><ele>271.6666666666667</ele><time>2026-04-11T08:54:15.924Z</time></trkpt><trkpt lat="43.771989" lon="10.9935536"><ele>274.5</ele><time>2026-04-11T08:54:16.925Z</time></trkpt><trkpt lat="43.7720703" lon="10.9935626"><ele>277.3333333333333</ele><time>2026-04-11T08:54:17.925Z</time></trkpt><trkpt lat="43.7721493" lon="10.9935383"><ele>280.16666666666663</ele><time>2026-04-11T08:54:18.925Z</time></trkpt><trkpt lat="43.7722193" lon="10.9934909"><ele>283.0</ele><time>2026-04-11T08:54:19.931Z</time></trkpt><trkpt lat="43.7723008" lon="10.9934081"><ele>283.0</ele><time>2026-04-11T08:54:21.92Z</time></trkpt><trkpt lat="43.7723029" lon="10.9935334"><ele>283.0</ele><time>2026-04-11T08:54:37.935Z</time></trkpt><trkpt lat="43.7722729" lon="10.9936227"><ele>283.0</ele><time>2026-04-11T08:54:38.958Z</time></trkpt><trkpt lat="43.7722116" lon="10.993761"><ele>283.0</ele><time>2026-04-11T08:54:39.933Z</time></trkpt><trkpt lat="43.77211" lon="10.9939104"><ele>283.0</ele><time>2026-04-11T08:54:40.929Z</time></trkpt><trkpt lat="43.7720147" lon="10.9940498"><ele>283.8</ele><time>2026-04-11T08:54:41.926Z</time></trkpt><trkpt lat="43.7719213" lon="10.9941768"><ele>284.6</ele><time>2026-04-11T08:54:42.914Z</time></trkpt><trkpt lat="43.7718271" lon="10.9942994"><ele>285.4</ele><time>2026-04-11T08:54:43.922Z</time></trkpt><trkpt lat="43.7717633" lon="10.99441"><ele>286.2</ele><time>2026-04-11T08:54:44.925Z</time></trkpt><trkpt lat="43.7717274" lon="10.9945117"><ele>287.0</ele><time>2026-04-11T08:54:45.926Z</time></trkpt><trkpt lat="43.7717042" lon="10.9946292"><ele>284.8</ele><time>2026-04-11T08:54:46.93Z</time></trkpt><trkpt lat="43.7716963" lon="10.9947588"><ele>282.6</ele><time>2026-04-11T08:54:47.93Z</time></trkpt><trkpt lat="43.7717053" lon="10.994884"><ele>280.40000000000003</ele><time>2026-04-11T08:54:48.931Z</time></trkpt><trkpt lat="43.7717387" lon="10.9950002"><ele>278.2</ele><time>2026-04-11T08:54:49.939Z</time></trkpt><trkpt lat="43.7717867" lon="10.9951162"><ele>276.0</ele><time>2026-04-11T08:54:50.94Z</time></trkpt><trkpt lat="43.771862" lon="10.9952489"><ele>276.0</ele><time>2026-04-11T08:54:51.935Z</time></trkpt><trkpt lat="43.7719586" lon="10.9953787"><ele>276.0</ele><time>2026-04-11T08:54:52.946Z</time></trkpt><trkpt lat="43.7720598" lon="10.995508"><ele>276.0</ele><time>2026-04-11T08:54:53.933Z</time></trkpt><trkpt lat="43.7721637" lon="10.9956296"><ele>276.0</ele><time>2026-04-11T08:54:54.924Z</time></trkpt><trkpt lat="43.7722718" lon="10.9957356"><ele>276.0</ele><time>2026-04-11T08:54:55.93Z</time></trkpt><trkpt lat="43.7723883" lon="10.9958239"><ele>276.0</ele><time>2026-04-11T08:54:56.934Z</time></trkpt><trkpt lat="43.772501" lon="10.9959035"><ele>276.0</ele><time>2026-04-11T08:54:57.937Z</time></trkpt><trkpt lat="43.7726117" lon="10.9959787"><ele>276.0</ele><time>2026-04-11T08:54:58.939Z</time></trkpt><trkpt lat="43.7727055" lon="10.9960511"><ele>278.8333333333333</ele><time>2026-04-11T08:54:59.922Z</time></trkpt><trkpt lat="43.7727875" lon="10.9961199"><ele>281.6666666666667</ele><time>2026-04-11T08:55:00.94Z</time></trkpt><trkpt lat="43.7728728" lon="10.9961839"><ele>284.5</ele><time>2026-04-11T08:55:01.934Z</time></trkpt><trkpt lat="43.7729502" lon="10.996252"><ele>287.33333333333337</ele><time>2026-04-11T08:55:02.921Z</time></trkpt><trkpt lat="43.7730163" lon="10.9963136"><ele>290.1666666666667</ele><time>2026-04-11T08:55:03.925Z</time></trkpt><trkpt lat="43.7730578" lon="10.9963924"><ele>293.0</ele><time>2026-04-11T08:55:05.936Z</time></trkpt><trkpt lat="43.7729938" lon="10.9964175"><ele>293.0</ele><time>2026-04-11T08:55:07.93Z</time></trkpt><trkpt lat="43.7728795" lon="10.9964227"><ele>293.0</ele><time>2026-04-11T08:55:09.937Z</time></trkpt><trkpt lat="43.7727805" lon="10.9963845"><ele>293.0</ele><time>2026-04-11T08:55:42.951Z</time></trkpt><trkpt lat="43.7726693" lon="10.9963799"><ele>293.0</ele><time>2026-04-11T08:55:44.942Z</time></trkpt><trkpt lat="43.7725726" lon="10.9963814"><ele>293.0</ele><time>2026-04-11T08:55:45.921Z</time></trkpt><trkpt lat="43.7724654" lon="10.9964038"><ele>289.75</ele><time>2026-04-11T08:55:46.931Z</time></trkpt><trkpt lat="43.7723576" lon="10.9964485"><ele>286.5</ele><time>2026-04-11T08:55:47.923Z</time></trkpt><trkpt lat="43.7722303" lon="10.9965004"><ele>283.25</ele><time>2026-04-11T08:55:48.929Z</time></trkpt><trkpt lat="43.7720943" lon="10.9965574"><ele>280.0</ele><time>2026-04-11T08:55:49.919Z</time></trkpt><trkpt lat="43.7719572" lon="10.9966061"><ele>281.25</ele><time>2026-04-11T08:55:50.929Z</time></trkpt><trkpt lat="43.7718291" lon="10.9966405"><ele>282.5</ele><time>2026-04-11T08:55:51.918Z</time></trkpt><trkpt lat="43.7717104" lon="10.9966604"><ele>283.75</ele><time>2026-04-11T08:55:52.925Z</time></trkpt><trkpt lat="43.7715992" lon="10.9966649"><ele>285.0</ele><time>2026-04-11T08:55:53.923Z</time></trkpt><trkpt lat="43.7714832" lon="10.9966725"><ele>285.0</ele><time>2026-04-11T08:55:54.924Z</time></trkpt><trkpt lat="43.7713692" lon="10.9966768"><ele>285.0</ele><time>2026-04-11T08:55:55.92Z</time></trkpt><trkpt lat="43.7712612" lon="10.9966788"><ele>285.0</ele><time>2026-04-11T08:55:56.932Z</time></trkpt><trkpt lat="43.7711692" lon="10.9966676"><ele>285.0</ele><time>2026-04-11T08:55:57.92Z</time></trkpt><trkpt lat="43.7710792" lon="10.9966496"><ele>285.0</ele><time>2026-04-11T08:55:58.921Z</time></trkpt><trkpt lat="43.7710059" lon="10.9966283"><ele>282.0</ele><time>2026-04-11T08:55:59.919Z</time></trkpt><trkpt lat="43.7709333" lon="10.9966279"><ele>279.0</ele><time>2026-04-11T08:56:00.924Z</time></trkpt><trkpt lat="43.7708631" lon="10.9966639"><ele>276.0</ele><time>2026-04-11T08:56:01.923Z</time></trkpt><trkpt lat="43.770799" lon="10.9967318"><ele>273.0</ele><time>2026-04-11T08:56:02.927Z</time></trkpt><trkpt lat="43.7707641" lon="10.9968242"><ele>270.0</ele><time>2026-04-11T08:56:03.92Z</time></trkpt><trkpt lat="43.7707484" lon="10.9969167"><ele>267.0</ele><time>2026-04-11T08:56:04.932Z</time></trkpt><trkpt lat="43.7707466" lon="10.9970349"><ele>267.0</ele><time>2026-04-11T08:56:06.947Z</time></trkpt><trkpt lat="43.7708248" lon="10.9970723"><ele>267.0</ele><time>2026-04-11T08:57:03.951Z</time></trkpt><trkpt lat="43.7709593" lon="10.9971128"><ele>267.0</ele><time>2026-04-11T08:57:05.947Z</time></trkpt><trkpt lat="43.7710475" lon="10.997134"><ele>267.0</ele><time>2026-04-11T08:57:06.937Z</time></trkpt><trkpt lat="43.7711287" lon="10.9971625"><ele>267.0</ele><time>2026-04-11T08:57:07.931Z</time></trkpt><trkpt lat="43.7712095" lon="10.9971987"><ele>270.0</ele><time>2026-04-11T08:57:08.931Z</time></trkpt><trkpt lat="43.7712701" lon="10.9972474"><ele>273.0</ele><time>2026-04-11T08:57:09.933Z</time></trkpt><trkpt lat="43.7713275" lon="10.9972967"><ele>276.0</ele><time>2026-04-11T08:57:10.936Z</time></trkpt><trkpt lat="43.7714254" lon="10.9973786"><ele>279.0</ele><time>2026-04-11T08:57:12.945Z</time></trkpt><trkpt lat="43.771496" lon="10.9973981"><ele>282.0</ele><time>2026-04-11T08:57:14.939Z</time></trkpt><trkpt lat="43.7715513" lon="10.997462"><ele>285.0</ele><time>2026-04-11T08:57:28.966Z</time></trkpt><trkpt lat="43.7716138" lon="10.9974997"><ele>284.5</ele><time>2026-04-11T08:57:32.954Z</time></trkpt><trkpt lat="43.7716893" lon="10.9975183"><ele>284.0</ele><time>2026-04-11T09:00:07.959Z</time></trkpt><trkpt lat="43.771747" lon="10.9975584"><ele>283.5</ele><time>2026-04-11T09:00:09.95Z</time></trkpt><trkpt lat="43.7718053" lon="10.9975959"><ele>283.0</ele><time>2026-04-11T09:00:11.946Z</time></trkpt><trkpt lat="43.7718987" lon="10.9976156"><ele>282.5</ele><time>2026-04-11T09:00:14.951Z</time></trkpt><trkpt lat="43.7719737" lon="10.9976457"><ele>282.0</ele><time>2026-04-11T09:00:16.948Z</time></trkpt><trkpt lat="43.7720594" lon="10.9976713"><ele>285.5</ele><time>2026-04-11T09:00:18.958Z</time></trkpt><trkpt lat="43.7721449" lon="10.9976949"><ele>289.0</ele><time>2026-04-11T09:00:20.947Z</time></trkpt><trkpt lat="43.7722138" lon="10.9977155"><ele>292.5</ele><time>2026-04-11T09:00:23.947Z</time></trkpt><trkpt lat="43.7722796" lon="10.9977649"><ele>296.0</ele><time>2026-04-11T09:00:30.964Z</time></trkpt><trkpt lat="43.7723404" lon="10.9978233"><ele>299.5</ele><time>2026-04-11T09:00:34.953Z</time></trkpt><trkpt lat="43.7724087" lon="10.9978765"><ele>303.0</ele><time>2026-04-11T09:00:38.958Z</time></trkpt><trkpt lat="43.7724743" lon="10.9979213"><ele>303.0</ele><time>2026-04-11T09:00:40.953Z</time></trkpt><trkpt lat="43.7725405" lon="10.9979717"><ele>303.0</ele><time>2026-04-11T09:00:43.957Z</time></trkpt><trkpt lat="43.7726074" lon="10.997983"><ele>303.0</ele><time>2026-04-11T09:00:47.955Z</time></trkpt><trkpt lat="43.7726777" lon="10.998003"><ele>303.0</ele><time>2026-04-11T09:00:55.961Z</time></trkpt><trkpt lat="43.7727491" lon="10.9979921"><ele>303.0</ele><time>2026-04-11T09:00:58.966Z</time></trkpt><trkpt lat="43.772821" lon="10.9979821"><ele>303.0</ele><time>2026-04-11T09:01:14.942Z</time></trkpt><trkpt lat="43.7728928" lon="10.9979892"><ele>303.0</ele><time>2026-04-11T09:01:24.89Z</time></trkpt><trkpt lat="43.7729647" lon="10.9979779"><ele>306.2857142857143</ele><time>2026-04-11T09:01:31.955Z</time></trkpt><trkpt lat="43.7730291" lon="10.9979807"><ele>309.57142857142856</ele><time>2026-04-11T09:01:36.946Z</time></trkpt><trkpt lat="43.7730974" lon="10.9980064"><ele>312.8571428571429</ele><time>2026-04-11T09:02:03.958Z</time></trkpt><trkpt lat="43.7731624" lon="10.9980287"><ele>316.1428571428571</ele><time>2026-04-11T09:02:23.948Z</time></trkpt><trkpt lat="43.773237" lon="10.9980425"><ele>319.4285714285714</ele><time>2026-04-11T09:05:23.947Z</time></trkpt><trkpt lat="43.7733191" lon="10.9980791"><ele>322.7142857142857</ele><time>2026-04-11T09:06:41.944Z</time></trkpt><trkpt lat="43.7733917" lon="10.9981121"><ele>326.0</ele><time>2026-04-11T09:06:45.939Z</time></trkpt><trkpt lat="43.7734671" lon="10.9981844"><ele>329.5</ele><time>2026-04-11T09:06:48.946Z</time></trkpt><trkpt lat="43.7735334" lon="10.9982467"><ele>333.0</ele><time>2026-04-11T09:06:51.939Z</time></trkpt><trkpt lat="43.7736039" lon="10.9983165"><ele>336.5</ele><time>2026-04-11T09:06:54.936Z</time></trkpt><trkpt lat="43.7736603" lon="10.9983783"><ele>340.0</ele><time>2026-04-11T09:07:00.963Z</time></trkpt><trkpt lat="43.7737106" lon="10.9984591"><ele>343.5</ele><time>2026-04-11T09:07:17.949Z</time></trkpt><trkpt lat="43.7737787" lon="10.998532"><ele>347.0</ele><time>2026-04-11T09:07:21.935Z</time></trkpt><trkpt lat="43.7738404" lon="10.9985808"><ele>347.7142857142857</ele><time>2026-04-11T09:07:25.935Z</time></trkpt><trkpt lat="43.773893" lon="10.9986381"><ele>348.4285714285714</ele><time>2026-04-11T09:08:23.953Z</time></trkpt><trkpt lat="43.7739539" lon="10.998687"><ele>349.1428571428571</ele><time>2026-04-11T09:08:26.938Z</time></trkpt><trkpt lat="43.7740151" lon="10.998727"><ele>349.8571428571429</ele><time>2026-04-11T09:08:28.939Z</time></trkpt><trkpt lat="43.7740834" lon="10.9987836"><ele>350.57142857142856</ele><time>2026-04-11T09:08:32.934Z</time></trkpt><trkpt lat="43.7741492" lon="10.9988743"><ele>351.2857142857143</ele><time>2026-04-11T09:08:36.944Z</time></trkpt><trkpt lat="43.7741984" lon="10.9989308"><ele>352.0</ele><time>2026-04-11T09:08:38.946Z</time></trkpt><trkpt lat="43.7742549" lon="10.9989923"><ele>352.0</ele><time>2026-04-11T09:08:40.947Z</time></trkpt><trkpt lat="43.7743308" lon="10.9990545"><ele>352.0</ele><time>2026-04-11T09:08:42.959Z</time></trkpt><trkpt lat="43.7744154" lon="10.9991162"><ele>352.0</ele><time>2026-04-11T09:08:44.95Z</time></trkpt><trkpt lat="43.7745008" lon="10.9991696"><ele>352.0</ele><time>2026-04-11T09:08:46.967Z</time></trkpt><trkpt lat="43.774594" lon="10.9992196"><ele>352.0</ele><time>2026-04-11T09:08:48.936Z</time></trkpt><trkpt lat="43.7746855" lon="10.9992793"><ele>365.0</ele><time>2026-04-11T09:08:50.935Z</time></trkpt><trkpt lat="43.7747571" lon="10.9993646"><ele>365.0</ele><time>2026-04-11T09:08:52.936Z</time></trkpt><trkpt lat="43.774797" lon="10.9994621"><ele>365.0</ele><time>2026-04-11T09:08:54.944Z</time></trkpt><trkpt lat="43.7748007" lon="10.9995635"><ele>365.0</ele><time>2026-04-11T09:08:56.938Z</time></trkpt><trkpt lat="43.7747706" lon="10.9996762"><ele>365.0</ele><time>2026-04-11T09:08:58.949Z</time></trkpt><trkpt lat="43.7747632" lon="10.9997993"><ele>365.0</ele><time>2026-04-11T09:09:00.95Z</time></trkpt></trkseg><trkseg><trkpt lat="43.7793549" lon="11.0202999"><ele>201.99999999999997</ele><time>2026-04-11T09:43:21.148Z</time></trkpt><trkpt lat="43.779314" lon="11.020442"><ele>202.0</ele><time>2026-04-11T09:43:22.18Z</time></trkpt><trkpt lat="43.7793757" lon="11.0205178"><ele>202.0</ele><time>2026-04-11T09:43:58.931Z</time></trkpt><trkpt lat="43.7794625" lon="11.0206392"><ele>202.0</ele><time>2026-04-11T09:44:00.914Z</time></trkpt><trkpt lat="43.7795022" lon="11.0207156"><ele>201.99999999999997</ele><time>2026-04-11T09:44:01.926Z</time></trkpt><trkpt lat="43.7795299" lon="11.0207947"><ele>202.0</ele><time>2026-04-11T09:44:02.926Z</time></trkpt><trkpt lat="43.779541" lon="11.0208981"><ele>201.0</ele><time>2026-04-11T09:44:03.93Z</time></trkpt><trkpt lat="43.7795322" lon="11.0210227"><ele>200.0</ele><time>2026-04-11T09:44:04.929Z</time></trkpt><trkpt lat="43.7795071" lon="11.0211646"><ele>199.0</ele><time>2026-04-11T09:44:05.935Z</time></trkpt><trkpt lat="43.7794887" lon="11.0213203"><ele>198.0</ele><time>2026-04-11T09:44:06.924Z</time></trkpt><trkpt lat="43.77947" lon="11.0214792"><ele>197.0</ele><time>2026-04-11T09:44:07.926Z</time></trkpt><trkpt lat="43.7794606" lon="11.0216238"><ele>198.0</ele><time>2026-04-11T09:44:08.928Z</time></trkpt><trkpt lat="43.7794462" lon="11.0217579"><ele>199.0</ele><time>2026-04-11T09:44:09.929Z</time></trkpt><trkpt lat="43.7794386" lon="11.0218851"><ele>200.0</ele><time>2026-04-11T09:44:10.928Z</time></trkpt><trkpt lat="43.7794493" lon="11.0220115"><ele>201.0</ele><time>2026-04-11T09:44:11.921Z</time></trkpt><trkpt lat="43.7794759" lon="11.0221366"><ele>202.0</ele><time>2026-04-11T09:44:12.913Z</time></trkpt><trkpt lat="43.7795144" lon="11.0222536"><ele>201.99999999999997</ele><time>2026-04-11T09:44:13.904Z</time></trkpt><trkpt lat="43.7795601" lon="11.0223562"><ele>202.0</ele><time>2026-04-11T09:44:14.922Z</time></trkpt><trkpt lat="43.7796092" lon="11.0224514"><ele>202.0</ele><time>2026-04-11T09:44:15.913Z</time></trkpt><trkpt lat="43.7796696" lon="11.0225296"><ele>202.0</ele><time>2026-04-11T09:44:16.916Z</time></trkpt><trkpt lat="43.7797387" lon="11.0226089"><ele>201.99999999999997</ele><time>2026-04-11T09:44:17.919Z</time></trkpt><trkpt lat="43.7798149" lon="11.0226913"><ele>202.0</ele><time>2026-04-11T09:44:18.908Z</time></trkpt><trkpt lat="43.7798972" lon="11.0227761"><ele>201.25</ele><time>2026-04-11T09:44:19.921Z</time></trkpt><trkpt lat="43.7799818" lon="11.0228619"><ele>200.5</ele><time>2026-04-11T09:44:20.914Z</time></trkpt><trkpt lat="43.7800752" lon="11.0229416"><ele>199.75</ele><time>2026-04-11T09:44:21.919Z</time></trkpt><trkpt lat="43.7801747" lon="11.023021"><ele>199.0</ele><time>2026-04-11T09:44:22.913Z</time></trkpt><trkpt lat="43.7802769" lon="11.0231087"><ele>196.79999999999998</ele><time>2026-04-11T09:44:23.943Z</time></trkpt><trkpt lat="43.7803763" lon="11.0231945"><ele>194.6</ele><time>2026-04-11T09:44:24.94Z</time></trkpt><trkpt lat="43.7804799" lon="11.0232702"><ele>192.4</ele><time>2026-04-11T09:44:25.909Z</time></trkpt><trkpt lat="43.780566" lon="11.023354"><ele>190.2</ele><time>2026-04-11T09:44:26.918Z</time></trkpt><trkpt lat="43.7806282" lon="11.0234354"><ele>188.0</ele><time>2026-04-11T09:44:27.93Z</time></trkpt><trkpt lat="43.7806631" lon="11.0235308"><ele>187.33333333333331</ele><time>2026-04-11T09:44:28.919Z</time></trkpt><trkpt lat="43.7806821" lon="11.0236278"><ele>186.66666666666666</ele><time>2026-04-11T09:44:29.932Z</time></trkpt><trkpt lat="43.7806702" lon="11.0237288"><ele>186.0</ele><time>2026-04-11T09:44:30.916Z</time></trkpt><trkpt lat="43.7806314" lon="11.023834"><ele>185.33333333333334</ele><time>2026-04-11T09:44:31.912Z</time></trkpt><trkpt lat="43.7805736" lon="11.0239526"><ele>184.66666666666669</ele><time>2026-04-11T09:44:32.908Z</time></trkpt><trkpt lat="43.7805065" lon="11.0240786"><ele>184.0</ele><time>2026-04-11T09:44:33.909Z</time></trkpt><trkpt lat="43.7804391" lon="11.0242024"><ele>183.79999999999998</ele><time>2026-04-11T09:44:34.918Z</time></trkpt><trkpt lat="43.7803767" lon="11.0243214"><ele>183.6</ele><time>2026-04-11T09:44:35.917Z</time></trkpt><trkpt lat="43.7803226" lon="11.024448"><ele>183.4</ele><time>2026-04-11T09:44:36.916Z</time></trkpt><trkpt lat="43.7802772" lon="11.0245838"><ele>183.2</ele><time>2026-04-11T09:44:37.913Z</time></trkpt><trkpt lat="43.7802434" lon="11.0247279"><ele>183.0</ele><time>2026-04-11T09:44:38.916Z</time></trkpt><trkpt lat="43.7802275" lon="11.0248813"><ele>182.75</ele><time>2026-04-11T09:44:39.919Z</time></trkpt><trkpt lat="43.7802268" lon="11.0250467"><ele>182.5</ele><time>2026-04-11T09:44:40.911Z</time></trkpt><trkpt lat="43.7802301" lon="11.025212"><ele>182.25</ele><time>2026-04-11T09:44:41.924Z</time></trkpt><trkpt lat="43.7802397" lon="11.0253754"><ele>182.0</ele><time>2026-04-11T09:44:42.917Z</time></trkpt><trkpt lat="43.7802446" lon="11.0255264"><ele>182.0</ele><time>2026-04-11T09:44:43.92Z</time></trkpt><trkpt lat="43.78024" lon="11.0256685"><ele>182.0</ele><time>2026-04-11T09:44:44.918Z</time></trkpt><trkpt lat="43.7802318" lon="11.0258109"><ele>182.0</ele><time>2026-04-11T09:44:45.921Z</time></trkpt><trkpt lat="43.7802179" lon="11.0259522"><ele>182.0</ele><time>2026-04-11T09:44:46.913Z</time></trkpt><trkpt lat="43.780199" lon="11.0260885"><ele>182.0</ele><time>2026-04-11T09:44:47.924Z</time></trkpt><trkpt lat="43.780176" lon="11.0262188"><ele>179.2</ele><time>2026-04-11T09:44:48.925Z</time></trkpt><trkpt lat="43.7801481" lon="11.0263446"><ele>176.39999999999998</ele><time>2026-04-11T09:44:49.917Z</time></trkpt><trkpt lat="43.7801163" lon="11.0264741"><ele>173.60000000000002</ele><time>2026-04-11T09:44:50.927Z</time></trkpt><trkpt lat="43.7800815" lon="11.0266035"><ele>170.8</ele><time>2026-04-11T09:44:51.919Z</time></trkpt><trkpt lat="43.7800429" lon="11.0267253"><ele>168.0</ele><time>2026-04-11T09:44:52.919Z</time></trkpt><trkpt lat="43.7800042" lon="11.0268374"><ele>168.0</ele><time>2026-04-11T09:44:53.924Z</time></trkpt><trkpt lat="43.7799658" lon="11.0269407"><ele>168.0</ele><time>2026-04-11T09:44:54.919Z</time></trkpt><trkpt lat="43.7799247" lon="11.0270379"><ele>168.0</ele><time>2026-04-11T09:44:55.971Z</time></trkpt><trkpt lat="43.7798855" lon="11.0271353"><ele>168.0</ele><time>2026-04-11T09:44:56.915Z</time></trkpt><trkpt lat="43.7798441" lon="11.0272399"><ele>168.0</ele><time>2026-04-11T09:44:57.918Z</time></trkpt><trkpt lat="43.7797989" lon="11.0273491"><ele>168.0</ele><time>2026-04-11T09:44:58.921Z</time></trkpt><trkpt lat="43.7797572" lon="11.0274638"><ele>168.0</ele><time>2026-04-11T09:44:59.919Z</time></trkpt><trkpt lat="43.7797168" lon="11.0275843"><ele>168.0</ele><time>2026-04-11T09:45:00.922Z</time></trkpt><trkpt lat="43.7796903" lon="11.0277175"><ele>168.0</ele><time>2026-04-11T09:45:01.909Z</time></trkpt><trkpt lat="43.7796837" lon="11.0278645"><ele>168.0</ele><time>2026-04-11T09:45:02.911Z</time></trkpt><trkpt lat="43.779694" lon="11.0280156"><ele>168.0</ele><time>2026-04-11T09:45:03.905Z</time></trkpt><trkpt lat="43.7797132" lon="11.0281613"><ele>168.0</ele><time>2026-04-11T09:45:04.918Z</time></trkpt><trkpt lat="43.7797294" lon="11.0283023"><ele>168.0</ele><time>2026-04-11T09:45:05.913Z</time></trkpt><trkpt lat="43.7797411" lon="11.0284358"><ele>168.0</ele><time>2026-04-11T09:45:06.928Z</time></trkpt><trkpt lat="43.7797514" lon="11.0285572"><ele>168.0</ele><time>2026-04-11T09:45:07.926Z</time></trkpt><trkpt lat="43.7797596" lon="11.0286594"><ele>168.0</ele><time>2026-04-11T09:45:08.913Z</time></trkpt><trkpt lat="43.7797999" lon="11.0287724"><ele>166.20000000000002</ele><time>2026-04-11T09:45:10.93Z</time></trkpt><trkpt lat="43.7798926" lon="11.0287992"><ele>164.4</ele><time>2026-04-11T09:45:12.918Z</time></trkpt><trkpt lat="43.7799626" lon="11.028796"><ele>162.60000000000002</ele><time>2026-04-11T09:45:14.917Z</time></trkpt><trkpt lat="43.7800422" lon="11.0288121"><ele>160.8</ele><time>2026-04-11T09:45:17.933Z</time></trkpt><trkpt lat="43.7801428" lon="11.0288472"><ele>159.0</ele><time>2026-04-11T09:45:20.919Z</time></trkpt><trkpt lat="43.7802578" lon="11.0288603"><ele>159.0</ele><time>2026-04-11T09:45:22.93Z</time></trkpt><trkpt lat="43.780333" lon="11.0288621"><ele>159.0</ele><time>2026-04-11T09:45:23.928Z</time></trkpt><trkpt lat="43.7804166" lon="11.0288687"><ele>159.0</ele><time>2026-04-11T09:45:24.925Z</time></trkpt><trkpt lat="43.7805047" lon="11.0288705"><ele>159.0</ele><time>2026-04-11T09:45:25.927Z</time></trkpt><trkpt lat="43.7805965" lon="11.0288708"><ele>159.0</ele><time>2026-04-11T09:45:26.923Z</time></trkpt><trkpt lat="43.7806804" lon="11.0288707"><ele>159.0</ele><time>2026-04-11T09:45:27.927Z</time></trkpt><trkpt lat="43.7807612" lon="11.0288701"><ele>159.0</ele><time>2026-04-11T09:45:28.922Z</time></trkpt><trkpt lat="43.7808437" lon="11.0288693"><ele>159.0</ele><time>2026-04-11T09:45:29.916Z</time></trkpt><trkpt lat="43.7809272" lon="11.0288682"><ele>159.0</ele><time>2026-04-11T09:45:30.915Z</time></trkpt><trkpt lat="43.7810152" lon="11.0288664"><ele>159.0</ele><time>2026-04-11T09:45:31.908Z</time></trkpt><trkpt lat="43.7811022" lon="11.0288666"><ele>159.0</ele><time>2026-04-11T09:45:32.908Z</time></trkpt><trkpt lat="43.7811922" lon="11.0288615"><ele>159.0</ele><time>2026-04-11T09:45:33.904Z</time></trkpt><trkpt lat="43.7812822" lon="11.0288559"><ele>157.0</ele><time>2026-04-11T09:45:34.907Z</time></trkpt><trkpt lat="43.781365" lon="11.0288531"><ele>155.0</ele><time>2026-04-11T09:45:35.904Z</time></trkpt><trkpt lat="43.7814384" lon="11.0288514"><ele>153.0</ele><time>2026-04-11T09:45:36.915Z</time></trkpt><trkpt lat="43.7815058" lon="11.0288594"><ele>151.0</ele><time>2026-04-11T09:45:37.902Z</time></trkpt><trkpt lat="43.7815715" lon="11.0288693"><ele>149.0</ele><time>2026-04-11T09:45:38.905Z</time></trkpt><trkpt lat="43.7816311" lon="11.0289409"><ele>147.0</ele><time>2026-04-11T09:45:40.901Z</time></trkpt><trkpt lat="43.7816355" lon="11.0291223"><ele>146.0</ele><time>2026-04-11T09:45:42.916Z</time></trkpt><trkpt lat="43.7816264" lon="11.0292205"><ele>145.0</ele><time>2026-04-11T09:45:43.913Z</time></trkpt><trkpt lat="43.7816537" lon="11.0293556"><ele>144.0</ele><time>2026-04-11T09:45:45.923Z</time></trkpt><trkpt lat="43.7816869" lon="11.0294423"><ele>143.0</ele><time>2026-04-11T09:45:48.925Z</time></trkpt><trkpt lat="43.7817254" lon="11.0295275"><ele>142.0</ele><time>2026-04-11T09:45:58.926Z</time></trkpt><trkpt lat="43.7817251" lon="11.0296574"><ele>141.0</ele><time>2026-04-11T09:46:00.931Z</time></trkpt><trkpt lat="43.7817394" lon="11.0297498"><ele>141.0</ele><time>2026-04-11T09:46:01.928Z</time></trkpt><trkpt lat="43.7817375" lon="11.0298554"><ele>141.0</ele><time>2026-04-11T09:46:02.913Z</time></trkpt><trkpt lat="43.7817435" lon="11.0299552"><ele>141.0</ele><time>2026-04-11T09:46:03.915Z</time></trkpt><trkpt lat="43.7817349" lon="11.0300521"><ele>141.0</ele><time>2026-04-11T09:46:04.915Z</time></trkpt><trkpt lat="43.7817211" lon="11.0301928"><ele>141.0</ele><time>2026-04-11T09:46:06.919Z</time></trkpt><trkpt lat="43.7817209" lon="11.0303202"><ele>141.0</ele><time>2026-04-11T09:46:08.921Z</time></trkpt><trkpt lat="43.7817574" lon="11.0304206"><ele>140.66666666666666</ele><time>2026-04-11T09:46:10.931Z</time></trkpt><trkpt lat="43.7818386" lon="11.0304525"><ele>140.33333333333334</ele><time>2026-04-11T09:46:12.941Z</time></trkpt><trkpt lat="43.7819406" lon="11.0304016"><ele>140.0</ele><time>2026-04-11T09:46:14.928Z</time></trkpt><trkpt lat="43.7819952" lon="11.030353"><ele>139.66666666666669</ele><time>2026-04-11T09:46:15.926Z</time></trkpt><trkpt lat="43.7820984" lon="11.0302582"><ele>139.33333333333334</ele><time>2026-04-11T09:46:17.912Z</time></trkpt><trkpt lat="43.7821501" lon="11.0302072"><ele>139.0</ele><time>2026-04-11T09:46:18.914Z</time></trkpt><trkpt lat="43.7822049" lon="11.0301531"><ele>137.33333333333334</ele><time>2026-04-11T09:46:19.917Z</time></trkpt><trkpt lat="43.7822571" lon="11.0300951"><ele>135.66666666666669</ele><time>2026-04-11T09:46:20.909Z</time></trkpt><trkpt lat="43.7823154" lon="11.0300304"><ele>134.0</ele><time>2026-04-11T09:46:21.931Z</time></trkpt><trkpt lat="43.78238" lon="11.0299618"><ele>132.33333333333334</ele><time>2026-04-11T09:46:22.913Z</time></trkpt><trkpt lat="43.7824554" lon="11.0298893"><ele>130.66666666666666</ele><time>2026-04-11T09:46:23.925Z</time></trkpt><trkpt lat="43.7825327" lon="11.0298187"><ele>129.0</ele><time>2026-04-11T09:46:24.91Z</time></trkpt><trkpt lat="43.7826106" lon="11.0297578"><ele>128.66666666666666</ele><time>2026-04-11T09:46:25.915Z</time></trkpt><trkpt lat="43.782679" lon="11.0297011"><ele>128.33333333333334</ele><time>2026-04-11T09:46:26.92Z</time></trkpt><trkpt lat="43.7827448" lon="11.0296564"><ele>128.0</ele><time>2026-04-11T09:46:27.93Z</time></trkpt><trkpt lat="43.7828046" lon="11.0296276"><ele>127.66666666666667</ele><time>2026-04-11T09:46:28.917Z</time></trkpt><trkpt lat="43.7829314" lon="11.0295839"><ele>127.33333333333334</ele><time>2026-04-11T09:46:30.912Z</time></trkpt><trkpt lat="43.7830006" lon="11.02956"><ele>127.0</ele><time>2026-04-11T09:46:31.91Z</time></trkpt><trkpt lat="43.7830737" lon="11.0295447"><ele>126.0</ele><time>2026-04-11T09:46:32.907Z</time></trkpt><trkpt lat="43.7831483" lon="11.0295487"><ele>125.0</ele><time>2026-04-11T09:46:33.914Z</time></trkpt><trkpt lat="43.7832231" lon="11.0295634"><ele>124.0</ele><time>2026-04-11T09:46:34.911Z</time></trkpt><trkpt lat="43.7832903" lon="11.0295789"><ele>123.0</ele><time>2026-04-11T09:46:35.906Z</time></trkpt><trkpt lat="43.7833561" lon="11.0295951"><ele>122.0</ele><time>2026-04-11T09:46:36.921Z</time></trkpt><trkpt lat="43.7834252" lon="11.0296122"><ele>121.0</ele><time>2026-04-11T09:46:37.917Z</time></trkpt><trkpt lat="43.7834985" lon="11.0296338"><ele>120.0</ele><time>2026-04-11T09:46:38.92Z</time></trkpt><trkpt lat="43.7835734" lon="11.0296464"><ele>117.6</ele><time>2026-04-11T09:46:39.912Z</time></trkpt><trkpt lat="43.7836558" lon="11.0296462"><ele>115.2</ele><time>2026-04-11T09:46:40.908Z</time></trkpt><trkpt lat="43.7837375" lon="11.0296406"><ele>112.80000000000001</ele><time>2026-04-11T09:46:41.919Z</time></trkpt><trkpt lat="43.7838246" lon="11.0296444"><ele>110.4</ele><time>2026-04-11T09:46:42.918Z</time></trkpt><trkpt lat="43.7839223" lon="11.0296694"><ele>108.0</ele><time>2026-04-11T09:46:43.926Z</time></trkpt><trkpt lat="43.7840268" lon="11.0296973"><ele>108.0</ele><time>2026-04-11T09:46:44.927Z</time></trkpt><trkpt lat="43.7841271" lon="11.0297198"><ele>108.00000000000001</ele><time>2026-04-11T09:46:45.926Z</time></trkpt><trkpt lat="43.7842248" lon="11.0297348"><ele>108.00000000000001</ele><time>2026-04-11T09:46:46.922Z</time></trkpt><trkpt lat="43.7843183" lon="11.0297464"><ele>108.0</ele><time>2026-04-11T09:46:47.924Z</time></trkpt><trkpt lat="43.7844133" lon="11.0297596"><ele>108.0</ele><time>2026-04-11T09:46:48.919Z</time></trkpt><trkpt lat="43.7845075" lon="11.0297832"><ele>107.80000000000001</ele><time>2026-04-11T09:46:49.924Z</time></trkpt><trkpt lat="43.7846032" lon="11.0298123"><ele>107.60000000000001</ele><time>2026-04-11T09:46:50.916Z</time></trkpt><trkpt lat="43.7847013" lon="11.0298427"><ele>107.39999999999999</ele><time>2026-04-11T09:46:51.923Z</time></trkpt><trkpt lat="43.78479" lon="11.0298676"><ele>107.19999999999999</ele><time>2026-04-11T09:46:52.922Z</time></trkpt><trkpt lat="43.7848844" lon="11.0298889"><ele>107.0</ele><time>2026-04-11T09:46:53.921Z</time></trkpt><trkpt lat="43.7849773" lon="11.0299095"><ele>106.99999999999999</ele><time>2026-04-11T09:46:54.908Z</time></trkpt><trkpt lat="43.7850726" lon="11.0299379"><ele>107.0</ele><time>2026-04-11T09:46:55.911Z</time></trkpt><trkpt lat="43.7851622" lon="11.0299726"><ele>107.0</ele><time>2026-04-11T09:46:56.913Z</time></trkpt><trkpt lat="43.7852343" lon="11.0300079"><ele>107.0</ele><time>2026-04-11T09:46:57.917Z</time></trkpt><trkpt lat="43.7853051" lon="11.0300344"><ele>106.99999999999999</ele><time>2026-04-11T09:46:58.932Z</time></trkpt><trkpt lat="43.7853877" lon="11.0301216"><ele>107.0</ele><time>2026-04-11T09:47:00.909Z</time></trkpt><trkpt lat="43.785439" lon="11.0301901"><ele>109.83333333333333</ele><time>2026-04-11T09:47:04.925Z</time></trkpt><trkpt lat="43.7855276" lon="11.0302"><ele>112.66666666666666</ele><time>2026-04-11T09:47:06.925Z</time></trkpt><trkpt lat="43.7855963" lon="11.0302252"><ele>115.5</ele><time>2026-04-11T09:47:07.903Z</time></trkpt><trkpt lat="43.7856697" lon="11.0302497"><ele>118.33333333333334</ele><time>2026-04-11T09:47:08.909Z</time></trkpt><trkpt lat="43.7857418" lon="11.0302682"><ele>121.16666666666667</ele><time>2026-04-11T09:47:09.916Z</time></trkpt><trkpt lat="43.7858233" lon="11.0302891"><ele>124.0</ele><time>2026-04-11T09:47:10.913Z</time></trkpt><trkpt lat="43.785911" lon="11.0303076"><ele>124.00000000000001</ele><time>2026-04-11T09:47:11.918Z</time></trkpt><trkpt lat="43.7860012" lon="11.030321"><ele>124.0</ele><time>2026-04-11T09:47:12.907Z</time></trkpt><trkpt lat="43.7860896" lon="11.0303378"><ele>124.0</ele><time>2026-04-11T09:47:13.908Z</time></trkpt><trkpt lat="43.7861718" lon="11.0303588"><ele>124.0</ele><time>2026-04-11T09:47:14.918Z</time></trkpt><trkpt lat="43.7862512" lon="11.0303773"><ele>124.00000000000001</ele><time>2026-04-11T09:47:15.915Z</time></trkpt><trkpt lat="43.7863292" lon="11.0303846"><ele>124.0</ele><time>2026-04-11T09:47:16.909Z</time></trkpt><trkpt lat="43.7864009" lon="11.0303897"><ele>121.00000000000001</ele><time>2026-04-11T09:47:17.913Z</time></trkpt><trkpt lat="43.7864708" lon="11.0303979"><ele>118.0</ele><time>2026-04-11T09:47:18.909Z</time></trkpt><trkpt lat="43.7865641" lon="11.0304"><ele>115.0</ele><time>2026-04-11T09:47:20.919Z</time></trkpt><trkpt lat="43.78663" lon="11.0303624"><ele>112.0</ele><time>2026-04-11T09:47:22.937Z</time></trkpt><trkpt lat="43.7866938" lon="11.0302615"><ele>109.00000000000001</ele><time>2026-04-11T09:47:24.925Z</time></trkpt><trkpt lat="43.7867535" lon="11.0301911"><ele>106.0</ele><time>2026-04-11T09:47:26.927Z</time></trkpt><trkpt lat="43.7868314" lon="11.0302566"><ele>103.00000000000001</ele><time>2026-04-11T09:47:28.929Z</time></trkpt><trkpt lat="43.7868957" lon="11.0303065"><ele>100.0</ele><time>2026-04-11T09:47:29.941Z</time></trkpt><trkpt lat="43.7869521" lon="11.0303536"><ele>97.0</ele><time>2026-04-11T09:47:30.919Z</time></trkpt><trkpt lat="43.7870547" lon="11.0304403"><ele>94.0</ele><time>2026-04-11T09:47:32.911Z</time></trkpt><trkpt lat="43.7871165" lon="11.0305196"><ele>91.0</ele><time>2026-04-11T09:47:34.921Z</time></trkpt><trkpt lat="43.7871847" lon="11.0306004"><ele>88.0</ele><time>2026-04-11T09:47:36.924Z</time></trkpt><trkpt lat="43.7873005" lon="11.030647"><ele>88.0</ele><time>2026-04-11T09:47:38.912Z</time></trkpt><trkpt lat="43.7873865" lon="11.0306626"><ele>88.0</ele><time>2026-04-11T09:47:39.919Z</time></trkpt><trkpt lat="43.7874622" lon="11.0306759"><ele>88.0</ele><time>2026-04-11T09:47:40.927Z</time></trkpt><trkpt lat="43.7873671" lon="11.030612"><ele>88.0</ele><time>2026-04-11T09:50:13.919Z</time></trkpt><trkpt lat="43.7872938" lon="11.0305989"><ele>88.0</ele><time>2026-04-11T09:50:14.913Z</time></trkpt><trkpt lat="43.7872149" lon="11.0306136"><ele>88.0</ele><time>2026-04-11T09:50:15.905Z</time></trkpt><trkpt lat="43.7871405" lon="11.0306634"><ele>88.0</ele><time>2026-04-11T09:50:16.907Z</time></trkpt><trkpt lat="43.7870665" lon="11.0307264"><ele>88.0</ele><time>2026-04-11T09:50:17.905Z</time></trkpt><trkpt lat="43.7870185" lon="11.0307982"><ele>88.0</ele><time>2026-04-11T09:50:18.903Z</time></trkpt><trkpt lat="43.787064" lon="11.0309571"><ele>88.0</ele><time>2026-04-11T09:50:20.901Z</time></trkpt><trkpt lat="43.7871557" lon="11.0310209"><ele>88.0</ele><time>2026-04-11T09:50:21.908Z</time></trkpt><trkpt lat="43.7872682" lon="11.0310494"><ele>89.16666666666666</ele><time>2026-04-11T09:50:22.901Z</time></trkpt><trkpt lat="43.7873653" lon="11.0310583"><ele>90.33333333333333</ele><time>2026-04-11T09:50:23.91Z</time></trkpt><trkpt lat="43.7874529" lon="11.0310799"><ele>91.5</ele><time>2026-04-11T09:50:24.906Z</time></trkpt><trkpt lat="43.7875033" lon="11.0311376"><ele>92.66666666666667</ele><time>2026-04-11T09:50:25.908Z</time></trkpt><trkpt lat="43.7875384" lon="11.0312148"><ele>93.83333333333334</ele><time>2026-04-11T09:50:26.908Z</time></trkpt><trkpt lat="43.7875322" lon="11.0313114"><ele>95.0</ele><time>2026-04-11T09:50:27.906Z</time></trkpt><trkpt lat="43.7874874" lon="11.0313879"><ele>95.0</ele><time>2026-04-11T09:50:28.908Z</time></trkpt><trkpt lat="43.7874202" lon="11.0314317"><ele>95.0</ele><time>2026-04-11T09:50:29.91Z</time></trkpt><trkpt lat="43.7873457" lon="11.0314229"><ele>95.0</ele><time>2026-04-11T09:50:30.91Z</time></trkpt><trkpt lat="43.7872651" lon="11.0313665"><ele>95.0</ele><time>2026-04-11T09:50:31.906Z</time></trkpt><trkpt lat="43.787188" lon="11.0312793"><ele>95.0</ele><time>2026-04-11T09:50:32.901Z</time></trkpt><trkpt lat="43.7871058" lon="11.0311625"><ele>95.0</ele><time>2026-04-11T09:50:33.901Z</time></trkpt><trkpt lat="43.7870241" lon="11.0310511"><ele>95.0</ele><time>2026-04-11T09:50:34.9Z</time></trkpt><trkpt lat="43.7869517" lon="11.0309571"><ele>95.0</ele><time>2026-04-11T09:50:35.923Z</time></trkpt><trkpt lat="43.7868897" lon="11.0309126"><ele>95.0</ele><time>2026-04-11T09:50:36.904Z</time></trkpt><trkpt lat="43.7868241" lon="11.0309221"><ele>95.0</ele><time>2026-04-11T09:50:37.904Z</time></trkpt><trkpt lat="43.7867669" lon="11.0309652"><ele>95.0</ele><time>2026-04-11T09:50:38.915Z</time></trkpt><trkpt lat="43.7867285" lon="11.0310354"><ele>95.0</ele><time>2026-04-11T09:50:39.907Z</time></trkpt><trkpt lat="43.7867797" lon="11.0311384"><ele>95.0</ele><time>2026-04-11T09:50:41.912Z</time></trkpt><trkpt lat="43.7868559" lon="11.0311538"><ele>95.0</ele><time>2026-04-11T09:50:42.915Z</time></trkpt><trkpt lat="43.7869348" lon="11.0311778"><ele>95.0</ele><time>2026-04-11T09:50:43.907Z</time></trkpt><trkpt lat="43.7870333" lon="11.0312143"><ele>95.0</ele><time>2026-04-11T09:50:44.903Z</time></trkpt><trkpt lat="43.7871315" lon="11.0312684"><ele>95.0</ele><time>2026-04-11T09:50:45.902Z</time></trkpt><trkpt lat="43.7872193" lon="11.031333"><ele>95.0</ele><time>2026-04-11T09:50:46.902Z</time></trkpt><trkpt lat="43.7872776" lon="11.0314026"><ele>95.0</ele><time>2026-04-11T09:50:47.906Z</time></trkpt><trkpt lat="43.787296" lon="11.0315403"><ele>95.0</ele><time>2026-04-11T09:50:49.909Z</time></trkpt><trkpt lat="43.7871908" lon="11.0315939"><ele>95.0</ele><time>2026-04-11T09:50:51.918Z</time></trkpt><trkpt lat="43.7871195" lon="11.0315395"><ele>95.0</ele><time>2026-04-11T09:50:52.904Z</time></trkpt><trkpt lat="43.7870577" lon="11.0314338"><ele>95.0</ele><time>2026-04-11T09:50:53.911Z</time></trkpt><trkpt lat="43.7870107" lon="11.0313054"><ele>95.0</ele><time>2026-04-11T09:50:54.902Z</time></trkpt><trkpt lat="43.7869713" lon="11.0312055"><ele>95.0</ele><time>2026-04-11T09:50:55.902Z</time></trkpt><trkpt lat="43.7868778" lon="11.0311263"><ele>95.0</ele><time>2026-04-11T09:50:57.905Z</time></trkpt><trkpt lat="43.7867877" lon="11.0312037"><ele>95.0</ele><time>2026-04-11T09:50:59.905Z</time></trkpt><trkpt lat="43.7867842" lon="11.0313096"><ele>95.0</ele><time>2026-04-11T09:51:00.905Z</time></trkpt><trkpt lat="43.7868304" lon="11.031438"><ele>95.0</ele><time>2026-04-11T09:51:01.901Z</time></trkpt><trkpt lat="43.786932" lon="11.0315833"><ele>95.0</ele><time>2026-04-11T09:51:02.895Z</time></trkpt><trkpt lat="43.7870348" lon="11.0317252"><ele>96.2</ele><time>2026-04-11T09:51:03.897Z</time></trkpt><trkpt lat="43.7871299" lon="11.0318442"><ele>97.4</ele><time>2026-04-11T09:51:04.898Z</time></trkpt><trkpt lat="43.7872012" lon="11.0319158"><ele>98.6</ele><time>2026-04-11T09:51:05.902Z</time></trkpt><trkpt lat="43.7872959" lon="11.0319251"><ele>99.8</ele><time>2026-04-11T09:51:07.896Z</time></trkpt><trkpt lat="43.7873447" lon="11.0317811"><ele>101.0</ele><time>2026-04-11T09:51:09.909Z</time></trkpt><trkpt lat="43.7873553" lon="11.0316812"><ele>99.99999999999999</ele><time>2026-04-11T09:51:10.896Z</time></trkpt><trkpt lat="43.7873735" lon="11.0315935"><ele>99.0</ele><time>2026-04-11T09:51:11.898Z</time></trkpt><trkpt lat="43.7874109" lon="11.0315188"><ele>98.0</ele><time>2026-04-11T09:51:12.897Z</time></trkpt><trkpt lat="43.7874725" lon="11.0314469"><ele>97.0</ele><time>2026-04-11T09:51:13.895Z</time></trkpt><trkpt lat="43.7875377" lon="11.0313942"><ele>96.0</ele><time>2026-04-11T09:51:14.9Z</time></trkpt><trkpt lat="43.7876025" lon="11.0313837"><ele>95.0</ele><time>2026-04-11T09:51:15.897Z</time></trkpt><trkpt lat="43.7876914" lon="11.031457"><ele>95.0</ele><time>2026-04-11T09:51:17.895Z</time></trkpt><trkpt lat="43.7876339" lon="11.0315517"><ele>95.0</ele><time>2026-04-11T09:51:19.905Z</time></trkpt><trkpt lat="43.7875438" lon="11.0315993"><ele>95.0</ele><time>2026-04-11T09:51:20.898Z</time></trkpt><trkpt lat="43.7874451" lon="11.0316618"><ele>95.0</ele><time>2026-04-11T09:51:21.896Z</time></trkpt><trkpt lat="43.7873583" lon="11.0317416"><ele>95.0</ele><time>2026-04-11T09:51:22.896Z</time></trkpt><trkpt lat="43.7873022" lon="11.0318219"><ele>96.0</ele><time>2026-04-11T09:51:23.9Z</time></trkpt><trkpt lat="43.7872815" lon="11.0319067"><ele>97.0</ele><time>2026-04-11T09:51:24.897Z</time></trkpt><trkpt lat="43.7873278" lon="11.0320181"><ele>98.0</ele><time>2026-04-11T09:51:26.897Z</time></trkpt><trkpt lat="43.7874159" lon="11.0319772"><ele>99.0</ele><time>2026-04-11T09:51:28.909Z</time></trkpt><trkpt lat="43.7874687" lon="11.0318767"><ele>99.99999999999999</ele><time>2026-04-11T09:51:29.898Z</time></trkpt><trkpt lat="43.7875147" lon="11.0317704"><ele>101.0</ele><time>2026-04-11T09:51:30.897Z</time></trkpt><trkpt lat="43.7875607" lon="11.0316795"><ele>100.99999999999999</ele><time>2026-04-11T09:51:31.9Z</time></trkpt><trkpt lat="43.7876149" lon="11.0316318"><ele>101.0</ele><time>2026-04-11T09:51:32.901Z</time></trkpt><trkpt lat="43.7877062" lon="11.0316961"><ele>101.0</ele><time>2026-04-11T09:51:34.906Z</time></trkpt><trkpt lat="43.7877029" lon="11.0318281"><ele>101.0</ele><time>2026-04-11T09:51:36.913Z</time></trkpt><trkpt lat="43.7876393" lon="11.0318836"><ele>100.99999999999999</ele><time>2026-04-11T09:51:37.928Z</time></trkpt><trkpt lat="43.7875492" lon="11.0319409"><ele>101.0</ele><time>2026-04-11T09:51:38.896Z</time></trkpt><trkpt lat="43.7874579" lon="11.0319982"><ele>101.0</ele><time>2026-04-11T09:51:39.894Z</time></trkpt><trkpt lat="43.7873877" lon="11.0320593"><ele>101.0</ele><time>2026-04-11T09:51:40.893Z</time></trkpt><trkpt lat="43.7873404" lon="11.0321172"><ele>101.0</ele><time>2026-04-11T09:51:41.892Z</time></trkpt><trkpt lat="43.7873053" lon="11.0322485"><ele>101.0</ele><time>2026-04-11T09:51:43.891Z</time></trkpt><trkpt lat="43.7874061" lon="11.0321994"><ele>101.0</ele><time>2026-04-11T09:51:46.903Z</time></trkpt><trkpt lat="43.7874814" lon="11.0321088"><ele>101.0</ele><time>2026-04-11T09:51:47.893Z</time></trkpt><trkpt lat="43.7875636" lon="11.0320049"><ele>101.0</ele><time>2026-04-11T09:51:48.901Z</time></trkpt><trkpt lat="43.7876481" lon="11.0318943"><ele>101.0</ele><time>2026-04-11T09:51:49.897Z</time></trkpt><trkpt lat="43.7877206" lon="11.0317856"><ele>101.0</ele><time>2026-04-11T09:51:50.896Z</time></trkpt><trkpt lat="43.7877766" lon="11.0316779"><ele>101.0</ele><time>2026-04-11T09:51:51.899Z</time></trkpt><trkpt lat="43.7878036" lon="11.0315694"><ele>99.8</ele><time>2026-04-11T09:51:52.899Z</time></trkpt><trkpt lat="43.7877935" lon="11.031454"><ele>98.6</ele><time>2026-04-11T09:51:53.91Z</time></trkpt><trkpt lat="43.7877449" lon="11.0313333"><ele>97.4</ele><time>2026-04-11T09:51:54.898Z</time></trkpt><trkpt lat="43.7876773" lon="11.031219"><ele>96.2</ele><time>2026-04-11T09:51:55.897Z</time></trkpt><trkpt lat="43.787621" lon="11.0311198"><ele>95.0</ele><time>2026-04-11T09:51:56.898Z</time></trkpt><trkpt lat="43.7875622" lon="11.0310429"><ele>95.0</ele><time>2026-04-11T09:51:57.899Z</time></trkpt><trkpt lat="43.787508" lon="11.0309811"><ele>95.0</ele><time>2026-04-11T09:51:58.9Z</time></trkpt><trkpt lat="43.7874774" lon="11.0308662"><ele>95.0</ele><time>2026-04-11T09:52:00.898Z</time></trkpt><trkpt lat="43.7875169" lon="11.0307509"><ele>95.0</ele><time>2026-04-11T09:52:02.913Z</time></trkpt><trkpt lat="43.7875194" lon="11.0306444"><ele>95.0</ele><time>2026-04-11T09:52:04.91Z</time></trkpt><trkpt lat="43.787459" lon="11.0305629"><ele>95.0</ele><time>2026-04-11T09:52:06.911Z</time></trkpt><trkpt lat="43.7877926" lon="11.0330442"><ele>95.4</ele><time>2026-04-11T10:01:03.926Z</time></trkpt><trkpt lat="43.7878548" lon="11.0331476"><ele>95.8</ele><time>2026-04-11T10:01:10.931Z</time></trkpt><trkpt lat="43.7878868" lon="11.033252"><ele>96.19999999999999</ele><time>2026-04-11T10:01:12.937Z</time></trkpt><trkpt lat="43.7879129" lon="11.0333692"><ele>96.6</ele><time>2026-04-11T10:01:14.929Z</time></trkpt><trkpt lat="43.7879413" lon="11.0334992"><ele>97.0</ele><time>2026-04-11T10:01:16.937Z</time></trkpt><trkpt lat="43.7879754" lon="11.0336487"><ele>97.0</ele><time>2026-04-11T10:01:18.918Z</time></trkpt><trkpt lat="43.7879906" lon="11.0337443"><ele>97.0</ele><time>2026-04-11T10:01:19.915Z</time></trkpt><trkpt lat="43.7879943" lon="11.0338469"><ele>97.0</ele><time>2026-04-11T10:01:20.92Z</time></trkpt><trkpt lat="43.7879653" lon="11.0340597"><ele>97.0</ele><time>2026-04-11T10:01:22.921Z</time></trkpt><trkpt lat="43.7879257" lon="11.0341617"><ele>97.0</ele><time>2026-04-11T10:01:23.916Z</time></trkpt><trkpt lat="43.7878752" lon="11.0342584"><ele>96.50000000000001</ele><time>2026-04-11T10:01:24.905Z</time></trkpt><trkpt lat="43.7878319" lon="11.0343443"><ele>96.0</ele><time>2026-04-11T10:01:25.915Z</time></trkpt><trkpt lat="43.7877821" lon="11.0344634"><ele>95.5</ele><time>2026-04-11T10:01:27.915Z</time></trkpt><trkpt lat="43.7878361" lon="11.0344024"><ele>95.0</ele><time>2026-04-11T10:01:32.914Z</time></trkpt><trkpt lat="43.7878987" lon="11.0343668"><ele>94.5</ele><time>2026-04-11T10:01:33.918Z</time></trkpt><trkpt lat="43.787967" lon="11.0343284"><ele>94.0</ele><time>2026-04-11T10:01:34.925Z</time></trkpt><trkpt lat="43.7880442" lon="11.0342891"><ele>94.0</ele><time>2026-04-11T10:01:35.902Z</time></trkpt><trkpt lat="43.7881282" lon="11.034248"><ele>94.0</ele><time>2026-04-11T10:01:36.918Z</time></trkpt><trkpt lat="43.788206" lon="11.0341981"><ele>94.0</ele><time>2026-04-11T10:01:37.909Z</time></trkpt><trkpt lat="43.7882766" lon="11.0341565"><ele>94.0</ele><time>2026-04-11T10:01:38.906Z</time></trkpt><trkpt lat="43.7883398" lon="11.0341173"><ele>94.0</ele><time>2026-04-11T10:01:39.896Z</time></trkpt><trkpt lat="43.7884329" lon="11.034055"><ele>94.0</ele><time>2026-04-11T10:01:41.917Z</time></trkpt><trkpt lat="43.7886369" lon="11.0342647"><ele>90.16666666666666</ele><time>2026-04-11T10:02:10.912Z</time></trkpt><trkpt lat="43.7887003" lon="11.0342907"><ele>86.33333333333333</ele><time>2026-04-11T10:02:13.91Z</time></trkpt><trkpt lat="43.7887698" lon="11.0343654"><ele>82.5</ele><time>2026-04-11T10:02:16.927Z</time></trkpt><trkpt lat="43.7888182" lon="11.0344307"><ele>78.66666666666667</ele><time>2026-04-11T10:02:18.917Z</time></trkpt><trkpt lat="43.7888827" lon="11.0345067"><ele>74.83333333333334</ele><time>2026-04-11T10:02:20.921Z</time></trkpt><trkpt lat="43.7889101" lon="11.0346147"><ele>71.0</ele><time>2026-04-11T10:02:23.924Z</time></trkpt><trkpt lat="43.7888773" lon="11.0347285"><ele>71.0</ele><time>2026-04-11T10:02:26.931Z</time></trkpt><trkpt lat="43.7888126" lon="11.0349015"><ele>71.0</ele><time>2026-04-11T10:02:38.93Z</time></trkpt><trkpt lat="43.7888495" lon="11.0349939"><ele>71.0</ele><time>2026-04-11T10:02:41.929Z</time></trkpt><trkpt lat="43.7889168" lon="11.0350101"><ele>71.0</ele><time>2026-04-11T10:03:05.935Z</time></trkpt><trkpt lat="43.7890953" lon="11.0350266"><ele>71.0</ele><time>2026-04-11T10:03:09.923Z</time></trkpt><trkpt lat="43.7891863" lon="11.0349981"><ele>71.0</ele><time>2026-04-11T10:03:11.916Z</time></trkpt><trkpt lat="43.7892807" lon="11.0349406"><ele>71.0</ele><time>2026-04-11T10:03:13.917Z</time></trkpt><trkpt lat="43.7893687" lon="11.0349262"><ele>71.0</ele><time>2026-04-11T10:03:15.921Z</time></trkpt><trkpt lat="43.789451" lon="11.0349529"><ele>71.0</ele><time>2026-04-11T10:03:17.929Z</time></trkpt><trkpt lat="43.7895239" lon="11.0350195"><ele>69.39999999999999</ele><time>2026-04-11T10:03:19.934Z</time></trkpt><trkpt lat="43.7895779" lon="11.0351154"><ele>67.8</ele><time>2026-04-11T10:03:21.928Z</time></trkpt><trkpt lat="43.7896063" lon="11.0352294"><ele>66.19999999999999</ele><time>2026-04-11T10:03:23.937Z</time></trkpt><trkpt lat="43.7896408" lon="11.0353546"><ele>64.6</ele><time>2026-04-11T10:03:25.93Z</time></trkpt><trkpt lat="43.789703" lon="11.0354842"><ele>63.0</ele><time>2026-04-11T10:03:27.915Z</time></trkpt><trkpt lat="43.7897725" lon="11.0356403"><ele>63.0</ele><time>2026-04-11T10:03:29.94Z</time></trkpt><trkpt lat="43.7898352" lon="11.035791"><ele>63.0</ele><time>2026-04-11T10:03:31.922Z</time></trkpt><trkpt lat="43.7898709" lon="11.0358678"><ele>63.0</ele><time>2026-04-11T10:03:32.92Z</time></trkpt><trkpt lat="43.78991" lon="11.0359473"><ele>63.0</ele><time>2026-04-11T10:03:33.921Z</time></trkpt><trkpt lat="43.789957" lon="11.0360344"><ele>63.0</ele><time>2026-04-11T10:03:34.907Z</time></trkpt><trkpt lat="43.7899985" lon="11.0361184"><ele>63.0</ele><time>2026-04-11T10:03:35.914Z</time></trkpt><trkpt lat="43.7900385" lon="11.0361988"><ele>72.0</ele><time>2026-04-11T10:03:36.915Z</time></trkpt><trkpt lat="43.7900781" lon="11.0362701"><ele>72.0</ele><time>2026-04-11T10:03:37.917Z</time></trkpt><trkpt lat="43.7901431" lon="11.0363659"><ele>72.0</ele><time>2026-04-11T10:03:39.919Z</time></trkpt><trkpt lat="43.7902063" lon="11.0363594"><ele>77.0</ele><time>2026-04-11T10:03:42.923Z</time></trkpt><trkpt lat="43.7902562" lon="11.0364257"><ele>77.0</ele><time>2026-04-11T10:03:44.926Z</time></trkpt><trkpt lat="43.7903062" lon="11.036531"><ele>77.0</ele><time>2026-04-11T10:03:46.926Z</time></trkpt><trkpt lat="43.790368" lon="11.0365585"><ele>77.0</ele><time>2026-04-11T10:03:48.932Z</time></trkpt></trkseg><trkseg><trkpt lat="43.7927007" lon="11.0585874"><ele>66.66666666666666</ele><time>2026-04-11T10:07:58.995Z</time></trkpt><trkpt lat="43.7926173" lon="11.0585744"><ele>66.33333333333333</ele><time>2026-04-11T10:08:01.05Z</time></trkpt><trkpt lat="43.792581" lon="11.0586475"><ele>66.0</ele><time>2026-04-11T10:08:04.047Z</time></trkpt><trkpt lat="43.7925648" lon="11.0587534"><ele>65.66666666666667</ele><time>2026-04-11T10:08:06.057Z</time></trkpt><trkpt lat="43.7925535" lon="11.058878"><ele>65.33333333333334</ele><time>2026-04-11T10:08:08.063Z</time></trkpt><trkpt lat="43.7925568" lon="11.0590189"><ele>65.0</ele><time>2026-04-11T10:08:10.047Z</time></trkpt><trkpt lat="43.792595" lon="11.0591315"><ele>65.0</ele><time>2026-04-11T10:08:11.054Z</time></trkpt><trkpt lat="43.7926483" lon="11.0592609"><ele>65.0</ele><time>2026-04-11T10:08:12.034Z</time></trkpt><trkpt lat="43.7927058" lon="11.059391"><ele>65.0</ele><time>2026-04-11T10:08:13.034Z</time></trkpt><trkpt lat="43.7927679" lon="11.0595203"><ele>65.0</ele><time>2026-04-11T10:08:14.038Z</time></trkpt><trkpt lat="43.7928258" lon="11.0596537"><ele>65.0</ele><time>2026-04-11T10:08:15.03Z</time></trkpt><trkpt lat="43.7928849" lon="11.0597941"><ele>65.0</ele><time>2026-04-11T10:08:16.031Z</time></trkpt><trkpt lat="43.7929378" lon="11.0599401"><ele>65.0</ele><time>2026-04-11T10:08:17.026Z</time></trkpt><trkpt lat="43.79299" lon="11.0600869"><ele>65.0</ele><time>2026-04-11T10:08:18.023Z</time></trkpt><trkpt lat="43.793032" lon="11.0602423"><ele>65.0</ele><time>2026-04-11T10:08:19.043Z</time></trkpt><trkpt lat="43.793085" lon="11.0604045"><ele>65.25</ele><time>2026-04-11T10:08:20.033Z</time></trkpt><trkpt lat="43.7931332" lon="11.0605555"><ele>65.5</ele><time>2026-04-11T10:08:20.957Z</time></trkpt><trkpt lat="43.7931857" lon="11.0607022"><ele>65.75</ele><time>2026-04-11T10:08:21.9Z</time></trkpt><trkpt lat="43.7932477" lon="11.0608421"><ele>66.0</ele><time>2026-04-11T10:08:22.913Z</time></trkpt><trkpt lat="43.7933069" lon="11.0609805"><ele>65.2</ele><time>2026-04-11T10:08:23.909Z</time></trkpt><trkpt lat="43.7933513" lon="11.0611147"><ele>64.39999999999999</ele><time>2026-04-11T10:08:24.899Z</time></trkpt><trkpt lat="43.793387" lon="11.0612485"><ele>63.6</ele><time>2026-04-11T10:08:25.897Z</time></trkpt><trkpt lat="43.7934145" lon="11.0613805"><ele>62.8</ele><time>2026-04-11T10:08:26.9Z</time></trkpt><trkpt lat="43.7934359" lon="11.0615071"><ele>62.0</ele><time>2026-04-11T10:08:27.909Z</time></trkpt><trkpt lat="43.7934478" lon="11.0616209"><ele>61.66666666666667</ele><time>2026-04-11T10:08:28.905Z</time></trkpt><trkpt lat="43.7934467" lon="11.0617213"><ele>61.333333333333336</ele><time>2026-04-11T10:08:29.914Z</time></trkpt><trkpt lat="43.793438" lon="11.06183"><ele>61.0</ele><time>2026-04-11T10:08:30.9Z</time></trkpt><trkpt lat="43.7934224" lon="11.0619527"><ele>60.66666666666667</ele><time>2026-04-11T10:08:31.895Z</time></trkpt><trkpt lat="43.7934126" lon="11.0620795"><ele>60.333333333333336</ele><time>2026-04-11T10:08:32.911Z</time></trkpt><trkpt lat="43.7934127" lon="11.0622076"><ele>60.0</ele><time>2026-04-11T10:08:33.904Z</time></trkpt><trkpt lat="43.7934331" lon="11.0623342"><ele>60.0</ele><time>2026-04-11T10:08:34.892Z</time></trkpt><trkpt lat="43.7934649" lon="11.0624595"><ele>60.0</ele><time>2026-04-11T10:08:35.897Z</time></trkpt><trkpt lat="43.7935132" lon="11.0625752"><ele>60.0</ele><time>2026-04-11T10:08:36.895Z</time></trkpt><trkpt lat="43.7935752" lon="11.0626897"><ele>60.0</ele><time>2026-04-11T10:08:37.911Z</time></trkpt><trkpt lat="43.793628" lon="11.0628164"><ele>60.0</ele><time>2026-04-11T10:08:38.909Z</time></trkpt><trkpt lat="43.7936706" lon="11.0629481"><ele>60.0</ele><time>2026-04-11T10:08:39.9Z</time></trkpt><trkpt lat="43.7936986" lon="11.0630895"><ele>60.0</ele><time>2026-04-11T10:08:40.893Z</time></trkpt><trkpt lat="43.7937065" lon="11.063224"><ele>60.0</ele><time>2026-04-11T10:08:41.919Z</time></trkpt><trkpt lat="43.7936934" lon="11.063353"><ele>60.0</ele><time>2026-04-11T10:08:42.89Z</time></trkpt><trkpt lat="43.7936556" lon="11.0634859"><ele>60.0</ele><time>2026-04-11T10:08:43.899Z</time></trkpt><trkpt lat="43.7935979" lon="11.0636172"><ele>60.0</ele><time>2026-04-11T10:08:44.89Z</time></trkpt><trkpt lat="43.7935219" lon="11.0637498"><ele>60.0</ele><time>2026-04-11T10:08:45.882Z</time></trkpt><trkpt lat="43.7934307" lon="11.0638928"><ele>60.0</ele><time>2026-04-11T10:08:46.886Z</time></trkpt><trkpt lat="43.7933131" lon="11.0640516"><ele>60.0</ele><time>2026-04-11T10:08:47.885Z</time></trkpt><trkpt lat="43.7931803" lon="11.0641974"><ele>59.66666666666667</ele><time>2026-04-11T10:08:48.882Z</time></trkpt><trkpt lat="43.7930357" lon="11.0643096"><ele>59.333333333333336</ele><time>2026-04-11T10:08:49.882Z</time></trkpt><trkpt lat="43.7928686" lon="11.0644372"><ele>59.0</ele><time>2026-04-11T10:08:50.882Z</time></trkpt><trkpt lat="43.7927188" lon="11.0645439"><ele>59.0</ele><time>2026-04-11T10:08:51.892Z</time></trkpt><trkpt lat="43.7926002" lon="11.064652"><ele>59.0</ele><time>2026-04-11T10:08:52.904Z</time></trkpt><trkpt lat="43.7925101" lon="11.0647816"><ele>59.0</ele><time>2026-04-11T10:08:53.901Z</time></trkpt><trkpt lat="43.7924474" lon="11.0649187"><ele>59.0</ele><time>2026-04-11T10:08:54.898Z</time></trkpt><trkpt lat="43.7924087" lon="11.0650797"><ele>59.0</ele><time>2026-04-11T10:08:55.894Z</time></trkpt><trkpt lat="43.7923855" lon="11.0652678"><ele>59.0</ele><time>2026-04-11T10:08:56.897Z</time></trkpt><trkpt lat="43.7923549" lon="11.065461"><ele>59.0</ele><time>2026-04-11T10:08:57.897Z</time></trkpt><trkpt lat="43.7923326" lon="11.0656535"><ele>59.0</ele><time>2026-04-11T10:08:58.907Z</time></trkpt><trkpt lat="43.7923012" lon="11.0658412"><ele>58.75</ele><time>2026-04-11T10:08:59.904Z</time></trkpt><trkpt lat="43.7922723" lon="11.0660296"><ele>58.5</ele><time>2026-04-11T10:09:00.911Z</time></trkpt><trkpt lat="43.7922402" lon="11.0662154"><ele>58.25</ele><time>2026-04-11T10:09:01.905Z</time></trkpt><trkpt lat="43.792211" lon="11.0663891"><ele>58.0</ele><time>2026-04-11T10:09:02.896Z</time></trkpt><trkpt lat="43.7921971" lon="11.0665483"><ele>57.666666666666664</ele><time>2026-04-11T10:09:03.898Z</time></trkpt><trkpt lat="43.792192" lon="11.0666826"><ele>57.33333333333333</ele><time>2026-04-11T10:09:04.901Z</time></trkpt><trkpt lat="43.7922043" lon="11.0668056"><ele>57.0</ele><time>2026-04-11T10:09:05.901Z</time></trkpt><trkpt lat="43.7922265" lon="11.0669168"><ele>56.66666666666667</ele><time>2026-04-11T10:09:06.906Z</time></trkpt><trkpt lat="43.7922515" lon="11.0670281"><ele>56.333333333333336</ele><time>2026-04-11T10:09:07.902Z</time></trkpt><trkpt lat="43.7922717" lon="11.0671475"><ele>56.0</ele><time>2026-04-11T10:09:08.907Z</time></trkpt><trkpt lat="43.7922825" lon="11.0672637"><ele>56.0</ele><time>2026-04-11T10:09:09.899Z</time></trkpt><trkpt lat="43.7922847" lon="11.0673712"><ele>55.99999999999999</ele><time>2026-04-11T10:09:10.898Z</time></trkpt><trkpt lat="43.7922472" lon="11.0674525"><ele>55.99999999999999</ele><time>2026-04-11T10:09:11.899Z</time></trkpt><trkpt lat="43.792162" lon="11.067526"><ele>56.0</ele><time>2026-04-11T10:09:12.915Z</time></trkpt><trkpt lat="43.7920667" lon="11.0676204"><ele>56.0</ele><time>2026-04-11T10:09:13.902Z</time></trkpt><trkpt lat="43.7919884" lon="11.0677502"><ele>55.5</ele><time>2026-04-11T10:09:14.9Z</time></trkpt><trkpt lat="43.7919346" lon="11.0679221"><ele>55.0</ele><time>2026-04-11T10:09:15.9Z</time></trkpt><trkpt lat="43.7918906" lon="11.0681135"><ele>54.5</ele><time>2026-04-11T10:09:16.901Z</time></trkpt><trkpt lat="43.7918517" lon="11.0683092"><ele>54.0</ele><time>2026-04-11T10:09:17.897Z</time></trkpt><trkpt lat="43.7918174" lon="11.0685278"><ele>52.33333333333333</ele><time>2026-04-11T10:09:18.898Z</time></trkpt><trkpt lat="43.791778" lon="11.0687564"><ele>50.666666666666664</ele><time>2026-04-11T10:09:19.902Z</time></trkpt><trkpt lat="43.7917393" lon="11.0689842"><ele>49.0</ele><time>2026-04-11T10:09:20.897Z</time></trkpt><trkpt lat="43.7916919" lon="11.069222"><ele>48.33333333333333</ele><time>2026-04-11T10:09:21.895Z</time></trkpt><trkpt lat="43.791655" lon="11.069463"><ele>47.666666666666664</ele><time>2026-04-11T10:09:22.896Z</time></trkpt><trkpt lat="43.7916301" lon="11.0697084"><ele>47.0</ele><time>2026-04-11T10:09:23.89Z</time></trkpt><trkpt lat="43.7916155" lon="11.0699541"><ele>45.666666666666664</ele><time>2026-04-11T10:09:24.896Z</time></trkpt><trkpt lat="43.7916009" lon="11.0702026"><ele>44.333333333333336</ele><time>2026-04-11T10:09:25.901Z</time></trkpt><trkpt lat="43.7915914" lon="11.0704481"><ele>43.0</ele><time>2026-04-11T10:09:26.896Z</time></trkpt><trkpt lat="43.7915867" lon="11.0706881"><ele>42.333333333333336</ele><time>2026-04-11T10:09:27.903Z</time></trkpt><trkpt lat="43.7915698" lon="11.0708988"><ele>41.666666666666664</ele><time>2026-04-11T10:09:28.899Z</time></trkpt><trkpt lat="43.7915546" lon="11.0711009"><ele>41.0</ele><time>2026-04-11T10:09:29.897Z</time></trkpt><trkpt lat="43.7915383" lon="11.0713102"><ele>41.0</ele><time>2026-04-11T10:09:30.897Z</time></trkpt><trkpt lat="43.791518" lon="11.0715223"><ele>41.0</ele><time>2026-04-11T10:09:31.897Z</time></trkpt><trkpt lat="43.7915228" lon="11.0717174"><ele>41.0</ele><time>2026-04-11T10:09:32.898Z</time></trkpt><trkpt lat="43.7915355" lon="11.0719226"><ele>41.0</ele><time>2026-04-11T10:09:33.9Z</time></trkpt><trkpt lat="43.791562" lon="11.0721241"><ele>40.0</ele><time>2026-04-11T10:09:34.897Z</time></trkpt><trkpt lat="43.7916001" lon="11.0723267"><ele>39.0</ele><time>2026-04-11T10:09:35.908Z</time></trkpt><trkpt lat="43.7916502" lon="11.0725231"><ele>38.0</ele><time>2026-04-11T10:09:36.897Z</time></trkpt><trkpt lat="43.7917143" lon="11.0727137"><ele>38.0</ele><time>2026-04-11T10:09:37.9Z</time></trkpt><trkpt lat="43.7917865" lon="11.0728947"><ele>38.0</ele><time>2026-04-11T10:09:38.9Z</time></trkpt><trkpt lat="43.7918551" lon="11.07308"><ele>38.0</ele><time>2026-04-11T10:09:39.897Z</time></trkpt><trkpt lat="43.7919195" lon="11.0732564"><ele>38.0</ele><time>2026-04-11T10:09:40.893Z</time></trkpt><trkpt lat="43.7919656" lon="11.0734478"><ele>38.0</ele><time>2026-04-11T10:09:41.887Z</time></trkpt><trkpt lat="43.7919874" lon="11.0736484"><ele>38.0</ele><time>2026-04-11T10:09:42.894Z</time></trkpt><trkpt lat="43.7919906" lon="11.0738625"><ele>38.0</ele><time>2026-04-11T10:09:43.903Z</time></trkpt><trkpt lat="43.7919948" lon="11.074075"><ele>37.0</ele><time>2026-04-11T10:09:44.895Z</time></trkpt><trkpt lat="43.792001" lon="11.0742897"><ele>36.0</ele><time>2026-04-11T10:09:45.902Z</time></trkpt><trkpt lat="43.7919938" lon="11.0745079"><ele>35.0</ele><time>2026-04-11T10:09:46.886Z</time></trkpt><trkpt lat="43.7919909" lon="11.0747229"><ele>34.666666666666664</ele><time>2026-04-11T10:09:47.888Z</time></trkpt><trkpt lat="43.7919712" lon="11.074939"><ele>34.333333333333336</ele><time>2026-04-11T10:09:48.893Z</time></trkpt><trkpt lat="43.7919494" lon="11.0751489"><ele>34.0</ele><time>2026-04-11T10:09:49.884Z</time></trkpt><trkpt lat="43.7919168" lon="11.0753636"><ele>34.0</ele><time>2026-04-11T10:09:50.898Z</time></trkpt><trkpt lat="43.7918863" lon="11.0755738"><ele>34.0</ele><time>2026-04-11T10:09:51.89Z</time></trkpt><trkpt lat="43.7918574" lon="11.0757871"><ele>34.0</ele><time>2026-04-11T10:09:52.893Z</time></trkpt><trkpt lat="43.7918223" lon="11.0759974"><ele>34.0</ele><time>2026-04-11T10:09:53.893Z</time></trkpt><trkpt lat="43.7917736" lon="11.0761998"><ele>34.0</ele><time>2026-04-11T10:09:54.892Z</time></trkpt><trkpt lat="43.7917385" lon="11.0764086"><ele>34.0</ele><time>2026-04-11T10:09:55.894Z</time></trkpt><trkpt lat="43.7916962" lon="11.0766189"><ele>33.66666666666667</ele><time>2026-04-11T10:09:56.897Z</time></trkpt><trkpt lat="43.7916582" lon="11.0768319"><ele>33.333333333333336</ele><time>2026-04-11T10:09:57.906Z</time></trkpt><trkpt lat="43.7916258" lon="11.0770494"><ele>33.0</ele><time>2026-04-11T10:09:58.895Z</time></trkpt><trkpt lat="43.7916032" lon="11.0772743"><ele>33.0</ele><time>2026-04-11T10:09:59.897Z</time></trkpt><trkpt lat="43.7915792" lon="11.077498"><ele>33.0</ele><time>2026-04-11T10:10:00.892Z</time></trkpt><trkpt lat="43.7915554" lon="11.0777259"><ele>33.0</ele><time>2026-04-11T10:10:01.891Z</time></trkpt><trkpt lat="43.791534" lon="11.077957"><ele>33.0</ele><time>2026-04-11T10:10:02.892Z</time></trkpt><trkpt lat="43.7915219" lon="11.0781804"><ele>33.0</ele><time>2026-04-11T10:10:03.887Z</time></trkpt><trkpt lat="43.7915205" lon="11.0783912"><ele>33.0</ele><time>2026-04-11T10:10:04.894Z</time></trkpt><trkpt lat="43.7915202" lon="11.0786018"><ele>33.25</ele><time>2026-04-11T10:10:05.89Z</time></trkpt><trkpt lat="43.7915248" lon="11.078808"><ele>33.5</ele><time>2026-04-11T10:10:06.889Z</time></trkpt><trkpt lat="43.7915394" lon="11.0790078"><ele>33.75</ele><time>2026-04-11T10:10:07.893Z</time></trkpt><trkpt lat="43.791546" lon="11.0792173"><ele>34.0</ele><time>2026-04-11T10:10:08.89Z</time></trkpt><trkpt lat="43.7915542" lon="11.0794179"><ele>34.0</ele><time>2026-04-11T10:10:09.894Z</time></trkpt><trkpt lat="43.7915565" lon="11.0796152"><ele>34.0</ele><time>2026-04-11T10:10:10.89Z</time></trkpt><trkpt lat="43.7915582" lon="11.0798125"><ele>34.0</ele><time>2026-04-11T10:10:11.899Z</time></trkpt><trkpt lat="43.7915627" lon="11.0800157"><ele>34.0</ele><time>2026-04-11T10:10:12.89Z</time></trkpt><trkpt lat="43.7915671" lon="11.0802197"><ele>34.5</ele><time>2026-04-11T10:10:13.89Z</time></trkpt><trkpt lat="43.7915844" lon="11.0804164"><ele>35.0</ele><time>2026-04-11T10:10:14.901Z</time></trkpt><trkpt lat="43.7916134" lon="11.0805997"><ele>35.5</ele><time>2026-04-11T10:10:15.892Z</time></trkpt><trkpt lat="43.7916588" lon="11.0807539"><ele>36.0</ele><time>2026-04-11T10:10:16.89Z</time></trkpt><trkpt lat="43.7917183" lon="11.0808797"><ele>36.0</ele><time>2026-04-11T10:10:17.887Z</time></trkpt><trkpt lat="43.7917704" lon="11.0809985"><ele>36.0</ele><time>2026-04-11T10:10:18.89Z</time></trkpt><trkpt lat="43.7918297" lon="11.08109"><ele>36.0</ele><time>2026-04-11T10:10:19.888Z</time></trkpt><trkpt lat="43.7918819" lon="11.0811776"><ele>36.0</ele><time>2026-04-11T10:10:20.881Z</time></trkpt><trkpt lat="43.791934" lon="11.0812498"><ele>36.0</ele><time>2026-04-11T10:10:21.883Z</time></trkpt><trkpt lat="43.79204" lon="11.0814191"><ele>36.0</ele><time>2026-04-11T10:10:26.219Z</time></trkpt><trkpt lat="43.7921143" lon="11.0815144"><ele>36.0</ele><time>2026-04-11T10:10:28.608Z</time></trkpt><trkpt lat="43.7922217" lon="11.0814972"><ele>36.0</ele><time>2026-04-11T10:10:29.618Z</time></trkpt><trkpt lat="43.7923121" lon="11.0814685"><ele>36.0</ele><time>2026-04-11T10:10:30.62Z</time></trkpt><trkpt lat="43.792399" lon="11.0814419"><ele>36.0</ele><time>2026-04-11T10:10:31.623Z</time></trkpt><trkpt lat="43.7924788" lon="11.0814174"><ele>36.0</ele><time>2026-04-11T10:10:32.624Z</time></trkpt><trkpt lat="43.7925576" lon="11.0813916"><ele>36.0</ele><time>2026-04-11T10:10:33.634Z</time></trkpt><trkpt lat="43.7926339" lon="11.081375"><ele>36.0</ele><time>2026-04-11T10:10:34.637Z</time></trkpt><trkpt lat="43.7927083" lon="11.0813679"><ele>36.0</ele><time>2026-04-11T10:10:35.64Z</time></trkpt><trkpt lat="43.7927772" lon="11.0813876"><ele>36.0</ele><time>2026-04-11T10:10:36.646Z</time></trkpt><trkpt lat="43.7928267" lon="11.0814757"><ele>36.0</ele><time>2026-04-11T10:10:37.627Z</time></trkpt><trkpt lat="43.7928797" lon="11.0815942"><ele>36.0</ele><time>2026-04-11T10:10:38.634Z</time></trkpt><trkpt lat="43.7929483" lon="11.0817204"><ele>36.0</ele><time>2026-04-11T10:10:39.639Z</time></trkpt><trkpt lat="43.7930242" lon="11.0818574"><ele>36.0</ele><time>2026-04-11T10:10:40.631Z</time></trkpt><trkpt lat="43.7931085" lon="11.0820026"><ele>36.0</ele><time>2026-04-11T10:10:41.64Z</time></trkpt><trkpt lat="43.7931895" lon="11.0821369"><ele>36.0</ele><time>2026-04-11T10:10:42.636Z</time></trkpt><trkpt lat="43.7932633" lon="11.0822614"><ele>36.0</ele><time>2026-04-11T10:10:43.635Z</time></trkpt><trkpt lat="43.7933332" lon="11.0823674"><ele>36.0</ele><time>2026-04-11T10:10:44.631Z</time></trkpt><trkpt lat="43.7933943" lon="11.0824523"><ele>36.0</ele><time>2026-04-11T10:10:45.634Z</time></trkpt><trkpt lat="43.7934555" lon="11.0825159"><ele>36.0</ele><time>2026-04-11T10:10:46.633Z</time></trkpt><trkpt lat="43.7935128" lon="11.0825618"><ele>36.0</ele><time>2026-04-11T10:10:47.628Z</time></trkpt><trkpt lat="43.7935814" lon="11.0826489"><ele>35.5</ele><time>2026-04-11T10:10:49.643Z</time></trkpt><trkpt lat="43.7935573" lon="11.0827886"><ele>35.0</ele><time>2026-04-11T10:10:51.425Z</time></trkpt><trkpt lat="43.793537" lon="11.0828838"><ele>34.5</ele><time>2026-04-11T10:10:52.328Z</time></trkpt><trkpt lat="43.7935158" lon="11.0829927"><ele>34.0</ele><time>2026-04-11T10:10:53.234Z</time></trkpt><trkpt lat="43.7934558" lon="11.0832784"><ele>34.0</ele><time>2026-04-11T10:10:55.018Z</time></trkpt><trkpt lat="43.7933708" lon="11.0836078"><ele>34.0</ele><time>2026-04-11T10:10:56.907Z</time></trkpt><trkpt lat="43.7933264" lon="11.0837798"><ele>34.0</ele><time>2026-04-11T10:10:57.933Z</time></trkpt><trkpt lat="43.7932961" lon="11.0839347"><ele>34.0</ele><time>2026-04-11T10:10:58.9Z</time></trkpt><trkpt lat="43.7932811" lon="11.0840737"><ele>34.0</ele><time>2026-04-11T10:10:59.906Z</time></trkpt><trkpt lat="43.7932904" lon="11.0841843"><ele>34.0</ele><time>2026-04-11T10:11:00.901Z</time></trkpt><trkpt lat="43.7933185" lon="11.0842822"><ele>34.0</ele><time>2026-04-11T10:11:01.896Z</time></trkpt><trkpt lat="43.793374" lon="11.0843602"><ele>34.0</ele><time>2026-04-11T10:11:02.894Z</time></trkpt><trkpt lat="43.7934612" lon="11.0844381"><ele>34.0</ele><time>2026-04-11T10:11:03.903Z</time></trkpt><trkpt lat="43.7935727" lon="11.0845179"><ele>34.0</ele><time>2026-04-11T10:11:04.904Z</time></trkpt><trkpt lat="43.7936918" lon="11.0846121"><ele>34.0</ele><time>2026-04-11T10:11:05.901Z</time></trkpt><trkpt lat="43.7938133" lon="11.084715"><ele>34.0</ele><time>2026-04-11T10:11:06.903Z</time></trkpt><trkpt lat="43.7939301" lon="11.084822"><ele>34.0</ele><time>2026-04-11T10:11:07.899Z</time></trkpt><trkpt lat="43.7940466" lon="11.0849386"><ele>33.75</ele><time>2026-04-11T10:11:08.904Z</time></trkpt><trkpt lat="43.7941583" lon="11.0850517"><ele>33.5</ele><time>2026-04-11T10:11:09.903Z</time></trkpt><trkpt lat="43.7942655" lon="11.085163"><ele>33.25</ele><time>2026-04-11T10:11:10.9Z</time></trkpt><trkpt lat="43.7943728" lon="11.0852689"><ele>33.0</ele><time>2026-04-11T10:11:11.903Z</time></trkpt><trkpt lat="43.7944795" lon="11.0853747"><ele>33.0</ele><time>2026-04-11T10:11:12.893Z</time></trkpt><trkpt lat="43.7945771" lon="11.0854825"><ele>33.0</ele><time>2026-04-11T10:11:13.914Z</time></trkpt><trkpt lat="43.7946636" lon="11.0855927"><ele>33.0</ele><time>2026-04-11T10:11:14.909Z</time></trkpt><trkpt lat="43.794748" lon="11.085712"><ele>33.0</ele><time>2026-04-11T10:11:15.913Z</time></trkpt><trkpt lat="43.7948329" lon="11.0858282"><ele>33.0</ele><time>2026-04-11T10:11:16.9Z</time></trkpt><trkpt lat="43.7949132" lon="11.0859442"><ele>33.0</ele><time>2026-04-11T10:11:17.917Z</time></trkpt><trkpt lat="43.7949949" lon="11.0860557"><ele>33.0</ele><time>2026-04-11T10:11:18.908Z</time></trkpt><trkpt lat="43.795081" lon="11.0861631"><ele>33.0</ele><time>2026-04-11T10:11:19.905Z</time></trkpt><trkpt lat="43.7951717" lon="11.0862624"><ele>33.0</ele><time>2026-04-11T10:11:20.903Z</time></trkpt><trkpt lat="43.7952581" lon="11.0863669"><ele>33.0</ele><time>2026-04-11T10:11:21.903Z</time></trkpt><trkpt lat="43.7953454" lon="11.0864749"><ele>33.0</ele><time>2026-04-11T10:11:22.905Z</time></trkpt><trkpt lat="43.7954327" lon="11.0865888"><ele>33.0</ele><time>2026-04-11T10:11:23.901Z</time></trkpt><trkpt lat="43.7955205" lon="11.0867104"><ele>33.0</ele><time>2026-04-11T10:11:24.904Z</time></trkpt><trkpt lat="43.7956011" lon="11.0868342"><ele>33.0</ele><time>2026-04-11T10:11:25.914Z</time></trkpt><trkpt lat="43.7956752" lon="11.0869439"><ele>33.0</ele><time>2026-04-11T10:11:26.906Z</time></trkpt><trkpt lat="43.7957457" lon="11.087034"><ele>33.0</ele><time>2026-04-11T10:11:27.928Z</time></trkpt><trkpt lat="43.7957995" lon="11.0871002"><ele>33.0</ele><time>2026-04-11T10:11:28.919Z</time></trkpt><trkpt lat="43.7958641" lon="11.0871429"><ele>33.0</ele><time>2026-04-11T10:11:30.899Z</time></trkpt><trkpt lat="43.7958731" lon="11.0870421"><ele>33.0</ele><time>2026-04-11T10:11:35.91Z</time></trkpt><trkpt lat="43.7958924" lon="11.0869523"><ele>33.0</ele><time>2026-04-11T10:11:58.919Z</time></trkpt><trkpt lat="43.7959794" lon="11.0868194"><ele>33.0</ele><time>2026-04-11T10:12:00.914Z</time></trkpt><trkpt lat="43.7960413" lon="11.0867332"><ele>33.0</ele><time>2026-04-11T10:12:01.899Z</time></trkpt><trkpt lat="43.7961123" lon="11.0866341"><ele>33.0</ele><time>2026-04-11T10:12:02.901Z</time></trkpt><trkpt lat="43.7961852" lon="11.0865249"><ele>33.0</ele><time>2026-04-11T10:12:03.896Z</time></trkpt><trkpt lat="43.7962661" lon="11.0864096"><ele>33.0</ele><time>2026-04-11T10:12:04.895Z</time></trkpt><trkpt lat="43.7963496" lon="11.0862972"><ele>33.0</ele><time>2026-04-11T10:12:05.895Z</time></trkpt><trkpt lat="43.796441" lon="11.0861915"><ele>33.0</ele><time>2026-04-11T10:12:06.9Z</time></trkpt><trkpt lat="43.7965347" lon="11.0861001"><ele>33.0</ele><time>2026-04-11T10:12:07.895Z</time></trkpt><trkpt lat="43.7966289" lon="11.086014"><ele>33.0</ele><time>2026-04-11T10:12:08.912Z</time></trkpt><trkpt lat="43.7967239" lon="11.085929"><ele>33.0</ele><time>2026-04-11T10:12:09.9Z</time></trkpt><trkpt lat="43.7968106" lon="11.0858497"><ele>33.0</ele><time>2026-04-11T10:12:10.897Z</time></trkpt><trkpt lat="43.7968857" lon="11.0857755"><ele>32.833333333333336</ele><time>2026-04-11T10:12:11.898Z</time></trkpt><trkpt lat="43.7969452" lon="11.0857201"><ele>32.666666666666664</ele><time>2026-04-11T10:12:12.895Z</time></trkpt><trkpt lat="43.7970055" lon="11.0856866"><ele>32.5</ele><time>2026-04-11T10:12:13.898Z</time></trkpt><trkpt lat="43.7970751" lon="11.0857564"><ele>32.33333333333333</ele><time>2026-04-11T10:12:15.9Z</time></trkpt><trkpt lat="43.7971065" lon="11.0858468"><ele>32.166666666666664</ele><time>2026-04-11T10:12:16.897Z</time></trkpt><trkpt lat="43.7971316" lon="11.0859586"><ele>32.0</ele><time>2026-04-11T10:12:17.898Z</time></trkpt><trkpt lat="43.797145" lon="11.0860795"><ele>32.0</ele><time>2026-04-11T10:12:18.897Z</time></trkpt><trkpt lat="43.7971456" lon="11.0862125"><ele>32.0</ele><time>2026-04-11T10:12:19.902Z</time></trkpt><trkpt lat="43.7971427" lon="11.0863607"><ele>32.0</ele><time>2026-04-11T10:12:20.896Z</time></trkpt><trkpt lat="43.7971383" lon="11.0865267"><ele>32.0</ele><time>2026-04-11T10:12:21.899Z</time></trkpt><trkpt lat="43.7971237" lon="11.0867056"><ele>32.25</ele><time>2026-04-11T10:12:22.897Z</time></trkpt><trkpt lat="43.7971135" lon="11.0868888"><ele>32.5</ele><time>2026-04-11T10:12:23.9Z</time></trkpt><trkpt lat="43.7971005" lon="11.0870781"><ele>32.75</ele><time>2026-04-11T10:12:24.897Z</time></trkpt><trkpt lat="43.7970897" lon="11.0872573"><ele>33.0</ele><time>2026-04-11T10:12:25.903Z</time></trkpt><trkpt lat="43.7970794" lon="11.0874215"><ele>32.8</ele><time>2026-04-11T10:12:26.896Z</time></trkpt><trkpt lat="43.7970743" lon="11.0875835"><ele>32.599999999999994</ele><time>2026-04-11T10:12:27.904Z</time></trkpt><trkpt lat="43.7970703" lon="11.0877353"><ele>32.400000000000006</ele><time>2026-04-11T10:12:28.899Z</time></trkpt><trkpt lat="43.7970725" lon="11.087871"><ele>32.2</ele><time>2026-04-11T10:12:29.893Z</time></trkpt><trkpt lat="43.7970798" lon="11.0879968"><ele>32.0</ele><time>2026-04-11T10:12:30.913Z</time></trkpt><trkpt lat="43.7971049" lon="11.0881247"><ele>32.0</ele><time>2026-04-11T10:12:31.896Z</time></trkpt><trkpt lat="43.7971431" lon="11.088268"><ele>32.0</ele><time>2026-04-11T10:12:32.904Z</time></trkpt><trkpt lat="43.7971913" lon="11.088428"><ele>32.0</ele><time>2026-04-11T10:12:33.896Z</time></trkpt><trkpt lat="43.7972382" lon="11.0885791"><ele>32.0</ele><time>2026-04-11T10:12:34.899Z</time></trkpt><trkpt lat="43.7972752" lon="11.0887164"><ele>31.999999999999996</ele><time>2026-04-11T10:12:35.895Z</time></trkpt><trkpt lat="43.7973057" lon="11.0888475"><ele>32.0</ele><time>2026-04-11T10:12:36.894Z</time></trkpt><trkpt lat="43.7973331" lon="11.0889686"><ele>32.0</ele><time>2026-04-11T10:12:37.906Z</time></trkpt><trkpt lat="43.7973689" lon="11.0890723"><ele>32.0</ele><time>2026-04-11T10:12:38.899Z</time></trkpt><trkpt lat="43.7974233" lon="11.0891623"><ele>31.999999999999996</ele><time>2026-04-11T10:12:39.893Z</time></trkpt><trkpt lat="43.7974892" lon="11.0892386"><ele>32.0</ele><time>2026-04-11T10:12:40.899Z</time></trkpt><trkpt lat="43.7975661" lon="11.0892963"><ele>32.0</ele><time>2026-04-11T10:12:41.893Z</time></trkpt><trkpt lat="43.7976493" lon="11.0893474"><ele>32.0</ele><time>2026-04-11T10:12:42.903Z</time></trkpt><trkpt lat="43.7977563" lon="11.0893863"><ele>32.0</ele><time>2026-04-11T10:12:43.898Z</time></trkpt><trkpt lat="43.7978747" lon="11.0894236"><ele>32.0</ele><time>2026-04-11T10:12:44.897Z</time></trkpt><trkpt lat="43.7980001" lon="11.089459"><ele>32.0</ele><time>2026-04-11T10:12:45.896Z</time></trkpt><trkpt lat="43.7981324" lon="11.0894994"><ele>32.0</ele><time>2026-04-11T10:12:46.899Z</time></trkpt><trkpt lat="43.7982644" lon="11.0895355"><ele>32.0</ele><time>2026-04-11T10:12:47.896Z</time></trkpt><trkpt lat="43.7983947" lon="11.0895718"><ele>32.0</ele><time>2026-04-11T10:12:48.902Z</time></trkpt><trkpt lat="43.7985237" lon="11.0896084"><ele>31.75</ele><time>2026-04-11T10:12:49.897Z</time></trkpt><trkpt lat="43.7986477" lon="11.0896539"><ele>31.5</ele><time>2026-04-11T10:12:50.897Z</time></trkpt><trkpt lat="43.7987677" lon="11.0897005"><ele>31.25</ele><time>2026-04-11T10:12:51.899Z</time></trkpt><trkpt lat="43.7988872" lon="11.0897504"><ele>31.0</ele><time>2026-04-11T10:12:52.895Z</time></trkpt><trkpt lat="43.7990044" lon="11.0898008"><ele>31.0</ele><time>2026-04-11T10:12:53.899Z</time></trkpt><trkpt lat="43.7991202" lon="11.089851"><ele>31.0</ele><time>2026-04-11T10:12:54.899Z</time></trkpt><trkpt lat="43.7992359" lon="11.0899007"><ele>31.0</ele><time>2026-04-11T10:12:55.902Z</time></trkpt><trkpt lat="43.7993581" lon="11.0899492"><ele>31.0</ele><time>2026-04-11T10:12:56.902Z</time></trkpt><trkpt lat="43.7994821" lon="11.0899966"><ele>31.5</ele><time>2026-04-11T10:12:57.902Z</time></trkpt><trkpt lat="43.7996026" lon="11.090039"><ele>32.0</ele><time>2026-04-11T10:12:58.901Z</time></trkpt><trkpt lat="43.7997186" lon="11.0900724"><ele>32.5</ele><time>2026-04-11T10:12:59.902Z</time></trkpt><trkpt lat="43.7998359" lon="11.0901017"><ele>33.0</ele><time>2026-04-11T10:13:00.904Z</time></trkpt><trkpt lat="43.7999524" lon="11.0901296"><ele>33.0</ele><time>2026-04-11T10:13:01.917Z</time></trkpt><trkpt lat="43.8000625" lon="11.090151"><ele>33.0</ele><time>2026-04-11T10:13:02.904Z</time></trkpt><trkpt lat="43.8001674" lon="11.0901745"><ele>33.0</ele><time>2026-04-11T10:13:03.901Z</time></trkpt><trkpt lat="43.8002707" lon="11.0901959"><ele>33.0</ele><time>2026-04-11T10:13:04.9Z</time></trkpt><trkpt lat="43.8003755" lon="11.0902146"><ele>33.0</ele><time>2026-04-11T10:13:05.901Z</time></trkpt><trkpt lat="43.8004743" lon="11.0902365"><ele>32.8</ele><time>2026-04-11T10:13:06.898Z</time></trkpt><trkpt lat="43.8005738" lon="11.0902661"><ele>32.599999999999994</ele><time>2026-04-11T10:13:07.903Z</time></trkpt><trkpt lat="43.8006731" lon="11.0902949"><ele>32.400000000000006</ele><time>2026-04-11T10:13:08.899Z</time></trkpt><trkpt lat="43.8007808" lon="11.0903213"><ele>32.2</ele><time>2026-04-11T10:13:09.9Z</time></trkpt><trkpt lat="43.8008867" lon="11.0903527"><ele>32.0</ele><time>2026-04-11T10:13:10.898Z</time></trkpt><trkpt lat="43.8010007" lon="11.0903859"><ele>32.0</ele><time>2026-04-11T10:13:11.899Z</time></trkpt><trkpt lat="43.8011178" lon="11.0904147"><ele>32.0</ele><time>2026-04-11T10:13:12.898Z</time></trkpt><trkpt lat="43.8012403" lon="11.0904406"><ele>32.0</ele><time>2026-04-11T10:13:13.9Z</time></trkpt><trkpt lat="43.8013555" lon="11.0904658"><ele>32.0</ele><time>2026-04-11T10:13:14.894Z</time></trkpt><trkpt lat="43.8014607" lon="11.0904901"><ele>32.0</ele><time>2026-04-11T10:13:15.895Z</time></trkpt><trkpt lat="43.8015575" lon="11.0905102"><ele>32.0</ele><time>2026-04-11T10:13:16.903Z</time></trkpt><trkpt lat="43.8016517" lon="11.0905373"><ele>32.0</ele><time>2026-04-11T10:13:17.898Z</time></trkpt><trkpt lat="43.8017533" lon="11.0905767"><ele>32.0</ele><time>2026-04-11T10:13:18.902Z</time></trkpt><trkpt lat="43.8018556" lon="11.0906253"><ele>32.0</ele><time>2026-04-11T10:13:19.899Z</time></trkpt><trkpt lat="43.8019437" lon="11.090672"><ele>31.999999999999996</ele><time>2026-04-11T10:13:20.9Z</time></trkpt><trkpt lat="43.802014" lon="11.0907163"><ele>32.0</ele><time>2026-04-11T10:13:21.897Z</time></trkpt><trkpt lat="43.8021268" lon="11.0907949"><ele>32.0</ele><time>2026-04-11T10:13:23.898Z</time></trkpt><trkpt lat="43.802192" lon="11.0908441"><ele>32.0</ele><time>2026-04-11T10:13:24.893Z</time></trkpt><trkpt lat="43.8022623" lon="11.0909042"><ele>31.999999999999996</ele><time>2026-04-11T10:13:25.9Z</time></trkpt><trkpt lat="43.802336" lon="11.0909633"><ele>32.0</ele><time>2026-04-11T10:13:26.894Z</time></trkpt><trkpt lat="43.8024176" lon="11.0910239"><ele>32.2</ele><time>2026-04-11T10:13:27.9Z</time></trkpt><trkpt lat="43.8025021" lon="11.0910937"><ele>32.400000000000006</ele><time>2026-04-11T10:13:28.895Z</time></trkpt><trkpt lat="43.8025915" lon="11.0911658"><ele>32.599999999999994</ele><time>2026-04-11T10:13:29.9Z</time></trkpt><trkpt lat="43.8026791" lon="11.091245"><ele>32.8</ele><time>2026-04-11T10:13:30.905Z</time></trkpt><trkpt lat="43.802769" lon="11.0913285"><ele>33.0</ele><time>2026-04-11T10:13:31.901Z</time></trkpt><trkpt lat="43.8028632" lon="11.0914151"><ele>33.0</ele><time>2026-04-11T10:13:32.93Z</time></trkpt><trkpt lat="43.8029586" lon="11.0915036"><ele>33.0</ele><time>2026-04-11T10:13:33.896Z</time></trkpt><trkpt lat="43.8030515" lon="11.0915928"><ele>33.0</ele><time>2026-04-11T10:13:34.901Z</time></trkpt><trkpt lat="43.8031511" lon="11.0916821"><ele>33.0</ele><time>2026-04-11T10:13:35.899Z</time></trkpt><trkpt lat="43.8032517" lon="11.0917668"><ele>33.0</ele><time>2026-04-11T10:13:36.903Z</time></trkpt><trkpt lat="43.8033504" lon="11.091854"><ele>33.0</ele><time>2026-04-11T10:13:37.904Z</time></trkpt><trkpt lat="43.8034502" lon="11.0919411"><ele>33.0</ele><time>2026-04-11T10:13:38.905Z</time></trkpt><trkpt lat="43.8035448" lon="11.0920265"><ele>33.0</ele><time>2026-04-11T10:13:39.903Z</time></trkpt><trkpt lat="43.8036498" lon="11.0921145"><ele>32.75</ele><time>2026-04-11T10:13:40.897Z</time></trkpt><trkpt lat="43.8037551" lon="11.0922113"><ele>32.5</ele><time>2026-04-11T10:13:41.902Z</time></trkpt><trkpt lat="43.8038621" lon="11.0923111"><ele>32.25</ele><time>2026-04-11T10:13:42.899Z</time></trkpt><trkpt lat="43.8039729" lon="11.0924139"><ele>32.0</ele><time>2026-04-11T10:13:43.894Z</time></trkpt><trkpt lat="43.8040888" lon="11.0925152"><ele>32.0</ele><time>2026-04-11T10:13:44.9Z</time></trkpt><trkpt lat="43.8042031" lon="11.0926134"><ele>32.0</ele><time>2026-04-11T10:13:45.899Z</time></trkpt><trkpt lat="43.8043201" lon="11.0927167"><ele>32.0</ele><time>2026-04-11T10:13:46.9Z</time></trkpt><trkpt lat="43.8044388" lon="11.0928287"><ele>32.0</ele><time>2026-04-11T10:13:47.901Z</time></trkpt><trkpt lat="43.8045588" lon="11.092938"><ele>32.0</ele><time>2026-04-11T10:13:48.902Z</time></trkpt><trkpt lat="43.804677" lon="11.0930456"><ele>32.0</ele><time>2026-04-11T10:13:49.905Z</time></trkpt><trkpt lat="43.8047955" lon="11.0931539"><ele>32.0</ele><time>2026-04-11T10:13:50.9Z</time></trkpt><trkpt lat="43.8049219" lon="11.093262"><ele>32.0</ele><time>2026-04-11T10:13:51.897Z</time></trkpt><trkpt lat="43.8050506" lon="11.0933681"><ele>31.5</ele><time>2026-04-11T10:13:52.907Z</time></trkpt><trkpt lat="43.8051727" lon="11.0934723"><ele>31.0</ele><time>2026-04-11T10:13:53.895Z</time></trkpt><trkpt lat="43.8053019" lon="11.0935807"><ele>30.5</ele><time>2026-04-11T10:13:54.9Z</time></trkpt><trkpt lat="43.8054245" lon="11.093692"><ele>30.0</ele><time>2026-04-11T10:13:55.901Z</time></trkpt><trkpt lat="43.8055541" lon="11.0938162"><ele>30.0</ele><time>2026-04-11T10:13:56.904Z</time></trkpt><trkpt lat="43.8056771" lon="11.0939408"><ele>30.0</ele><time>2026-04-11T10:13:57.902Z</time></trkpt><trkpt lat="43.8058058" lon="11.0940616"><ele>30.0</ele><time>2026-04-11T10:13:58.897Z</time></trkpt><trkpt lat="43.8059304" lon="11.0941743"><ele>30.333333333333336</ele><time>2026-04-11T10:13:59.9Z</time></trkpt><trkpt lat="43.8060601" lon="11.0942853"><ele>30.666666666666668</ele><time>2026-04-11T10:14:00.899Z</time></trkpt><trkpt lat="43.8061913" lon="11.0944101"><ele>31.0</ele><time>2026-04-11T10:14:01.898Z</time></trkpt><trkpt lat="43.8063251" lon="11.0945331"><ele>31.0</ele><time>2026-04-11T10:14:02.92Z</time></trkpt><trkpt lat="43.8064682" lon="11.0946659"><ele>31.0</ele><time>2026-04-11T10:14:03.893Z</time></trkpt><trkpt lat="43.8066053" lon="11.094787"><ele>31.0</ele><time>2026-04-11T10:14:04.894Z</time></trkpt><trkpt lat="43.8067383" lon="11.0949115"><ele>31.666666666666668</ele><time>2026-04-11T10:14:05.897Z</time></trkpt><trkpt lat="43.8068815" lon="11.0950335"><ele>32.333333333333336</ele><time>2026-04-11T10:14:06.892Z</time></trkpt><trkpt lat="43.8070174" lon="11.0951566"><ele>33.0</ele><time>2026-04-11T10:14:07.899Z</time></trkpt><trkpt lat="43.8071536" lon="11.0952829"><ele>33.0</ele><time>2026-04-11T10:14:08.902Z</time></trkpt><trkpt lat="43.8072936" lon="11.0954147"><ele>33.0</ele><time>2026-04-11T10:14:09.899Z</time></trkpt><trkpt lat="43.8074288" lon="11.0955406"><ele>33.0</ele><time>2026-04-11T10:14:10.898Z</time></trkpt><trkpt lat="43.8075645" lon="11.0956559"><ele>33.0</ele><time>2026-04-11T10:14:11.892Z</time></trkpt><trkpt lat="43.8077019" lon="11.0957533"><ele>33.0</ele><time>2026-04-11T10:14:12.899Z</time></trkpt><trkpt lat="43.8078324" lon="11.0958451"><ele>33.0</ele><time>2026-04-11T10:14:13.896Z</time></trkpt><trkpt lat="43.8079532" lon="11.0959376"><ele>33.0</ele><time>2026-04-11T10:14:14.895Z</time></trkpt><trkpt lat="43.8080633" lon="11.0960288"><ele>33.0</ele><time>2026-04-11T10:14:15.898Z</time></trkpt><trkpt lat="43.8081589" lon="11.0961176"><ele>33.0</ele><time>2026-04-11T10:14:16.901Z</time></trkpt><trkpt lat="43.8082217" lon="11.0961973"><ele>33.0</ele><time>2026-04-11T10:14:17.9Z</time></trkpt><trkpt lat="43.8082698" lon="11.0962553"><ele>33.0</ele><time>2026-04-11T10:14:18.904Z</time></trkpt><trkpt lat="43.8083338" lon="11.0963049"><ele>33.0</ele><time>2026-04-11T10:14:25.912Z</time></trkpt><trkpt lat="43.8083456" lon="11.0964137"><ele>33.0</ele><time>2026-04-11T10:14:27.91Z</time></trkpt><trkpt lat="43.8083344" lon="11.0965143"><ele>32.75</ele><time>2026-04-11T10:14:28.893Z</time></trkpt><trkpt lat="43.8083101" lon="11.0966382"><ele>32.5</ele><time>2026-04-11T10:14:29.898Z</time></trkpt><trkpt lat="43.8082881" lon="11.0967772"><ele>32.25</ele><time>2026-04-11T10:14:30.899Z</time></trkpt><trkpt lat="43.808264" lon="11.0969444"><ele>32.0</ele><time>2026-04-11T10:14:31.892Z</time></trkpt><trkpt lat="43.8082409" lon="11.0971316"><ele>32.0</ele><time>2026-04-11T10:14:32.896Z</time></trkpt><trkpt lat="43.8082151" lon="11.0973339"><ele>32.0</ele><time>2026-04-11T10:14:33.907Z</time></trkpt><trkpt lat="43.8081879" lon="11.0975533"><ele>32.0</ele><time>2026-04-11T10:14:34.891Z</time></trkpt><trkpt lat="43.8081634" lon="11.0977925"><ele>32.33333333333333</ele><time>2026-04-11T10:14:35.895Z</time></trkpt><trkpt lat="43.8081342" lon="11.0980399"><ele>32.666666666666664</ele><time>2026-04-11T10:14:36.892Z</time></trkpt><trkpt lat="43.8080948" lon="11.0982981"><ele>33.0</ele><time>2026-04-11T10:14:37.896Z</time></trkpt><trkpt lat="43.8080618" lon="11.098539"><ele>33.0</ele><time>2026-04-11T10:14:38.891Z</time></trkpt><trkpt lat="43.8080292" lon="11.0987549"><ele>33.0</ele><time>2026-04-11T10:14:39.891Z</time></trkpt><trkpt lat="43.8080017" lon="11.0989683"><ele>33.0</ele><time>2026-04-11T10:14:40.891Z</time></trkpt><trkpt lat="43.8079811" lon="11.09918"><ele>33.333333333333336</ele><time>2026-04-11T10:14:41.89Z</time></trkpt><trkpt lat="43.807956" lon="11.099387"><ele>33.66666666666667</ele><time>2026-04-11T10:14:42.894Z</time></trkpt><trkpt lat="43.8079312" lon="11.0995958"><ele>34.0</ele><time>2026-04-11T10:14:43.889Z</time></trkpt><trkpt lat="43.8079006" lon="11.0998083"><ele>34.0</ele><time>2026-04-11T10:14:44.9Z</time></trkpt><trkpt lat="43.8078711" lon="11.1000252"><ele>34.0</ele><time>2026-04-11T10:14:45.894Z</time></trkpt><trkpt lat="43.8078445" lon="11.1002444"><ele>34.0</ele><time>2026-04-11T10:14:46.896Z</time></trkpt><trkpt lat="43.8078125" lon="11.1004543"><ele>34.0</ele><time>2026-04-11T10:14:47.898Z</time></trkpt><trkpt lat="43.8077836" lon="11.1006734"><ele>34.0</ele><time>2026-04-11T10:14:48.895Z</time></trkpt><trkpt lat="43.8077615" lon="11.1008808"><ele>34.0</ele><time>2026-04-11T10:14:49.894Z</time></trkpt><trkpt lat="43.8077331" lon="11.1010989"><ele>34.0</ele><time>2026-04-11T10:14:50.893Z</time></trkpt><trkpt lat="43.8077059" lon="11.101309"><ele>34.0</ele><time>2026-04-11T10:14:51.893Z</time></trkpt><trkpt lat="43.8076837" lon="11.1015236"><ele>34.0</ele><time>2026-04-11T10:14:52.895Z</time></trkpt><trkpt lat="43.8076589" lon="11.1017237"><ele>34.0</ele><time>2026-04-11T10:14:53.895Z</time></trkpt><trkpt lat="43.8076323" lon="11.1019311"><ele>34.0</ele><time>2026-04-11T10:14:54.903Z</time></trkpt><trkpt lat="43.8076055" lon="11.1021422"><ele>34.0</ele><time>2026-04-11T10:14:55.896Z</time></trkpt><trkpt lat="43.8075785" lon="11.1023572"><ele>34.333333333333336</ele><time>2026-04-11T10:14:56.897Z</time></trkpt><trkpt lat="43.8075512" lon="11.1025676"><ele>34.666666666666664</ele><time>2026-04-11T10:14:57.9Z</time></trkpt><trkpt lat="43.807528" lon="11.1027775"><ele>35.0</ele><time>2026-04-11T10:14:58.897Z</time></trkpt><trkpt lat="43.8075036" lon="11.1029797"><ele>35.0</ele><time>2026-04-11T10:14:59.904Z</time></trkpt><trkpt lat="43.8074767" lon="11.1031774"><ele>35.0</ele><time>2026-04-11T10:15:00.899Z</time></trkpt><trkpt lat="43.8074529" lon="11.1033696"><ele>35.0</ele><time>2026-04-11T10:15:01.892Z</time></trkpt><trkpt lat="43.8074311" lon="11.1035412"><ele>35.0</ele><time>2026-04-11T10:15:02.893Z</time></trkpt><trkpt lat="43.807408" lon="11.1037132"><ele>35.0</ele><time>2026-04-11T10:15:03.892Z</time></trkpt><trkpt lat="43.8073859" lon="11.1038895"><ele>35.0</ele><time>2026-04-11T10:15:04.908Z</time></trkpt><trkpt lat="43.8073692" lon="11.1040692"><ele>35.0</ele><time>2026-04-11T10:15:05.893Z</time></trkpt><trkpt lat="43.8073503" lon="11.1042389"><ele>35.0</ele><time>2026-04-11T10:15:06.895Z</time></trkpt><trkpt lat="43.8073342" lon="11.1044058"><ele>35.0</ele><time>2026-04-11T10:15:07.894Z</time></trkpt><trkpt lat="43.8073135" lon="11.1045705"><ele>35.0</ele><time>2026-04-11T10:15:08.896Z</time></trkpt><trkpt lat="43.8072935" lon="11.1047364"><ele>35.0</ele><time>2026-04-11T10:15:09.894Z</time></trkpt><trkpt lat="43.8072739" lon="11.1049067"><ele>35.0</ele><time>2026-04-11T10:15:10.894Z</time></trkpt><trkpt lat="43.8072532" lon="11.1050795"><ele>34.75</ele><time>2026-04-11T10:15:11.896Z</time></trkpt><trkpt lat="43.8072323" lon="11.1052505"><ele>34.5</ele><time>2026-04-11T10:15:12.895Z</time></trkpt><trkpt lat="43.80721" lon="11.1054264"><ele>34.25</ele><time>2026-04-11T10:15:13.903Z</time></trkpt><trkpt lat="43.8071855" lon="11.1056036"><ele>34.0</ele><time>2026-04-11T10:15:14.896Z</time></trkpt><trkpt lat="43.8071609" lon="11.1057854"><ele>33.75</ele><time>2026-04-11T10:15:15.896Z</time></trkpt><trkpt lat="43.8071385" lon="11.1059672"><ele>33.5</ele><time>2026-04-11T10:15:16.9Z</time></trkpt><trkpt lat="43.8071175" lon="11.1061423"><ele>33.25</ele><time>2026-04-11T10:15:17.892Z</time></trkpt><trkpt lat="43.807097" lon="11.1063243"><ele>33.0</ele><time>2026-04-11T10:15:18.9Z</time></trkpt><trkpt lat="43.8070758" lon="11.1065099"><ele>33.25</ele><time>2026-04-11T10:15:19.894Z</time></trkpt><trkpt lat="43.8070543" lon="11.1066968"><ele>33.5</ele><time>2026-04-11T10:15:20.894Z</time></trkpt><trkpt lat="43.8070349" lon="11.1068799"><ele>33.75</ele><time>2026-04-11T10:15:21.899Z</time></trkpt><trkpt lat="43.8070171" lon="11.10707"><ele>34.0</ele><time>2026-04-11T10:15:22.894Z</time></trkpt><trkpt lat="43.8069998" lon="11.1072517"><ele>34.0</ele><time>2026-04-11T10:15:23.89Z</time></trkpt><trkpt lat="43.8069771" lon="11.1074353"><ele>34.0</ele><time>2026-04-11T10:15:24.895Z</time></trkpt><trkpt lat="43.8069526" lon="11.1076208"><ele>34.0</ele><time>2026-04-11T10:15:25.893Z</time></trkpt><trkpt lat="43.8069304" lon="11.1077994"><ele>34.0</ele><time>2026-04-11T10:15:26.901Z</time></trkpt><trkpt lat="43.8069062" lon="11.1079835"><ele>34.0</ele><time>2026-04-11T10:15:27.9Z</time></trkpt><trkpt lat="43.806884" lon="11.10816"><ele>34.0</ele><time>2026-04-11T10:15:28.897Z</time></trkpt><trkpt lat="43.8068686" lon="11.1083325"><ele>34.0</ele><time>2026-04-11T10:15:29.895Z</time></trkpt><trkpt lat="43.8068469" lon="11.1084933"><ele>34.0</ele><time>2026-04-11T10:15:30.897Z</time></trkpt><trkpt lat="43.8068231" lon="11.1086531"><ele>33.75</ele><time>2026-04-11T10:15:31.895Z</time></trkpt><trkpt lat="43.8068015" lon="11.1088205"><ele>33.5</ele><time>2026-04-11T10:15:32.9Z</time></trkpt><trkpt lat="43.8067772" lon="11.1089927"><ele>33.25</ele><time>2026-04-11T10:15:33.897Z</time></trkpt><trkpt lat="43.806754" lon="11.1091637"><ele>33.0</ele><time>2026-04-11T10:15:34.901Z</time></trkpt><trkpt lat="43.8067327" lon="11.1093303"><ele>32.8</ele><time>2026-04-11T10:15:35.914Z</time></trkpt><trkpt lat="43.8067107" lon="11.1094926"><ele>32.599999999999994</ele><time>2026-04-11T10:15:36.897Z</time></trkpt><trkpt lat="43.8066867" lon="11.1096472"><ele>32.400000000000006</ele><time>2026-04-11T10:15:37.902Z</time></trkpt><trkpt lat="43.8066681" lon="11.1097855"><ele>32.2</ele><time>2026-04-11T10:15:38.901Z</time></trkpt><trkpt lat="43.8066479" lon="11.1099164"><ele>32.0</ele><time>2026-04-11T10:15:39.899Z</time></trkpt><trkpt lat="43.8066322" lon="11.1100468"><ele>32.0</ele><time>2026-04-11T10:15:40.903Z</time></trkpt><trkpt lat="43.8066188" lon="11.1101759"><ele>32.0</ele><time>2026-04-11T10:15:41.902Z</time></trkpt><trkpt lat="43.8066029" lon="11.1103021"><ele>32.0</ele><time>2026-04-11T10:15:42.898Z</time></trkpt><trkpt lat="43.806587" lon="11.1104342"><ele>32.0</ele><time>2026-04-11T10:15:43.9Z</time></trkpt><trkpt lat="43.8065712" lon="11.1105642"><ele>32.0</ele><time>2026-04-11T10:15:44.9Z</time></trkpt><trkpt lat="43.8065543" lon="11.1106963"><ele>32.4</ele><time>2026-04-11T10:15:45.9Z</time></trkpt><trkpt lat="43.806539" lon="11.1108318"><ele>32.800000000000004</ele><time>2026-04-11T10:15:46.902Z</time></trkpt><trkpt lat="43.806521" lon="11.1109728"><ele>33.2</ele><time>2026-04-11T10:15:47.9Z</time></trkpt><trkpt lat="43.8065046" lon="11.1111216"><ele>33.6</ele><time>2026-04-11T10:15:48.896Z</time></trkpt><trkpt lat="43.806484" lon="11.1112726"><ele>34.0</ele><time>2026-04-11T10:15:49.902Z</time></trkpt><trkpt lat="43.8064637" lon="11.1114209"><ele>34.0</ele><time>2026-04-11T10:15:50.896Z</time></trkpt><trkpt lat="43.8064471" lon="11.1115706"><ele>34.0</ele><time>2026-04-11T10:15:51.895Z</time></trkpt><trkpt lat="43.8064325" lon="11.111718"><ele>34.0</ele><time>2026-04-11T10:15:52.897Z</time></trkpt><trkpt lat="43.8064177" lon="11.1118606"><ele>34.0</ele><time>2026-04-11T10:15:53.897Z</time></trkpt><trkpt lat="43.8064" lon="11.1120046"><ele>34.0</ele><time>2026-04-11T10:15:54.893Z</time></trkpt><trkpt lat="43.8063819" lon="11.112166"><ele>34.0</ele><time>2026-04-11T10:15:55.894Z</time></trkpt><trkpt lat="43.806365" lon="11.1123415"><ele>34.0</ele><time>2026-04-11T10:15:56.895Z</time></trkpt><trkpt lat="43.8063474" lon="11.1125344"><ele>34.0</ele><time>2026-04-11T10:15:57.905Z</time></trkpt><trkpt lat="43.8063243" lon="11.1127284"><ele>34.0</ele><time>2026-04-11T10:15:58.906Z</time></trkpt><trkpt lat="43.806299" lon="11.1129151"><ele>34.0</ele><time>2026-04-11T10:15:59.908Z</time></trkpt><trkpt lat="43.806275" lon="11.1130963"><ele>34.0</ele><time>2026-04-11T10:16:00.921Z</time></trkpt><trkpt lat="43.80625" lon="11.1132823"><ele>34.0</ele><time>2026-04-11T10:16:01.917Z</time></trkpt><trkpt lat="43.8062263" lon="11.1134714"><ele>34.0</ele><time>2026-04-11T10:16:02.903Z</time></trkpt><trkpt lat="43.8062028" lon="11.1136639"><ele>34.0</ele><time>2026-04-11T10:16:03.904Z</time></trkpt><trkpt lat="43.8061835" lon="11.11387"><ele>34.0</ele><time>2026-04-11T10:16:04.906Z</time></trkpt><trkpt lat="43.8061644" lon="11.1140612"><ele>34.0</ele><time>2026-04-11T10:16:05.897Z</time></trkpt><trkpt lat="43.8061387" lon="11.1142521"><ele>34.0</ele><time>2026-04-11T10:16:06.918Z</time></trkpt><trkpt lat="43.8061131" lon="11.1144341"><ele>34.333333333333336</ele><time>2026-04-11T10:16:07.897Z</time></trkpt><trkpt lat="43.8060933" lon="11.1145951"><ele>34.66666666666667</ele><time>2026-04-11T10:16:08.899Z</time></trkpt><trkpt lat="43.8060779" lon="11.11472"><ele>35.0</ele><time>2026-04-11T10:16:09.9Z</time></trkpt><trkpt lat="43.8060599" lon="11.1148234"><ele>35.333333333333336</ele><time>2026-04-11T10:16:10.904Z</time></trkpt><trkpt lat="43.8060279" lon="11.1149019"><ele>35.666666666666664</ele><time>2026-04-11T10:16:11.891Z</time></trkpt><trkpt lat="43.805986" lon="11.1149691"><ele>36.0</ele><time>2026-04-11T10:16:12.894Z</time></trkpt><trkpt lat="43.8059248" lon="11.1150904"><ele>36.0</ele><time>2026-04-11T10:16:14.9Z</time></trkpt><trkpt lat="43.8059231" lon="11.1151989"><ele>36.0</ele><time>2026-04-11T10:17:45.913Z</time></trkpt><trkpt lat="43.8059493" lon="11.1153261"><ele>36.0</ele><time>2026-04-11T10:17:47.9Z</time></trkpt><trkpt lat="43.8060025" lon="11.1153909"><ele>36.0</ele><time>2026-04-11T10:17:49.902Z</time></trkpt><trkpt lat="43.806073" lon="11.1155152"><ele>36.0</ele><time>2026-04-11T10:17:52.906Z</time></trkpt><trkpt lat="43.8061118" lon="11.1156325"><ele>36.0</ele><time>2026-04-11T10:17:53.901Z</time></trkpt><trkpt lat="43.806145" lon="11.1157565"><ele>36.0</ele><time>2026-04-11T10:17:54.903Z</time></trkpt><trkpt lat="43.8061681" lon="11.115876"><ele>36.0</ele><time>2026-04-11T10:17:55.899Z</time></trkpt><trkpt lat="43.8061787" lon="11.1159833"><ele>36.0</ele><time>2026-04-11T10:17:56.894Z</time></trkpt><trkpt lat="43.8061743" lon="11.116088"><ele>36.0</ele><time>2026-04-11T10:17:57.9Z</time></trkpt><trkpt lat="43.8061415" lon="11.1161936"><ele>36.0</ele><time>2026-04-11T10:17:58.897Z</time></trkpt><trkpt lat="43.8061008" lon="11.1163108"><ele>36.0</ele><time>2026-04-11T10:17:59.903Z</time></trkpt><trkpt lat="43.8060717" lon="11.1164326"><ele>36.0</ele><time>2026-04-11T10:18:00.894Z</time></trkpt><trkpt lat="43.8060609" lon="11.1165523"><ele>36.0</ele><time>2026-04-11T10:18:01.899Z</time></trkpt><trkpt lat="43.8060809" lon="11.1166649"><ele>36.0</ele><time>2026-04-11T10:18:02.896Z</time></trkpt><trkpt lat="43.8061381" lon="11.1167525"><ele>36.0</ele><time>2026-04-11T10:18:03.895Z</time></trkpt><trkpt lat="43.8062264" lon="11.116814"><ele>36.0</ele><time>2026-04-11T10:18:04.893Z</time></trkpt><trkpt lat="43.8063406" lon="11.1168661"><ele>35.666666666666664</ele><time>2026-04-11T10:18:05.892Z</time></trkpt><trkpt lat="43.806477" lon="11.1169274"><ele>35.33333333333333</ele><time>2026-04-11T10:18:06.89Z</time></trkpt><trkpt lat="43.8066265" lon="11.1169904"><ele>35.0</ele><time>2026-04-11T10:18:07.889Z</time></trkpt><trkpt lat="43.8067786" lon="11.1170558"><ele>34.33333333333333</ele><time>2026-04-11T10:18:08.892Z</time></trkpt><trkpt lat="43.8069462" lon="11.1171243"><ele>33.666666666666664</ele><time>2026-04-11T10:18:09.901Z</time></trkpt><trkpt lat="43.80711" lon="11.1171836"><ele>33.0</ele><time>2026-04-11T10:18:10.926Z</time></trkpt><trkpt lat="43.8072667" lon="11.1172441"><ele>33.0</ele><time>2026-04-11T10:18:11.894Z</time></trkpt><trkpt lat="43.807415" lon="11.1173023"><ele>33.0</ele><time>2026-04-11T10:18:12.899Z</time></trkpt><trkpt lat="43.807556" lon="11.1173486"><ele>33.0</ele><time>2026-04-11T10:18:13.892Z</time></trkpt><trkpt lat="43.8076952" lon="11.1174054"><ele>33.0</ele><time>2026-04-11T10:18:14.897Z</time></trkpt><trkpt lat="43.8078398" lon="11.1174651"><ele>33.0</ele><time>2026-04-11T10:18:15.891Z</time></trkpt><trkpt lat="43.8079827" lon="11.1175169"><ele>33.0</ele><time>2026-04-11T10:18:16.89Z</time></trkpt><trkpt lat="43.8081151" lon="11.1175637"><ele>33.0</ele><time>2026-04-11T10:18:17.891Z</time></trkpt><trkpt lat="43.8082304" lon="11.117619"><ele>33.0</ele><time>2026-04-11T10:18:18.889Z</time></trkpt><trkpt lat="43.8083426" lon="11.1176622"><ele>33.0</ele><time>2026-04-11T10:18:19.891Z</time></trkpt><trkpt lat="43.808433" lon="11.1176879"><ele>33.0</ele><time>2026-04-11T10:18:20.886Z</time></trkpt><trkpt lat="43.8085119" lon="11.1177263"><ele>33.0</ele><time>2026-04-11T10:18:21.896Z</time></trkpt><trkpt lat="43.8085939" lon="11.1177544"><ele>33.0</ele><time>2026-04-11T10:18:22.89Z</time></trkpt><trkpt lat="43.8086658" lon="11.1177809"><ele>33.0</ele><time>2026-04-11T10:18:23.89Z</time></trkpt><trkpt lat="43.808776" lon="11.1178204"><ele>33.0</ele><time>2026-04-11T10:18:25.893Z</time></trkpt><trkpt lat="43.8088609" lon="11.1178652"><ele>33.0</ele><time>2026-04-11T10:18:27.897Z</time></trkpt><trkpt lat="43.8089917" lon="11.1179329"><ele>33.0</ele><time>2026-04-11T10:18:29.909Z</time></trkpt><trkpt lat="43.8090822" lon="11.1179761"><ele>33.0</ele><time>2026-04-11T10:18:30.9Z</time></trkpt><trkpt lat="43.8091775" lon="11.118015"><ele>33.0</ele><time>2026-04-11T10:18:31.895Z</time></trkpt><trkpt lat="43.8092722" lon="11.1180583"><ele>33.0</ele><time>2026-04-11T10:18:32.895Z</time></trkpt><trkpt lat="43.8093737" lon="11.1181041"><ele>32.75</ele><time>2026-04-11T10:18:33.899Z</time></trkpt><trkpt lat="43.8094804" lon="11.1181493"><ele>32.5</ele><time>2026-04-11T10:18:34.894Z</time></trkpt><trkpt lat="43.8095969" lon="11.1181978"><ele>32.25</ele><time>2026-04-11T10:18:35.9Z</time></trkpt><trkpt lat="43.80972" lon="11.1182458"><ele>32.0</ele><time>2026-04-11T10:18:36.896Z</time></trkpt><trkpt lat="43.8098448" lon="11.1182979"><ele>32.25</ele><time>2026-04-11T10:18:37.905Z</time></trkpt><trkpt lat="43.8099736" lon="11.118351"><ele>32.5</ele><time>2026-04-11T10:18:38.898Z</time></trkpt><trkpt lat="43.8101017" lon="11.1184095"><ele>32.75</ele><time>2026-04-11T10:18:39.898Z</time></trkpt><trkpt lat="43.8102278" lon="11.1184659"><ele>33.0</ele><time>2026-04-11T10:18:40.917Z</time></trkpt><trkpt lat="43.8103533" lon="11.1185207"><ele>33.0</ele><time>2026-04-11T10:18:41.896Z</time></trkpt><trkpt lat="43.810483" lon="11.1185707"><ele>33.0</ele><time>2026-04-11T10:18:42.898Z</time></trkpt><trkpt lat="43.810614" lon="11.1186198"><ele>33.0</ele><time>2026-04-11T10:18:43.897Z</time></trkpt><trkpt lat="43.8107502" lon="11.1186712"><ele>33.0</ele><time>2026-04-11T10:18:44.901Z</time></trkpt><trkpt lat="43.8108866" lon="11.1187224"><ele>33.25</ele><time>2026-04-11T10:18:45.899Z</time></trkpt><trkpt lat="43.8110242" lon="11.118776"><ele>33.5</ele><time>2026-04-11T10:18:46.899Z</time></trkpt><trkpt lat="43.8111521" lon="11.1188339"><ele>33.75</ele><time>2026-04-11T10:18:47.898Z</time></trkpt><trkpt lat="43.8112803" lon="11.1188904"><ele>34.0</ele><time>2026-04-11T10:18:48.903Z</time></trkpt><trkpt lat="43.8114099" lon="11.1189389"><ele>34.0</ele><time>2026-04-11T10:18:49.898Z</time></trkpt><trkpt lat="43.8115401" lon="11.1189895"><ele>34.0</ele><time>2026-04-11T10:18:50.899Z</time></trkpt><trkpt lat="43.8116637" lon="11.1190364"><ele>34.0</ele><time>2026-04-11T10:18:51.904Z</time></trkpt><trkpt lat="43.8117925" lon="11.1190889"><ele>34.0</ele><time>2026-04-11T10:18:52.898Z</time></trkpt><trkpt lat="43.8119202" lon="11.1191414"><ele>34.0</ele><time>2026-04-11T10:18:53.897Z</time></trkpt><trkpt lat="43.8120513" lon="11.1191909"><ele>34.0</ele><time>2026-04-11T10:18:54.901Z</time></trkpt><trkpt lat="43.8121843" lon="11.1192368"><ele>34.0</ele><time>2026-04-11T10:18:55.902Z</time></trkpt><trkpt lat="43.8123153" lon="11.1192865"><ele>34.0</ele><time>2026-04-11T10:18:56.904Z</time></trkpt><trkpt lat="43.8124431" lon="11.1193348"><ele>34.0</ele><time>2026-04-11T10:18:57.897Z</time></trkpt><trkpt lat="43.8125654" lon="11.1193848"><ele>34.0</ele><time>2026-04-11T10:18:58.899Z</time></trkpt><trkpt lat="43.8126906" lon="11.119433"><ele>34.0</ele><time>2026-04-11T10:18:59.898Z</time></trkpt><trkpt lat="43.8128122" lon="11.1194853"><ele>34.0</ele><time>2026-04-11T10:19:00.906Z</time></trkpt><trkpt lat="43.8129445" lon="11.1195401"><ele>33.66666666666667</ele><time>2026-04-11T10:19:01.897Z</time></trkpt><trkpt lat="43.8130938" lon="11.1196003"><ele>33.333333333333336</ele><time>2026-04-11T10:19:02.905Z</time></trkpt><trkpt lat="43.8132577" lon="11.1196692"><ele>33.0</ele><time>2026-04-11T10:19:03.897Z</time></trkpt><trkpt lat="43.8134343" lon="11.1197388"><ele>33.333333333333336</ele><time>2026-04-11T10:19:04.901Z</time></trkpt><trkpt lat="43.8136014" lon="11.1198197"><ele>33.66666666666667</ele><time>2026-04-11T10:19:05.898Z</time></trkpt><trkpt lat="43.8137654" lon="11.1198946"><ele>34.0</ele><time>2026-04-11T10:19:06.898Z</time></trkpt><trkpt lat="43.8139327" lon="11.1199674"><ele>34.0</ele><time>2026-04-11T10:19:07.898Z</time></trkpt><trkpt lat="43.8141071" lon="11.1200419"><ele>34.0</ele><time>2026-04-11T10:19:08.899Z</time></trkpt><trkpt lat="43.8142789" lon="11.1201162"><ele>34.0</ele><time>2026-04-11T10:19:09.898Z</time></trkpt><trkpt lat="43.8144518" lon="11.1201875"><ele>34.0</ele><time>2026-04-11T10:19:10.895Z</time></trkpt><trkpt lat="43.8146212" lon="11.1202548"><ele>34.0</ele><time>2026-04-11T10:19:11.911Z</time></trkpt><trkpt lat="43.8147853" lon="11.1203154"><ele>34.0</ele><time>2026-04-11T10:19:12.895Z</time></trkpt><trkpt lat="43.814931" lon="11.1203782"><ele>34.0</ele><time>2026-04-11T10:19:13.899Z</time></trkpt><trkpt lat="43.8150653" lon="11.1204288"><ele>34.0</ele><time>2026-04-11T10:19:14.9Z</time></trkpt><trkpt lat="43.8151925" lon="11.1204716"><ele>34.0</ele><time>2026-04-11T10:19:15.897Z</time></trkpt><trkpt lat="43.8152966" lon="11.1205183"><ele>34.0</ele><time>2026-04-11T10:19:16.898Z</time></trkpt><trkpt lat="43.8153805" lon="11.1205814"><ele>34.0</ele><time>2026-04-11T10:19:17.896Z</time></trkpt><trkpt lat="43.8154581" lon="11.1206659"><ele>34.0</ele><time>2026-04-11T10:19:18.906Z</time></trkpt><trkpt lat="43.8155154" lon="11.1207778"><ele>34.0</ele><time>2026-04-11T10:19:19.895Z</time></trkpt><trkpt lat="43.8155684" lon="11.1209306"><ele>34.0</ele><time>2026-04-11T10:19:20.896Z</time></trkpt><trkpt lat="43.8156356" lon="11.1210667"><ele>34.0</ele><time>2026-04-11T10:19:21.893Z</time></trkpt><trkpt lat="43.8157118" lon="11.1211728"><ele>34.0</ele><time>2026-04-11T10:19:22.894Z</time></trkpt><trkpt lat="43.8157991" lon="11.1212649"><ele>34.0</ele><time>2026-04-11T10:19:23.903Z</time></trkpt><trkpt lat="43.815905" lon="11.1213107"><ele>34.0</ele><time>2026-04-11T10:19:24.898Z</time></trkpt><trkpt lat="43.816024" lon="11.1213148"><ele>34.0</ele><time>2026-04-11T10:19:25.899Z</time></trkpt><trkpt lat="43.8161579" lon="11.1212913"><ele>34.0</ele><time>2026-04-11T10:19:26.895Z</time></trkpt><trkpt lat="43.8163105" lon="11.1212562"><ele>34.0</ele><time>2026-04-11T10:19:27.893Z</time></trkpt><trkpt lat="43.8164688" lon="11.121235"><ele>34.0</ele><time>2026-04-11T10:19:28.898Z</time></trkpt><trkpt lat="43.816632" lon="11.1212248"><ele>34.0</ele><time>2026-04-11T10:19:29.897Z</time></trkpt><trkpt lat="43.8168064" lon="11.1212066"><ele>34.0</ele><time>2026-04-11T10:19:30.9Z</time></trkpt><trkpt lat="43.8169523" lon="11.1212288"><ele>34.0</ele><time>2026-04-11T10:19:31.899Z</time></trkpt><trkpt lat="43.8170781" lon="11.1212642"><ele>34.0</ele><time>2026-04-11T10:19:32.906Z</time></trkpt><trkpt lat="43.8171976" lon="11.1213039"><ele>34.0</ele><time>2026-04-11T10:19:33.899Z</time></trkpt><trkpt lat="43.817307" lon="11.1213414"><ele>34.0</ele><time>2026-04-11T10:19:34.903Z</time></trkpt><trkpt lat="43.8173878" lon="11.1213631"><ele>34.0</ele><time>2026-04-11T10:19:35.9Z</time></trkpt><trkpt lat="43.8174532" lon="11.1213752"><ele>34.0</ele><time>2026-04-11T10:19:36.894Z</time></trkpt><trkpt lat="43.8175763" lon="11.1214216"><ele>34.0</ele><time>2026-04-11T10:19:38.9Z</time></trkpt><trkpt lat="43.8176454" lon="11.1214524"><ele>34.0</ele><time>2026-04-11T10:19:39.896Z</time></trkpt><trkpt lat="43.817725" lon="11.1214894"><ele>34.0</ele><time>2026-04-11T10:19:40.899Z</time></trkpt><trkpt lat="43.8178143" lon="11.1215315"><ele>34.0</ele><time>2026-04-11T10:19:41.896Z</time></trkpt><trkpt lat="43.8179123" lon="11.1215769"><ele>34.0</ele><time>2026-04-11T10:19:42.911Z</time></trkpt><trkpt lat="43.8180177" lon="11.121627"><ele>34.0</ele><time>2026-04-11T10:19:43.898Z</time></trkpt><trkpt lat="43.8181336" lon="11.1216819"><ele>34.0</ele><time>2026-04-11T10:19:44.896Z</time></trkpt><trkpt lat="43.8182559" lon="11.1217349"><ele>34.0</ele><time>2026-04-11T10:19:45.897Z</time></trkpt><trkpt lat="43.8183791" lon="11.1217811"><ele>34.0</ele><time>2026-04-11T10:19:46.896Z</time></trkpt><trkpt lat="43.818506" lon="11.1218266"><ele>34.0</ele><time>2026-04-11T10:19:47.902Z</time></trkpt><trkpt lat="43.8186329" lon="11.1218702"><ele>34.0</ele><time>2026-04-11T10:19:48.9Z</time></trkpt><trkpt lat="43.8187598" lon="11.1219175"><ele>34.0</ele><time>2026-04-11T10:19:49.898Z</time></trkpt><trkpt lat="43.8188896" lon="11.1219696"><ele>34.0</ele><time>2026-04-11T10:19:50.899Z</time></trkpt><trkpt lat="43.8190182" lon="11.1220156"><ele>34.0</ele><time>2026-04-11T10:19:51.899Z</time></trkpt><trkpt lat="43.819142" lon="11.122068"><ele>34.0</ele><time>2026-04-11T10:19:52.899Z</time></trkpt><trkpt lat="43.8192641" lon="11.1221219"><ele>34.0</ele><time>2026-04-11T10:19:53.9Z</time></trkpt><trkpt lat="43.8193825" lon="11.1221795"><ele>34.0</ele><time>2026-04-11T10:19:54.898Z</time></trkpt><trkpt lat="43.8194923" lon="11.1222367"><ele>34.2</ele><time>2026-04-11T10:19:55.9Z</time></trkpt><trkpt lat="43.8195922" lon="11.1222924"><ele>34.4</ele><time>2026-04-11T10:19:56.897Z</time></trkpt><trkpt lat="43.8196865" lon="11.1223492"><ele>34.6</ele><time>2026-04-11T10:19:57.895Z</time></trkpt><trkpt lat="43.8197727" lon="11.1224033"><ele>34.8</ele><time>2026-04-11T10:19:58.895Z</time></trkpt><trkpt lat="43.819855" lon="11.1224573"><ele>35.0</ele><time>2026-04-11T10:19:59.895Z</time></trkpt><trkpt lat="43.8199445" lon="11.1225205"><ele>35.0</ele><time>2026-04-11T10:20:00.899Z</time></trkpt><trkpt lat="43.8200362" lon="11.1225857"><ele>35.0</ele><time>2026-04-11T10:20:01.897Z</time></trkpt><trkpt lat="43.82012" lon="11.1226511"><ele>35.0</ele><time>2026-04-11T10:20:02.903Z</time></trkpt><trkpt lat="43.8201967" lon="11.1227133"><ele>35.0</ele><time>2026-04-11T10:20:03.897Z</time></trkpt><trkpt lat="43.8202749" lon="11.1227779"><ele>35.0</ele><time>2026-04-11T10:20:04.898Z</time></trkpt><trkpt lat="43.820352" lon="11.1228474"><ele>35.0</ele><time>2026-04-11T10:20:05.895Z</time></trkpt><trkpt lat="43.8204196" lon="11.1229277"><ele>35.0</ele><time>2026-04-11T10:20:06.898Z</time></trkpt><trkpt lat="43.820469" lon="11.1230122"><ele>35.0</ele><time>2026-04-11T10:20:07.898Z</time></trkpt><trkpt lat="43.8205025" lon="11.1231035"><ele>35.0</ele><time>2026-04-11T10:20:08.9Z</time></trkpt><trkpt lat="43.8205292" lon="11.1231966"><ele>35.0</ele><time>2026-04-11T10:20:09.901Z</time></trkpt><trkpt lat="43.8205627" lon="11.1232783"><ele>35.0</ele><time>2026-04-11T10:20:10.896Z</time></trkpt><trkpt lat="43.8206038" lon="11.1233446"><ele>35.0</ele><time>2026-04-11T10:20:11.9Z</time></trkpt><trkpt lat="43.820658" lon="11.1233938"><ele>35.0</ele><time>2026-04-11T10:20:12.898Z</time></trkpt><trkpt lat="43.8207213" lon="11.1234322"><ele>35.0</ele><time>2026-04-11T10:20:13.915Z</time></trkpt><trkpt lat="43.8208058" lon="11.1234478"><ele>35.0</ele><time>2026-04-11T10:20:14.894Z</time></trkpt><trkpt lat="43.8209103" lon="11.123461"><ele>35.0</ele><time>2026-04-11T10:20:15.897Z</time></trkpt><trkpt lat="43.8210259" lon="11.1234991"><ele>35.0</ele><time>2026-04-11T10:20:16.899Z</time></trkpt><trkpt lat="43.8211474" lon="11.1235636"><ele>35.33333333333333</ele><time>2026-04-11T10:20:17.898Z</time></trkpt><trkpt lat="43.8212733" lon="11.1236566"><ele>35.666666666666664</ele><time>2026-04-11T10:20:18.905Z</time></trkpt><trkpt lat="43.8214038" lon="11.1237669"><ele>36.0</ele><time>2026-04-11T10:20:19.891Z</time></trkpt><trkpt lat="43.8215569" lon="11.1238943"><ele>36.0</ele><time>2026-04-11T10:20:20.897Z</time></trkpt><trkpt lat="43.8217075" lon="11.1240218"><ele>36.0</ele><time>2026-04-11T10:20:21.898Z</time></trkpt><trkpt lat="43.8218624" lon="11.1241394"><ele>36.0</ele><time>2026-04-11T10:20:22.898Z</time></trkpt><trkpt lat="43.8220018" lon="11.1242551"><ele>36.0</ele><time>2026-04-11T10:20:23.893Z</time></trkpt><trkpt lat="43.8221214" lon="11.1243504"><ele>36.0</ele><time>2026-04-11T10:20:24.902Z</time></trkpt><trkpt lat="43.8222254" lon="11.1244355"><ele>36.0</ele><time>2026-04-11T10:20:25.899Z</time></trkpt><trkpt lat="43.8223161" lon="11.1245162"><ele>36.0</ele><time>2026-04-11T10:20:26.897Z</time></trkpt><trkpt lat="43.8224008" lon="11.1245916"><ele>36.0</ele><time>2026-04-11T10:20:27.897Z</time></trkpt><trkpt lat="43.8224971" lon="11.1246743"><ele>36.0</ele><time>2026-04-11T10:20:28.89Z</time></trkpt><trkpt lat="43.8225965" lon="11.1247617"><ele>36.0</ele><time>2026-04-11T10:20:29.905Z</time></trkpt><trkpt lat="43.822697" lon="11.1248492"><ele>36.0</ele><time>2026-04-11T10:20:30.901Z</time></trkpt><trkpt lat="43.8228021" lon="11.1249365"><ele>36.0</ele><time>2026-04-11T10:20:31.897Z</time></trkpt><trkpt lat="43.822902" lon="11.1250208"><ele>36.0</ele><time>2026-04-11T10:20:32.896Z</time></trkpt><trkpt lat="43.8230005" lon="11.1251028"><ele>36.0</ele><time>2026-04-11T10:20:33.896Z</time></trkpt><trkpt lat="43.8230933" lon="11.1251838"><ele>36.0</ele><time>2026-04-11T10:20:34.9Z</time></trkpt><trkpt lat="43.8231709" lon="11.1252528"><ele>36.0</ele><time>2026-04-11T10:20:35.893Z</time></trkpt><trkpt lat="43.8232351" lon="11.1253017"><ele>36.0</ele><time>2026-04-11T10:20:36.893Z</time></trkpt><trkpt lat="43.8232936" lon="11.1253542"><ele>36.0</ele><time>2026-04-11T10:20:38.907Z</time></trkpt><trkpt lat="43.8233805" lon="11.1254625"><ele>36.0</ele><time>2026-04-11T10:20:41.907Z</time></trkpt><trkpt lat="43.8234537" lon="11.1255291"><ele>36.0</ele><time>2026-04-11T10:20:42.897Z</time></trkpt><trkpt lat="43.8235434" lon="11.125609"><ele>36.0</ele><time>2026-04-11T10:20:43.9Z</time></trkpt><trkpt lat="43.8236447" lon="11.1256958"><ele>36.0</ele><time>2026-04-11T10:20:44.919Z</time></trkpt><trkpt lat="43.8237509" lon="11.1257876"><ele>36.0</ele><time>2026-04-11T10:20:45.897Z</time></trkpt><trkpt lat="43.8238651" lon="11.1258913"><ele>36.0</ele><time>2026-04-11T10:20:46.91Z</time></trkpt><trkpt lat="43.8239826" lon="11.1259927"><ele>36.0</ele><time>2026-04-11T10:20:47.903Z</time></trkpt><trkpt lat="43.8240978" lon="11.1260896"><ele>36.0</ele><time>2026-04-11T10:20:48.895Z</time></trkpt><trkpt lat="43.8242145" lon="11.1261895"><ele>36.0</ele><time>2026-04-11T10:20:49.893Z</time></trkpt><trkpt lat="43.8243241" lon="11.1262843"><ele>36.0</ele><time>2026-04-11T10:20:50.894Z</time></trkpt><trkpt lat="43.8244294" lon="11.1263788"><ele>36.0</ele><time>2026-04-11T10:20:51.889Z</time></trkpt><trkpt lat="43.8245294" lon="11.1264672"><ele>36.0</ele><time>2026-04-11T10:20:52.891Z</time></trkpt><trkpt lat="43.8246252" lon="11.1265504"><ele>36.0</ele><time>2026-04-11T10:20:53.891Z</time></trkpt><trkpt lat="43.8247208" lon="11.1266332"><ele>36.0</ele><time>2026-04-11T10:20:54.894Z</time></trkpt><trkpt lat="43.8248139" lon="11.1267094"><ele>36.0</ele><time>2026-04-11T10:20:55.892Z</time></trkpt><trkpt lat="43.8249074" lon="11.1267931"><ele>36.0</ele><time>2026-04-11T10:20:56.89Z</time></trkpt><trkpt lat="43.8249993" lon="11.1268835"><ele>36.0</ele><time>2026-04-11T10:20:57.894Z</time></trkpt><trkpt lat="43.8250909" lon="11.126976"><ele>36.0</ele><time>2026-04-11T10:20:58.892Z</time></trkpt><trkpt lat="43.8251765" lon="11.1270592"><ele>36.0</ele><time>2026-04-11T10:20:59.892Z</time></trkpt><trkpt lat="43.8252574" lon="11.1271308"><ele>36.0</ele><time>2026-04-11T10:21:00.896Z</time></trkpt><trkpt lat="43.825338" lon="11.1272028"><ele>36.0</ele><time>2026-04-11T10:21:01.893Z</time></trkpt><trkpt lat="43.8254153" lon="11.1272827"><ele>36.2</ele><time>2026-04-11T10:21:02.895Z</time></trkpt><trkpt lat="43.8255012" lon="11.1273704"><ele>36.400000000000006</ele><time>2026-04-11T10:21:03.893Z</time></trkpt><trkpt lat="43.8256037" lon="11.1274629"><ele>36.6</ele><time>2026-04-11T10:21:04.889Z</time></trkpt><trkpt lat="43.8256953" lon="11.1275387"><ele>36.800000000000004</ele><time>2026-04-11T10:21:05.887Z</time></trkpt><trkpt lat="43.8257847" lon="11.1275995"><ele>37.0</ele><time>2026-04-11T10:21:06.883Z</time></trkpt><trkpt lat="43.8258569" lon="11.1276538"><ele>37.2</ele><time>2026-04-11T10:21:07.888Z</time></trkpt><trkpt lat="43.8259365" lon="11.1277302"><ele>37.400000000000006</ele><time>2026-04-11T10:21:09.897Z</time></trkpt><trkpt lat="43.8259723" lon="11.1278579"><ele>37.599999999999994</ele><time>2026-04-11T10:21:11.887Z</time></trkpt><trkpt lat="43.8260207" lon="11.128001"><ele>37.8</ele><time>2026-04-11T10:21:13.888Z</time></trkpt><trkpt lat="43.8261037" lon="11.1280971"><ele>38.0</ele><time>2026-04-11T10:21:15.906Z</time></trkpt><trkpt lat="43.8261697" lon="11.1280838"><ele>38.0</ele><time>2026-04-11T10:21:16.893Z</time></trkpt><trkpt lat="43.8262417" lon="11.1280243"><ele>38.0</ele><time>2026-04-11T10:21:17.9Z</time></trkpt><trkpt lat="43.8262984" lon="11.1279297"><ele>38.0</ele><time>2026-04-11T10:21:18.894Z</time></trkpt><trkpt lat="43.8263323" lon="11.127811"><ele>38.0</ele><time>2026-04-11T10:21:19.896Z</time></trkpt><trkpt lat="43.8263298" lon="11.1276848"><ele>38.0</ele><time>2026-04-11T10:21:20.896Z</time></trkpt><trkpt lat="43.8262937" lon="11.1275563"><ele>38.0</ele><time>2026-04-11T10:21:21.896Z</time></trkpt><trkpt lat="43.8262383" lon="11.1274324"><ele>38.0</ele><time>2026-04-11T10:21:22.891Z</time></trkpt><trkpt lat="43.8261985" lon="11.1273076"><ele>38.0</ele><time>2026-04-11T10:21:23.905Z</time></trkpt><trkpt lat="43.8261845" lon="11.1271833"><ele>38.0</ele><time>2026-04-11T10:21:24.9Z</time></trkpt><trkpt lat="43.8262144" lon="11.1270572"><ele>38.0</ele><time>2026-04-11T10:21:25.901Z</time></trkpt><trkpt lat="43.8262776" lon="11.1269437"><ele>38.0</ele><time>2026-04-11T10:21:26.897Z</time></trkpt><trkpt lat="43.8263477" lon="11.1268318"><ele>38.0</ele><time>2026-04-11T10:21:27.899Z</time></trkpt><trkpt lat="43.8264093" lon="11.1267257"><ele>38.0</ele><time>2026-04-11T10:21:28.893Z</time></trkpt><trkpt lat="43.8264549" lon="11.1266151"><ele>38.0</ele><time>2026-04-11T10:21:29.894Z</time></trkpt><trkpt lat="43.8265036" lon="11.1264989"><ele>38.0</ele><time>2026-04-11T10:21:30.902Z</time></trkpt><trkpt lat="43.8265481" lon="11.1263737"><ele>37.75</ele><time>2026-04-11T10:21:31.894Z</time></trkpt><trkpt lat="43.8266051" lon="11.1262401"><ele>37.5</ele><time>2026-04-11T10:21:32.903Z</time></trkpt><trkpt lat="43.8266668" lon="11.1261081"><ele>37.25</ele><time>2026-04-11T10:21:33.896Z</time></trkpt><trkpt lat="43.8267326" lon="11.1259638"><ele>37.0</ele><time>2026-04-11T10:21:34.889Z</time></trkpt><trkpt lat="43.8268108" lon="11.1258019"><ele>36.66666666666667</ele><time>2026-04-11T10:21:35.895Z</time></trkpt><trkpt lat="43.8268899" lon="11.125631"><ele>36.333333333333336</ele><time>2026-04-11T10:21:36.897Z</time></trkpt><trkpt lat="43.8269773" lon="11.1254484"><ele>36.0</ele><time>2026-04-11T10:21:37.888Z</time></trkpt><trkpt lat="43.8270628" lon="11.1252665"><ele>36.0</ele><time>2026-04-11T10:21:38.898Z</time></trkpt><trkpt lat="43.8271444" lon="11.1250884"><ele>36.0</ele><time>2026-04-11T10:21:39.888Z</time></trkpt><trkpt lat="43.8272227" lon="11.1249072"><ele>36.0</ele><time>2026-04-11T10:21:40.903Z</time></trkpt><trkpt lat="43.8272979" lon="11.124732"><ele>35.75</ele><time>2026-04-11T10:21:41.902Z</time></trkpt><trkpt lat="43.8273688" lon="11.1245531"><ele>35.5</ele><time>2026-04-11T10:21:42.893Z</time></trkpt><trkpt lat="43.8274319" lon="11.1243905"><ele>35.25</ele><time>2026-04-11T10:21:43.889Z</time></trkpt><trkpt lat="43.8274949" lon="11.1242414"><ele>35.0</ele><time>2026-04-11T10:21:44.892Z</time></trkpt><trkpt lat="43.827557" lon="11.1241054"><ele>35.4</ele><time>2026-04-11T10:21:45.889Z</time></trkpt><trkpt lat="43.8276101" lon="11.123972"><ele>35.8</ele><time>2026-04-11T10:21:46.907Z</time></trkpt><trkpt lat="43.8276645" lon="11.123842"><ele>36.2</ele><time>2026-04-11T10:21:47.891Z</time></trkpt><trkpt lat="43.8277148" lon="11.1237138"><ele>36.6</ele><time>2026-04-11T10:21:48.9Z</time></trkpt><trkpt lat="43.8277645" lon="11.1235781"><ele>37.0</ele><time>2026-04-11T10:21:49.897Z</time></trkpt><trkpt lat="43.827811" lon="11.1234499"><ele>37.0</ele><time>2026-04-11T10:21:50.9Z</time></trkpt><trkpt lat="43.827854" lon="11.123326"><ele>37.0</ele><time>2026-04-11T10:21:51.901Z</time></trkpt><trkpt lat="43.8278896" lon="11.1232015"><ele>37.0</ele><time>2026-04-11T10:21:52.901Z</time></trkpt><trkpt lat="43.8279303" lon="11.1230704"><ele>37.0</ele><time>2026-04-11T10:21:53.903Z</time></trkpt><trkpt lat="43.827968" lon="11.1229443"><ele>37.0</ele><time>2026-04-11T10:21:54.9Z</time></trkpt><trkpt lat="43.828006" lon="11.1228279"><ele>37.0</ele><time>2026-04-11T10:21:55.9Z</time></trkpt><trkpt lat="43.8280431" lon="11.1227201"><ele>37.0</ele><time>2026-04-11T10:21:56.895Z</time></trkpt><trkpt lat="43.8280818" lon="11.1226198"><ele>37.0</ele><time>2026-04-11T10:21:57.889Z</time></trkpt><trkpt lat="43.8281205" lon="11.1225361"><ele>37.0</ele><time>2026-04-11T10:21:58.896Z</time></trkpt><trkpt lat="43.8282134" lon="11.1223986"><ele>37.0</ele><time>2026-04-11T10:22:00.9Z</time></trkpt><trkpt lat="43.8282677" lon="11.1223049"><ele>36.75</ele><time>2026-04-11T10:22:01.9Z</time></trkpt><trkpt lat="43.8283301" lon="11.1221725"><ele>36.5</ele><time>2026-04-11T10:22:02.894Z</time></trkpt><trkpt lat="43.8283935" lon="11.1220237"><ele>36.25</ele><time>2026-04-11T10:22:03.897Z</time></trkpt><trkpt lat="43.8284617" lon="11.1218289"><ele>36.0</ele><time>2026-04-11T10:22:04.89Z</time></trkpt><trkpt lat="43.8285226" lon="11.1215922"><ele>35.333333333333336</ele><time>2026-04-11T10:22:05.891Z</time></trkpt><trkpt lat="43.8285518" lon="11.1213109"><ele>34.66666666666667</ele><time>2026-04-11T10:22:06.893Z</time></trkpt><trkpt lat="43.8285645" lon="11.1210839"><ele>34.0</ele><time>2026-04-11T10:22:07.886Z</time></trkpt><trkpt lat="43.8285746" lon="11.1209153"><ele>34.0</ele><time>2026-04-11T10:22:08.89Z</time></trkpt><trkpt lat="43.8285899" lon="11.1207716"><ele>34.0</ele><time>2026-04-11T10:22:09.886Z</time></trkpt><trkpt lat="43.8285994" lon="11.1206546"><ele>34.0</ele><time>2026-04-11T10:22:10.891Z</time></trkpt><trkpt lat="43.8286113" lon="11.1205408"><ele>34.0</ele><time>2026-04-11T10:22:11.897Z</time></trkpt><trkpt lat="43.8286286" lon="11.1204213"><ele>34.0</ele><time>2026-04-11T10:22:12.901Z</time></trkpt><trkpt lat="43.828647" lon="11.1203211"><ele>34.0</ele><time>2026-04-11T10:22:13.889Z</time></trkpt><trkpt lat="43.8286783" lon="11.1201917"><ele>34.333333333333336</ele><time>2026-04-11T10:22:15.892Z</time></trkpt><trkpt lat="43.8287019" lon="11.1201067"><ele>34.66666666666667</ele><time>2026-04-11T10:22:19.904Z</time></trkpt><trkpt lat="43.828751" lon="11.1200274"><ele>35.0</ele><time>2026-04-11T10:22:22.901Z</time></trkpt><trkpt lat="43.8288265" lon="11.1200128"><ele>35.333333333333336</ele><time>2026-04-11T10:22:25.913Z</time></trkpt><trkpt lat="43.828918" lon="11.1200144"><ele>35.666666666666664</ele><time>2026-04-11T10:22:28.908Z</time></trkpt><trkpt lat="43.8290115" lon="11.1200538"><ele>36.0</ele><time>2026-04-11T10:22:30.91Z</time></trkpt><trkpt lat="43.8290682" lon="11.1201001"><ele>36.0</ele><time>2026-04-11T10:22:31.898Z</time></trkpt><trkpt lat="43.8291326" lon="11.1201482"><ele>36.0</ele><time>2026-04-11T10:22:32.899Z</time></trkpt><trkpt lat="43.829206" lon="11.1201999"><ele>36.0</ele><time>2026-04-11T10:22:33.899Z</time></trkpt><trkpt lat="43.8292887" lon="11.1202572"><ele>36.0</ele><time>2026-04-11T10:22:34.9Z</time></trkpt><trkpt lat="43.829386" lon="11.120324"><ele>36.0</ele><time>2026-04-11T10:22:35.891Z</time></trkpt><trkpt lat="43.8295074" lon="11.1203966"><ele>35.666666666666664</ele><time>2026-04-11T10:22:36.895Z</time></trkpt><trkpt lat="43.8296431" lon="11.1204752"><ele>35.33333333333333</ele><time>2026-04-11T10:22:37.892Z</time></trkpt><trkpt lat="43.8297989" lon="11.1205476"><ele>35.0</ele><time>2026-04-11T10:22:38.895Z</time></trkpt><trkpt lat="43.8299747" lon="11.1206205"><ele>35.0</ele><time>2026-04-11T10:22:39.892Z</time></trkpt><trkpt lat="43.8301667" lon="11.1206908"><ele>35.0</ele><time>2026-04-11T10:22:40.895Z</time></trkpt><trkpt lat="43.830359" lon="11.1207651"><ele>35.0</ele><time>2026-04-11T10:22:41.894Z</time></trkpt><trkpt lat="43.830549" lon="11.1208519"><ele>35.0</ele><time>2026-04-11T10:22:42.896Z</time></trkpt><trkpt lat="43.8307343" lon="11.120951"><ele>35.0</ele><time>2026-04-11T10:22:43.898Z</time></trkpt><trkpt lat="43.830913" lon="11.1210604"><ele>35.0</ele><time>2026-04-11T10:22:44.895Z</time></trkpt><trkpt lat="43.8310794" lon="11.1211714"><ele>35.0</ele><time>2026-04-11T10:22:45.892Z</time></trkpt><trkpt lat="43.8312183" lon="11.1212757"><ele>35.0</ele><time>2026-04-11T10:22:46.894Z</time></trkpt><trkpt lat="43.8313291" lon="11.1213633"><ele>35.0</ele><time>2026-04-11T10:22:47.894Z</time></trkpt><trkpt lat="43.8314162" lon="11.1214416"><ele>35.0</ele><time>2026-04-11T10:22:48.905Z</time></trkpt><trkpt lat="43.8314648" lon="11.1215002"><ele>34.8</ele><time>2026-04-11T10:22:49.89Z</time></trkpt><trkpt lat="43.8315349" lon="11.1215992"><ele>34.6</ele><time>2026-04-11T10:22:51.891Z</time></trkpt><trkpt lat="43.831579" lon="11.1216787"><ele>34.4</ele><time>2026-04-11T10:22:52.9Z</time></trkpt><trkpt lat="43.831644" lon="11.1218061"><ele>34.2</ele><time>2026-04-11T10:22:53.901Z</time></trkpt><trkpt lat="43.8317457" lon="11.1219537"><ele>34.0</ele><time>2026-04-11T10:22:54.902Z</time></trkpt><trkpt lat="43.8318538" lon="11.1221119"><ele>34.66666666666667</ele><time>2026-04-11T10:22:55.892Z</time></trkpt><trkpt lat="43.8319956" lon="11.1222851"><ele>35.333333333333336</ele><time>2026-04-11T10:22:56.885Z</time></trkpt><trkpt lat="43.8321519" lon="11.122466"><ele>36.0</ele><time>2026-04-11T10:22:57.892Z</time></trkpt><trkpt lat="43.8323152" lon="11.1226324"><ele>36.0</ele><time>2026-04-11T10:22:58.892Z</time></trkpt><trkpt lat="43.83247" lon="11.1227848"><ele>36.0</ele><time>2026-04-11T10:22:59.893Z</time></trkpt><trkpt lat="43.8325968" lon="11.122913"><ele>36.0</ele><time>2026-04-11T10:23:00.891Z</time></trkpt><trkpt lat="43.8327052" lon="11.1230373"><ele>36.25</ele><time>2026-04-11T10:23:01.887Z</time></trkpt><trkpt lat="43.8327957" lon="11.1231469"><ele>36.5</ele><time>2026-04-11T10:23:02.896Z</time></trkpt><trkpt lat="43.832884" lon="11.123251"><ele>36.75</ele><time>2026-04-11T10:23:03.888Z</time></trkpt><trkpt lat="43.8329817" lon="11.1233636"><ele>37.0</ele><time>2026-04-11T10:23:04.891Z</time></trkpt><trkpt lat="43.8331026" lon="11.1234716"><ele>37.0</ele><time>2026-04-11T10:23:05.887Z</time></trkpt><trkpt lat="43.8332279" lon="11.1235773"><ele>37.0</ele><time>2026-04-11T10:23:06.889Z</time></trkpt><trkpt lat="43.833357" lon="11.1237008"><ele>37.0</ele><time>2026-04-11T10:23:07.887Z</time></trkpt><trkpt lat="43.8334901" lon="11.123822"><ele>37.0</ele><time>2026-04-11T10:23:08.893Z</time></trkpt><trkpt lat="43.833628" lon="11.1239433"><ele>37.0</ele><time>2026-04-11T10:23:09.89Z</time></trkpt><trkpt lat="43.8337677" lon="11.1240755"><ele>37.0</ele><time>2026-04-11T10:23:10.889Z</time></trkpt><trkpt lat="43.833911" lon="11.1242165"><ele>37.0</ele><time>2026-04-11T10:23:11.888Z</time></trkpt><trkpt lat="43.8340602" lon="11.124364"><ele>37.0</ele><time>2026-04-11T10:23:12.891Z</time></trkpt><trkpt lat="43.8342039" lon="11.1245133"><ele>37.0</ele><time>2026-04-11T10:23:13.89Z</time></trkpt><trkpt lat="43.8343538" lon="11.1246523"><ele>36.75</ele><time>2026-04-11T10:23:14.89Z</time></trkpt><trkpt lat="43.8345006" lon="11.1247494"><ele>36.5</ele><time>2026-04-11T10:23:15.888Z</time></trkpt><trkpt lat="43.834632" lon="11.124804"><ele>36.25</ele><time>2026-04-11T10:23:16.891Z</time></trkpt><trkpt lat="43.8347613" lon="11.1248321"><ele>36.0</ele><time>2026-04-11T10:23:17.891Z</time></trkpt><trkpt lat="43.8348778" lon="11.124802"><ele>36.0</ele><time>2026-04-11T10:23:18.892Z</time></trkpt><trkpt lat="43.8349906" lon="11.1247346"><ele>36.0</ele><time>2026-04-11T10:23:19.907Z</time></trkpt><trkpt lat="43.8350912" lon="11.1246067"><ele>36.0</ele><time>2026-04-11T10:23:20.891Z</time></trkpt><trkpt lat="43.835187" lon="11.1244552"><ele>36.0</ele><time>2026-04-11T10:23:21.898Z</time></trkpt><trkpt lat="43.8352913" lon="11.1243029"><ele>36.0</ele><time>2026-04-11T10:23:22.894Z</time></trkpt><trkpt lat="43.8354169" lon="11.124154"><ele>36.0</ele><time>2026-04-11T10:23:23.895Z</time></trkpt><trkpt lat="43.8355349" lon="11.1240403"><ele>36.0</ele><time>2026-04-11T10:23:24.895Z</time></trkpt><trkpt lat="43.8356533" lon="11.1239736"><ele>36.0</ele><time>2026-04-11T10:23:25.893Z</time></trkpt><trkpt lat="43.8357825" lon="11.1239272"><ele>35.8</ele><time>2026-04-11T10:23:26.896Z</time></trkpt><trkpt lat="43.8359137" lon="11.1239239"><ele>35.6</ele><time>2026-04-11T10:23:27.89Z</time></trkpt><trkpt lat="43.8360408" lon="11.1239409"><ele>35.4</ele><time>2026-04-11T10:23:28.894Z</time></trkpt><trkpt lat="43.8361433" lon="11.1239543"><ele>35.2</ele><time>2026-04-11T10:23:29.887Z</time></trkpt><trkpt lat="43.8362267" lon="11.1239757"><ele>35.0</ele><time>2026-04-11T10:23:30.901Z</time></trkpt><trkpt lat="43.8362881" lon="11.124041"><ele>35.4</ele><time>2026-04-11T10:23:32.889Z</time></trkpt><trkpt lat="43.8363303" lon="11.1241857"><ele>35.8</ele><time>2026-04-11T10:23:34.891Z</time></trkpt><trkpt lat="43.8363713" lon="11.1242889"><ele>36.2</ele><time>2026-04-11T10:23:35.893Z</time></trkpt><trkpt lat="43.8364319" lon="11.1243847"><ele>36.6</ele><time>2026-04-11T10:23:36.888Z</time></trkpt><trkpt lat="43.8365072" lon="11.1244663"><ele>37.0</ele><time>2026-04-11T10:23:37.889Z</time></trkpt><trkpt lat="43.8365958" lon="11.1245109"><ele>37.0</ele><time>2026-04-11T10:23:38.893Z</time></trkpt><trkpt lat="43.8366981" lon="11.1245104"><ele>37.0</ele><time>2026-04-11T10:23:39.892Z</time></trkpt><trkpt lat="43.8368155" lon="11.1244766"><ele>37.0</ele><time>2026-04-11T10:23:40.891Z</time></trkpt><trkpt lat="43.8369369" lon="11.124447"><ele>37.0</ele><time>2026-04-11T10:23:41.893Z</time></trkpt><trkpt lat="43.8370614" lon="11.1244511"><ele>37.0</ele><time>2026-04-11T10:23:42.902Z</time></trkpt><trkpt lat="43.83719" lon="11.1245079"><ele>37.0</ele><time>2026-04-11T10:23:43.901Z</time></trkpt><trkpt lat="43.8373154" lon="11.124591"><ele>37.0</ele><time>2026-04-11T10:23:44.892Z</time></trkpt><trkpt lat="43.8374462" lon="11.1246891"><ele>37.0</ele><time>2026-04-11T10:23:45.886Z</time></trkpt><trkpt lat="43.8375869" lon="11.1248055"><ele>37.66666666666667</ele><time>2026-04-11T10:23:46.891Z</time></trkpt><trkpt lat="43.8377293" lon="11.1249279"><ele>38.333333333333336</ele><time>2026-04-11T10:23:47.89Z</time></trkpt><trkpt lat="43.8378724" lon="11.1250613"><ele>39.0</ele><time>2026-04-11T10:23:48.889Z</time></trkpt><trkpt lat="43.838015" lon="11.1252054"><ele>39.0</ele><time>2026-04-11T10:23:49.89Z</time></trkpt><trkpt lat="43.8381642" lon="11.1253607"><ele>39.0</ele><time>2026-04-11T10:23:50.903Z</time></trkpt><trkpt lat="43.8383168" lon="11.1255299"><ele>39.0</ele><time>2026-04-11T10:23:51.889Z</time></trkpt><trkpt lat="43.8384685" lon="11.1257076"><ele>39.0</ele><time>2026-04-11T10:23:52.895Z</time></trkpt><trkpt lat="43.8386098" lon="11.1259017"><ele>39.0</ele><time>2026-04-11T10:23:53.889Z</time></trkpt><trkpt lat="43.8387498" lon="11.1261003"><ele>39.0</ele><time>2026-04-11T10:23:54.891Z</time></trkpt><trkpt lat="43.8388767" lon="11.1263048"><ele>39.0</ele><time>2026-04-11T10:23:55.89Z</time></trkpt><trkpt lat="43.8390048" lon="11.1265206"><ele>39.0</ele><time>2026-04-11T10:23:56.886Z</time></trkpt><trkpt lat="43.8391292" lon="11.1267479"><ele>39.0</ele><time>2026-04-11T10:23:57.891Z</time></trkpt><trkpt lat="43.83924" lon="11.1269899"><ele>39.666666666666664</ele><time>2026-04-11T10:23:58.891Z</time></trkpt><trkpt lat="43.8393454" lon="11.1272232"><ele>40.33333333333333</ele><time>2026-04-11T10:23:59.896Z</time></trkpt><trkpt lat="43.8394446" lon="11.1274495"><ele>41.0</ele><time>2026-04-11T10:24:00.897Z</time></trkpt><trkpt lat="43.8395357" lon="11.1276696"><ele>41.0</ele><time>2026-04-11T10:24:01.887Z</time></trkpt><trkpt lat="43.8396096" lon="11.12787"><ele>41.0</ele><time>2026-04-11T10:24:02.898Z</time></trkpt><trkpt lat="43.8396721" lon="11.1280523"><ele>41.0</ele><time>2026-04-11T10:24:03.888Z</time></trkpt><trkpt lat="43.8397228" lon="11.12822"><ele>41.0</ele><time>2026-04-11T10:24:04.891Z</time></trkpt><trkpt lat="43.8397513" lon="11.1283686"><ele>41.0</ele><time>2026-04-11T10:24:05.887Z</time></trkpt><trkpt lat="43.839769" lon="11.128519"><ele>41.0</ele><time>2026-04-11T10:24:06.888Z</time></trkpt><trkpt lat="43.8397789" lon="11.1286787"><ele>41.0</ele><time>2026-04-11T10:24:07.89Z</time></trkpt><trkpt lat="43.839787" lon="11.1288186"><ele>41.0</ele><time>2026-04-11T10:24:08.894Z</time></trkpt><trkpt lat="43.8398081" lon="11.128938"><ele>41.0</ele><time>2026-04-11T10:24:09.888Z</time></trkpt><trkpt lat="43.8398389" lon="11.1290435"><ele>40.83333333333333</ele><time>2026-04-11T10:24:10.887Z</time></trkpt><trkpt lat="43.8398743" lon="11.1291383"><ele>40.666666666666664</ele><time>2026-04-11T10:24:11.895Z</time></trkpt><trkpt lat="43.8399347" lon="11.1291738"><ele>40.5</ele><time>2026-04-11T10:24:12.891Z</time></trkpt><trkpt lat="43.8400073" lon="11.1291575"><ele>40.333333333333336</ele><time>2026-04-11T10:24:13.892Z</time></trkpt><trkpt lat="43.8400775" lon="11.1291177"><ele>40.16666666666667</ele><time>2026-04-11T10:24:14.902Z</time></trkpt><trkpt lat="43.8401435" lon="11.1290446"><ele>40.0</ele><time>2026-04-11T10:24:15.888Z</time></trkpt><trkpt lat="43.8402017" lon="11.1289544"><ele>40.4</ele><time>2026-04-11T10:24:16.896Z</time></trkpt><trkpt lat="43.8402497" lon="11.1288387"><ele>40.8</ele><time>2026-04-11T10:24:17.891Z</time></trkpt><trkpt lat="43.8403024" lon="11.1287105"><ele>41.2</ele><time>2026-04-11T10:24:18.889Z</time></trkpt><trkpt lat="43.8403635" lon="11.1285929"><ele>41.6</ele><time>2026-04-11T10:24:19.891Z</time></trkpt><trkpt lat="43.840459" lon="11.128468"><ele>42.0</ele><time>2026-04-11T10:24:20.888Z</time></trkpt><trkpt lat="43.8406025" lon="11.1283343"><ele>41.5</ele><time>2026-04-11T10:24:21.902Z</time></trkpt><trkpt lat="43.8408085" lon="11.1281585"><ele>41.0</ele><time>2026-04-11T10:24:22.884Z</time></trkpt><trkpt lat="43.8410298" lon="11.1279539"><ele>42.0</ele><time>2026-04-11T10:24:23.885Z</time></trkpt><trkpt lat="43.8412344" lon="11.1277612"><ele>43.0</ele><time>2026-04-11T10:24:24.886Z</time></trkpt><trkpt lat="43.8413939" lon="11.1275895"><ele>44.0</ele><time>2026-04-11T10:24:25.884Z</time></trkpt><trkpt lat="43.8415306" lon="11.127423"><ele>44.25</ele><time>2026-04-11T10:24:26.89Z</time></trkpt><trkpt lat="43.8416495" lon="11.1272803"><ele>44.5</ele><time>2026-04-11T10:24:27.892Z</time></trkpt><trkpt lat="43.8417634" lon="11.1271547"><ele>44.75</ele><time>2026-04-11T10:24:28.893Z</time></trkpt><trkpt lat="43.8418683" lon="11.1270487"><ele>45.0</ele><time>2026-04-11T10:24:29.897Z</time></trkpt><trkpt lat="43.8419818" lon="11.1269492"><ele>45.25</ele><time>2026-04-11T10:24:30.9Z</time></trkpt><trkpt lat="43.8420892" lon="11.1268705"><ele>45.5</ele><time>2026-04-11T10:24:31.889Z</time></trkpt><trkpt lat="43.8421924" lon="11.1267911"><ele>45.75</ele><time>2026-04-11T10:24:32.888Z</time></trkpt><trkpt lat="43.8422992" lon="11.1267123"><ele>46.0</ele><time>2026-04-11T10:24:33.887Z</time></trkpt><trkpt lat="43.8424109" lon="11.1266418"><ele>46.0</ele><time>2026-04-11T10:24:34.891Z</time></trkpt><trkpt lat="43.8425304" lon="11.1265801"><ele>46.0</ele><time>2026-04-11T10:24:35.895Z</time></trkpt><trkpt lat="43.8426538" lon="11.126536"><ele>46.0</ele><time>2026-04-11T10:24:36.896Z</time></trkpt><trkpt lat="43.84278" lon="11.1264956"><ele>46.0</ele><time>2026-04-11T10:24:37.886Z</time></trkpt><trkpt lat="43.8429099" lon="11.1264725"><ele>45.0</ele><time>2026-04-11T10:24:38.894Z</time></trkpt><trkpt lat="43.8430498" lon="11.1264632"><ele>44.0</ele><time>2026-04-11T10:24:39.888Z</time></trkpt><trkpt lat="43.8432183" lon="11.1264738"><ele>43.0</ele><time>2026-04-11T10:24:40.89Z</time></trkpt><trkpt lat="43.8434486" lon="11.1264852"><ele>43.333333333333336</ele><time>2026-04-11T10:24:41.885Z</time></trkpt><trkpt lat="43.8436637" lon="11.1264899"><ele>43.666666666666664</ele><time>2026-04-11T10:24:42.884Z</time></trkpt><trkpt lat="43.8438733" lon="11.1264874"><ele>44.0</ele><time>2026-04-11T10:24:43.879Z</time></trkpt><trkpt lat="43.8440729" lon="11.1264848"><ele>44.0</ele><time>2026-04-11T10:24:44.878Z</time></trkpt><trkpt lat="43.8442626" lon="11.1264765"><ele>44.0</ele><time>2026-04-11T10:24:45.878Z</time></trkpt><trkpt lat="43.8444452" lon="11.1264671"><ele>44.0</ele><time>2026-04-11T10:24:46.88Z</time></trkpt><trkpt lat="43.8446172" lon="11.1264492"><ele>44.666666666666664</ele><time>2026-04-11T10:24:47.884Z</time></trkpt><trkpt lat="43.8447731" lon="11.1264423"><ele>45.333333333333336</ele><time>2026-04-11T10:24:48.888Z</time></trkpt><trkpt lat="43.8449203" lon="11.1264344"><ele>46.0</ele><time>2026-04-11T10:24:49.886Z</time></trkpt><trkpt lat="43.8450688" lon="11.1264314"><ele>45.66666666666667</ele><time>2026-04-11T10:24:50.9Z</time></trkpt><trkpt lat="43.8452236" lon="11.126425"><ele>45.333333333333336</ele><time>2026-04-11T10:24:51.895Z</time></trkpt><trkpt lat="43.8453818" lon="11.1264177"><ele>45.0</ele><time>2026-04-11T10:24:52.908Z</time></trkpt><trkpt lat="43.8455289" lon="11.126414"><ele>45.0</ele><time>2026-04-11T10:24:53.901Z</time></trkpt><trkpt lat="43.8456869" lon="11.1264052"><ele>45.0</ele><time>2026-04-11T10:24:54.897Z</time></trkpt><trkpt lat="43.8458568" lon="11.1263963"><ele>45.0</ele><time>2026-04-11T10:24:55.897Z</time></trkpt><trkpt lat="43.8460312" lon="11.1263926"><ele>45.333333333333336</ele><time>2026-04-11T10:24:56.901Z</time></trkpt><trkpt lat="43.8462037" lon="11.1263814"><ele>45.66666666666667</ele><time>2026-04-11T10:24:57.887Z</time></trkpt><trkpt lat="43.8463736" lon="11.1263626"><ele>46.0</ele><time>2026-04-11T10:24:58.882Z</time></trkpt><trkpt lat="43.8465211" lon="11.1263358"><ele>46.0</ele><time>2026-04-11T10:24:59.891Z</time></trkpt><trkpt lat="43.8466462" lon="11.1262812"><ele>46.0</ele><time>2026-04-11T10:25:00.887Z</time></trkpt><trkpt lat="43.8467713" lon="11.1262181"><ele>46.0</ele><time>2026-04-11T10:25:01.883Z</time></trkpt><trkpt lat="43.8469028" lon="11.1261439"><ele>46.0</ele><time>2026-04-11T10:25:02.887Z</time></trkpt><trkpt lat="43.8470225" lon="11.1260653"><ele>45.75</ele><time>2026-04-11T10:25:03.887Z</time></trkpt><trkpt lat="43.8471382" lon="11.1259622"><ele>45.5</ele><time>2026-04-11T10:25:04.885Z</time></trkpt><trkpt lat="43.847248" lon="11.1258464"><ele>45.25</ele><time>2026-04-11T10:25:05.886Z</time></trkpt><trkpt lat="43.8473451" lon="11.1257271"><ele>45.0</ele><time>2026-04-11T10:25:06.888Z</time></trkpt><trkpt lat="43.8474331" lon="11.1255969"><ele>44.8</ele><time>2026-04-11T10:25:07.887Z</time></trkpt><trkpt lat="43.8475002" lon="11.1254705"><ele>44.6</ele><time>2026-04-11T10:25:08.884Z</time></trkpt><trkpt lat="43.847562" lon="11.1253499"><ele>44.400000000000006</ele><time>2026-04-11T10:25:09.895Z</time></trkpt><trkpt lat="43.8476203" lon="11.1252653"><ele>44.2</ele><time>2026-04-11T10:25:10.889Z</time></trkpt><trkpt lat="43.847698" lon="11.1251939"><ele>44.0</ele><time>2026-04-11T10:25:12.883Z</time></trkpt><trkpt lat="43.8477666" lon="11.1251774"><ele>44.0</ele><time>2026-04-11T10:25:14.887Z</time></trkpt><trkpt lat="43.8478744" lon="11.1251434"><ele>44.0</ele><time>2026-04-11T10:25:16.891Z</time></trkpt><trkpt lat="43.847942" lon="11.125073"><ele>44.0</ele><time>2026-04-11T10:25:17.889Z</time></trkpt><trkpt lat="43.8480365" lon="11.1249626"><ele>44.0</ele><time>2026-04-11T10:25:18.885Z</time></trkpt><trkpt lat="43.8481394" lon="11.1248333"><ele>44.0</ele><time>2026-04-11T10:25:19.885Z</time></trkpt><trkpt lat="43.8482563" lon="11.1246859"><ele>44.0</ele><time>2026-04-11T10:25:20.885Z</time></trkpt><trkpt lat="43.8484085" lon="11.1245161"><ele>44.0</ele><time>2026-04-11T10:25:21.886Z</time></trkpt><trkpt lat="43.8486263" lon="11.124289"><ele>44.5</ele><time>2026-04-11T10:25:22.887Z</time></trkpt><trkpt lat="43.8488397" lon="11.1240894"><ele>45.0</ele><time>2026-04-11T10:25:23.898Z</time></trkpt><trkpt lat="43.8490168" lon="11.1239234"><ele>45.0</ele><time>2026-04-11T10:25:24.882Z</time></trkpt><trkpt lat="43.8491565" lon="11.1237598"><ele>45.0</ele><time>2026-04-11T10:25:25.897Z</time></trkpt><trkpt lat="43.8492895" lon="11.1236246"><ele>45.0</ele><time>2026-04-11T10:25:26.899Z</time></trkpt><trkpt lat="43.8494161" lon="11.1234998"><ele>45.0</ele><time>2026-04-11T10:25:27.891Z</time></trkpt><trkpt lat="43.849527" lon="11.1233731"><ele>45.0</ele><time>2026-04-11T10:25:28.894Z</time></trkpt><trkpt lat="43.849651" lon="11.1232401"><ele>45.0</ele><time>2026-04-11T10:25:29.891Z</time></trkpt><trkpt lat="43.8497645" lon="11.1231164"><ele>45.0</ele><time>2026-04-11T10:25:30.891Z</time></trkpt><trkpt lat="43.8498648" lon="11.1230078"><ele>45.0</ele><time>2026-04-11T10:25:31.896Z</time></trkpt><trkpt lat="43.8499612" lon="11.1229039"><ele>45.0</ele><time>2026-04-11T10:25:32.883Z</time></trkpt><trkpt lat="43.8500617" lon="11.122796"><ele>45.0</ele><time>2026-04-11T10:25:33.898Z</time></trkpt><trkpt lat="43.8501597" lon="11.122689"><ele>45.0</ele><time>2026-04-11T10:25:34.896Z</time></trkpt><trkpt lat="43.8502625" lon="11.1225983"><ele>44.75</ele><time>2026-04-11T10:25:35.885Z</time></trkpt><trkpt lat="43.8503653" lon="11.1225134"><ele>44.5</ele><time>2026-04-11T10:25:36.898Z</time></trkpt><trkpt lat="43.8504848" lon="11.1224563"><ele>44.25</ele><time>2026-04-11T10:25:37.897Z</time></trkpt><trkpt lat="43.8506113" lon="11.1224143"><ele>44.0</ele><time>2026-04-11T10:25:38.885Z</time></trkpt><trkpt lat="43.8507362" lon="11.1223872"><ele>44.5</ele><time>2026-04-11T10:25:39.887Z</time></trkpt><trkpt lat="43.8508647" lon="11.1223821"><ele>45.0</ele><time>2026-04-11T10:25:40.895Z</time></trkpt><trkpt lat="43.8509951" lon="11.1224054"><ele>45.5</ele><time>2026-04-11T10:25:41.889Z</time></trkpt><trkpt lat="43.8511217" lon="11.1224453"><ele>46.0</ele><time>2026-04-11T10:25:42.9Z</time></trkpt><trkpt lat="43.8512494" lon="11.1225064"><ele>46.0</ele><time>2026-04-11T10:25:43.896Z</time></trkpt><trkpt lat="43.8513762" lon="11.1225839"><ele>46.0</ele><time>2026-04-11T10:25:44.9Z</time></trkpt><trkpt lat="43.8514957" lon="11.1226675"><ele>46.0</ele><time>2026-04-11T10:25:45.897Z</time></trkpt><trkpt lat="43.8516224" lon="11.12276"><ele>46.0</ele><time>2026-04-11T10:25:46.882Z</time></trkpt><trkpt lat="43.8517465" lon="11.1229169"><ele>47.0</ele><time>2026-04-11T10:25:47.883Z</time></trkpt><trkpt lat="43.8518747" lon="11.1230423"><ele>48.0</ele><time>2026-04-11T10:25:48.891Z</time></trkpt><trkpt lat="43.8520055" lon="11.1231392"><ele>49.0</ele><time>2026-04-11T10:25:49.902Z</time></trkpt><trkpt lat="43.8521531" lon="11.1232164"><ele>48.5</ele><time>2026-04-11T10:25:50.903Z</time></trkpt><trkpt lat="43.8523107" lon="11.1232786"><ele>48.0</ele><time>2026-04-11T10:25:51.893Z</time></trkpt><trkpt lat="43.8524537" lon="11.1233261"><ele>47.5</ele><time>2026-04-11T10:25:52.889Z</time></trkpt><trkpt lat="43.8525555" lon="11.1233734"><ele>47.0</ele><time>2026-04-11T10:25:53.894Z</time></trkpt><trkpt lat="43.8526478" lon="11.1234314"><ele>47.0</ele><time>2026-04-11T10:25:54.919Z</time></trkpt><trkpt lat="43.8527219" lon="11.1235115"><ele>47.0</ele><time>2026-04-11T10:25:55.898Z</time></trkpt><trkpt lat="43.8527768" lon="11.1236147"><ele>47.0</ele><time>2026-04-11T10:25:56.902Z</time></trkpt><trkpt lat="43.8528424" lon="11.1236692"><ele>47.0</ele><time>2026-04-11T10:25:57.886Z</time></trkpt><trkpt lat="43.852917" lon="11.1237076"><ele>47.0</ele><time>2026-04-11T10:25:58.893Z</time></trkpt><trkpt lat="43.8530122" lon="11.1237162"><ele>47.0</ele><time>2026-04-11T10:25:59.89Z</time></trkpt><trkpt lat="43.8531222" lon="11.1237221"><ele>47.0</ele><time>2026-04-11T10:26:00.889Z</time></trkpt><trkpt lat="43.8532371" lon="11.1237522"><ele>47.0</ele><time>2026-04-11T10:26:01.888Z</time></trkpt><trkpt lat="43.853374" lon="11.1237981"><ele>47.0</ele><time>2026-04-11T10:26:02.886Z</time></trkpt><trkpt lat="43.8535335" lon="11.1238618"><ele>47.0</ele><time>2026-04-11T10:26:03.88Z</time></trkpt><trkpt lat="43.8537265" lon="11.123947"><ele>47.0</ele><time>2026-04-11T10:26:04.893Z</time></trkpt><trkpt lat="43.8539212" lon="11.1240313"><ele>47.0</ele><time>2026-04-11T10:26:05.892Z</time></trkpt><trkpt lat="43.8540939" lon="11.1241035"><ele>47.0</ele><time>2026-04-11T10:26:06.887Z</time></trkpt><trkpt lat="43.8542568" lon="11.1241372"><ele>47.0</ele><time>2026-04-11T10:26:07.879Z</time></trkpt><trkpt lat="43.8544135" lon="11.1241343"><ele>47.0</ele><time>2026-04-11T10:26:08.888Z</time></trkpt><trkpt lat="43.8545824" lon="11.1241119"><ele>47.0</ele><time>2026-04-11T10:26:09.891Z</time></trkpt><trkpt lat="43.8547379" lon="11.1240501"><ele>47.0</ele><time>2026-04-11T10:26:10.893Z</time></trkpt><trkpt lat="43.8548814" lon="11.1239678"><ele>47.0</ele><time>2026-04-11T10:26:11.886Z</time></trkpt><trkpt lat="43.8549878" lon="11.1238778"><ele>47.0</ele><time>2026-04-11T10:26:12.889Z</time></trkpt><trkpt lat="43.855071" lon="11.1237858"><ele>47.0</ele><time>2026-04-11T10:26:13.878Z</time></trkpt><trkpt lat="43.8551358" lon="11.1237004"><ele>47.0</ele><time>2026-04-11T10:26:14.893Z</time></trkpt><trkpt lat="43.8551862" lon="11.123648"><ele>47.0</ele><time>2026-04-11T10:26:15.897Z</time></trkpt><trkpt lat="43.8552451" lon="11.1236095"><ele>47.0</ele><time>2026-04-11T10:26:16.89Z</time></trkpt><trkpt lat="43.8552964" lon="11.1235577"><ele>47.0</ele><time>2026-04-11T10:26:17.892Z</time></trkpt><trkpt lat="43.8553476" lon="11.1234658"><ele>47.0</ele><time>2026-04-11T10:26:18.887Z</time></trkpt><trkpt lat="43.8554112" lon="11.12334"><ele>47.0</ele><time>2026-04-11T10:26:19.886Z</time></trkpt><trkpt lat="43.8554809" lon="11.1232067"><ele>47.5</ele><time>2026-04-11T10:26:20.895Z</time></trkpt><trkpt lat="43.8555597" lon="11.1230652"><ele>48.0</ele><time>2026-04-11T10:26:21.893Z</time></trkpt><trkpt lat="43.8556502" lon="11.1229089"><ele>48.5</ele><time>2026-04-11T10:26:22.893Z</time></trkpt><trkpt lat="43.8557524" lon="11.1227397"><ele>49.0</ele><time>2026-04-11T10:26:23.885Z</time></trkpt><trkpt lat="43.8558841" lon="11.1225459"><ele>48.666666666666664</ele><time>2026-04-11T10:26:24.902Z</time></trkpt><trkpt lat="43.8560359" lon="11.1223431"><ele>48.33333333333333</ele><time>2026-04-11T10:26:25.914Z</time></trkpt><trkpt lat="43.8561876" lon="11.1221428"><ele>48.0</ele><time>2026-04-11T10:26:26.899Z</time></trkpt><trkpt lat="43.8563409" lon="11.1219434"><ele>48.0</ele><time>2026-04-11T10:26:27.897Z</time></trkpt><trkpt lat="43.8564774" lon="11.1217583"><ele>48.0</ele><time>2026-04-11T10:26:28.895Z</time></trkpt><trkpt lat="43.8566086" lon="11.1215981"><ele>48.0</ele><time>2026-04-11T10:26:29.901Z</time></trkpt><trkpt lat="43.8567367" lon="11.1214596"><ele>48.25</ele><time>2026-04-11T10:26:30.902Z</time></trkpt><trkpt lat="43.8568523" lon="11.1213498"><ele>48.5</ele><time>2026-04-11T10:26:31.893Z</time></trkpt><trkpt lat="43.8569758" lon="11.1212782"><ele>48.75</ele><time>2026-04-11T10:26:32.903Z</time></trkpt><trkpt lat="43.8571179" lon="11.1212333"><ele>49.0</ele><time>2026-04-11T10:26:33.898Z</time></trkpt><trkpt lat="43.8572854" lon="11.1212311"><ele>49.0</ele><time>2026-04-11T10:26:34.896Z</time></trkpt><trkpt lat="43.8574544" lon="11.121211"><ele>49.0</ele><time>2026-04-11T10:26:35.888Z</time></trkpt><trkpt lat="43.8576063" lon="11.1211875"><ele>49.0</ele><time>2026-04-11T10:26:36.879Z</time></trkpt><trkpt lat="43.8577519" lon="11.1211714"><ele>49.25</ele><time>2026-04-11T10:26:37.895Z</time></trkpt><trkpt lat="43.857888" lon="11.1211397"><ele>49.5</ele><time>2026-04-11T10:26:38.892Z</time></trkpt><trkpt lat="43.8580012" lon="11.1210504"><ele>49.75</ele><time>2026-04-11T10:26:39.894Z</time></trkpt><trkpt lat="43.8580992" lon="11.1209134"><ele>50.0</ele><time>2026-04-11T10:26:40.888Z</time></trkpt><trkpt lat="43.8581953" lon="11.1207102"><ele>50.0</ele><time>2026-04-11T10:26:41.884Z</time></trkpt><trkpt lat="43.8582808" lon="11.120509"><ele>50.0</ele><time>2026-04-11T10:26:42.883Z</time></trkpt><trkpt lat="43.8583614" lon="11.1203105"><ele>50.0</ele><time>2026-04-11T10:26:43.886Z</time></trkpt><trkpt lat="43.8584335" lon="11.1201355"><ele>50.0</ele><time>2026-04-11T10:26:44.887Z</time></trkpt><trkpt lat="43.8584929" lon="11.1199707"><ele>50.0</ele><time>2026-04-11T10:26:45.878Z</time></trkpt><trkpt lat="43.8585658" lon="11.1198317"><ele>50.0</ele><time>2026-04-11T10:26:46.883Z</time></trkpt><trkpt lat="43.8586447" lon="11.1197239"><ele>50.0</ele><time>2026-04-11T10:26:47.89Z</time></trkpt><trkpt lat="43.8587721" lon="11.1196213"><ele>50.333333333333336</ele><time>2026-04-11T10:26:48.886Z</time></trkpt><trkpt lat="43.8589121" lon="11.1195357"><ele>50.66666666666667</ele><time>2026-04-11T10:26:49.886Z</time></trkpt><trkpt lat="43.8590619" lon="11.1194473"><ele>51.0</ele><time>2026-04-11T10:26:50.891Z</time></trkpt><trkpt lat="43.8592152" lon="11.1193668"><ele>51.0</ele><time>2026-04-11T10:26:51.879Z</time></trkpt><trkpt lat="43.859352" lon="11.1192743"><ele>51.0</ele><time>2026-04-11T10:26:52.888Z</time></trkpt><trkpt lat="43.8594746" lon="11.1192036"><ele>51.0</ele><time>2026-04-11T10:26:53.881Z</time></trkpt><trkpt lat="43.8595731" lon="11.1191512"><ele>51.0</ele><time>2026-04-11T10:26:54.879Z</time></trkpt><trkpt lat="43.8596865" lon="11.119075"><ele>51.66666666666667</ele><time>2026-04-11T10:26:55.88Z</time></trkpt><trkpt lat="43.8598111" lon="11.1189688"><ele>52.333333333333336</ele><time>2026-04-11T10:26:56.896Z</time></trkpt><trkpt lat="43.8599519" lon="11.118827"><ele>53.0</ele><time>2026-04-11T10:26:57.889Z</time></trkpt><trkpt lat="43.8601111" lon="11.1186947"><ele>52.599999999999994</ele><time>2026-04-11T10:26:58.89Z</time></trkpt><trkpt lat="43.8602503" lon="11.1185813"><ele>52.199999999999996</ele><time>2026-04-11T10:26:59.884Z</time></trkpt><trkpt lat="43.8603651" lon="11.1184998"><ele>51.8</ele><time>2026-04-11T10:27:00.887Z</time></trkpt><trkpt lat="43.8604314" lon="11.1184561"><ele>51.4</ele><time>2026-04-11T10:27:01.884Z</time></trkpt><trkpt lat="43.8603827" lon="11.1183731"><ele>51.0</ele><time>2026-04-11T10:27:05.883Z</time></trkpt><trkpt lat="43.8603104" lon="11.1183438"><ele>51.0</ele><time>2026-04-11T10:27:06.884Z</time></trkpt><trkpt lat="43.8602359" lon="11.1183095"><ele>51.0</ele><time>2026-04-11T10:27:07.872Z</time></trkpt><trkpt lat="43.8601466" lon="11.1182465"><ele>51.0</ele><time>2026-04-11T10:27:09.877Z</time></trkpt></trkseg></trk></gpx>